<?xml version='1.0' encoding='UTF-8'?><gpx version="1.1" creator="JPX - https://github.com/jenetics/jpx" xmlns="http://www.topografix.com/GPX/1/1"><trk><trkseg><trkpt lat="44.26859104909741" lon="11.873623179450604"><ele>40.0</ele><time>2026-04-03T10:09:49Z</time></trkpt><trkpt lat="44.268648954712745" lon="11.873687053362088"><ele>40.0</ele><time>2026-04-03T10:09:50Z</time></trkpt><trkpt lat="44.268730852339544" lon="11.873737054912176"><ele>40.0</ele><time>2026-04-03T10:09:51Z</time></trkpt><trkpt lat="44.26883494699712" lon="11.87377545558062"><ele>40.0</ele><time>2026-04-03T10:09:52Z</time></trkpt><trkpt lat="44.26894681250799" lon="11.873817096902435"><ele>40.0</ele><time>2026-04-03T10:09:53Z</time></trkpt><trkpt lat="44.26906876584843" lon="11.87386689666954"><ele>39.75</ele><time>2026-04-03T10:09:54Z</time></trkpt><trkpt lat="44.26919324723363" lon="11.87392229791724"><ele>39.5</ele><time>2026-04-03T10:09:55Z</time></trkpt><trkpt lat="44.269326437139505" lon="11.873980256035473"><ele>39.25</ele><time>2026-04-03T10:09:56Z</time></trkpt><trkpt lat="44.26946548028261" lon="11.874037404919576"><ele>39.0</ele><time>2026-04-03T10:09:57Z</time></trkpt><trkpt lat="44.26961040224142" lon="11.874099106398624"><ele>39.0</ele><time>2026-04-03T10:09:58Z</time></trkpt><trkpt lat="44.269760949150914" lon="11.874164040760762"><ele>39.0</ele><time>2026-04-03T10:09:59Z</time></trkpt><trkpt lat="44.269916312904186" lon="11.874233166477111"><ele>39.0</ele><time>2026-04-03T10:10:00Z</time></trkpt><trkpt lat="44.27008250756857" lon="11.874304360884906"><ele>39.0</ele><time>2026-04-03T10:10:01Z</time></trkpt><trkpt lat="44.27027254100393" lon="11.874382906487453"><ele>39.0</ele><time>2026-04-03T10:10:02Z</time></trkpt><trkpt lat="44.270468368743494" lon="11.87447038563818"><ele>39.0</ele><time>2026-04-03T10:10:03Z</time></trkpt><trkpt lat="44.270668124511126" lon="11.874550394292298"><ele>38.0</ele><time>2026-04-03T10:10:04Z</time></trkpt><trkpt lat="44.27087026685985" lon="11.874634436626"><ele>37.0</ele><time>2026-04-03T10:10:05Z</time></trkpt><trkpt lat="44.271083203798334" lon="11.874726472127495"><ele>36.0</ele><time>2026-04-03T10:10:06Z</time></trkpt><trkpt lat="44.27129274580449" lon="11.874816072717358"><ele>36.0</ele><time>2026-04-03T10:10:07Z</time></trkpt><trkpt lat="44.27148668633134" lon="11.874890399309693"><ele>36.0</ele><time>2026-04-03T10:10:08Z</time></trkpt><trkpt lat="44.271674733736035" lon="11.874957619345567"><ele>36.0</ele><time>2026-04-03T10:10:09Z</time></trkpt><trkpt lat="44.271869476423646" lon="11.875022550716896"><ele>36.0</ele><time>2026-04-03T10:10:10Z</time></trkpt><trkpt lat="44.27205374432433" lon="11.875077359883889"><ele>36.0</ele><time>2026-04-03T10:10:11Z</time></trkpt><trkpt lat="44.272220823054234" lon="11.875110969359831"><ele>36.0</ele><time>2026-04-03T10:10:12Z</time></trkpt><trkpt lat="44.27239493651243" lon="11.875105365737397"><ele>35.666666666666664</ele><time>2026-04-03T10:10:13Z</time></trkpt><trkpt lat="44.27256913931918" lon="11.875067976543425"><ele>35.33333333333333</ele><time>2026-04-03T10:10:14Z</time></trkpt><trkpt lat="44.272740268054044" lon="11.875023993259042"><ele>35.0</ele><time>2026-04-03T10:10:15Z</time></trkpt><trkpt lat="44.27290065587104" lon="11.874983151201432"><ele>35.0</ele><time>2026-04-03T10:10:16Z</time></trkpt><trkpt lat="44.27304947195084" lon="11.874951112872592"><ele>35.0</ele><time>2026-04-03T10:10:17Z</time></trkpt><trkpt lat="44.2731844531665" lon="11.87493086903373"><ele>35.0</ele><time>2026-04-03T10:10:18Z</time></trkpt><trkpt lat="44.273309758449805" lon="11.874909100495836"><ele>35.0</ele><time>2026-04-03T10:10:19Z</time></trkpt><trkpt lat="44.2734154505918" lon="11.874889360826065"><ele>34.166666666666664</ele><time>2026-04-03T10:10:20Z</time></trkpt><trkpt lat="44.27350711166192" lon="11.874870155894289"><ele>33.33333333333333</ele><time>2026-04-03T10:10:21Z</time></trkpt><trkpt lat="44.27358838525175" lon="11.874854707337958"><ele>32.5</ele><time>2026-04-03T10:10:22Z</time></trkpt><trkpt lat="44.273680942555" lon="11.874841065103075"><ele>31.666666666666664</ele><time>2026-04-03T10:10:24Z</time></trkpt><trkpt lat="44.27375196796312" lon="11.87482601016337"><ele>30.833333333333332</ele><time>2026-04-03T10:10:28Z</time></trkpt><trkpt lat="44.27375808323937" lon="11.87469801352936"><ele>30.0</ele><time>2026-04-03T10:10:31Z</time></trkpt><trkpt lat="44.273683412378354" lon="11.87459744016619"><ele>30.0</ele><time>2026-04-03T10:10:32Z</time></trkpt><trkpt lat="44.27362928325178" lon="11.87447366799244"><ele>30.0</ele><time>2026-04-03T10:10:33Z</time></trkpt><trkpt lat="44.27355540027399" lon="11.874347459801314"><ele>30.0</ele><time>2026-04-03T10:10:34Z</time></trkpt><trkpt lat="44.273469299588676" lon="11.874229401601056"><ele>30.0</ele><time>2026-04-03T10:10:35Z</time></trkpt><trkpt lat="44.27338707290971" lon="11.874077537422577"><ele>30.333333333333336</ele><time>2026-04-03T10:10:36Z</time></trkpt><trkpt lat="44.27330132552363" lon="11.873915338659698"><ele>30.666666666666668</ele><time>2026-04-03T10:10:37Z</time></trkpt><trkpt lat="44.27321109449848" lon="11.873736676381805"><ele>31.0</ele><time>2026-04-03T10:10:38Z</time></trkpt><trkpt lat="44.273115643017455" lon="11.873563899346948"><ele>32.333333333333336</ele><time>2026-04-03T10:10:39Z</time></trkpt><trkpt lat="44.273021008107484" lon="11.873377531630128"><ele>33.666666666666664</ele><time>2026-04-03T10:10:40Z</time></trkpt><trkpt lat="44.27290331610433" lon="11.87319830677948"><ele>35.0</ele><time>2026-04-03T10:10:41Z</time></trkpt><trkpt lat="44.27278167315858" lon="11.873021159144303"><ele>35.0</ele><time>2026-04-03T10:10:42Z</time></trkpt><trkpt lat="44.272666975091184" lon="11.872846943138144"><ele>35.0</ele><time>2026-04-03T10:10:43Z</time></trkpt><trkpt lat="44.272561060322346" lon="11.872699607789041"><ele>35.0</ele><time>2026-04-03T10:10:44Z</time></trkpt><trkpt lat="44.27246491221425" lon="11.872559586058397"><ele>34.8</ele><time>2026-04-03T10:10:45Z</time></trkpt><trkpt lat="44.27238719560528" lon="11.87242447353895"><ele>34.6</ele><time>2026-04-03T10:10:45.999Z</time></trkpt><trkpt lat="44.272336739928974" lon="11.872308132132106"><ele>34.4</ele><time>2026-04-03T10:10:46.999Z</time></trkpt><trkpt lat="44.272337150814344" lon="11.872193926143561"><ele>34.2</ele><time>2026-04-03T10:10:47.999Z</time></trkpt><trkpt lat="44.27238677548261" lon="11.872084742880054"><ele>34.0</ele><time>2026-04-03T10:10:48.999Z</time></trkpt><trkpt lat="44.272491966819885" lon="11.872011738777653"><ele>34.0</ele><time>2026-04-03T10:10:49.999Z</time></trkpt><trkpt lat="44.272577855004535" lon="11.871898913680647"><ele>34.0</ele><time>2026-04-03T10:10:50.999Z</time></trkpt><trkpt lat="44.2726855399797" lon="11.87174434692738"><ele>34.0</ele><time>2026-04-03T10:10:51.999Z</time></trkpt><trkpt lat="44.27280961152378" lon="11.871614940575709"><ele>34.0</ele><time>2026-04-03T10:10:52.999Z</time></trkpt><trkpt lat="44.27295977443861" lon="11.871435439508456"><ele>34.66666666666667</ele><time>2026-04-03T10:10:53.999Z</time></trkpt><trkpt lat="44.27308796421212" lon="11.871259354581582"><ele>35.333333333333336</ele><time>2026-04-03T10:10:54.999Z</time></trkpt><trkpt lat="44.27320001218537" lon="11.871122569384942"><ele>36.0</ele><time>2026-04-03T10:10:55.999Z</time></trkpt><trkpt lat="44.273273494694095" lon="11.870953112352744"><ele>34.333333333333336</ele><time>2026-04-03T10:10:56.999Z</time></trkpt><trkpt lat="44.27331699816121" lon="11.870714638020866"><ele>32.66666666666667</ele><time>2026-04-03T10:10:57.999Z</time></trkpt><trkpt lat="44.27334008903368" lon="11.870432314980258"><ele>31.0</ele><time>2026-04-03T10:10:58.999Z</time></trkpt><trkpt lat="44.27340021014281" lon="11.87016495600564"><ele>31.333333333333336</ele><time>2026-04-03T10:10:59.999Z</time></trkpt><trkpt lat="44.27350867716041" lon="11.869933796249661"><ele>31.666666666666664</ele><time>2026-04-03T10:11:00.999Z</time></trkpt><trkpt lat="44.273623521205984" lon="11.869699677443542"><ele>32.0</ele><time>2026-04-03T10:11:01.999Z</time></trkpt><trkpt lat="44.27374572549656" lon="11.869465177443173"><ele>32.0</ele><time>2026-04-03T10:11:02.999Z</time></trkpt><trkpt lat="44.273851355924656" lon="11.869236852073959"><ele>32.0</ele><time>2026-04-03T10:11:03.999Z</time></trkpt><trkpt lat="44.27395976901581" lon="11.86904419379093"><ele>32.0</ele><time>2026-04-03T10:11:04.999Z</time></trkpt><trkpt lat="44.27405507706343" lon="11.868871501961888"><ele>32.0</ele><time>2026-04-03T10:11:05.999Z</time></trkpt><trkpt lat="44.27412796354271" lon="11.86871915400623"><ele>32.0</ele><time>2026-04-03T10:11:06.999Z</time></trkpt><trkpt lat="44.27416119986371" lon="11.868581184925466"><ele>32.0</ele><time>2026-04-03T10:11:07.999Z</time></trkpt><trkpt lat="44.27414715477292" lon="11.868429688473645"><ele>32.0</ele><time>2026-04-03T10:11:08.999Z</time></trkpt><trkpt lat="44.274076252425644" lon="11.86828419267347"><ele>32.0</ele><time>2026-04-03T10:11:09.999Z</time></trkpt><trkpt lat="44.27397883939892" lon="11.868133881355403"><ele>32.0</ele><time>2026-04-03T10:11:10.999Z</time></trkpt><trkpt lat="44.27389334782136" lon="11.867948709897052"><ele>32.0</ele><time>2026-04-03T10:11:11.999Z</time></trkpt><trkpt lat="44.2737891168092" lon="11.867761310316824"><ele>33.0</ele><time>2026-04-03T10:11:12.999Z</time></trkpt><trkpt lat="44.273679350008905" lon="11.867564026852492"><ele>34.0</ele><time>2026-04-03T10:11:13.999Z</time></trkpt><trkpt lat="44.27354819236432" lon="11.867380473491101"><ele>35.0</ele><time>2026-04-03T10:11:15Z</time></trkpt><trkpt lat="44.27342268334833" lon="11.867186559455444"><ele>35.0</ele><time>2026-04-03T10:11:16Z</time></trkpt><trkpt lat="44.27327550994062" lon="11.867011849423937"><ele>35.0</ele><time>2026-04-03T10:11:17Z</time></trkpt><trkpt lat="44.27310833483057" lon="11.866845334214318"><ele>35.0</ele><time>2026-04-03T10:11:18Z</time></trkpt><trkpt lat="44.272945724542254" lon="11.866680945839368"><ele>35.666666666666664</ele><time>2026-04-03T10:11:19Z</time></trkpt><trkpt lat="44.27279480171832" lon="11.866481478470082"><ele>36.333333333333336</ele><time>2026-04-03T10:11:20Z</time></trkpt><trkpt lat="44.27263912278998" lon="11.866303619595266"><ele>37.0</ele><time>2026-04-03T10:11:21Z</time></trkpt><trkpt lat="44.272483455642714" lon="11.866121664513624"><ele>36.66666666666667</ele><time>2026-04-03T10:11:22Z</time></trkpt><trkpt lat="44.27233039121476" lon="11.8659361824093"><ele>36.333333333333336</ele><time>2026-04-03T10:11:23Z</time></trkpt><trkpt lat="44.272168419187636" lon="11.865741526362376"><ele>36.0</ele><time>2026-04-03T10:11:24Z</time></trkpt><trkpt lat="44.272006582995665" lon="11.86558215375777"><ele>36.0</ele><time>2026-04-03T10:11:25Z</time></trkpt><trkpt lat="44.27185816106682" lon="11.865431412665888"><ele>36.0</ele><time>2026-04-03T10:11:26Z</time></trkpt><trkpt lat="44.271688545023174" lon="11.865317996737392"><ele>36.0</ele><time>2026-04-03T10:11:27Z</time></trkpt><trkpt lat="44.27150275726151" lon="11.865238539244876"><ele>36.0</ele><time>2026-04-03T10:11:28Z</time></trkpt><trkpt lat="44.27129119269716" lon="11.865167314144394"><ele>36.0</ele><time>2026-04-03T10:11:29Z</time></trkpt><trkpt lat="44.271083798322735" lon="11.865095421823963"><ele>36.0</ele><time>2026-04-03T10:11:30Z</time></trkpt><trkpt lat="44.27087683032335" lon="11.86499091235657"><ele>36.0</ele><time>2026-04-03T10:11:31Z</time></trkpt><trkpt lat="44.270657540251705" lon="11.864901442641305"><ele>36.0</ele><time>2026-04-03T10:11:32Z</time></trkpt><trkpt lat="44.270442870366516" lon="11.864813239764848"><ele>35.666666666666664</ele><time>2026-04-03T10:11:33Z</time></trkpt><trkpt lat="44.27023275181962" lon="11.864730048804534"><ele>35.33333333333333</ele><time>2026-04-03T10:11:34Z</time></trkpt><trkpt lat="44.270030998562035" lon="11.864678978825214"><ele>35.0</ele><time>2026-04-03T10:11:35Z</time></trkpt><trkpt lat="44.26984828177816" lon="11.864586983023857"><ele>36.666666666666664</ele><time>2026-04-03T10:11:36Z</time></trkpt><trkpt lat="44.26967575169829" lon="11.864518842193313"><ele>38.333333333333336</ele><time>2026-04-03T10:11:37Z</time></trkpt><trkpt lat="44.269519794844896" lon="11.864436038455578"><ele>40.0</ele><time>2026-04-03T10:11:38Z</time></trkpt><trkpt lat="44.26938934952263" lon="11.864308517740023"><ele>40.333333333333336</ele><time>2026-04-03T10:11:39Z</time></trkpt><trkpt lat="44.26925996177564" lon="11.864144694206303"><ele>40.666666666666664</ele><time>2026-04-03T10:11:40Z</time></trkpt><trkpt lat="44.26912457752176" lon="11.863968962529297"><ele>41.0</ele><time>2026-04-03T10:11:41Z</time></trkpt><trkpt lat="44.26897681151039" lon="11.863796223295257"><ele>41.666666666666664</ele><time>2026-04-03T10:11:42Z</time></trkpt><trkpt lat="44.26883028289847" lon="11.863604986565653"><ele>42.333333333333336</ele><time>2026-04-03T10:11:43Z</time></trkpt><trkpt lat="44.268697885007086" lon="11.86339505362607"><ele>43.0</ele><time>2026-04-03T10:11:44Z</time></trkpt><trkpt lat="44.26857420537262" lon="11.863169941500376"><ele>43.0</ele><time>2026-04-03T10:11:45Z</time></trkpt><trkpt lat="44.268442800432354" lon="11.86294869039203"><ele>43.0</ele><time>2026-04-03T10:11:46Z</time></trkpt><trkpt lat="44.26834191656146" lon="11.862718312441258"><ele>43.0</ele><time>2026-04-03T10:11:47Z</time></trkpt><trkpt lat="44.26828943443279" lon="11.862484323127012"><ele>43.0</ele><time>2026-04-03T10:11:48Z</time></trkpt><trkpt lat="44.26824807414659" lon="11.862235224051224"><ele>43.0</ele><time>2026-04-03T10:11:49Z</time></trkpt><trkpt lat="44.26818364013956" lon="11.861976529927169"><ele>43.0</ele><time>2026-04-03T10:11:50Z</time></trkpt><trkpt lat="44.268107778120616" lon="11.861722788900426"><ele>43.0</ele><time>2026-04-03T10:11:51Z</time></trkpt><trkpt lat="44.267986780073514" lon="11.861484223420996"><ele>43.0</ele><time>2026-04-03T10:11:52Z</time></trkpt><trkpt lat="44.26786571668574" lon="11.861239258882744"><ele>43.0</ele><time>2026-04-03T10:11:53Z</time></trkpt><trkpt lat="44.26777104973526" lon="11.860963686423693"><ele>43.333333333333336</ele><time>2026-04-03T10:11:54Z</time></trkpt><trkpt lat="44.26767483905508" lon="11.860697569502266"><ele>43.666666666666664</ele><time>2026-04-03T10:11:55Z</time></trkpt><trkpt lat="44.26756563305309" lon="11.860442872009179"><ele>44.0</ele><time>2026-04-03T10:11:56Z</time></trkpt><trkpt lat="44.26747577114454" lon="11.860199065816236"><ele>43.666666666666664</ele><time>2026-04-03T10:11:57Z</time></trkpt><trkpt lat="44.267359282529114" lon="11.859986957158297"><ele>43.333333333333336</ele><time>2026-04-03T10:11:58Z</time></trkpt><trkpt lat="44.267217919698005" lon="11.859794961452646"><ele>43.0</ele><time>2026-04-03T10:11:59Z</time></trkpt><trkpt lat="44.26704561973083" lon="11.859640236643232"><ele>43.0</ele><time>2026-04-03T10:12:00Z</time></trkpt><trkpt lat="44.26685637009519" lon="11.859514944130396"><ele>43.0</ele><time>2026-04-03T10:12:01Z</time></trkpt><trkpt lat="44.26666894654344" lon="11.859403951723952"><ele>43.0</ele><time>2026-04-03T10:12:02Z</time></trkpt><trkpt lat="44.26648851391274" lon="11.859283142258668"><ele>43.0</ele><time>2026-04-03T10:12:03Z</time></trkpt><trkpt lat="44.266323724068165" lon="11.859117237650565"><ele>43.0</ele><time>2026-04-03T10:12:04Z</time></trkpt><trkpt lat="44.26617283425459" lon="11.858943235678286"><ele>43.0</ele><time>2026-04-03T10:12:05Z</time></trkpt><trkpt lat="44.26605382289645" lon="11.858736406978622"><ele>43.0</ele><time>2026-04-03T10:12:06Z</time></trkpt><trkpt lat="44.2659739357826" lon="11.858486451645494"><ele>43.0</ele><time>2026-04-03T10:12:07Z</time></trkpt><trkpt lat="44.26588862136948" lon="11.858209279294329"><ele>43.0</ele><time>2026-04-03T10:12:08Z</time></trkpt><trkpt lat="44.26578711315135" lon="11.857934812757113"><ele>43.333333333333336</ele><time>2026-04-03T10:12:09Z</time></trkpt><trkpt lat="44.265669627607465" lon="11.85767323857576"><ele>43.666666666666664</ele><time>2026-04-03T10:12:10Z</time></trkpt><trkpt lat="44.265518350461655" lon="11.857436008542303"><ele>44.0</ele><time>2026-04-03T10:12:11Z</time></trkpt><trkpt lat="44.265355941716145" lon="11.85719897081283"><ele>44.5</ele><time>2026-04-03T10:12:12Z</time></trkpt><trkpt lat="44.26521875778085" lon="11.856931004401922"><ele>45.0</ele><time>2026-04-03T10:12:13Z</time></trkpt><trkpt lat="44.265077093663606" lon="11.856666655419215"><ele>46.0</ele><time>2026-04-03T10:12:14Z</time></trkpt><trkpt lat="44.26493543722624" lon="11.85640112634953"><ele>47.0</ele><time>2026-04-03T10:12:15Z</time></trkpt><trkpt lat="44.26480116003878" lon="11.856149429434867"><ele>46.5</ele><time>2026-04-03T10:12:16Z</time></trkpt><trkpt lat="44.264668948308504" lon="11.855889520185976"><ele>46.0</ele><time>2026-04-03T10:12:17Z</time></trkpt><trkpt lat="44.26454572596009" lon="11.85562634154775"><ele>46.0</ele><time>2026-04-03T10:12:18Z</time></trkpt><trkpt lat="44.26441033622127" lon="11.855395470340081"><ele>46.0</ele><time>2026-04-03T10:12:19Z</time></trkpt><trkpt lat="44.26427753275424" lon="11.855172535126746"><ele>46.0</ele><time>2026-04-03T10:12:20Z</time></trkpt><trkpt lat="44.26413891860727" lon="11.854950375334258"><ele>46.0</ele><time>2026-04-03T10:12:21Z</time></trkpt><trkpt lat="44.26402756798143" lon="11.854715520896947"><ele>46.0</ele><time>2026-04-03T10:12:22Z</time></trkpt><trkpt lat="44.263951704390884" lon="11.854474168637937"><ele>46.0</ele><time>2026-04-03T10:12:23Z</time></trkpt><trkpt lat="44.263860316554826" lon="11.854245739331702"><ele>46.0</ele><time>2026-04-03T10:12:24Z</time></trkpt><trkpt lat="44.26376098717195" lon="11.854017151210686"><ele>46.0</ele><time>2026-04-03T10:12:25Z</time></trkpt><trkpt lat="44.26361822502987" lon="11.853847552792287"><ele>46.0</ele><time>2026-04-03T10:12:26Z</time></trkpt><trkpt lat="44.26345230996814" lon="11.853698533904417"><ele>46.0</ele><time>2026-04-03T10:12:27Z</time></trkpt><trkpt lat="44.26325676482272" lon="11.853571675579252"><ele>46.0</ele><time>2026-04-03T10:12:28Z</time></trkpt><trkpt lat="44.26306669348099" lon="11.853424466356788"><ele>46.0</ele><time>2026-04-03T10:12:29Z</time></trkpt><trkpt lat="44.26286996246108" lon="11.853311451734816"><ele>46.333333333333336</ele><time>2026-04-03T10:12:30Z</time></trkpt><trkpt lat="44.262673220886114" lon="11.85322319083907"><ele>46.666666666666664</ele><time>2026-04-03T10:12:31Z</time></trkpt><trkpt lat="44.26250213136736" lon="11.853070220725341"><ele>47.0</ele><time>2026-04-03T10:12:32Z</time></trkpt><trkpt lat="44.262325738268366" lon="11.852905438648376"><ele>47.33333333333333</ele><time>2026-04-03T10:12:33Z</time></trkpt><trkpt lat="44.26214526394698" lon="11.852748052369664"><ele>47.666666666666664</ele><time>2026-04-03T10:12:34Z</time></trkpt><trkpt lat="44.26193980521737" lon="11.85262911280664"><ele>48.0</ele><time>2026-04-03T10:12:35Z</time></trkpt><trkpt lat="44.2617347067403" lon="11.852535618597274"><ele>48.0</ele><time>2026-04-03T10:12:36Z</time></trkpt><trkpt lat="44.261526950649525" lon="11.852424539122916"><ele>48.0</ele><time>2026-04-03T10:12:37Z</time></trkpt><trkpt lat="44.26130886913892" lon="11.852354629229204"><ele>48.0</ele><time>2026-04-03T10:12:38Z</time></trkpt><trkpt lat="44.26109562352666" lon="11.852325632414502"><ele>48.0</ele><time>2026-04-03T10:12:39Z</time></trkpt><trkpt lat="44.260890542594915" lon="11.852260548000022"><ele>48.0</ele><time>2026-04-03T10:12:40Z</time></trkpt><trkpt lat="44.26068611152982" lon="11.852179722602175"><ele>48.0</ele><time>2026-04-03T10:12:41Z</time></trkpt><trkpt lat="44.26048952128228" lon="11.852078527085943"><ele>48.0</ele><time>2026-04-03T10:12:42Z</time></trkpt><trkpt lat="44.26029398010692" lon="11.851968886818808"><ele>48.0</ele><time>2026-04-03T10:12:43Z</time></trkpt><trkpt lat="44.26009951521239" lon="11.851860643502864"><ele>48.0</ele><time>2026-04-03T10:12:44Z</time></trkpt><trkpt lat="44.25991258122044" lon="11.851753087096947"><ele>48.33333333333333</ele><time>2026-04-03T10:12:45Z</time></trkpt><trkpt lat="44.25975016640735" lon="11.851627206814891"><ele>48.666666666666664</ele><time>2026-04-03T10:12:46Z</time></trkpt><trkpt lat="44.25959123807468" lon="11.85147714253196"><ele>49.0</ele><time>2026-04-03T10:12:47Z</time></trkpt><trkpt lat="44.25944701386604" lon="11.851325923477777"><ele>49.0</ele><time>2026-04-03T10:12:48Z</time></trkpt><trkpt lat="44.25932880994015" lon="11.851181452781614"><ele>49.0</ele><time>2026-04-03T10:12:49Z</time></trkpt><trkpt lat="44.25922648299052" lon="11.851012341908499"><ele>49.0</ele><time>2026-04-03T10:12:50Z</time></trkpt><trkpt lat="44.25912701543362" lon="11.85081355719463"><ele>49.33333333333333</ele><time>2026-04-03T10:12:51Z</time></trkpt><trkpt lat="44.259014933825334" lon="11.850601433790612"><ele>49.66666666666667</ele><time>2026-04-03T10:12:52Z</time></trkpt><trkpt lat="44.25888586321028" lon="11.850388576971541"><ele>50.0</ele><time>2026-04-03T10:12:53Z</time></trkpt><trkpt lat="44.25874663664774" lon="11.850166751276848"><ele>51.5</ele><time>2026-04-03T10:12:54Z</time></trkpt><trkpt lat="44.2585911165819" lon="11.849936772230496"><ele>53.0</ele><time>2026-04-03T10:12:55Z</time></trkpt><trkpt lat="44.25842876205691" lon="11.849700379621906"><ele>53.0</ele><time>2026-04-03T10:12:56Z</time></trkpt><trkpt lat="44.25827312718738" lon="11.849474773727671"><ele>53.0</ele><time>2026-04-03T10:12:57Z</time></trkpt><trkpt lat="44.25812271039167" lon="11.849251435775509"><ele>53.0</ele><time>2026-04-03T10:12:58Z</time></trkpt><trkpt lat="44.25798199858339" lon="11.849034754542476"><ele>52.66666666666667</ele><time>2026-04-03T10:12:59Z</time></trkpt><trkpt lat="44.257838524146365" lon="11.84882030712796"><ele>52.33333333333333</ele><time>2026-04-03T10:13:00Z</time></trkpt><trkpt lat="44.25770101497693" lon="11.848606700560556"><ele>52.0</ele><time>2026-04-03T10:13:01Z</time></trkpt><trkpt lat="44.25756599083256" lon="11.84838436799576"><ele>52.0</ele><time>2026-04-03T10:13:01.999Z</time></trkpt><trkpt lat="44.257430880602335" lon="11.848148496838204"><ele>52.0</ele><time>2026-04-03T10:13:02.999Z</time></trkpt><trkpt lat="44.257304482129044" lon="11.847886423800476"><ele>52.0</ele><time>2026-04-03T10:13:03.999Z</time></trkpt><trkpt lat="44.25718920903338" lon="11.84761836357347"><ele>52.33333333333333</ele><time>2026-04-03T10:13:04.999Z</time></trkpt><trkpt lat="44.25706349136019" lon="11.84736008380057"><ele>52.66666666666667</ele><time>2026-04-03T10:13:05.999Z</time></trkpt><trkpt lat="44.25693338349036" lon="11.8471194706039"><ele>53.0</ele><time>2026-04-03T10:13:06.999Z</time></trkpt><trkpt lat="44.25679422853726" lon="11.84687827892118"><ele>52.66666666666667</ele><time>2026-04-03T10:13:07.999Z</time></trkpt><trkpt lat="44.25664808151566" lon="11.846646043591281"><ele>52.33333333333333</ele><time>2026-04-03T10:13:08.999Z</time></trkpt><trkpt lat="44.25651016791959" lon="11.846416579956008"><ele>52.0</ele><time>2026-04-03T10:13:09.999Z</time></trkpt><trkpt lat="44.25635637881709" lon="11.846206317885951"><ele>53.0</ele><time>2026-04-03T10:13:10.999Z</time></trkpt><trkpt lat="44.25620223799539" lon="11.846015254924902"><ele>54.0</ele><time>2026-04-03T10:13:11.999Z</time></trkpt><trkpt lat="44.25603959077208" lon="11.845824076776045"><ele>55.0</ele><time>2026-04-03T10:13:12.999Z</time></trkpt><trkpt lat="44.25588415455827" lon="11.84562366128858"><ele>55.0</ele><time>2026-04-03T10:13:13.999Z</time></trkpt><trkpt lat="44.25572821194336" lon="11.845421582372234"><ele>55.0</ele><time>2026-04-03T10:13:14.999Z</time></trkpt><trkpt lat="44.25557482074717" lon="11.845230830144951"><ele>55.0</ele><time>2026-04-03T10:13:15.999Z</time></trkpt><trkpt lat="44.255417793243346" lon="11.845034902901673"><ele>55.33333333333333</ele><time>2026-04-03T10:13:16.999Z</time></trkpt><trkpt lat="44.25527341503831" lon="11.84485467587231"><ele>55.66666666666667</ele><time>2026-04-03T10:13:17.999Z</time></trkpt><trkpt lat="44.25514176363745" lon="11.844684598430415"><ele>56.0</ele><time>2026-04-03T10:13:18.999Z</time></trkpt><trkpt lat="44.25501951024838" lon="11.84452804876314"><ele>56.0</ele><time>2026-04-03T10:13:19.999Z</time></trkpt><trkpt lat="44.254879563329524" lon="11.844367483561971"><ele>56.0</ele><time>2026-04-03T10:13:21Z</time></trkpt><trkpt lat="44.25471407704681" lon="11.844243708163857"><ele>56.0</ele><time>2026-04-03T10:13:22Z</time></trkpt><trkpt lat="44.25452960560463" lon="11.844155690127273"><ele>56.66666666666667</ele><time>2026-04-03T10:13:23Z</time></trkpt><trkpt lat="44.25435270803242" lon="11.844041981971065"><ele>57.33333333333333</ele><time>2026-04-03T10:13:24Z</time></trkpt><trkpt lat="44.25420369410955" lon="11.843865834051297"><ele>58.0</ele><time>2026-04-03T10:13:25Z</time></trkpt><trkpt lat="44.25408273413178" lon="11.843621097676575"><ele>58.33333333333333</ele><time>2026-04-03T10:13:26Z</time></trkpt><trkpt lat="44.25396742507731" lon="11.843361420538637"><ele>58.66666666666667</ele><time>2026-04-03T10:13:27Z</time></trkpt><trkpt lat="44.253840654176926" lon="11.84311214000343"><ele>59.0</ele><time>2026-04-03T10:13:28Z</time></trkpt><trkpt lat="44.253709573967996" lon="11.842860275944503"><ele>60.0</ele><time>2026-04-03T10:13:29Z</time></trkpt><trkpt lat="44.2535844834823" lon="11.84259670510747"><ele>61.0</ele><time>2026-04-03T10:13:30Z</time></trkpt><trkpt lat="44.253463012336795" lon="11.842314173623038"><ele>61.0</ele><time>2026-04-03T10:13:31Z</time></trkpt><trkpt lat="44.25334729301998" lon="11.842029979343645"><ele>61.0</ele><time>2026-04-03T10:13:32Z</time></trkpt><trkpt lat="44.253231541019304" lon="11.841757283528905"><ele>60.33333333333333</ele><time>2026-04-03T10:13:33Z</time></trkpt><trkpt lat="44.253104660634264" lon="11.841498477317547"><ele>59.66666666666667</ele><time>2026-04-03T10:13:34Z</time></trkpt><trkpt lat="44.25296975421488" lon="11.841271197158111"><ele>59.0</ele><time>2026-04-03T10:13:35Z</time></trkpt><trkpt lat="44.252829830228066" lon="11.841084988936213"><ele>59.66666666666667</ele><time>2026-04-03T10:13:36Z</time></trkpt><trkpt lat="44.25269751047358" lon="11.840926311619187"><ele>60.33333333333333</ele><time>2026-04-03T10:13:37Z</time></trkpt><trkpt lat="44.25258053995105" lon="11.840797180941292"><ele>61.0</ele><time>2026-04-03T10:13:38Z</time></trkpt><trkpt lat="44.25246729240556" lon="11.84070641424857"><ele>61.0</ele><time>2026-04-03T10:13:39Z</time></trkpt><trkpt lat="44.25235332629737" lon="11.840670821334934"><ele>61.0</ele><time>2026-04-03T10:13:40Z</time></trkpt><trkpt lat="44.252239071551394" lon="11.840695972815325"><ele>61.0</ele><time>2026-04-03T10:13:41Z</time></trkpt><trkpt lat="44.25212247292233" lon="11.84078946427366"><ele>61.0</ele><time>2026-04-03T10:13:42Z</time></trkpt><trkpt lat="44.25200376588817" lon="11.840938939968826"><ele>60.33333333333333</ele><time>2026-04-03T10:13:43Z</time></trkpt><trkpt lat="44.251870194563196" lon="11.841123244764052"><ele>59.66666666666667</ele><time>2026-04-03T10:13:44Z</time></trkpt><trkpt lat="44.251705153045926" lon="11.841337034525209"><ele>59.0</ele><time>2026-04-03T10:13:45Z</time></trkpt><trkpt lat="44.25153081337325" lon="11.84153703598253"><ele>59.66666666666667</ele><time>2026-04-03T10:13:46Z</time></trkpt><trkpt lat="44.25135693270917" lon="11.841731996358545"><ele>60.33333333333333</ele><time>2026-04-03T10:13:47Z</time></trkpt><trkpt lat="44.25116338305672" lon="11.841895249841699"><ele>61.0</ele><time>2026-04-03T10:13:48Z</time></trkpt><trkpt lat="44.25098450742093" lon="11.842101629680814"><ele>61.0</ele><time>2026-04-03T10:13:49Z</time></trkpt><trkpt lat="44.25081104920504" lon="11.842303451449114"><ele>61.0</ele><time>2026-04-03T10:13:50Z</time></trkpt><trkpt lat="44.250632181572506" lon="11.842511567152734"><ele>63.0</ele><time>2026-04-03T10:13:51Z</time></trkpt><trkpt lat="44.250461802345846" lon="11.842709856100617"><ele>65.0</ele><time>2026-04-03T10:13:52Z</time></trkpt><trkpt lat="44.25029410913347" lon="11.842905905525214"><ele>67.0</ele><time>2026-04-03T10:13:53Z</time></trkpt><trkpt lat="44.25013371681559" lon="11.843093419580583"><ele>67.0</ele><time>2026-04-03T10:13:54Z</time></trkpt><trkpt lat="44.24999299088077" lon="11.84326231016341"><ele>67.0</ele><time>2026-04-03T10:13:55Z</time></trkpt><trkpt lat="44.24985813677245" lon="11.843432744078216"><ele>67.0</ele><time>2026-04-03T10:13:56Z</time></trkpt><trkpt lat="44.24974740226311" lon="11.843573969963229"><ele>67.5</ele><time>2026-04-03T10:13:57Z</time></trkpt><trkpt lat="44.249669699246745" lon="11.843673552899752"><ele>68.0</ele><time>2026-04-03T10:13:58Z</time></trkpt><trkpt lat="44.249621498414335" lon="11.843747157920783"><ele>68.5</ele><time>2026-04-03T10:13:59Z</time></trkpt><trkpt lat="44.24955445576049" lon="11.84375437538368"><ele>69.0</ele><time>2026-04-03T10:14:00Z</time></trkpt><trkpt lat="44.249492107030754" lon="11.843693884049808"><ele>69.5</ele><time>2026-04-03T10:14:01Z</time></trkpt><trkpt lat="44.24945113897801" lon="11.843537455037435"><ele>70.0</ele><time>2026-04-03T10:14:02Z</time></trkpt><trkpt lat="44.2493523686617" lon="11.843389106279549"><ele>70.0</ele><time>2026-04-03T10:14:03Z</time></trkpt><trkpt lat="44.24922875221337" lon="11.84321741653356"><ele>70.0</ele><time>2026-04-03T10:14:04Z</time></trkpt><trkpt lat="44.24909789520254" lon="11.843029062033176"><ele>70.0</ele><time>2026-04-03T10:14:05Z</time></trkpt><trkpt lat="44.24897220353689" lon="11.842841864921484"><ele>69.66666666666666</ele><time>2026-04-03T10:14:06Z</time></trkpt><trkpt lat="44.24884349733086" lon="11.842660298858272"><ele>69.33333333333333</ele><time>2026-04-03T10:14:07Z</time></trkpt><trkpt lat="44.24873314649393" lon="11.842486587846032"><ele>69.0</ele><time>2026-04-03T10:14:08Z</time></trkpt><trkpt lat="44.24862239441469" lon="11.84232583559069"><ele>68.33333333333333</ele><time>2026-04-03T10:14:09Z</time></trkpt><trkpt lat="44.248558540084694" lon="11.842132602708823"><ele>67.66666666666666</ele><time>2026-04-03T10:14:10Z</time></trkpt><trkpt lat="44.24850174779801" lon="11.841898727112108"><ele>67.0</ele><time>2026-04-03T10:14:11Z</time></trkpt><trkpt lat="44.24842645807392" lon="11.84167863752544"><ele>66.66666666666666</ele><time>2026-04-03T10:14:12Z</time></trkpt><trkpt lat="44.24833501975463" lon="11.841468474479294"><ele>66.33333333333333</ele><time>2026-04-03T10:14:13Z</time></trkpt><trkpt lat="44.248199821302784" lon="11.841295059849575"><ele>66.0</ele><time>2026-04-03T10:14:14Z</time></trkpt><trkpt lat="44.24804554183705" lon="11.841104643345062"><ele>66.0</ele><time>2026-04-03T10:14:15Z</time></trkpt><trkpt lat="44.24788553706467" lon="11.840900662930176"><ele>66.0</ele><time>2026-04-03T10:14:16Z</time></trkpt><trkpt lat="44.24772697414315" lon="11.840699954891198"><ele>66.0</ele><time>2026-04-03T10:14:17Z</time></trkpt><trkpt lat="44.247575181423386" lon="11.84050315363796"><ele>66.0</ele><time>2026-04-03T10:14:18Z</time></trkpt><trkpt lat="44.24743361565316" lon="11.840341146026649"><ele>66.0</ele><time>2026-04-03T10:14:19Z</time></trkpt><trkpt lat="44.24727206080318" lon="11.840212251754984"><ele>66.0</ele><time>2026-04-03T10:14:20Z</time></trkpt><trkpt lat="44.247104654078015" lon="11.84015511847405"><ele>66.33333333333333</ele><time>2026-04-03T10:14:21Z</time></trkpt><trkpt lat="44.246946479725565" lon="11.840085492082336"><ele>66.66666666666666</ele><time>2026-04-03T10:14:22Z</time></trkpt><trkpt lat="44.24682154020853" lon="11.839950546722493"><ele>67.0</ele><time>2026-04-03T10:14:23Z</time></trkpt><trkpt lat="44.246722551069674" lon="11.839782882581526"><ele>67.0</ele><time>2026-04-03T10:14:24Z</time></trkpt><trkpt lat="44.24661134386343" lon="11.839579754631103"><ele>67.0</ele><time>2026-04-03T10:14:25Z</time></trkpt><trkpt lat="44.246489094504724" lon="11.839368712684493"><ele>67.0</ele><time>2026-04-03T10:14:26Z</time></trkpt><trkpt lat="44.24637506806769" lon="11.839157548553073"><ele>68.0</ele><time>2026-04-03T10:14:27Z</time></trkpt><trkpt lat="44.246229744631215" lon="11.838972565511936"><ele>69.0</ele><time>2026-04-03T10:14:28Z</time></trkpt><trkpt lat="44.24605827018537" lon="11.838830727689496"><ele>70.0</ele><time>2026-04-03T10:14:29Z</time></trkpt><trkpt lat="44.24588276484584" lon="11.838687325783498"><ele>70.0</ele><time>2026-04-03T10:14:30Z</time></trkpt><trkpt lat="44.245713031527515" lon="11.838525714236619"><ele>70.0</ele><time>2026-04-03T10:14:31Z</time></trkpt><trkpt lat="44.245571088781034" lon="11.838320373425972"><ele>70.0</ele><time>2026-04-03T10:14:32Z</time></trkpt><trkpt lat="44.24541415244603" lon="11.8381263774436"><ele>70.0</ele><time>2026-04-03T10:14:33Z</time></trkpt><trkpt lat="44.24524869309595" lon="11.837953114515944"><ele>70.0</ele><time>2026-04-03T10:14:34Z</time></trkpt><trkpt lat="44.24509828038853" lon="11.837752348453803"><ele>70.0</ele><time>2026-04-03T10:14:35Z</time></trkpt><trkpt lat="44.2449373177258" lon="11.837567587374455"><ele>70.66666666666666</ele><time>2026-04-03T10:14:36Z</time></trkpt><trkpt lat="44.244780308936335" lon="11.837380611939935"><ele>71.33333333333333</ele><time>2026-04-03T10:14:37Z</time></trkpt><trkpt lat="44.24464124851198" lon="11.837180594442424"><ele>72.0</ele><time>2026-04-03T10:14:38Z</time></trkpt><trkpt lat="44.244530434275134" lon="11.836958982162384"><ele>71.66666666666667</ele><time>2026-04-03T10:14:39Z</time></trkpt><trkpt lat="44.24442806734262" lon="11.836722601149111"><ele>71.33333333333334</ele><time>2026-04-03T10:14:40Z</time></trkpt><trkpt lat="44.244304340037196" lon="11.83651150462241"><ele>71.0</ele><time>2026-04-03T10:14:41Z</time></trkpt><trkpt lat="44.24417894952788" lon="11.836315873782697"><ele>71.0</ele><time>2026-04-03T10:14:42Z</time></trkpt><trkpt lat="44.24402737495059" lon="11.836143550994104"><ele>71.0</ele><time>2026-04-03T10:14:43Z</time></trkpt><trkpt lat="44.24386126896046" lon="11.835980100223763"><ele>71.0</ele><time>2026-04-03T10:14:44Z</time></trkpt><trkpt lat="44.243698185787" lon="11.83582851812566"><ele>72.0</ele><time>2026-04-03T10:14:45Z</time></trkpt><trkpt lat="44.243520445674164" lon="11.83568998818794"><ele>73.0</ele><time>2026-04-03T10:14:46Z</time></trkpt><trkpt lat="44.24333257632159" lon="11.835597424889505"><ele>74.0</ele><time>2026-04-03T10:14:47Z</time></trkpt><trkpt lat="44.24314324454915" lon="11.835484662626316"><ele>75.33333333333334</ele><time>2026-04-03T10:14:48Z</time></trkpt><trkpt lat="44.24295740583524" lon="11.835390958844087"><ele>76.66666666666667</ele><time>2026-04-03T10:14:49Z</time></trkpt><trkpt lat="44.242782032305435" lon="11.835297544595543"><ele>78.0</ele><time>2026-04-03T10:14:50Z</time></trkpt><trkpt lat="44.24262835175201" lon="11.835189273600175"><ele>77.5</ele><time>2026-04-03T10:14:51Z</time></trkpt><trkpt lat="44.242483374145685" lon="11.83504492011925"><ele>77.0</ele><time>2026-04-03T10:14:52Z</time></trkpt><trkpt lat="44.24217740066127" lon="11.834693357479479"><ele>77.66666666666667</ele><time>2026-04-03T10:14:54Z</time></trkpt><trkpt lat="44.24200686679746" lon="11.834534710057557"><ele>78.33333333333333</ele><time>2026-04-03T10:14:55Z</time></trkpt><trkpt lat="44.24184231591471" lon="11.834362162880323"><ele>79.0</ele><time>2026-04-03T10:14:56Z</time></trkpt><trkpt lat="44.24166979698337" lon="11.834191830922515"><ele>79.0</ele><time>2026-04-03T10:14:57Z</time></trkpt><trkpt lat="44.24149431451892" lon="11.834043966032931"><ele>79.0</ele><time>2026-04-03T10:14:58Z</time></trkpt><trkpt lat="44.24132531822627" lon="11.833891027602238"><ele>79.0</ele><time>2026-04-03T10:14:59Z</time></trkpt><trkpt lat="44.241163707756336" lon="11.833745138486425"><ele>80.0</ele><time>2026-04-03T10:15:00Z</time></trkpt><trkpt lat="44.24102605075123" lon="11.833584547913116"><ele>81.0</ele><time>2026-04-03T10:15:01Z</time></trkpt><trkpt lat="44.24087711003963" lon="11.83345088411628"><ele>82.0</ele><time>2026-04-03T10:15:02Z</time></trkpt><trkpt lat="44.24075525918952" lon="11.833295871040352"><ele>82.0</ele><time>2026-04-03T10:15:03Z</time></trkpt><trkpt lat="44.240653693403885" lon="11.833115880755543"><ele>82.0</ele><time>2026-04-03T10:15:04Z</time></trkpt><trkpt lat="44.24054872133139" lon="11.83297210735766"><ele>82.0</ele><time>2026-04-03T10:15:05Z</time></trkpt><trkpt lat="44.24046985983434" lon="11.832816189792503"><ele>82.0</ele><time>2026-04-03T10:15:06Z</time></trkpt><trkpt lat="44.2404136869209" lon="11.8326735714236"><ele>83.25</ele><time>2026-04-03T10:15:07Z</time></trkpt><trkpt lat="44.24037261680144" lon="11.832537208624878"><ele>84.5</ele><time>2026-04-03T10:15:08Z</time></trkpt><trkpt lat="44.24034848888095" lon="11.832431401093679"><ele>85.75</ele><time>2026-04-03T10:15:09Z</time></trkpt><trkpt lat="44.2403378705471" lon="11.832303343826347"><ele>87.0</ele><time>2026-04-03T10:15:11Z</time></trkpt><trkpt lat="44.24014059002953" lon="11.832390185904536"><ele>87.0</ele><time>2026-04-03T10:15:13Z</time></trkpt><trkpt lat="44.240070027069045" lon="11.832493607760078"><ele>87.0</ele><time>2026-04-03T10:15:14Z</time></trkpt><trkpt lat="44.23996426358351" lon="11.832628000172134"><ele>87.0</ele><time>2026-04-03T10:15:15Z</time></trkpt><trkpt lat="44.239842882123206" lon="11.83274482867054"><ele>87.0</ele><time>2026-04-03T10:15:16Z</time></trkpt><trkpt lat="44.23973738895723" lon="11.832884959279824"><ele>88.33333333333333</ele><time>2026-04-03T10:15:17Z</time></trkpt><trkpt lat="44.23962088341979" lon="11.833031840562242"><ele>89.66666666666666</ele><time>2026-04-03T10:15:18Z</time></trkpt><trkpt lat="44.23949435392311" lon="11.833192284297116"><ele>91.0</ele><time>2026-04-03T10:15:19Z</time></trkpt><trkpt lat="44.23937030476626" lon="11.83335120257485"><ele>91.5</ele><time>2026-04-03T10:15:20Z</time></trkpt><trkpt lat="44.23926346327893" lon="11.83348807629741"><ele>92.0</ele><time>2026-04-03T10:15:21Z</time></trkpt><trkpt lat="44.23917377646763" lon="11.833594957108929"><ele>92.5</ele><time>2026-04-03T10:15:22Z</time></trkpt><trkpt lat="44.23910163388339" lon="11.833651728320996"><ele>93.0</ele><time>2026-04-03T10:15:23Z</time></trkpt><trkpt lat="44.23899311588926" lon="11.833590357198812"><ele>93.4</ele><time>2026-04-03T10:15:25Z</time></trkpt><trkpt lat="44.238928936101985" lon="11.833477347890865"><ele>93.80000000000001</ele><time>2026-04-03T10:15:26Z</time></trkpt><trkpt lat="44.238824601996036" lon="11.833385325013287"><ele>94.2</ele><time>2026-04-03T10:15:27Z</time></trkpt><trkpt lat="44.2387429536339" lon="11.833337431805319"><ele>94.6</ele><time>2026-04-03T10:15:28Z</time></trkpt><trkpt lat="44.23867137105421" lon="11.833360812801548"><ele>95.0</ele><time>2026-04-03T10:15:29Z</time></trkpt><trkpt lat="44.23860421093099" lon="11.833433195500723"><ele>95.6</ele><time>2026-04-03T10:15:30Z</time></trkpt><trkpt lat="44.23855225735806" lon="11.833504814034795"><ele>96.2</ele><time>2026-04-03T10:15:31Z</time></trkpt><trkpt lat="44.2385656541576" lon="11.833676621896652"><ele>96.80000000000001</ele><time>2026-04-03T10:15:32Z</time></trkpt><trkpt lat="44.238543631334885" lon="11.833831883996355"><ele>97.4</ele><time>2026-04-03T10:15:33Z</time></trkpt><trkpt lat="44.238512546964365" lon="11.833976455707937"><ele>98.0</ele><time>2026-04-03T10:15:34Z</time></trkpt><trkpt lat="44.2384443244335" lon="11.834079350197156"><ele>98.0</ele><time>2026-04-03T10:15:35Z</time></trkpt><trkpt lat="44.23836650878953" lon="11.834215469393406"><ele>98.0</ele><time>2026-04-03T10:15:36Z</time></trkpt><trkpt lat="44.23828255097486" lon="11.834359896833941"><ele>98.0</ele><time>2026-04-03T10:15:37Z</time></trkpt><trkpt lat="44.238189679570574" lon="11.834494147740934"><ele>98.0</ele><time>2026-04-03T10:15:38Z</time></trkpt><trkpt lat="44.23806855509515" lon="11.834593347965138"><ele>101.0</ele><time>2026-04-03T10:15:39Z</time></trkpt><trkpt lat="44.23793877147687" lon="11.834671282376902"><ele>104.0</ele><time>2026-04-03T10:15:40Z</time></trkpt><trkpt lat="44.2378064536693" lon="11.834787328142182"><ele>107.0</ele><time>2026-04-03T10:15:41Z</time></trkpt><trkpt lat="44.23769599831905" lon="11.834893678187862"><ele>110.0</ele><time>2026-04-03T10:15:42Z</time></trkpt><trkpt lat="44.23761885021773" lon="11.835007109867258"><ele>110.0</ele><time>2026-04-03T10:15:43Z</time></trkpt><trkpt lat="44.23755003502769" lon="11.83512152176936"><ele>110.0</ele><time>2026-04-03T10:15:44Z</time></trkpt><trkpt lat="44.23749223738753" lon="11.835266805907555"><ele>110.0</ele><time>2026-04-03T10:15:45Z</time></trkpt><trkpt lat="44.237409283883025" lon="11.83551799171039"><ele>110.0</ele><time>2026-04-03T10:15:47Z</time></trkpt><trkpt lat="44.23739484811936" lon="11.835621819561183"><ele>111.49999999999999</ele><time>2026-04-03T10:15:48Z</time></trkpt><trkpt lat="44.237384765300135" lon="11.835713979063529"><ele>113.0</ele><time>2026-04-03T10:15:49Z</time></trkpt><trkpt lat="44.23737097205678" lon="11.835802060710499"><ele>114.5</ele><time>2026-04-03T10:15:51Z</time></trkpt><trkpt lat="44.23735179420358" lon="11.835937816764886"><ele>116.0</ele><time>2026-04-03T10:15:54Z</time></trkpt><trkpt lat="44.23736511077804" lon="11.835842670999876"><ele>117.49999999999999</ele><time>2026-04-03T10:16:13Z</time></trkpt><trkpt lat="44.23735508498932" lon="11.835718049529486"><ele>119.0</ele><time>2026-04-03T10:16:38Z</time></trkpt><trkpt lat="44.237217990883195" lon="11.835754570732922"><ele>119.0</ele><time>2026-04-03T10:16:43Z</time></trkpt><trkpt lat="44.237139361649916" lon="11.835830462811908"><ele>119.0</ele><time>2026-04-03T10:16:44Z</time></trkpt><trkpt lat="44.2370397603452" lon="11.835906285833984"><ele>119.0</ele><time>2026-04-03T10:16:45Z</time></trkpt><trkpt lat="44.236924915192176" lon="11.835987559181719"><ele>119.0</ele><time>2026-04-03T10:16:46Z</time></trkpt><trkpt lat="44.23683571259867" lon="11.836057969877725"><ele>119.0</ele><time>2026-04-03T10:16:47Z</time></trkpt><trkpt lat="44.23675900440233" lon="11.83608966223314"><ele>119.16666666666666</ele><time>2026-04-03T10:16:48Z</time></trkpt><trkpt lat="44.23669811759331" lon="11.836150323079158"><ele>119.33333333333333</ele><time>2026-04-03T10:16:49Z</time></trkpt><trkpt lat="44.23661954007337" lon="11.836167654760066"><ele>119.5</ele><time>2026-04-03T10:16:50Z</time></trkpt><trkpt lat="44.236552020254145" lon="11.836184126176681"><ele>119.66666666666666</ele><time>2026-04-03T10:16:51Z</time></trkpt><trkpt lat="44.2364479165321" lon="11.836145231552626"><ele>119.83333333333333</ele><time>2026-04-03T10:16:53Z</time></trkpt><trkpt lat="44.23635448368571" lon="11.836054536862287"><ele>120.0</ele><time>2026-04-03T10:16:55Z</time></trkpt><trkpt lat="44.2363734963032" lon="11.835902674845066"><ele>120.0</ele><time>2026-04-03T10:16:57Z</time></trkpt><trkpt lat="44.23642751040317" lon="11.83582405353304"><ele>120.0</ele><time>2026-04-03T10:16:58Z</time></trkpt><trkpt lat="44.2364920234183" lon="11.835691343661983"><ele>120.0</ele><time>2026-04-03T10:16:59Z</time></trkpt><trkpt lat="44.2365407777437" lon="11.835564938652652"><ele>120.0</ele><time>2026-04-03T10:17:00Z</time></trkpt><trkpt lat="44.236573380488096" lon="11.835394132336"><ele>120.0</ele><time>2026-04-03T10:17:01Z</time></trkpt><trkpt lat="44.23659749876712" lon="11.83523896705063"><ele>120.2</ele><time>2026-04-03T10:17:02Z</time></trkpt><trkpt lat="44.236626393161046" lon="11.835128121338116"><ele>120.4</ele><time>2026-04-03T10:17:03Z</time></trkpt><trkpt lat="44.23661746212318" lon="11.835004999475833"><ele>120.6</ele><time>2026-04-03T10:17:04Z</time></trkpt><trkpt lat="44.236603820131" lon="11.834845172529205"><ele>120.8</ele><time>2026-04-03T10:17:05Z</time></trkpt><trkpt lat="44.236567004405046" lon="11.83464759699748"><ele>121.0</ele><time>2026-04-03T10:17:06Z</time></trkpt><trkpt lat="44.23653474717413" lon="11.834448140847226"><ele>121.0</ele><time>2026-04-03T10:17:07Z</time></trkpt><trkpt lat="44.23649704867589" lon="11.834324580368492"><ele>121.0</ele><time>2026-04-03T10:17:08Z</time></trkpt><trkpt lat="44.23644775710472" lon="11.834221904841124"><ele>121.0</ele><time>2026-04-03T10:17:09Z</time></trkpt><trkpt lat="44.23640942078255" lon="11.834068156456652"><ele>121.0</ele><time>2026-04-03T10:17:10Z</time></trkpt><trkpt lat="44.236368196054364" lon="11.833909990795517"><ele>121.0</ele><time>2026-04-03T10:17:11Z</time></trkpt><trkpt lat="44.23631969704959" lon="11.83376417518337"><ele>123.0</ele><time>2026-04-03T10:17:12Z</time></trkpt><trkpt lat="44.236309904478816" lon="11.833556844276643"><ele>125.0</ele><time>2026-04-03T10:17:13Z</time></trkpt><trkpt lat="44.23630555270805" lon="11.833444012604376"><ele>127.0</ele><time>2026-04-03T10:17:14Z</time></trkpt><trkpt lat="44.23629049685784" lon="11.833326637720189"><ele>129.0</ele><time>2026-04-03T10:17:15Z</time></trkpt><trkpt lat="44.236247792636625" lon="11.833161434995526"><ele>131.0</ele><time>2026-04-03T10:17:17Z</time></trkpt><trkpt lat="44.23618558291087" lon="11.833123858267474"><ele>131.0</ele><time>2026-04-03T10:17:18Z</time></trkpt><trkpt lat="44.236073726831656" lon="11.833183292241172"><ele>131.0</ele><time>2026-04-03T10:17:20Z</time></trkpt><trkpt lat="44.235987080387766" lon="11.833227458060623"><ele>131.0</ele><time>2026-04-03T10:17:22Z</time></trkpt><trkpt lat="44.23592374674202" lon="11.833233820031037"><ele>131.0</ele><time>2026-04-03T10:17:23Z</time></trkpt><trkpt lat="44.23584029309812" lon="11.833261935210292"><ele>131.0</ele><time>2026-04-03T10:17:26Z</time></trkpt><trkpt lat="44.235760043717946" lon="11.833571381471316"><ele>131.0</ele><time>2026-04-03T10:17:29Z</time></trkpt><trkpt lat="44.23569705306205" lon="11.833650649008833"><ele>131.0</ele><time>2026-04-03T10:17:48Z</time></trkpt><trkpt lat="44.23563162229499" lon="11.833559228602443"><ele>131.0</ele><time>2026-04-03T10:17:51Z</time></trkpt><trkpt lat="44.235595234945244" lon="11.833415212649061"><ele>131.0</ele><time>2026-04-03T10:17:53Z</time></trkpt><trkpt lat="44.235550927786335" lon="11.833273495314359"><ele>131.0</ele><time>2026-04-03T10:17:55Z</time></trkpt><trkpt lat="44.23551345504618" lon="11.833159252520943"><ele>132.6</ele><time>2026-04-03T10:17:57Z</time></trkpt><trkpt lat="44.23548089760438" lon="11.83308337111062"><ele>134.2</ele><time>2026-04-03T10:18:00Z</time></trkpt><trkpt lat="44.235394935789635" lon="11.833076457980397"><ele>135.8</ele><time>2026-04-03T10:18:10Z</time></trkpt><trkpt lat="44.23532532665143" lon="11.833130708750963"><ele>137.4</ele><time>2026-04-03T10:18:11Z</time></trkpt><trkpt lat="44.235236109374625" lon="11.833207132005395"><ele>139.0</ele><time>2026-04-03T10:18:12Z</time></trkpt><trkpt lat="44.23512519791943" lon="11.833274173159527"><ele>139.0</ele><time>2026-04-03T10:18:13Z</time></trkpt><trkpt lat="44.235023840253916" lon="11.833327717909729"><ele>139.0</ele><time>2026-04-03T10:18:14Z</time></trkpt><trkpt lat="44.234923111979356" lon="11.833379170277757"><ele>139.0</ele><time>2026-04-03T10:18:15Z</time></trkpt><trkpt lat="44.23481618043098" lon="11.833437270062298"><ele>139.0</ele><time>2026-04-03T10:18:16Z</time></trkpt><trkpt lat="44.234722188520934" lon="11.83350092931905"><ele>139.0</ele><time>2026-04-03T10:18:17Z</time></trkpt><trkpt lat="44.23463173655156" lon="11.833561730071452"><ele>142.4</ele><time>2026-04-03T10:18:18Z</time></trkpt><trkpt lat="44.23454160327919" lon="11.83361955057409"><ele>145.8</ele><time>2026-04-03T10:18:19Z</time></trkpt><trkpt lat="44.23444737983907" lon="11.833681571725977"><ele>149.2</ele><time>2026-04-03T10:18:20Z</time></trkpt><trkpt lat="44.23436034532722" lon="11.833735200586585"><ele>152.6</ele><time>2026-04-03T10:18:21Z</time></trkpt><trkpt lat="44.234266534759875" lon="11.833799331497685"><ele>156.0</ele><time>2026-04-03T10:18:22Z</time></trkpt><trkpt lat="44.234189369462214" lon="11.833855230964256"><ele>156.0</ele><time>2026-04-03T10:18:23Z</time></trkpt><trkpt lat="44.23411485420157" lon="11.833918612252212"><ele>156.0</ele><time>2026-04-03T10:18:24Z</time></trkpt><trkpt lat="44.23402126977009" lon="11.834010804339822"><ele>156.0</ele><time>2026-04-03T10:18:26Z</time></trkpt><trkpt lat="44.233945691860505" lon="11.834085725167439"><ele>156.0</ele><time>2026-04-03T10:18:28Z</time></trkpt><trkpt lat="44.23389096373632" lon="11.834154270009488"><ele>156.0</ele><time>2026-04-03T10:18:54Z</time></trkpt><trkpt lat="44.23380333971286" lon="11.834130075844604"><ele>157.5</ele><time>2026-04-03T10:19:19Z</time></trkpt><trkpt lat="44.23375293139229" lon="11.834068544838734"><ele>159.0</ele><time>2026-04-03T10:19:22Z</time></trkpt><trkpt lat="44.23367185070392" lon="11.834084860225815"><ele>160.5</ele><time>2026-04-03T10:19:49Z</time></trkpt><trkpt lat="44.2335767301609" lon="11.834103879824736"><ele>162.0</ele><time>2026-04-03T10:19:51Z</time></trkpt><trkpt lat="44.23349555153912" lon="11.834116200969865"><ele>163.5</ele><time>2026-04-03T10:19:53Z</time></trkpt><trkpt lat="44.233433056059624" lon="11.83413398736918"><ele>165.0</ele><time>2026-04-03T10:19:54Z</time></trkpt><trkpt lat="44.23330380233178" lon="11.834155733178802"><ele>165.00000000000003</ele><time>2026-04-03T10:19:56Z</time></trkpt><trkpt lat="44.23322990769925" lon="11.834159941619422"><ele>165.0</ele><time>2026-04-03T10:19:57Z</time></trkpt><trkpt lat="44.23316321611346" lon="11.834182559432119"><ele>165.0</ele><time>2026-04-03T10:19:58Z</time></trkpt><trkpt lat="44.23309802304955" lon="11.834201127604905"><ele>165.0</ele><time>2026-04-03T10:19:59Z</time></trkpt><trkpt lat="44.23303283242958" lon="11.834228330443047"><ele>165.0</ele><time>2026-04-03T10:20:00Z</time></trkpt><trkpt lat="44.232963626414524" lon="11.83425233986265"><ele>165.00000000000003</ele><time>2026-04-03T10:20:01Z</time></trkpt><trkpt lat="44.232905982566265" lon="11.834288140378293"><ele>165.0</ele><time>2026-04-03T10:20:02Z</time></trkpt><trkpt lat="44.23284819701451" lon="11.834332871737695"><ele>167.16666666666666</ele><time>2026-04-03T10:20:03Z</time></trkpt><trkpt lat="44.232782478419225" lon="11.834397659697107"><ele>169.33333333333334</ele><time>2026-04-03T10:20:04Z</time></trkpt><trkpt lat="44.23271343117051" lon="11.834473517158104"><ele>171.5</ele><time>2026-04-03T10:20:05Z</time></trkpt><trkpt lat="44.232629501295925" lon="11.834562049297787"><ele>173.66666666666669</ele><time>2026-04-03T10:20:06Z</time></trkpt><trkpt lat="44.232543077132284" lon="11.834638875253695"><ele>175.83333333333334</ele><time>2026-04-03T10:20:07Z</time></trkpt><trkpt lat="44.23248046192934" lon="11.834689984097656"><ele>178.0</ele><time>2026-04-03T10:20:08Z</time></trkpt><trkpt lat="44.23241892545597" lon="11.83473092621058"><ele>178.0</ele><time>2026-04-03T10:20:09Z</time></trkpt><trkpt lat="44.23235273288662" lon="11.834768762421174"><ele>178.0</ele><time>2026-04-03T10:20:10Z</time></trkpt><trkpt lat="44.23227457151963" lon="11.834800304764672"><ele>178.0</ele><time>2026-04-03T10:20:11Z</time></trkpt><trkpt lat="44.23217858286262" lon="11.834818330252988"><ele>178.0</ele><time>2026-04-03T10:20:12Z</time></trkpt><trkpt lat="44.232083814091766" lon="11.83481345400325"><ele>178.0</ele><time>2026-04-03T10:20:13Z</time></trkpt><trkpt lat="44.23197016646075" lon="11.834811426376968"><ele>180.0</ele><time>2026-04-03T10:20:14Z</time></trkpt><trkpt lat="44.23184373800648" lon="11.834785070383868"><ele>182.0</ele><time>2026-04-03T10:20:15Z</time></trkpt><trkpt lat="44.23175402657564" lon="11.834769870608813"><ele>184.0</ele><time>2026-04-03T10:20:16Z</time></trkpt><trkpt lat="44.23166842198" lon="11.834748814176056"><ele>186.0</ele><time>2026-04-03T10:20:17Z</time></trkpt><trkpt lat="44.231573168802306" lon="11.834705893366696"><ele>188.0</ele><time>2026-04-03T10:20:18Z</time></trkpt><trkpt lat="44.23147842871834" lon="11.834647509525958"><ele>185.60000000000002</ele><time>2026-04-03T10:20:19Z</time></trkpt><trkpt lat="44.23136813826422" lon="11.834559844718159"><ele>183.20000000000002</ele><time>2026-04-03T10:20:20Z</time></trkpt><trkpt lat="44.23127875919953" lon="11.834489647700115"><ele>180.8</ele><time>2026-04-03T10:20:21Z</time></trkpt><trkpt lat="44.23120809852433" lon="11.834442326507562"><ele>178.4</ele><time>2026-04-03T10:20:22Z</time></trkpt><trkpt lat="44.231091285376785" lon="11.834375785001084"><ele>176.0</ele><time>2026-04-03T10:20:24Z</time></trkpt><trkpt lat="44.23101646513549" lon="11.834333229744525"><ele>178.5</ele><time>2026-04-03T10:20:25Z</time></trkpt><trkpt lat="44.23094345264063" lon="11.834276663986062"><ele>181.0</ele><time>2026-04-03T10:20:26Z</time></trkpt><trkpt lat="44.2308879246139" lon="11.834207773287423"><ele>183.5</ele><time>2026-04-03T10:20:27Z</time></trkpt><trkpt lat="44.230825205910776" lon="11.834141421438263"><ele>186.0</ele><time>2026-04-03T10:20:28Z</time></trkpt><trkpt lat="44.230778847252616" lon="11.834063700865201"><ele>188.5</ele><time>2026-04-03T10:20:29Z</time></trkpt><trkpt lat="44.23073540930085" lon="11.833988290855658"><ele>191.0</ele><time>2026-04-03T10:20:30Z</time></trkpt><trkpt lat="44.230682682524325" lon="11.83389818273054"><ele>191.0</ele><time>2026-04-03T10:20:32Z</time></trkpt><trkpt lat="44.23070873856029" lon="11.833979076752149"><ele>191.0</ele><time>2026-04-03T10:20:37Z</time></trkpt><trkpt lat="44.23075623666473" lon="11.83406148240125"><ele>191.0</ele><time>2026-04-03T10:20:38Z</time></trkpt><trkpt lat="44.23080907232251" lon="11.834151025655787"><ele>191.0</ele><time>2026-04-03T10:20:39Z</time></trkpt><trkpt lat="44.23086285711698" lon="11.834229816341969"><ele>191.0</ele><time>2026-04-03T10:20:40Z</time></trkpt><trkpt lat="44.23090976607502" lon="11.834290237160326"><ele>191.0</ele><time>2026-04-03T10:20:41Z</time></trkpt><trkpt lat="44.230997595306526" lon="11.834361396613424"><ele>188.0</ele><time>2026-04-03T10:20:43Z</time></trkpt><trkpt lat="44.231108430716496" lon="11.834408141523227"><ele>185.0</ele><time>2026-04-03T10:20:45Z</time></trkpt><trkpt lat="44.23122569118132" lon="11.834445537370039"><ele>182.0</ele><time>2026-04-03T10:20:47Z</time></trkpt><trkpt lat="44.23127812854284" lon="11.834496552954777"><ele>179.0</ele><time>2026-04-03T10:20:48Z</time></trkpt><trkpt lat="44.23135754665837" lon="11.834570581076404"><ele>176.0</ele><time>2026-04-03T10:20:50Z</time></trkpt><trkpt lat="44.23143215322054" lon="11.834644471848904"><ele>178.0</ele><time>2026-04-03T10:21:45Z</time></trkpt><trkpt lat="44.23151477985961" lon="11.834728357637985"><ele>180.0</ele><time>2026-04-03T10:21:47Z</time></trkpt><trkpt lat="44.23156459177794" lon="11.83479424900021"><ele>182.0</ele><time>2026-04-03T10:21:49Z</time></trkpt><trkpt lat="44.231655502545514" lon="11.83478996109539"><ele>184.0</ele><time>2026-04-03T10:21:53Z</time></trkpt><trkpt lat="44.231741852332206" lon="11.834866925878535"><ele>186.0</ele><time>2026-04-03T10:21:55Z</time></trkpt><trkpt lat="44.231802246720775" lon="11.834923638542975"><ele>188.0</ele><time>2026-04-03T10:21:58Z</time></trkpt><trkpt lat="44.231797192577154" lon="11.834831258577662"><ele>188.0</ele><time>2026-04-03T10:22:02Z</time></trkpt><trkpt lat="44.23171909840618" lon="11.834798660497333"><ele>188.0</ele><time>2026-04-03T10:22:05Z</time></trkpt><trkpt lat="44.23158734030988" lon="11.834808849276584"><ele>188.0</ele><time>2026-04-03T10:22:07Z</time></trkpt><trkpt lat="44.23151778616626" lon="11.834787572546267"><ele>188.0</ele><time>2026-04-03T10:22:08Z</time></trkpt><trkpt lat="44.23148942436594" lon="11.83470002159766"><ele>188.0</ele><time>2026-04-03T10:22:11Z</time></trkpt><trkpt lat="44.23143506950347" lon="11.834647360171902"><ele>188.0</ele><time>2026-04-03T10:22:12Z</time></trkpt><trkpt lat="44.231345032414694" lon="11.834558186891318"><ele>188.60000000000002</ele><time>2026-04-03T10:22:14Z</time></trkpt><trkpt lat="44.2312608929893" lon="11.834482051968248"><ele>189.20000000000002</ele><time>2026-04-03T10:22:16Z</time></trkpt><trkpt lat="44.231180548793674" lon="11.834421340445164"><ele>189.8</ele><time>2026-04-03T10:22:18Z</time></trkpt><trkpt lat="44.23106769464564" lon="11.834388537483548"><ele>190.4</ele><time>2026-04-03T10:22:20Z</time></trkpt><trkpt lat="44.23100646303049" lon="11.834359070881854"><ele>191.0</ele><time>2026-04-03T10:22:21Z</time></trkpt><trkpt lat="44.23089942605763" lon="11.834279845743966"><ele>191.0</ele><time>2026-04-03T10:22:23Z</time></trkpt><trkpt lat="44.23084098169881" lon="11.834199995589326"><ele>191.0</ele><time>2026-04-03T10:22:24Z</time></trkpt><trkpt lat="44.23078523158267" lon="11.834112218799998"><ele>191.0</ele><time>2026-04-03T10:22:25Z</time></trkpt><trkpt lat="44.230731048538324" lon="11.834017754484172"><ele>191.0</ele><time>2026-04-03T10:22:26Z</time></trkpt><trkpt lat="44.23067551854576" lon="11.8339225764328"><ele>191.0</ele><time>2026-04-03T10:22:27Z</time></trkpt><trkpt lat="44.2306230861763" lon="11.83383339999279"><ele>191.0</ele><time>2026-04-03T10:22:28Z</time></trkpt><trkpt lat="44.230575478345365" lon="11.83375092199503"><ele>191.16666666666666</ele><time>2026-04-03T10:22:29Z</time></trkpt><trkpt lat="44.230535106025364" lon="11.833679062072381"><ele>191.33333333333331</ele><time>2026-04-03T10:22:30Z</time></trkpt><trkpt lat="44.23045174849147" lon="11.833549685371233"><ele>191.5</ele><time>2026-04-03T10:22:32Z</time></trkpt><trkpt lat="44.230414679824946" lon="11.83346448743313"><ele>191.66666666666666</ele><time>2026-04-03T10:22:33Z</time></trkpt><trkpt lat="44.230374662280674" lon="11.833376707232926"><ele>191.83333333333334</ele><time>2026-04-03T10:22:34Z</time></trkpt><trkpt lat="44.23033908500375" lon="11.833297203592812"><ele>192.0</ele><time>2026-04-03T10:22:35Z</time></trkpt><trkpt lat="44.23030040554698" lon="11.833220271936463"><ele>192.0</ele><time>2026-04-03T10:22:36Z</time></trkpt><trkpt lat="44.23024624026728" lon="11.833100581003361"><ele>192.0</ele><time>2026-04-03T10:22:37Z</time></trkpt><trkpt lat="44.23016784182965" lon="11.83298425619258"><ele>192.0</ele><time>2026-04-03T10:22:38Z</time></trkpt><trkpt lat="44.230083278644265" lon="11.83287372299495"><ele>192.0</ele><time>2026-04-03T10:22:39Z</time></trkpt><trkpt lat="44.22998772062679" lon="11.832762496845646"><ele>192.0</ele><time>2026-04-03T10:22:40Z</time></trkpt><trkpt lat="44.229873084264305" lon="11.832676415968404"><ele>192.0</ele><time>2026-04-03T10:22:41Z</time></trkpt><trkpt lat="44.229772839085356" lon="11.832575264315174"><ele>192.0</ele><time>2026-04-03T10:22:42Z</time></trkpt><trkpt lat="44.229673322560465" lon="11.832494728627447"><ele>192.0</ele><time>2026-04-03T10:22:43Z</time></trkpt><trkpt lat="44.229576678798686" lon="11.832406818274988"><ele>193.75</ele><time>2026-04-03T10:22:44Z</time></trkpt><trkpt lat="44.22946153511207" lon="11.832329852979797"><ele>195.5</ele><time>2026-04-03T10:22:45Z</time></trkpt><trkpt lat="44.229338970968854" lon="11.83221605167087"><ele>197.25</ele><time>2026-04-03T10:22:46Z</time></trkpt><trkpt lat="44.229225917121155" lon="11.832125267346083"><ele>199.0</ele><time>2026-04-03T10:22:47Z</time></trkpt><trkpt lat="44.22911610121779" lon="11.832059669375923"><ele>199.0</ele><time>2026-04-03T10:22:48Z</time></trkpt><trkpt lat="44.22902639460726" lon="11.83198131815072"><ele>199.0</ele><time>2026-04-03T10:22:49Z</time></trkpt><trkpt lat="44.22894078712722" lon="11.831899266515626"><ele>199.0</ele><time>2026-04-03T10:22:50Z</time></trkpt><trkpt lat="44.22885161194928" lon="11.831809286516739"><ele>199.0</ele><time>2026-04-03T10:22:51Z</time></trkpt><trkpt lat="44.228755590124976" lon="11.831732871703986"><ele>199.0</ele><time>2026-04-03T10:22:52Z</time></trkpt><trkpt lat="44.22867711972868" lon="11.83165791313464"><ele>197.0</ele><time>2026-04-03T10:22:53Z</time></trkpt><trkpt lat="44.22859305592804" lon="11.831576471317787"><ele>195.0</ele><time>2026-04-03T10:22:54Z</time></trkpt><trkpt lat="44.22852396779528" lon="11.831513338434988"><ele>193.0</ele><time>2026-04-03T10:22:55Z</time></trkpt><trkpt lat="44.228435625282046" lon="11.831434188146742"><ele>191.0</ele><time>2026-04-03T10:22:57Z</time></trkpt><trkpt lat="44.2283848107699" lon="11.831646418998217"><ele>191.0</ele><time>2026-04-03T10:23:00Z</time></trkpt><trkpt lat="44.228365978169215" lon="11.831803543767174"><ele>191.0</ele><time>2026-04-03T10:23:01Z</time></trkpt><trkpt lat="44.228338641985744" lon="11.831980497466676"><ele>191.0</ele><time>2026-04-03T10:23:02Z</time></trkpt><trkpt lat="44.22827743631872" lon="11.832159059132872"><ele>191.0</ele><time>2026-04-03T10:23:03Z</time></trkpt><trkpt lat="44.228192259043524" lon="11.832334617685902"><ele>186.75</ele><time>2026-04-03T10:23:04Z</time></trkpt><trkpt lat="44.22810193221594" lon="11.832483166499715"><ele>182.5</ele><time>2026-04-03T10:23:05Z</time></trkpt><trkpt lat="44.22802782519773" lon="11.83260793851806"><ele>178.25</ele><time>2026-04-03T10:23:06Z</time></trkpt><trkpt lat="44.22799079416452" lon="11.832744558436623"><ele>174.0</ele><time>2026-04-03T10:23:07Z</time></trkpt><trkpt lat="44.227960369333765" lon="11.832872497713948"><ele>174.0</ele><time>2026-04-03T10:23:08Z</time></trkpt><trkpt lat="44.22797044857885" lon="11.833002301548362"><ele>174.0</ele><time>2026-04-03T10:23:09Z</time></trkpt><trkpt lat="44.228052795277534" lon="11.833131665987034"><ele>174.0</ele><time>2026-04-03T10:23:10Z</time></trkpt><trkpt lat="44.22816965846643" lon="11.833226665696182"><ele>174.0</ele><time>2026-04-03T10:23:11Z</time></trkpt><trkpt lat="44.22828203189808" lon="11.833284242569695"><ele>173.2</ele><time>2026-04-03T10:23:12Z</time></trkpt><trkpt lat="44.228362691607174" lon="11.83331063111542"><ele>172.39999999999998</ele><time>2026-04-03T10:23:13Z</time></trkpt><trkpt lat="44.22834178032317" lon="11.833481289495738"><ele>171.6</ele><time>2026-04-03T10:23:15Z</time></trkpt><trkpt lat="44.228266242468656" lon="11.833530584767088"><ele>170.8</ele><time>2026-04-03T10:23:16Z</time></trkpt><trkpt lat="44.2281634289941" lon="11.83346708989553"><ele>170.0</ele><time>2026-04-03T10:23:17Z</time></trkpt><trkpt lat="44.228052840356604" lon="11.833484057786468"><ele>170.0</ele><time>2026-04-03T10:23:18Z</time></trkpt><trkpt lat="44.22794349573594" lon="11.833550978656447"><ele>170.0</ele><time>2026-04-03T10:23:19Z</time></trkpt><trkpt lat="44.227824858429685" lon="11.833614031600566"><ele>170.0</ele><time>2026-04-03T10:23:20Z</time></trkpt><trkpt lat="44.227722689214936" lon="11.833705017474315"><ele>170.0</ele><time>2026-04-03T10:23:21Z</time></trkpt><trkpt lat="44.22764579121724" lon="11.833823819468723"><ele>170.0</ele><time>2026-04-03T10:23:22Z</time></trkpt><trkpt lat="44.2276140084971" lon="11.833996187514055"><ele>170.0</ele><time>2026-04-03T10:23:23Z</time></trkpt><trkpt lat="44.227600743893596" lon="11.834185616149046"><ele>170.0</ele><time>2026-04-03T10:23:24Z</time></trkpt><trkpt lat="44.227570403921966" lon="11.83438840817186"><ele>170.0</ele><time>2026-04-03T10:23:25Z</time></trkpt><trkpt lat="44.227538290797206" lon="11.834548474470703"><ele>167.25</ele><time>2026-04-03T10:23:26Z</time></trkpt><trkpt lat="44.22747231307145" lon="11.834671914494638"><ele>164.5</ele><time>2026-04-03T10:23:27Z</time></trkpt><trkpt lat="44.227355291432815" lon="11.834738499808402"><ele>161.75</ele><time>2026-04-03T10:23:28Z</time></trkpt><trkpt lat="44.227224084816584" lon="11.834839597374776"><ele>159.0</ele><time>2026-04-03T10:23:28.999Z</time></trkpt><trkpt lat="44.22711430228024" lon="11.834909156613326"><ele>158.6</ele><time>2026-04-03T10:23:29.999Z</time></trkpt><trkpt lat="44.227025981406065" lon="11.834920066553257"><ele>158.2</ele><time>2026-04-03T10:23:30.999Z</time></trkpt><trkpt lat="44.22693597288762" lon="11.834881450637234"><ele>157.79999999999998</ele><time>2026-04-03T10:23:31.999Z</time></trkpt><trkpt lat="44.22683901968507" lon="11.834789079844876"><ele>157.4</ele><time>2026-04-03T10:23:32.999Z</time></trkpt><trkpt lat="44.226732700963304" lon="11.834689296285852"><ele>157.0</ele><time>2026-04-03T10:23:33.999Z</time></trkpt><trkpt lat="44.22661473944833" lon="11.834588201689742"><ele>157.0</ele><time>2026-04-03T10:23:34.999Z</time></trkpt><trkpt lat="44.22651603217486" lon="11.834456916153636"><ele>157.0</ele><time>2026-04-03T10:23:35.999Z</time></trkpt><trkpt lat="44.2264377103949" lon="11.834318416356293"><ele>157.0</ele><time>2026-04-03T10:23:36.999Z</time></trkpt><trkpt lat="44.226384806898764" lon="11.834192367429242"><ele>157.0</ele><time>2026-04-03T10:23:37.999Z</time></trkpt><trkpt lat="44.22633534044637" lon="11.834112989508908"><ele>157.0</ele><time>2026-04-03T10:23:38.999Z</time></trkpt><trkpt lat="44.22621958819441" lon="11.834182610307034"><ele>149.33333333333334</ele><time>2026-04-03T10:23:40.999Z</time></trkpt><trkpt lat="44.226172689580004" lon="11.834296463374628"><ele>141.66666666666666</ele><time>2026-04-03T10:23:41.999Z</time></trkpt><trkpt lat="44.22621107246178" lon="11.834534653281086"><ele>134.0</ele><time>2026-04-03T10:23:42.999Z</time></trkpt><trkpt lat="44.22618845354651" lon="11.834785638911969"><ele>134.0</ele><time>2026-04-03T10:23:43.999Z</time></trkpt><trkpt lat="44.22615373692636" lon="11.835056349311355"><ele>134.0</ele><time>2026-04-03T10:23:44.999Z</time></trkpt><trkpt lat="44.22611642479905" lon="11.835349997729285"><ele>134.0</ele><time>2026-04-03T10:23:45.999Z</time></trkpt><trkpt lat="44.226081907908174" lon="11.835646673186213"><ele>132.66666666666666</ele><time>2026-04-03T10:23:46.999Z</time></trkpt><trkpt lat="44.22605348273762" lon="11.835904269221862"><ele>131.33333333333334</ele><time>2026-04-03T10:23:47.999Z</time></trkpt><trkpt lat="44.22604245720899" lon="11.83612602577745"><ele>130.0</ele><time>2026-04-03T10:23:48.999Z</time></trkpt><trkpt lat="44.226056651291515" lon="11.836351693673159"><ele>128.75</ele><time>2026-04-03T10:23:49.999Z</time></trkpt><trkpt lat="44.22608041627172" lon="11.836571671282218"><ele>127.5</ele><time>2026-04-03T10:23:51Z</time></trkpt><trkpt lat="44.22610301810267" lon="11.836791307189982"><ele>126.25</ele><time>2026-04-03T10:23:52Z</time></trkpt><trkpt lat="44.2261265574453" lon="11.836966915605597"><ele>125.0</ele><time>2026-04-03T10:23:53Z</time></trkpt><trkpt lat="44.226174915227126" lon="11.837116168474537"><ele>124.75</ele><time>2026-04-03T10:23:54Z</time></trkpt><trkpt lat="44.22625945821374" lon="11.837239621474115"><ele>124.5</ele><time>2026-04-03T10:23:55Z</time></trkpt><trkpt lat="44.2263766919196" lon="11.837330812054498"><ele>124.25</ele><time>2026-04-03T10:23:56Z</time></trkpt><trkpt lat="44.22651276503478" lon="11.837379094938978"><ele>124.0</ele><time>2026-04-03T10:23:57Z</time></trkpt><trkpt lat="44.22665280440356" lon="11.837374694871311"><ele>124.0</ele><time>2026-04-03T10:23:58Z</time></trkpt><trkpt lat="44.22677509808602" lon="11.837349598941634"><ele>124.0</ele><time>2026-04-03T10:23:59Z</time></trkpt><trkpt lat="44.2268715061177" lon="11.837337520803123"><ele>124.0</ele><time>2026-04-03T10:24:00Z</time></trkpt><trkpt lat="44.226945197486096" lon="11.83736293851157"><ele>124.0</ele><time>2026-04-03T10:24:01Z</time></trkpt><trkpt lat="44.226977884606875" lon="11.837442310555184"><ele>124.0</ele><time>2026-04-03T10:24:02Z</time></trkpt><trkpt lat="44.22694965114857" lon="11.83759941565679"><ele>119.75</ele><time>2026-04-03T10:24:04Z</time></trkpt><trkpt lat="44.22687050457975" lon="11.837644334862551"><ele>115.5</ele><time>2026-04-03T10:24:05Z</time></trkpt><trkpt lat="44.22678380350561" lon="11.837755828784413"><ele>111.25</ele><time>2026-04-03T10:24:06Z</time></trkpt><trkpt lat="44.22667337797249" lon="11.837892997573686"><ele>107.0</ele><time>2026-04-03T10:24:07Z</time></trkpt><trkpt lat="44.226557325256444" lon="11.838037155714877"><ele>105.66666666666666</ele><time>2026-04-03T10:24:08Z</time></trkpt><trkpt lat="44.22643028289145" lon="11.838170293573114"><ele>104.33333333333334</ele><time>2026-04-03T10:24:09Z</time></trkpt><trkpt lat="44.22628543075131" lon="11.838261077476886"><ele>103.0</ele><time>2026-04-03T10:24:10Z</time></trkpt><trkpt lat="44.22611916910736" lon="11.838325416634035"><ele>103.0</ele><time>2026-04-03T10:24:11Z</time></trkpt><trkpt lat="44.22592419442976" lon="11.83837860248616"><ele>103.0</ele><time>2026-04-03T10:24:12Z</time></trkpt><trkpt lat="44.22573318128559" lon="11.838482422795352"><ele>103.0</ele><time>2026-04-03T10:24:13Z</time></trkpt><trkpt lat="44.22555646359479" lon="11.83857066216941"><ele>100.0</ele><time>2026-04-03T10:24:14Z</time></trkpt><trkpt lat="44.225380337220535" lon="11.838636715695877"><ele>97.0</ele><time>2026-04-03T10:24:15Z</time></trkpt><trkpt lat="44.22520438147409" lon="11.838722040243047"><ele>94.0</ele><time>2026-04-03T10:24:16Z</time></trkpt><trkpt lat="44.225035728870544" lon="11.83880280498064"><ele>94.0</ele><time>2026-04-03T10:24:17Z</time></trkpt><trkpt lat="44.224875714519214" lon="11.838884688405885"><ele>94.0</ele><time>2026-04-03T10:24:18Z</time></trkpt><trkpt lat="44.22472425969917" lon="11.83898777518118"><ele>94.0</ele><time>2026-04-03T10:24:19Z</time></trkpt><trkpt lat="44.22458185636405" lon="11.839101777340003"><ele>92.33333333333333</ele><time>2026-04-03T10:24:20Z</time></trkpt><trkpt lat="44.22444517536342" lon="11.839215678208202"><ele>90.66666666666667</ele><time>2026-04-03T10:24:21Z</time></trkpt><trkpt lat="44.22431260786994" lon="11.839325888666531"><ele>89.0</ele><time>2026-04-03T10:24:22Z</time></trkpt><trkpt lat="44.22418867735034" lon="11.83942886521498"><ele>89.0</ele><time>2026-04-03T10:24:23Z</time></trkpt><trkpt lat="44.22408338512243" lon="11.839516354664"><ele>89.0</ele><time>2026-04-03T10:24:24Z</time></trkpt><trkpt lat="44.223994832638276" lon="11.83958993472224"><ele>89.0</ele><time>2026-04-03T10:24:25Z</time></trkpt><trkpt lat="44.223912099582506" lon="11.83965867940477"><ele>89.0</ele><time>2026-04-03T10:24:26Z</time></trkpt><trkpt lat="44.223861553278944" lon="11.839728199927084"><ele>89.0</ele><time>2026-04-03T10:24:27Z</time></trkpt><trkpt lat="44.2237847455337" lon="11.839738381259995"><ele>88.5</ele><time>2026-04-03T10:24:29Z</time></trkpt><trkpt lat="44.223643106164076" lon="11.839618089271875"><ele>88.0</ele><time>2026-04-03T10:24:32Z</time></trkpt><trkpt lat="44.223578363428885" lon="11.839504648388534"><ele>87.5</ele><time>2026-04-03T10:24:33Z</time></trkpt><trkpt lat="44.22350246028713" lon="11.839377173319384"><ele>87.0</ele><time>2026-04-03T10:24:34Z</time></trkpt><trkpt lat="44.2234077053015" lon="11.839250134268315"><ele>87.0</ele><time>2026-04-03T10:24:35Z</time></trkpt><trkpt lat="44.22330337660603" lon="11.839119842730009"><ele>87.0</ele><time>2026-04-03T10:24:36Z</time></trkpt><trkpt lat="44.22319142010922" lon="11.838964160542899"><ele>87.0</ele><time>2026-04-03T10:24:37Z</time></trkpt><trkpt lat="44.22308050192549" lon="11.83878956132535"><ele>86.33333333333333</ele><time>2026-04-03T10:24:38Z</time></trkpt><trkpt lat="44.2229724838062" lon="11.838607987734468"><ele>85.66666666666666</ele><time>2026-04-03T10:24:39Z</time></trkpt><trkpt lat="44.22286925468121" lon="11.838414714632764"><ele>85.0</ele><time>2026-04-03T10:24:40Z</time></trkpt><trkpt lat="44.22277054543345" lon="11.838210819035526"><ele>85.0</ele><time>2026-04-03T10:24:41Z</time></trkpt><trkpt lat="44.22267194155758" lon="11.838011078214755"><ele>85.0</ele><time>2026-04-03T10:24:42Z</time></trkpt><trkpt lat="44.22257455599635" lon="11.837814892098518"><ele>85.0</ele><time>2026-04-03T10:24:43Z</time></trkpt><trkpt lat="44.22247528206163" lon="11.837623386018167"><ele>86.33333333333333</ele><time>2026-04-03T10:24:44Z</time></trkpt><trkpt lat="44.222378508785646" lon="11.8374242216009"><ele>87.66666666666667</ele><time>2026-04-03T10:24:45Z</time></trkpt><trkpt lat="44.22227978922467" lon="11.83722815567097"><ele>89.0</ele><time>2026-04-03T10:24:46Z</time></trkpt><trkpt lat="44.222191182556095" lon="11.837049685999148"><ele>88.5</ele><time>2026-04-03T10:24:47Z</time></trkpt><trkpt lat="44.222104460164445" lon="11.836878622341223"><ele>88.0</ele><time>2026-04-03T10:24:48Z</time></trkpt><trkpt lat="44.22202653540613" lon="11.836727934422546"><ele>87.5</ele><time>2026-04-03T10:24:49Z</time></trkpt><trkpt lat="44.22194753594376" lon="11.836580818258017"><ele>87.0</ele><time>2026-04-03T10:24:50Z</time></trkpt><trkpt lat="44.22187849515556" lon="11.836450244078623"><ele>87.0</ele><time>2026-04-03T10:24:51Z</time></trkpt><trkpt lat="44.22181627129482" lon="11.836330595360126"><ele>87.0</ele><time>2026-04-03T10:24:52Z</time></trkpt><trkpt lat="44.221769987828644" lon="11.836228355580259"><ele>87.0</ele><time>2026-04-03T10:24:53Z</time></trkpt><trkpt lat="44.2217337646141" lon="11.836145095789597"><ele>87.0</ele><time>2026-04-03T10:24:54Z</time></trkpt><trkpt lat="44.22168477819423" lon="11.836052128329037"><ele>87.0</ele><time>2026-04-03T10:24:56Z</time></trkpt><trkpt lat="44.22156803185526" lon="11.836103759254573"><ele>85.8</ele><time>2026-04-03T10:24:57Z</time></trkpt><trkpt lat="44.22147833004239" lon="11.8361726156869"><ele>84.6</ele><time>2026-04-03T10:24:58Z</time></trkpt><trkpt lat="44.22140478656685" lon="11.836230487204077"><ele>83.39999999999999</ele><time>2026-04-03T10:24:59Z</time></trkpt><trkpt lat="44.22134446221039" lon="11.836279907226187"><ele>82.19999999999999</ele><time>2026-04-03T10:25:00Z</time></trkpt><trkpt lat="44.22124589199877" lon="11.836338071551594"><ele>81.0</ele><time>2026-04-03T10:25:02Z</time></trkpt><trkpt lat="44.22110763339703" lon="11.836296665251371"><ele>81.0</ele><time>2026-04-03T10:25:04Z</time></trkpt><trkpt lat="44.221024136949374" lon="11.836211812293039"><ele>81.0</ele><time>2026-04-03T10:25:05Z</time></trkpt><trkpt lat="44.22091416008886" lon="11.83612692257813"><ele>81.0</ele><time>2026-04-03T10:25:06Z</time></trkpt><trkpt lat="44.22079443916184" lon="11.836087669465657"><ele>81.0</ele><time>2026-04-03T10:25:07Z</time></trkpt><trkpt lat="44.22069640993021" lon="11.83601227578953"><ele>80.75</ele><time>2026-04-03T10:25:08Z</time></trkpt><trkpt lat="44.22060839364729" lon="11.835962336576666"><ele>80.5</ele><time>2026-04-03T10:25:09Z</time></trkpt><trkpt lat="44.22053943896058" lon="11.835923212657827"><ele>80.25</ele><time>2026-04-03T10:25:10Z</time></trkpt><trkpt lat="44.220389830819315" lon="11.836235619494976"><ele>80.0</ele><time>2026-04-03T10:25:11Z</time></trkpt><trkpt lat="44.22031906725765" lon="11.836326413766407"><ele>79.6</ele><time>2026-04-03T10:25:12Z</time></trkpt><trkpt lat="44.220225754977214" lon="11.83640799922284"><ele>79.2</ele><time>2026-04-03T10:25:13Z</time></trkpt><trkpt lat="44.220164241900044" lon="11.836508127010946"><ele>78.8</ele><time>2026-04-03T10:25:14Z</time></trkpt><trkpt lat="44.22011486414246" lon="11.836615252983046"><ele>78.4</ele><time>2026-04-03T10:25:15Z</time></trkpt><trkpt lat="44.22006800393873" lon="11.836727002032617"><ele>78.0</ele><time>2026-04-03T10:25:16Z</time></trkpt><trkpt lat="44.22002359731596" lon="11.83684660345646"><ele>77.83333333333333</ele><time>2026-04-03T10:25:17Z</time></trkpt><trkpt lat="44.21999259693337" lon="11.836930361195932"><ele>77.66666666666667</ele><time>2026-04-03T10:25:18Z</time></trkpt><trkpt lat="44.21993614171376" lon="11.837033088605"><ele>77.5</ele><time>2026-04-03T10:25:19Z</time></trkpt><trkpt lat="44.21989816023268" lon="11.83711365388653"><ele>77.33333333333334</ele><time>2026-04-03T10:25:20Z</time></trkpt><trkpt lat="44.219856264587456" lon="11.837235405044687"><ele>77.16666666666667</ele><time>2026-04-03T10:25:21Z</time></trkpt><trkpt lat="44.21980138115689" lon="11.837385303851402"><ele>77.0</ele><time>2026-04-03T10:25:22Z</time></trkpt><trkpt lat="44.219757314407424" lon="11.837495428881425"><ele>77.0</ele><time>2026-04-03T10:25:23Z</time></trkpt><trkpt lat="44.21970076295382" lon="11.83758196224772"><ele>77.0</ele><time>2026-04-03T10:25:25Z</time></trkpt><trkpt lat="44.219626918456164" lon="11.837548729110383"><ele>77.0</ele><time>2026-04-03T10:25:57Z</time></trkpt><trkpt lat="44.21955684077403" lon="11.837502715428592"><ele>77.0</ele><time>2026-04-03T10:25:58Z</time></trkpt><trkpt lat="44.219450327190124" lon="11.837422679477282"><ele>77.0</ele><time>2026-04-03T10:25:59Z</time></trkpt><trkpt lat="44.21930537125114" lon="11.837311845410154"><ele>77.0</ele><time>2026-04-03T10:26:00Z</time></trkpt><trkpt lat="44.219138202061636" lon="11.837171060052299"><ele>77.0</ele><time>2026-04-03T10:26:01Z</time></trkpt><trkpt lat="44.218986579390005" lon="11.837054622546152"><ele>77.0</ele><time>2026-04-03T10:26:02Z</time></trkpt><trkpt lat="44.21888080471827" lon="11.83697149604002"><ele>77.0</ele><time>2026-04-03T10:26:03Z</time></trkpt><trkpt lat="44.21878212024715" lon="11.836895067311707"><ele>77.0</ele><time>2026-04-03T10:26:04Z</time></trkpt><trkpt lat="44.21869357513453" lon="11.836833457441385"><ele>77.0</ele><time>2026-04-03T10:26:05Z</time></trkpt><trkpt lat="44.21861954730983" lon="11.83679343010665"><ele>77.0</ele><time>2026-04-03T10:26:06Z</time></trkpt><trkpt lat="44.21853688671641" lon="11.83674813048631"><ele>77.0</ele><time>2026-04-03T10:26:08Z</time></trkpt><trkpt lat="44.218495544454676" lon="11.83666926839204"><ele>77.0</ele><time>2026-04-03T10:26:10Z</time></trkpt><trkpt lat="44.21847606051869" lon="11.836574891694093"><ele>77.0</ele><time>2026-04-03T10:26:27Z</time></trkpt><trkpt lat="44.21847682248589" lon="11.836453756882777"><ele>77.0</ele><time>2026-04-03T10:26:29Z</time></trkpt><trkpt lat="44.21848003662192" lon="11.836355543182444"><ele>77.0</ele><time>2026-04-03T10:26:31Z</time></trkpt><trkpt lat="44.218499215260586" lon="11.836260613418037"><ele>77.0</ele><time>2026-04-03T10:26:33Z</time></trkpt><trkpt lat="44.21851716883087" lon="11.836157903498805"><ele>77.0</ele><time>2026-04-03T10:26:34Z</time></trkpt><trkpt lat="44.21852396614326" lon="11.836057668383921"><ele>77.0</ele><time>2026-04-03T10:26:35Z</time></trkpt><trkpt lat="44.21855772114807" lon="11.83588721086672"><ele>77.2</ele><time>2026-04-03T10:26:37Z</time></trkpt><trkpt lat="44.218606481140675" lon="11.835727952293203"><ele>77.4</ele><time>2026-04-03T10:26:39Z</time></trkpt><trkpt lat="44.218639576882175" lon="11.835593392360442"><ele>77.6</ele><time>2026-04-03T10:26:41Z</time></trkpt><trkpt lat="44.21866454685285" lon="11.8355115302723"><ele>77.8</ele><time>2026-04-03T10:27:38Z</time></trkpt><trkpt lat="44.21869423797461" lon="11.835392636022114"><ele>78.0</ele><time>2026-04-03T10:27:41Z</time></trkpt><trkpt lat="44.21875602425395" lon="11.835292431206431"><ele>78.0</ele><time>2026-04-03T10:27:43Z</time></trkpt><trkpt lat="44.218797600748076" lon="11.835222733401642"><ele>78.0</ele><time>2026-04-03T10:27:44Z</time></trkpt><trkpt lat="44.21884172263368" lon="11.835149255675688"><ele>78.0</ele><time>2026-04-03T10:27:45Z</time></trkpt><trkpt lat="44.21889415997229" lon="11.835027306706833"><ele>78.0</ele><time>2026-04-03T10:27:47Z</time></trkpt><trkpt lat="44.21894639257013" lon="11.834934913716614"><ele>78.0</ele><time>2026-04-03T10:27:51Z</time></trkpt><trkpt lat="44.21899746418658" lon="11.834839567866831"><ele>78.0</ele><time>2026-04-03T10:27:53Z</time></trkpt><trkpt lat="44.21904343215474" lon="11.83477602499981"><ele>78.0</ele><time>2026-04-03T10:27:55Z</time></trkpt><trkpt lat="44.21910977175642" lon="11.83473478982327"><ele>78.0</ele><time>2026-04-03T10:27:57Z</time></trkpt><trkpt lat="44.21918729690942" lon="11.834712456042789"><ele>78.0</ele><time>2026-04-03T10:27:58.999Z</time></trkpt><trkpt lat="44.21927355338412" lon="11.834712227466323"><ele>78.0</ele><time>2026-04-03T10:28:01.999Z</time></trkpt><trkpt lat="44.219324155087996" lon="11.834775647801107"><ele>78.0</ele><time>2026-04-03T10:28:05Z</time></trkpt><trkpt lat="44.21923580140259" lon="11.834740953011936"><ele>78.0</ele><time>2026-04-03T10:28:38Z</time></trkpt><trkpt lat="44.21914409753949" lon="11.83474644721474"><ele>78.0</ele><time>2026-04-03T10:28:40Z</time></trkpt><trkpt lat="44.2190670253898" lon="11.834780210241785"><ele>78.0</ele><time>2026-04-03T10:28:43Z</time></trkpt><trkpt lat="44.219004838292015" lon="11.834857067225219"><ele>78.0</ele><time>2026-04-03T10:28:45Z</time></trkpt><trkpt lat="44.21894507467946" lon="11.834964818651537"><ele>78.0</ele><time>2026-04-03T10:28:47Z</time></trkpt><trkpt lat="44.21888648554909" lon="11.835090383086992"><ele>78.0</ele><time>2026-04-03T10:28:49Z</time></trkpt><trkpt lat="44.218843675994705" lon="11.8351751089827"><ele>78.0</ele><time>2026-04-03T10:28:50Z</time></trkpt><trkpt lat="44.21880010963927" lon="11.835255795627429"><ele>78.0</ele><time>2026-04-03T10:28:51Z</time></trkpt><trkpt lat="44.218743467826734" lon="11.835368600025037"><ele>78.0</ele><time>2026-04-03T10:28:53Z</time></trkpt><trkpt lat="44.21868054927086" lon="11.83550243489227"><ele>78.0</ele><time>2026-04-03T10:28:55Z</time></trkpt><trkpt lat="44.21863879477554" lon="11.835662713418634"><ele>78.0</ele><time>2026-04-03T10:28:57Z</time></trkpt><trkpt lat="44.21860249090765" lon="11.83579644058033"><ele>78.0</ele><time>2026-04-03T10:28:58Z</time></trkpt><trkpt lat="44.21858152937668" lon="11.83590273714539"><ele>77.8</ele><time>2026-04-03T10:28:59Z</time></trkpt><trkpt lat="44.21855114147727" lon="11.836028171416151"><ele>77.6</ele><time>2026-04-03T10:29:01Z</time></trkpt><trkpt lat="44.21851569763813" lon="11.836231074292561"><ele>77.4</ele><time>2026-04-03T10:29:03Z</time></trkpt><trkpt lat="44.21849388567988" lon="11.836367444646267"><ele>77.2</ele><time>2026-04-03T10:29:04Z</time></trkpt><trkpt lat="44.21847970822299" lon="11.836505478623108"><ele>77.0</ele><time>2026-04-03T10:29:06Z</time></trkpt><trkpt lat="44.21848367885879" lon="11.836637836513782"><ele>77.0</ele><time>2026-04-03T10:29:08Z</time></trkpt><trkpt lat="44.21849810024418" lon="11.836750510336561"><ele>77.0</ele><time>2026-04-03T10:29:10Z</time></trkpt><trkpt lat="44.218515184756185" lon="11.836844415402558"><ele>77.0</ele><time>2026-04-03T10:34:02Z</time></trkpt><trkpt lat="44.21868870331539" lon="11.836836596151848"><ele>77.0</ele><time>2026-04-03T10:34:04.999Z</time></trkpt><trkpt lat="44.218773338388566" lon="11.836886234762906"><ele>77.0</ele><time>2026-04-03T10:34:06.999Z</time></trkpt><trkpt lat="44.21884194432147" lon="11.836945827621562"><ele>77.0</ele><time>2026-04-03T10:34:08.999Z</time></trkpt><trkpt lat="44.21891838787967" lon="11.83700036247359"><ele>77.0</ele><time>2026-04-03T10:34:09.999Z</time></trkpt><trkpt lat="44.21903995552391" lon="11.837083459630653"><ele>77.0</ele><time>2026-04-03T10:34:10.999Z</time></trkpt><trkpt lat="44.2191645767808" lon="11.837168707124821"><ele>77.0</ele><time>2026-04-03T10:34:11.999Z</time></trkpt><trkpt lat="44.219277226263976" lon="11.837252925997609"><ele>77.0</ele><time>2026-04-03T10:34:12.999Z</time></trkpt><trkpt lat="44.21937370948313" lon="11.837332735942335"><ele>77.0</ele><time>2026-04-03T10:34:13.999Z</time></trkpt><trkpt lat="44.219466537434705" lon="11.837410872421925"><ele>77.0</ele><time>2026-04-03T10:34:14.999Z</time></trkpt><trkpt lat="44.21954458892971" lon="11.837468933770936"><ele>77.0</ele><time>2026-04-03T10:34:15.999Z</time></trkpt><trkpt lat="44.21964518776287" lon="11.837543166295161"><ele>77.0</ele><time>2026-04-03T10:34:17.999Z</time></trkpt><trkpt lat="44.21972476112373" lon="11.837533496145141"><ele>77.0</ele><time>2026-04-03T10:34:19.999Z</time></trkpt><trkpt lat="44.21979608996798" lon="11.83739868638112"><ele>77.0</ele><time>2026-04-03T10:34:22Z</time></trkpt><trkpt lat="44.21983320867808" lon="11.837287711289592"><ele>77.0</ele><time>2026-04-03T10:34:23Z</time></trkpt><trkpt lat="44.21986971105547" lon="11.837167897146486"><ele>77.0</ele><time>2026-04-03T10:34:24Z</time></trkpt><trkpt lat="44.21990466861022" lon="11.83704848872338"><ele>77.0</ele><time>2026-04-03T10:34:25Z</time></trkpt><trkpt lat="44.219945204534014" lon="11.83695029981768"><ele>77.0</ele><time>2026-04-03T10:34:26Z</time></trkpt><trkpt lat="44.220006806804314" lon="11.836829319382048"><ele>77.0</ele><time>2026-04-03T10:34:28Z</time></trkpt><trkpt lat="44.22004071782179" lon="11.83675461889809"><ele>77.0</ele><time>2026-04-03T10:34:29Z</time></trkpt><trkpt lat="44.220076383204265" lon="11.836672842936727"><ele>77.0</ele><time>2026-04-03T10:34:30Z</time></trkpt><trkpt lat="44.22014289063484" lon="11.836533611168043"><ele>77.0</ele><time>2026-04-03T10:34:32Z</time></trkpt><trkpt lat="44.22022694971891" lon="11.836401612294122"><ele>77.2</ele><time>2026-04-03T10:34:34Z</time></trkpt><trkpt lat="44.22027858838263" lon="11.836340747300431"><ele>77.4</ele><time>2026-04-03T10:34:35Z</time></trkpt><trkpt lat="44.2203273562812" lon="11.83628293435209"><ele>77.6</ele><time>2026-04-03T10:34:36Z</time></trkpt><trkpt lat="44.22037912224896" lon="11.836231571169327"><ele>77.8</ele><time>2026-04-03T10:34:37Z</time></trkpt><trkpt lat="44.22047928703413" lon="11.836148078418955"><ele>78.0</ele><time>2026-04-03T10:34:39Z</time></trkpt><trkpt lat="44.22060467099649" lon="11.836065832556494"><ele>78.75</ele><time>2026-04-03T10:34:41Z</time></trkpt><trkpt lat="44.220700575549614" lon="11.836055997567422"><ele>79.5</ele><time>2026-04-03T10:34:42Z</time></trkpt><trkpt lat="44.22080973029345" lon="11.836079454148742"><ele>80.25</ele><time>2026-04-03T10:34:43Z</time></trkpt><trkpt lat="44.2209239824911" lon="11.836149963584884"><ele>81.0</ele><time>2026-04-03T10:34:44Z</time></trkpt><trkpt lat="44.22105025311738" lon="11.836249918031006"><ele>81.0</ele><time>2026-04-03T10:34:45Z</time></trkpt><trkpt lat="44.221150653844205" lon="11.836340771774195"><ele>81.0</ele><time>2026-04-03T10:34:46Z</time></trkpt><trkpt lat="44.22121749934851" lon="11.836392908053181"><ele>81.0</ele><time>2026-04-03T10:34:47Z</time></trkpt><trkpt lat="44.22130163852041" lon="11.83638466349158"><ele>81.0</ele><time>2026-04-03T10:34:48Z</time></trkpt><trkpt lat="44.22139797374997" lon="11.836327860491448"><ele>81.0</ele><time>2026-04-03T10:34:49Z</time></trkpt><trkpt lat="44.22149184697714" lon="11.83624025123929"><ele>82.19999999999999</ele><time>2026-04-03T10:34:50Z</time></trkpt><trkpt lat="44.22157086416213" lon="11.836156481717973"><ele>83.39999999999999</ele><time>2026-04-03T10:34:51Z</time></trkpt><trkpt lat="44.22163596015596" lon="11.836107453452232"><ele>84.6</ele><time>2026-04-03T10:34:52Z</time></trkpt><trkpt lat="44.221662548528116" lon="11.835943456353853"><ele>85.8</ele><time>2026-04-03T10:34:57Z</time></trkpt><trkpt lat="44.22160903199224" lon="11.835815905356297"><ele>87.0</ele><time>2026-04-03T10:34:58Z</time></trkpt><trkpt lat="44.2215634755885" lon="11.835673221743985"><ele>86.25</ele><time>2026-04-03T10:34:59Z</time></trkpt><trkpt lat="44.221520506454006" lon="11.83551474424691"><ele>85.5</ele><time>2026-04-03T10:35:00Z</time></trkpt><trkpt lat="44.221489735737926" lon="11.835333074303586"><ele>84.75</ele><time>2026-04-03T10:35:01Z</time></trkpt><trkpt lat="44.22147144165906" lon="11.83512082135523"><ele>84.0</ele><time>2026-04-03T10:35:02Z</time></trkpt><trkpt lat="44.221443289099014" lon="11.834896478570498"><ele>84.0</ele><time>2026-04-03T10:35:03Z</time></trkpt><trkpt lat="44.22141893346093" lon="11.83467243937144"><ele>84.0</ele><time>2026-04-03T10:35:04Z</time></trkpt><trkpt lat="44.22139017021198" lon="11.834438332599193"><ele>84.0</ele><time>2026-04-03T10:35:05Z</time></trkpt><trkpt lat="44.221360106616956" lon="11.834213932795151"><ele>83.0</ele><time>2026-04-03T10:35:06Z</time></trkpt><trkpt lat="44.2213021934706" lon="11.833757330277818"><ele>82.0</ele><time>2026-04-03T10:35:08Z</time></trkpt><trkpt lat="44.22127256130456" lon="11.833525465399132"><ele>81.66666666666666</ele><time>2026-04-03T10:35:09Z</time></trkpt><trkpt lat="44.22124598254602" lon="11.833300582720904"><ele>81.33333333333333</ele><time>2026-04-03T10:35:10Z</time></trkpt><trkpt lat="44.22122489047312" lon="11.833095317519202"><ele>81.0</ele><time>2026-04-03T10:35:11Z</time></trkpt><trkpt lat="44.22121023744389" lon="11.83288728842333"><ele>81.0</ele><time>2026-04-03T10:35:12Z</time></trkpt><trkpt lat="44.22120279348556" lon="11.832677401942057"><ele>81.0</ele><time>2026-04-03T10:35:13Z</time></trkpt><trkpt lat="44.22120467702568" lon="11.832465901984223"><ele>81.0</ele><time>2026-04-03T10:35:14Z</time></trkpt><trkpt lat="44.22121320806689" lon="11.832240662255023"><ele>81.66666666666667</ele><time>2026-04-03T10:35:15Z</time></trkpt><trkpt lat="44.221232783018614" lon="11.83200946157971"><ele>82.33333333333334</ele><time>2026-04-03T10:35:16Z</time></trkpt><trkpt lat="44.22126573253041" lon="11.831776274127701"><ele>83.0</ele><time>2026-04-03T10:35:17Z</time></trkpt><trkpt lat="44.22130463072963" lon="11.831547514591202"><ele>84.0</ele><time>2026-04-03T10:35:18Z</time></trkpt><trkpt lat="44.2213458199336" lon="11.831318030890237"><ele>85.0</ele><time>2026-04-03T10:35:19Z</time></trkpt><trkpt lat="44.22138562807608" lon="11.831083102332132"><ele>86.0</ele><time>2026-04-03T10:35:20Z</time></trkpt><trkpt lat="44.22142190262749" lon="11.83085122069795"><ele>86.0</ele><time>2026-04-03T10:35:21Z</time></trkpt><trkpt lat="44.22145009727469" lon="11.830621400354664"><ele>86.0</ele><time>2026-04-03T10:35:22Z</time></trkpt><trkpt lat="44.22146702583087" lon="11.83039612895089"><ele>86.0</ele><time>2026-04-03T10:35:23Z</time></trkpt><trkpt lat="44.221471875794236" lon="11.830165834428158"><ele>85.0</ele><time>2026-04-03T10:35:24Z</time></trkpt><trkpt lat="44.22146835662967" lon="11.829929978362646"><ele>84.0</ele><time>2026-04-03T10:35:25Z</time></trkpt><trkpt lat="44.221459249184186" lon="11.829689464846833"><ele>83.0</ele><time>2026-04-03T10:35:26Z</time></trkpt><trkpt lat="44.22144881203051" lon="11.829440119871988"><ele>84.66666666666667</ele><time>2026-04-03T10:35:27Z</time></trkpt><trkpt lat="44.221438969082364" lon="11.82919677373073"><ele>86.33333333333333</ele><time>2026-04-03T10:35:28Z</time></trkpt><trkpt lat="44.221425600832255" lon="11.828965674098349"><ele>88.0</ele><time>2026-04-03T10:35:29Z</time></trkpt><trkpt lat="44.221405109316954" lon="11.828758903214794"><ele>88.0</ele><time>2026-04-03T10:35:30Z</time></trkpt><trkpt lat="44.221370568840086" lon="11.828566780178907"><ele>88.0</ele><time>2026-04-03T10:35:31Z</time></trkpt><trkpt lat="44.221317093581504" lon="11.828383569753191"><ele>88.0</ele><time>2026-04-03T10:35:32Z</time></trkpt><trkpt lat="44.22124683276641" lon="11.82822582340789"><ele>88.0</ele><time>2026-04-03T10:35:33Z</time></trkpt><trkpt lat="44.22115310458495" lon="11.828102664824174"><ele>89.75</ele><time>2026-04-03T10:35:34Z</time></trkpt><trkpt lat="44.22103337470787" lon="11.827996879803475"><ele>91.5</ele><time>2026-04-03T10:35:35Z</time></trkpt><trkpt lat="44.22089888357715" lon="11.827906977265716"><ele>93.25</ele><time>2026-04-03T10:35:36Z</time></trkpt><trkpt lat="44.22076121452166" lon="11.82782693612097"><ele>95.0</ele><time>2026-04-03T10:35:37Z</time></trkpt><trkpt lat="44.22061541216492" lon="11.827748459028243"><ele>95.0</ele><time>2026-04-03T10:35:38Z</time></trkpt><trkpt lat="44.22045985972419" lon="11.827671429099253"><ele>95.0</ele><time>2026-04-03T10:35:39Z</time></trkpt><trkpt lat="44.22030290308009" lon="11.827590156694361"><ele>95.0</ele><time>2026-04-03T10:35:40Z</time></trkpt><trkpt lat="44.220142681398436" lon="11.827478617609168"><ele>94.66666666666667</ele><time>2026-04-03T10:35:41Z</time></trkpt><trkpt lat="44.21996315373891" lon="11.827380311686847"><ele>94.33333333333333</ele><time>2026-04-03T10:35:42Z</time></trkpt><trkpt lat="44.21978130876708" lon="11.827280730334198"><ele>94.0</ele><time>2026-04-03T10:35:43Z</time></trkpt><trkpt lat="44.21959787813226" lon="11.827182386414643"><ele>94.0</ele><time>2026-04-03T10:35:44Z</time></trkpt><trkpt lat="44.219416095779955" lon="11.827084926276946"><ele>94.0</ele><time>2026-04-03T10:35:45Z</time></trkpt><trkpt lat="44.21922898156341" lon="11.827008365942689"><ele>94.0</ele><time>2026-04-03T10:35:46Z</time></trkpt><trkpt lat="44.21904821610621" lon="11.826903652312676"><ele>93.66666666666666</ele><time>2026-04-03T10:35:47Z</time></trkpt><trkpt lat="44.21886917119346" lon="11.826812661460627"><ele>93.33333333333333</ele><time>2026-04-03T10:35:48Z</time></trkpt><trkpt lat="44.218704405466625" lon="11.826725107195706"><ele>93.0</ele><time>2026-04-03T10:35:49Z</time></trkpt><trkpt lat="44.218555318216026" lon="11.826641423776879"><ele>94.25</ele><time>2026-04-03T10:35:50Z</time></trkpt><trkpt lat="44.21841221237285" lon="11.82656880184817"><ele>95.5</ele><time>2026-04-03T10:35:51Z</time></trkpt><trkpt lat="44.21828137922355" lon="11.826504038999063"><ele>96.75</ele><time>2026-04-03T10:35:52Z</time></trkpt><trkpt lat="44.21816775386534" lon="11.826445390564427"><ele>98.0</ele><time>2026-04-03T10:35:53Z</time></trkpt><trkpt lat="44.21807153191163" lon="11.826398736084357"><ele>98.0</ele><time>2026-04-03T10:35:54Z</time></trkpt><trkpt lat="44.21800046927004" lon="11.826354743782227"><ele>98.0</ele><time>2026-04-03T10:35:55Z</time></trkpt><trkpt lat="44.21792337149243" lon="11.826292111471108"><ele>98.0</ele><time>2026-04-03T10:35:56.999Z</time></trkpt><trkpt lat="44.217829514880535" lon="11.8262198440231"><ele>98.0</ele><time>2026-04-03T10:35:58.999Z</time></trkpt><trkpt lat="44.21776009780911" lon="11.826160423597123"><ele>98.0</ele><time>2026-04-03T10:35:59.999Z</time></trkpt><trkpt lat="44.21767646119612" lon="11.82608449266523"><ele>98.0</ele><time>2026-04-03T10:36:00.999Z</time></trkpt><trkpt lat="44.217565638296826" lon="11.825982723819868"><ele>98.0</ele><time>2026-04-03T10:36:01.999Z</time></trkpt><trkpt lat="44.21745759883763" lon="11.82588106577556"><ele>98.0</ele><time>2026-04-03T10:36:02.999Z</time></trkpt><trkpt lat="44.21736456781561" lon="11.825792265220835"><ele>98.0</ele><time>2026-04-03T10:36:03.999Z</time></trkpt><trkpt lat="44.21728430847608" lon="11.82571565576408"><ele>97.80000000000001</ele><time>2026-04-03T10:36:04.999Z</time></trkpt><trkpt lat="44.21719813143275" lon="11.825628372627616"><ele>97.6</ele><time>2026-04-03T10:36:05.999Z</time></trkpt><trkpt lat="44.21711696870852" lon="11.825540911784243"><ele>97.4</ele><time>2026-04-03T10:36:06.999Z</time></trkpt><trkpt lat="44.21703382672296" lon="11.825445498496045"><ele>97.19999999999999</ele><time>2026-04-03T10:36:07.999Z</time></trkpt><trkpt lat="44.216963834437145" lon="11.825353640245723"><ele>97.0</ele><time>2026-04-03T10:36:08.999Z</time></trkpt><trkpt lat="44.21689752948042" lon="11.825254504292616"><ele>97.0</ele><time>2026-04-03T10:36:09.999Z</time></trkpt><trkpt lat="44.21683534106935" lon="11.82515331327983"><ele>97.0</ele><time>2026-04-03T10:36:10.999Z</time></trkpt><trkpt lat="44.21678658812789" lon="11.825072043511067"><ele>97.0</ele><time>2026-04-03T10:36:11.999Z</time></trkpt><trkpt lat="44.2167428592718" lon="11.824996332611358"><ele>97.0</ele><time>2026-04-03T10:36:12.999Z</time></trkpt><trkpt lat="44.21670153739956" lon="11.82492478928181"><ele>97.0</ele><time>2026-04-03T10:36:13.999Z</time></trkpt><trkpt lat="44.21659749974629" lon="11.824744662100997"><ele>97.0</ele><time>2026-04-03T10:36:16.999Z</time></trkpt><trkpt lat="44.21654357567973" lon="11.824688521993778"><ele>97.0</ele><time>2026-04-03T10:36:19.999Z</time></trkpt><trkpt lat="44.216393690241915" lon="11.824520538463098"><ele>97.0</ele><time>2026-04-03T10:36:21.999Z</time></trkpt><trkpt lat="44.21631898518078" lon="11.824518318280049"><ele>97.0</ele><time>2026-04-03T10:36:28Z</time></trkpt><trkpt lat="44.216253504918804" lon="11.824518270787058"><ele>97.0</ele><time>2026-04-03T10:36:31Z</time></trkpt><trkpt lat="44.216220132984674" lon="11.825182089041924"><ele>96.00000000000001</ele><time>2026-04-03T10:36:34Z</time></trkpt><trkpt lat="44.21617850016911" lon="11.825289661052855"><ele>95.0</ele><time>2026-04-03T10:36:36Z</time></trkpt><trkpt lat="44.21614945063493" lon="11.825402256257407"><ele>94.0</ele><time>2026-04-03T10:36:38Z</time></trkpt><trkpt lat="44.21610550814569" lon="11.825476764041703"><ele>93.0</ele><time>2026-04-03T10:36:46Z</time></trkpt><trkpt lat="44.21612278022502" lon="11.825381627693606"><ele>92.0</ele><time>2026-04-03T10:36:59Z</time></trkpt><trkpt lat="44.216174959095035" lon="11.825280968709011"><ele>91.0</ele><time>2026-04-03T10:37:00Z</time></trkpt><trkpt lat="44.21620502435121" lon="11.825185723279953"><ele>92.19999999999999</ele><time>2026-04-03T10:37:01Z</time></trkpt><trkpt lat="44.216242056985315" lon="11.82507149386082"><ele>93.39999999999999</ele><time>2026-04-03T10:37:02Z</time></trkpt><trkpt lat="44.21629161101033" lon="11.824963531834573"><ele>94.6</ele><time>2026-04-03T10:37:04Z</time></trkpt><trkpt lat="44.21622822376412" lon="11.824877575641825"><ele>95.8</ele><time>2026-04-03T10:37:07Z</time></trkpt><trkpt lat="44.21606641944808" lon="11.824864557942282"><ele>97.0</ele><time>2026-04-03T10:37:09Z</time></trkpt><trkpt lat="44.21595641738478" lon="11.824867376334124"><ele>97.0</ele><time>2026-04-03T10:37:10Z</time></trkpt><trkpt lat="44.21588645293755" lon="11.824858309599602"><ele>97.0</ele><time>2026-04-03T10:37:11Z</time></trkpt><trkpt lat="44.2157877956415" lon="11.82484445396705"><ele>97.0</ele><time>2026-04-03T10:37:13Z</time></trkpt><trkpt lat="44.21565539284765" lon="11.824825456062614"><ele>97.0</ele><time>2026-04-03T10:37:15Z</time></trkpt><trkpt lat="44.215585567068885" lon="11.82481277312041"><ele>97.0</ele><time>2026-04-03T10:37:16Z</time></trkpt><trkpt lat="44.21548616500617" lon="11.824799617088779"><ele>96.0</ele><time>2026-04-03T10:37:18Z</time></trkpt><trkpt lat="44.2154299347805" lon="11.824598317657399"><ele>95.0</ele><time>2026-04-03T10:37:19Z</time></trkpt><trkpt lat="44.21532337536082" lon="11.824607084303969"><ele>94.0</ele><time>2026-04-03T10:37:21Z</time></trkpt><trkpt lat="44.21524308144651" lon="11.824613690257856"><ele>93.0</ele><time>2026-04-03T10:37:23Z</time></trkpt><trkpt lat="44.215174207934034" lon="11.824623960600427"><ele>92.0</ele><time>2026-04-03T10:37:25Z</time></trkpt><trkpt lat="44.215110036088525" lon="11.824632877046307"><ele>92.0</ele><time>2026-04-03T10:37:30Z</time></trkpt><trkpt lat="44.215182477270154" lon="11.824630215115501"><ele>92.0</ele><time>2026-04-03T10:37:40Z</time></trkpt><trkpt lat="44.2152972397919" lon="11.82458330607171"><ele>92.0</ele><time>2026-04-03T10:37:42Z</time></trkpt><trkpt lat="44.215389457276565" lon="11.824642838422331"><ele>92.0</ele><time>2026-04-03T10:37:45Z</time></trkpt><trkpt lat="44.215487037428275" lon="11.824593619727557"><ele>92.0</ele><time>2026-04-03T10:37:47Z</time></trkpt><trkpt lat="44.2155631319325" lon="11.824587359548199"><ele>92.0</ele><time>2026-04-03T10:37:49Z</time></trkpt><trkpt lat="44.21562780700873" lon="11.824579597598913"><ele>92.0</ele><time>2026-04-03T10:37:53Z</time></trkpt><trkpt lat="44.21554266787424" lon="11.82460590850753"><ele>92.0</ele><time>2026-04-03T10:38:54Z</time></trkpt><trkpt lat="44.21547806479608" lon="11.824594358034481"><ele>92.0</ele><time>2026-04-03T10:38:56Z</time></trkpt><trkpt lat="44.215386790982286" lon="11.824601867082308"><ele>92.0</ele><time>2026-04-03T10:38:58Z</time></trkpt><trkpt lat="44.215293579828995" lon="11.824577796209942"><ele>92.0</ele><time>2026-04-03T10:39:00Z</time></trkpt><trkpt lat="44.21518685964586" lon="11.824470557575475"><ele>92.0</ele><time>2026-04-03T10:39:02Z</time></trkpt><trkpt lat="44.21513286775907" lon="11.824401896694477"><ele>92.0</ele><time>2026-04-03T10:39:03Z</time></trkpt><trkpt lat="44.21508476400343" lon="11.824338236994958"><ele>92.0</ele><time>2026-04-03T10:39:04Z</time></trkpt><trkpt lat="44.215011282989224" lon="11.824231218304316"><ele>92.0</ele><time>2026-04-03T10:39:06Z</time></trkpt><trkpt lat="44.21497626400154" lon="11.824132059689749"><ele>92.0</ele><time>2026-04-03T10:39:08Z</time></trkpt><trkpt lat="44.21495537389432" lon="11.8240106272468"><ele>92.0</ele><time>2026-04-03T10:39:10Z</time></trkpt><trkpt lat="44.21490074686478" lon="11.823911853707187"><ele>92.5</ele><time>2026-04-03T10:39:12Z</time></trkpt><trkpt lat="44.21486457755727" lon="11.823813960945955"><ele>93.0</ele><time>2026-04-03T10:39:14Z</time></trkpt><trkpt lat="44.2149377722337" lon="11.823709592524144"><ele>93.5</ele><time>2026-04-03T10:39:15Z</time></trkpt><trkpt lat="44.2149366195608" lon="11.823582972097316"><ele>94.0</ele><time>2026-04-03T10:39:17Z</time></trkpt><trkpt lat="44.214941593587746" lon="11.82349375646063"><ele>94.5</ele><time>2026-04-03T10:39:18Z</time></trkpt><trkpt lat="44.2149611737857" lon="11.823408571395762"><ele>95.0</ele><time>2026-04-03T10:39:19Z</time></trkpt><trkpt lat="44.21499645336237" lon="11.823222359534876"><ele>95.0</ele><time>2026-04-03T10:39:21Z</time></trkpt><trkpt lat="44.215015223863894" lon="11.823119686200586"><ele>95.0</ele><time>2026-04-03T10:39:22Z</time></trkpt><trkpt lat="44.21504818813189" lon="11.822953613487595"><ele>95.0</ele><time>2026-04-03T10:39:24Z</time></trkpt><trkpt lat="44.2150639293476" lon="11.822860654046298"><ele>95.0</ele><time>2026-04-03T10:39:25Z</time></trkpt><trkpt lat="44.21509406748837" lon="11.82272296656814"><ele>95.0</ele><time>2026-04-03T10:39:27Z</time></trkpt><trkpt lat="44.2150854257869" lon="11.822606257417792"><ele>95.0</ele><time>2026-04-03T10:39:29Z</time></trkpt><trkpt lat="44.215105995454" lon="11.82249578352053"><ele>95.0</ele><time>2026-04-03T10:39:45Z</time></trkpt><trkpt lat="44.215153191620516" lon="11.822414087378366"><ele>95.0</ele><time>2026-04-03T10:39:48Z</time></trkpt><trkpt lat="44.21515541007827" lon="11.822285163439034"><ele>95.0</ele><time>2026-04-03T10:39:53Z</time></trkpt><trkpt lat="44.21509049346097" lon="11.822168457487285"><ele>95.0</ele><time>2026-04-03T10:39:54Z</time></trkpt><trkpt lat="44.21499899882574" lon="11.822045511997812"><ele>95.0</ele><time>2026-04-03T10:39:55Z</time></trkpt><trkpt lat="44.21491683512299" lon="11.82192111483685"><ele>95.0</ele><time>2026-04-03T10:39:56Z</time></trkpt><trkpt lat="44.21483486855192" lon="11.82177557896165"><ele>95.0</ele><time>2026-04-03T10:39:57Z</time></trkpt><trkpt lat="44.21474379697605" lon="11.821616765836014"><ele>95.0</ele><time>2026-04-03T10:39:58Z</time></trkpt><trkpt lat="44.21465050785707" lon="11.821457058059694"><ele>95.33333333333334</ele><time>2026-04-03T10:39:59Z</time></trkpt><trkpt lat="44.214553580382336" lon="11.821292973851683"><ele>95.66666666666667</ele><time>2026-04-03T10:40:00Z</time></trkpt><trkpt lat="44.21445255614208" lon="11.821126890718956"><ele>96.0</ele><time>2026-04-03T10:40:01Z</time></trkpt><trkpt lat="44.214348810636245" lon="11.820958517059253"><ele>96.0</ele><time>2026-04-03T10:40:02Z</time></trkpt><trkpt lat="44.21423077312813" lon="11.820800570947888"><ele>96.0</ele><time>2026-04-03T10:40:03Z</time></trkpt><trkpt lat="44.21409623694107" lon="11.82065070983832"><ele>96.0</ele><time>2026-04-03T10:40:04Z</time></trkpt><trkpt lat="44.21393768411436" lon="11.820519802186627"><ele>94.0</ele><time>2026-04-03T10:40:05Z</time></trkpt><trkpt lat="44.213766519948464" lon="11.820400116545374"><ele>92.0</ele><time>2026-04-03T10:40:06Z</time></trkpt><trkpt lat="44.213591185264114" lon="11.820293800881016"><ele>90.0</ele><time>2026-04-03T10:40:07Z</time></trkpt><trkpt lat="44.21341123828701" lon="11.820176947230667"><ele>91.0</ele><time>2026-04-03T10:40:08Z</time></trkpt><trkpt lat="44.21323966369678" lon="11.820064663117888"><ele>92.0</ele><time>2026-04-03T10:40:09Z</time></trkpt><trkpt lat="44.21307957527987" lon="11.819958607615451"><ele>93.0</ele><time>2026-04-03T10:40:10Z</time></trkpt><trkpt lat="44.21293082654243" lon="11.819862644196805"><ele>93.0</ele><time>2026-04-03T10:40:11Z</time></trkpt><trkpt lat="44.2127867437442" lon="11.819786581110558"><ele>93.0</ele><time>2026-04-03T10:40:11.999Z</time></trkpt><trkpt lat="44.212634584941945" lon="11.81974276166079"><ele>93.0</ele><time>2026-04-03T10:40:12.999Z</time></trkpt><trkpt lat="44.21245684185641" lon="11.819728671017717"><ele>92.33333333333333</ele><time>2026-04-03T10:40:13.999Z</time></trkpt><trkpt lat="44.21227086208317" lon="11.819707146324111"><ele>91.66666666666666</ele><time>2026-04-03T10:40:14.999Z</time></trkpt><trkpt lat="44.21208271861964" lon="11.819726676804454"><ele>91.0</ele><time>2026-04-03T10:40:15.999Z</time></trkpt><trkpt lat="44.21189071259798" lon="11.819769929705588"><ele>91.0</ele><time>2026-04-03T10:40:16.999Z</time></trkpt><trkpt lat="44.21170874993434" lon="11.819815279817155"><ele>91.0</ele><time>2026-04-03T10:40:17.999Z</time></trkpt><trkpt lat="44.21154095558982" lon="11.819836184423734"><ele>91.0</ele><time>2026-04-03T10:40:18.999Z</time></trkpt><trkpt lat="44.211374247866964" lon="11.819816644783005"><ele>91.0</ele><time>2026-04-03T10:40:19.999Z</time></trkpt><trkpt lat="44.21120336260758" lon="11.819778757770878"><ele>91.0</ele><time>2026-04-03T10:40:20.999Z</time></trkpt><trkpt lat="44.21105450663049" lon="11.819666186947169"><ele>91.0</ele><time>2026-04-03T10:40:21.999Z</time></trkpt><trkpt lat="44.210921778276486" lon="11.81954583615355"><ele>91.0</ele><time>2026-04-03T10:40:22.999Z</time></trkpt><trkpt lat="44.210798882996265" lon="11.81940069170839"><ele>91.0</ele><time>2026-04-03T10:40:23.999Z</time></trkpt><trkpt lat="44.21068331601405" lon="11.819239050286347"><ele>91.0</ele><time>2026-04-03T10:40:24.999Z</time></trkpt><trkpt lat="44.21054898884655" lon="11.819102001030862"><ele>90.33333333333333</ele><time>2026-04-03T10:40:25.999Z</time></trkpt><trkpt lat="44.21040878133149" lon="11.818945869746893"><ele>89.66666666666667</ele><time>2026-04-03T10:40:26.999Z</time></trkpt><trkpt lat="44.21025543091518" lon="11.818826384547574"><ele>89.0</ele><time>2026-04-03T10:40:27.999Z</time></trkpt><trkpt lat="44.210121760397314" lon="11.818703272020475"><ele>89.0</ele><time>2026-04-03T10:40:28.999Z</time></trkpt><trkpt lat="44.20997603411615" lon="11.818625011163165"><ele>89.0</ele><time>2026-04-03T10:40:29.999Z</time></trkpt><trkpt lat="44.20983965893923" lon="11.818573047991572"><ele>89.0</ele><time>2026-04-03T10:40:30.999Z</time></trkpt><trkpt lat="44.20969762239185" lon="11.818536505471888"><ele>89.0</ele><time>2026-04-03T10:40:31.999Z</time></trkpt><trkpt lat="44.20954382001158" lon="11.81851549052356"><ele>89.0</ele><time>2026-04-03T10:40:32.999Z</time></trkpt><trkpt lat="44.209384067234" lon="11.818515121550012"><ele>89.0</ele><time>2026-04-03T10:40:33.999Z</time></trkpt><trkpt lat="44.209214890039206" lon="11.818524557764144"><ele>89.0</ele><time>2026-04-03T10:40:34.999Z</time></trkpt><trkpt lat="44.20904993376987" lon="11.818542059852753"><ele>89.66666666666667</ele><time>2026-04-03T10:40:35.999Z</time></trkpt><trkpt lat="44.20888756270636" lon="11.818592674709931"><ele>90.33333333333333</ele><time>2026-04-03T10:40:36.999Z</time></trkpt><trkpt lat="44.20872242291758" lon="11.818612418408028"><ele>91.0</ele><time>2026-04-03T10:40:37.999Z</time></trkpt><trkpt lat="44.208553334658795" lon="11.818641890617801"><ele>91.0</ele><time>2026-04-03T10:40:39Z</time></trkpt><trkpt lat="44.20838009904716" lon="11.818658849862043"><ele>91.0</ele><time>2026-04-03T10:40:40Z</time></trkpt><trkpt lat="44.208212243699165" lon="11.818638401223037"><ele>91.0</ele><time>2026-04-03T10:40:41Z</time></trkpt><trkpt lat="44.208036580750615" lon="11.818660927931157"><ele>91.66666666666666</ele><time>2026-04-03T10:40:42Z</time></trkpt><trkpt lat="44.20785745920935" lon="11.8186883611436"><ele>92.33333333333333</ele><time>2026-04-03T10:40:43Z</time></trkpt><trkpt lat="44.2076717899911" lon="11.81873738672205"><ele>93.0</ele><time>2026-04-03T10:40:44Z</time></trkpt><trkpt lat="44.20749546525361" lon="11.818827512890039"><ele>92.66666666666667</ele><time>2026-04-03T10:40:45Z</time></trkpt><trkpt lat="44.20730219684851" lon="11.818885106645387"><ele>92.33333333333334</ele><time>2026-04-03T10:40:46Z</time></trkpt><trkpt lat="44.20710377944994" lon="11.818962487147262"><ele>92.0</ele><time>2026-04-03T10:40:47Z</time></trkpt><trkpt lat="44.206898370557916" lon="11.819037477750818"><ele>92.0</ele><time>2026-04-03T10:40:48Z</time></trkpt><trkpt lat="44.206687000223575" lon="11.819107816380239"><ele>92.0</ele><time>2026-04-03T10:40:49Z</time></trkpt><trkpt lat="44.206468561140156" lon="11.819175118787305"><ele>92.0</ele><time>2026-04-03T10:40:50Z</time></trkpt><trkpt lat="44.20625070339107" lon="11.819237888152045"><ele>93.0</ele><time>2026-04-03T10:40:51Z</time></trkpt><trkpt lat="44.20603128004352" lon="11.819300734111518"><ele>94.0</ele><time>2026-04-03T10:40:52Z</time></trkpt><trkpt lat="44.20581670291004" lon="11.819361727748614"><ele>95.0</ele><time>2026-04-03T10:40:53Z</time></trkpt><trkpt lat="44.205598871691436" lon="11.819410372618485"><ele>95.66666666666667</ele><time>2026-04-03T10:40:54Z</time></trkpt><trkpt lat="44.205380235147416" lon="11.819429073162729"><ele>96.33333333333334</ele><time>2026-04-03T10:40:55Z</time></trkpt><trkpt lat="44.20515918922971" lon="11.819409409788555"><ele>97.0</ele><time>2026-04-03T10:40:56Z</time></trkpt><trkpt lat="44.20493452047328" lon="11.819376904478375"><ele>95.5</ele><time>2026-04-03T10:40:57Z</time></trkpt><trkpt lat="44.204708221893355" lon="11.819318713483666"><ele>94.0</ele><time>2026-04-03T10:40:58Z</time></trkpt><trkpt lat="44.20449444451242" lon="11.819217992915778"><ele>94.0</ele><time>2026-04-03T10:40:59Z</time></trkpt><trkpt lat="44.20428949437711" lon="11.819090459077064"><ele>94.0</ele><time>2026-04-03T10:41:00Z</time></trkpt><trkpt lat="44.2040849813797" lon="11.818955252036538"><ele>94.0</ele><time>2026-04-03T10:41:01Z</time></trkpt><trkpt lat="44.2038770568691" lon="11.818842216723747"><ele>94.0</ele><time>2026-04-03T10:41:02Z</time></trkpt><trkpt lat="44.20367596781426" lon="11.818700268729973"><ele>94.0</ele><time>2026-04-03T10:41:03Z</time></trkpt><trkpt lat="44.203472182247395" lon="11.81856003067373"><ele>94.0</ele><time>2026-04-03T10:41:04Z</time></trkpt><trkpt lat="44.20327155229852" lon="11.818415706765178"><ele>94.0</ele><time>2026-04-03T10:41:05Z</time></trkpt><trkpt lat="44.20306954248095" lon="11.818267807533154"><ele>94.0</ele><time>2026-04-03T10:41:06Z</time></trkpt><trkpt lat="44.202872499296255" lon="11.818117825756946"><ele>94.0</ele><time>2026-04-03T10:41:07Z</time></trkpt><trkpt lat="44.20267633533165" lon="11.817969446985282"><ele>94.0</ele><time>2026-04-03T10:41:08Z</time></trkpt><trkpt lat="44.20247421745622" lon="11.817815084669453"><ele>94.5</ele><time>2026-04-03T10:41:09Z</time></trkpt><trkpt lat="44.20227442854958" lon="11.817665804636079"><ele>95.0</ele><time>2026-04-03T10:41:10Z</time></trkpt><trkpt lat="44.20207506780568" lon="11.817515918154852"><ele>95.0</ele><time>2026-04-03T10:41:11Z</time></trkpt><trkpt lat="44.20188229885228" lon="11.817363502002006"><ele>95.0</ele><time>2026-04-03T10:41:12Z</time></trkpt><trkpt lat="44.20169066240484" lon="11.817212652709582"><ele>95.0</ele><time>2026-04-03T10:41:13Z</time></trkpt><trkpt lat="44.20150495574413" lon="11.817066510727782"><ele>96.66666666666667</ele><time>2026-04-03T10:41:14Z</time></trkpt><trkpt lat="44.20133159131186" lon="11.816928630753928"><ele>98.33333333333334</ele><time>2026-04-03T10:41:15Z</time></trkpt><trkpt lat="44.20116306826931" lon="11.816803558329843"><ele>100.0</ele><time>2026-04-03T10:41:16Z</time></trkpt><trkpt lat="44.20101543340386" lon="11.816688784078904"><ele>100.25</ele><time>2026-04-03T10:41:17Z</time></trkpt><trkpt lat="44.20088188068931" lon="11.816598578302335"><ele>100.5</ele><time>2026-04-03T10:41:18Z</time></trkpt><trkpt lat="44.200762542786926" lon="11.816540720911483"><ele>100.75</ele><time>2026-04-03T10:41:19Z</time></trkpt><trkpt lat="44.20065630322249" lon="11.816519053775064"><ele>101.0</ele><time>2026-04-03T10:41:20Z</time></trkpt><trkpt lat="44.20055911977026" lon="11.816566508651176"><ele>100.75</ele><time>2026-04-03T10:41:21Z</time></trkpt><trkpt lat="44.20047930328674" lon="11.816676005581643"><ele>100.5</ele><time>2026-04-03T10:41:22Z</time></trkpt><trkpt lat="44.20039459762182" lon="11.816798518791416"><ele>100.25</ele><time>2026-04-03T10:41:23Z</time></trkpt><trkpt lat="44.20030456216336" lon="11.816932831724873"><ele>100.0</ele><time>2026-04-03T10:41:24Z</time></trkpt><trkpt lat="44.2002083686163" lon="11.817077042247606"><ele>100.0</ele><time>2026-04-03T10:41:25Z</time></trkpt><trkpt lat="44.20010663338196" lon="11.817232097097712"><ele>100.0</ele><time>2026-04-03T10:41:26Z</time></trkpt><trkpt lat="44.20000498307661" lon="11.817388755317483"><ele>100.0</ele><time>2026-04-03T10:41:27Z</time></trkpt><trkpt lat="44.199896672939644" lon="11.817556898698394"><ele>100.33333333333334</ele><time>2026-04-03T10:41:28Z</time></trkpt><trkpt lat="44.199777580184495" lon="11.817741371893261"><ele>100.66666666666666</ele><time>2026-04-03T10:41:29Z</time></trkpt><trkpt lat="44.199648801518904" lon="11.817929699263239"><ele>101.0</ele><time>2026-04-03T10:41:30Z</time></trkpt><trkpt lat="44.199515439861486" lon="11.818083592787406"><ele>101.0</ele><time>2026-04-03T10:41:31Z</time></trkpt><trkpt lat="44.199354266060666" lon="11.818215825679783"><ele>101.0</ele><time>2026-04-03T10:41:32Z</time></trkpt><trkpt lat="44.199169669606455" lon="11.818313341207261"><ele>101.0</ele><time>2026-04-03T10:41:33Z</time></trkpt><trkpt lat="44.198965672116934" lon="11.818367055804268"><ele>101.33333333333333</ele><time>2026-04-03T10:41:34Z</time></trkpt><trkpt lat="44.19874814532319" lon="11.818392285788228"><ele>101.66666666666666</ele><time>2026-04-03T10:41:35Z</time></trkpt><trkpt lat="44.19852374398253" lon="11.818407282146925"><ele>102.0</ele><time>2026-04-03T10:41:36Z</time></trkpt><trkpt lat="44.19829739250717" lon="11.8184198193237"><ele>104.0</ele><time>2026-04-03T10:41:37Z</time></trkpt><trkpt lat="44.19808521681438" lon="11.818425995107177"><ele>106.0</ele><time>2026-04-03T10:41:38Z</time></trkpt><trkpt lat="44.19788547202137" lon="11.818418548430698"><ele>108.0</ele><time>2026-04-03T10:41:39Z</time></trkpt><trkpt lat="44.19769277215536" lon="11.818426313277948"><ele>108.0</ele><time>2026-04-03T10:41:40Z</time></trkpt><trkpt lat="44.19749997325373" lon="11.818363669982418"><ele>108.0</ele><time>2026-04-03T10:41:41Z</time></trkpt><trkpt lat="44.19730601015051" lon="11.818304227181928"><ele>108.0</ele><time>2026-04-03T10:41:42Z</time></trkpt><trkpt lat="44.197115969598784" lon="11.818257101343363"><ele>107.33333333333334</ele><time>2026-04-03T10:41:43Z</time></trkpt><trkpt lat="44.19692555591663" lon="11.818248701167335"><ele>106.66666666666667</ele><time>2026-04-03T10:41:44Z</time></trkpt><trkpt lat="44.19673622939356" lon="11.818280763347715"><ele>106.0</ele><time>2026-04-03T10:41:45Z</time></trkpt><trkpt lat="44.1965505098899" lon="11.818355989995082"><ele>104.66666666666667</ele><time>2026-04-03T10:41:46Z</time></trkpt><trkpt lat="44.19637180018408" lon="11.818480269214087"><ele>103.33333333333334</ele><time>2026-04-03T10:41:47Z</time></trkpt><trkpt lat="44.196200512536485" lon="11.81865575316428"><ele>102.0</ele><time>2026-04-03T10:41:48Z</time></trkpt><trkpt lat="44.1960363681841" lon="11.81882935411266"><ele>102.0</ele><time>2026-04-03T10:41:49Z</time></trkpt><trkpt lat="44.19587949525319" lon="11.818988294021716"><ele>102.0</ele><time>2026-04-03T10:41:50Z</time></trkpt><trkpt lat="44.19573354823059" lon="11.819125790353272"><ele>102.0</ele><time>2026-04-03T10:41:51Z</time></trkpt><trkpt lat="44.195589499986106" lon="11.819254088828941"><ele>103.0</ele><time>2026-04-03T10:41:52Z</time></trkpt><trkpt lat="44.19543300562324" lon="11.819370699237378"><ele>104.0</ele><time>2026-04-03T10:41:53Z</time></trkpt><trkpt lat="44.19525086276135" lon="11.819432383969936"><ele>105.0</ele><time>2026-04-03T10:41:54Z</time></trkpt><trkpt lat="44.195052220372894" lon="11.819418971218989"><ele>105.0</ele><time>2026-04-03T10:41:55Z</time></trkpt><trkpt lat="44.194848385117524" lon="11.81934348879741"><ele>105.0</ele><time>2026-04-03T10:41:56Z</time></trkpt><trkpt lat="44.19464637689983" lon="11.819242920432258"><ele>105.0</ele><time>2026-04-03T10:41:57Z</time></trkpt><trkpt lat="44.19444217959981" lon="11.819139528343342"><ele>106.66666666666666</ele><time>2026-04-03T10:41:58Z</time></trkpt><trkpt lat="44.194232970407256" lon="11.819053339400485"><ele>108.33333333333333</ele><time>2026-04-03T10:41:59Z</time></trkpt><trkpt lat="44.194023292290524" lon="11.818970490334625"><ele>110.0</ele><time>2026-04-03T10:42:00Z</time></trkpt><trkpt lat="44.19381856857257" lon="11.818889871358563"><ele>111.66666666666666</ele><time>2026-04-03T10:42:01Z</time></trkpt><trkpt lat="44.19361080101564" lon="11.81880846649171"><ele>113.33333333333334</ele><time>2026-04-03T10:42:02Z</time></trkpt><trkpt lat="44.1934164685606" lon="11.818723983104231"><ele>115.0</ele><time>2026-04-03T10:42:03Z</time></trkpt><trkpt lat="44.19323819848605" lon="11.818628173473055"><ele>117.66666666666667</ele><time>2026-04-03T10:42:04Z</time></trkpt><trkpt lat="44.19308012780336" lon="11.818483781914038"><ele>120.33333333333334</ele><time>2026-04-03T10:42:05Z</time></trkpt><trkpt lat="44.19294128395462" lon="11.8182859963092"><ele>123.0</ele><time>2026-04-03T10:42:06Z</time></trkpt><trkpt lat="44.19280644619185" lon="11.818110467761535"><ele>123.0</ele><time>2026-04-03T10:42:07Z</time></trkpt><trkpt lat="44.19268464991913" lon="11.817956375122648"><ele>123.0</ele><time>2026-04-03T10:42:08Z</time></trkpt><trkpt lat="44.192532508481875" lon="11.817860382062808"><ele>123.0</ele><time>2026-04-03T10:42:09Z</time></trkpt><trkpt lat="44.192363095013285" lon="11.817838732200478"><ele>125.33333333333334</ele><time>2026-04-03T10:42:10Z</time></trkpt><trkpt lat="44.192188718134986" lon="11.817891844117957"><ele>127.66666666666667</ele><time>2026-04-03T10:42:11Z</time></trkpt><trkpt lat="44.1920160703008" lon="11.818001192645305"><ele>130.0</ele><time>2026-04-03T10:42:12Z</time></trkpt><trkpt lat="44.191863035044" lon="11.81815831586971"><ele>130.0</ele><time>2026-04-03T10:42:13Z</time></trkpt><trkpt lat="44.19173046289478" lon="11.818352437134397"><ele>130.0</ele><time>2026-04-03T10:42:14Z</time></trkpt><trkpt lat="44.19158281309682" lon="11.818545598799995"><ele>130.0</ele><time>2026-04-03T10:42:15Z</time></trkpt><trkpt lat="44.19141509650125" lon="11.818703294773037"><ele>132.0</ele><time>2026-04-03T10:42:16Z</time></trkpt><trkpt lat="44.19122612758855" lon="11.818827147949621"><ele>134.0</ele><time>2026-04-03T10:42:17Z</time></trkpt><trkpt lat="44.19102265339244" lon="11.818940098788742"><ele>136.0</ele><time>2026-04-03T10:42:18Z</time></trkpt><trkpt lat="44.19080485256285" lon="11.819000199514004"><ele>136.66666666666669</ele><time>2026-04-03T10:42:19Z</time></trkpt><trkpt lat="44.19058427383047" lon="11.819076345185536"><ele>137.33333333333334</ele><time>2026-04-03T10:42:20Z</time></trkpt><trkpt lat="44.1903753728771" lon="11.81915219248707"><ele>138.0</ele><time>2026-04-03T10:42:21Z</time></trkpt><trkpt lat="44.19015816856556" lon="11.819237426847248"><ele>138.0</ele><time>2026-04-03T10:42:22Z</time></trkpt><trkpt lat="44.189933252802376" lon="11.819320623293581"><ele>138.0</ele><time>2026-04-03T10:42:23Z</time></trkpt><trkpt lat="44.18970506646502" lon="11.819399469205202"><ele>138.0</ele><time>2026-04-03T10:42:24Z</time></trkpt><trkpt lat="44.1894744874062" lon="11.81948082758669"><ele>138.0</ele><time>2026-04-03T10:42:25Z</time></trkpt><trkpt lat="44.189244349243864" lon="11.819561354852869"><ele>138.0</ele><time>2026-04-03T10:42:26Z</time></trkpt><trkpt lat="44.189011041646715" lon="11.819644415034418"><ele>138.0</ele><time>2026-04-03T10:42:27Z</time></trkpt><trkpt lat="44.18876983345982" lon="11.81969502073423"><ele>138.0</ele><time>2026-04-03T10:42:28Z</time></trkpt><trkpt lat="44.188535008958674" lon="11.819776821204464"><ele>138.0</ele><time>2026-04-03T10:42:29Z</time></trkpt><trkpt lat="44.18830564310082" lon="11.819856720172405"><ele>139.5</ele><time>2026-04-03T10:42:30Z</time></trkpt><trkpt lat="44.188076548997806" lon="11.819936524475917"><ele>141.0</ele><time>2026-04-03T10:42:30.999Z</time></trkpt><trkpt lat="44.18785007256476" lon="11.820015416919976"><ele>141.0</ele><time>2026-04-03T10:42:31.999Z</time></trkpt><trkpt lat="44.18763419380067" lon="11.82008963109131"><ele>141.0</ele><time>2026-04-03T10:42:32.999Z</time></trkpt><trkpt lat="44.18742404941137" lon="11.820161425779464"><ele>141.0</ele><time>2026-04-03T10:42:33.999Z</time></trkpt><trkpt lat="44.18722418450682" lon="11.820227163649482"><ele>140.33333333333334</ele><time>2026-04-03T10:42:34.999Z</time></trkpt><trkpt lat="44.18702294119337" lon="11.820267294836729"><ele>139.66666666666669</ele><time>2026-04-03T10:42:35.999Z</time></trkpt><trkpt lat="44.18681754528619" lon="11.820280592559335"><ele>139.0</ele><time>2026-04-03T10:42:36.999Z</time></trkpt><trkpt lat="44.18660353317387" lon="11.820286247297949"><ele>139.66666666666669</ele><time>2026-04-03T10:42:37.999Z</time></trkpt><trkpt lat="44.18638675404115" lon="11.820310146606646"><ele>140.33333333333334</ele><time>2026-04-03T10:42:38.999Z</time></trkpt><trkpt lat="44.18615954650397" lon="11.820297978542811"><ele>141.0</ele><time>2026-04-03T10:42:39.999Z</time></trkpt><trkpt lat="44.18593474741929" lon="11.82030429463962"><ele>141.0</ele><time>2026-04-03T10:42:40.999Z</time></trkpt><trkpt lat="44.185706183552774" lon="11.820331950904736"><ele>141.0</ele><time>2026-04-03T10:42:41.999Z</time></trkpt><trkpt lat="44.185484181011496" lon="11.820316213876447"><ele>141.0</ele><time>2026-04-03T10:42:42.999Z</time></trkpt><trkpt lat="44.185257534861215" lon="11.820321007540798"><ele>141.0</ele><time>2026-04-03T10:42:43.999Z</time></trkpt><trkpt lat="44.18503629552997" lon="11.820345162857048"><ele>141.0</ele><time>2026-04-03T10:42:45Z</time></trkpt><trkpt lat="44.184816542967" lon="11.820344281430689"><ele>141.33333333333334</ele><time>2026-04-03T10:42:46Z</time></trkpt><trkpt lat="44.184595482409485" lon="11.82034341887023"><ele>141.66666666666669</ele><time>2026-04-03T10:42:47Z</time></trkpt><trkpt lat="44.18437433582841" lon="11.820328193267246"><ele>142.0</ele><time>2026-04-03T10:42:48Z</time></trkpt><trkpt lat="44.18416312109319" lon="11.820272158114085"><ele>141.66666666666669</ele><time>2026-04-03T10:42:49Z</time></trkpt><trkpt lat="44.183948407766124" lon="11.82021498859522"><ele>141.33333333333334</ele><time>2026-04-03T10:42:50Z</time></trkpt><trkpt lat="44.183731665713545" lon="11.820162459443688"><ele>141.0</ele><time>2026-04-03T10:42:51Z</time></trkpt><trkpt lat="44.18352002560054" lon="11.820077980578509"><ele>141.66666666666666</ele><time>2026-04-03T10:42:52Z</time></trkpt><trkpt lat="44.18331038688969" lon="11.819988300850364"><ele>142.33333333333331</ele><time>2026-04-03T10:42:53Z</time></trkpt><trkpt lat="44.18310592538077" lon="11.819900026591283"><ele>143.0</ele><time>2026-04-03T10:42:54Z</time></trkpt><trkpt lat="44.18289663361826" lon="11.819810015547098"><ele>144.0</ele><time>2026-04-03T10:42:55Z</time></trkpt><trkpt lat="44.182690752063614" lon="11.819728007239954"><ele>145.0</ele><time>2026-04-03T10:42:56Z</time></trkpt><trkpt lat="44.182477253201625" lon="11.819661247671794"><ele>146.0</ele><time>2026-04-03T10:42:57Z</time></trkpt><trkpt lat="44.18226061414491" lon="11.819607949639094"><ele>146.33333333333331</ele><time>2026-04-03T10:42:58Z</time></trkpt><trkpt lat="44.18204111280239" lon="11.81955591092571"><ele>146.66666666666666</ele><time>2026-04-03T10:42:59Z</time></trkpt><trkpt lat="44.181821312001844" lon="11.819502982308178"><ele>147.0</ele><time>2026-04-03T10:43:00Z</time></trkpt><trkpt lat="44.18159679533304" lon="11.819458045762985"><ele>146.0</ele><time>2026-04-03T10:43:01Z</time></trkpt><trkpt lat="44.18137158635799" lon="11.81941048894682"><ele>145.0</ele><time>2026-04-03T10:43:02Z</time></trkpt><trkpt lat="44.18114940603942" lon="11.819340493972724"><ele>147.5</ele><time>2026-04-03T10:43:03Z</time></trkpt><trkpt lat="44.18092372152523" lon="11.819294233845413"><ele>150.0</ele><time>2026-04-03T10:43:04Z</time></trkpt><trkpt lat="44.18069768211049" lon="11.819244708740014"><ele>150.5</ele><time>2026-04-03T10:43:05Z</time></trkpt><trkpt lat="44.18047374556223" lon="11.819192249952852"><ele>151.0</ele><time>2026-04-03T10:43:06Z</time></trkpt><trkpt lat="44.180254598124215" lon="11.81913684438848"><ele>151.0</ele><time>2026-04-03T10:43:07Z</time></trkpt><trkpt lat="44.18003210541142" lon="11.819070123169846"><ele>151.0</ele><time>2026-04-03T10:43:08Z</time></trkpt><trkpt lat="44.179818781577296" lon="11.818997425753011"><ele>151.0</ele><time>2026-04-03T10:43:09Z</time></trkpt><trkpt lat="44.17960246837969" lon="11.81893745973684"><ele>150.66666666666669</ele><time>2026-04-03T10:43:10Z</time></trkpt><trkpt lat="44.17938992929556" lon="11.818860957240577"><ele>150.33333333333334</ele><time>2026-04-03T10:43:11Z</time></trkpt><trkpt lat="44.17917735515555" lon="11.818784525216097"><ele>150.0</ele><time>2026-04-03T10:43:12Z</time></trkpt><trkpt lat="44.17896947809533" lon="11.818705747262774"><ele>149.66666666666666</ele><time>2026-04-03T10:43:13Z</time></trkpt><trkpt lat="44.178765236784805" lon="11.818632735030306"><ele>149.33333333333331</ele><time>2026-04-03T10:43:14Z</time></trkpt><trkpt lat="44.17856732481348" lon="11.81856243166146"><ele>149.0</ele><time>2026-04-03T10:43:15Z</time></trkpt><trkpt lat="44.178374853526904" lon="11.818488496001637"><ele>150.33333333333331</ele><time>2026-04-03T10:43:16Z</time></trkpt><trkpt lat="44.178187728529004" lon="11.81840380405891"><ele>151.66666666666666</ele><time>2026-04-03T10:43:17Z</time></trkpt><trkpt lat="44.177999649705825" lon="11.818300241637761"><ele>153.0</ele><time>2026-04-03T10:43:18Z</time></trkpt><trkpt lat="44.17781650123603" lon="11.818182555125702"><ele>153.0</ele><time>2026-04-03T10:43:19Z</time></trkpt><trkpt lat="44.17763055205498" lon="11.818054942447338"><ele>153.0</ele><time>2026-04-03T10:43:20Z</time></trkpt><trkpt lat="44.177446994753545" lon="11.817928622969193"><ele>153.0</ele><time>2026-04-03T10:43:21Z</time></trkpt><trkpt lat="44.17725497477038" lon="11.817805320271122"><ele>152.66666666666666</ele><time>2026-04-03T10:43:22Z</time></trkpt><trkpt lat="44.17706165845203" lon="11.817681773379121"><ele>152.33333333333331</ele><time>2026-04-03T10:43:23Z</time></trkpt><trkpt lat="44.176874352351895" lon="11.817561238817078"><ele>152.0</ele><time>2026-04-03T10:43:24Z</time></trkpt><trkpt lat="44.176687867055314" lon="11.817443332619323"><ele>154.0</ele><time>2026-04-03T10:43:25Z</time></trkpt><trkpt lat="44.17650818232179" lon="11.81732287709026"><ele>156.0</ele><time>2026-04-03T10:43:26Z</time></trkpt><trkpt lat="44.176349158706245" lon="11.817217305410079"><ele>158.0</ele><time>2026-04-03T10:43:27Z</time></trkpt><trkpt lat="44.17619940870091" lon="11.817115047988944"><ele>158.0</ele><time>2026-04-03T10:43:28Z</time></trkpt><trkpt lat="44.176055259197355" lon="11.817021621166239"><ele>158.0</ele><time>2026-04-03T10:43:29Z</time></trkpt><trkpt lat="44.17590513553743" lon="11.81692352897136"><ele>158.0</ele><time>2026-04-03T10:43:30Z</time></trkpt><trkpt lat="44.17574290516279" lon="11.816821447107976"><ele>158.0</ele><time>2026-04-03T10:43:31Z</time></trkpt><trkpt lat="44.17558439499066" lon="11.8167186936443"><ele>158.0</ele><time>2026-04-03T10:43:32Z</time></trkpt><trkpt lat="44.17543684896921" lon="11.816629091323968"><ele>158.0</ele><time>2026-04-03T10:43:33Z</time></trkpt><trkpt lat="44.1753046404818" lon="11.816546992199859"><ele>158.0</ele><time>2026-04-03T10:43:34Z</time></trkpt><trkpt lat="44.17518779901384" lon="11.816479929418158"><ele>158.0</ele><time>2026-04-03T10:43:35Z</time></trkpt><trkpt lat="44.175081221751306" lon="11.816424661554072"><ele>158.0</ele><time>2026-04-03T10:43:36Z</time></trkpt><trkpt lat="44.174982787835994" lon="11.816407263498842"><ele>158.0</ele><time>2026-04-03T10:43:37Z</time></trkpt><trkpt lat="44.17487245487431" lon="11.816402430086521"><ele>157.66666666666666</ele><time>2026-04-03T10:43:38Z</time></trkpt><trkpt lat="44.17474023757081" lon="11.816366886189599"><ele>157.33333333333334</ele><time>2026-04-03T10:43:39Z</time></trkpt><trkpt lat="44.17459430859448" lon="11.816283048701312"><ele>157.0</ele><time>2026-04-03T10:43:40Z</time></trkpt><trkpt lat="44.174436905640796" lon="11.81618513628997"><ele>157.0</ele><time>2026-04-03T10:43:41Z</time></trkpt><trkpt lat="44.174274569729455" lon="11.816088388249508"><ele>157.0</ele><time>2026-04-03T10:43:42Z</time></trkpt><trkpt lat="44.17410986582455" lon="11.815996421874903"><ele>157.0</ele><time>2026-04-03T10:43:43Z</time></trkpt><trkpt lat="44.17394768331556" lon="11.815906783147199"><ele>156.0</ele><time>2026-04-03T10:43:44Z</time></trkpt><trkpt lat="44.17378419941343" lon="11.81581643955611"><ele>155.0</ele><time>2026-04-03T10:43:45Z</time></trkpt><trkpt lat="44.17361080683255" lon="11.815744536927788"><ele>154.0</ele><time>2026-04-03T10:43:46Z</time></trkpt><trkpt lat="44.17343395663866" lon="11.815704580233394"><ele>154.0</ele><time>2026-04-03T10:43:47Z</time></trkpt><trkpt lat="44.17325779661856" lon="11.815689958295357"><ele>154.0</ele><time>2026-04-03T10:43:48Z</time></trkpt><trkpt lat="44.17306569057919" lon="11.81571734607278"><ele>154.0</ele><time>2026-04-03T10:43:49Z</time></trkpt><trkpt lat="44.172877200738405" lon="11.815719454725542"><ele>152.66666666666669</ele><time>2026-04-03T10:43:50Z</time></trkpt><trkpt lat="44.17270069795938" lon="11.815712188136546"><ele>151.33333333333334</ele><time>2026-04-03T10:43:51Z</time></trkpt><trkpt lat="44.17252961566226" lon="11.815695048195899"><ele>150.0</ele><time>2026-04-03T10:43:52Z</time></trkpt><trkpt lat="44.17237476715601" lon="11.81563452572037"><ele>148.66666666666666</ele><time>2026-04-03T10:43:53Z</time></trkpt><trkpt lat="44.1722128939802" lon="11.815532117440169"><ele>147.33333333333331</ele><time>2026-04-03T10:43:54Z</time></trkpt><trkpt lat="44.17206201261049" lon="11.815419363541979"><ele>146.0</ele><time>2026-04-03T10:43:55Z</time></trkpt><trkpt lat="44.17192915739404" lon="11.81532337114568"><ele>146.0</ele><time>2026-04-03T10:43:56Z</time></trkpt><trkpt lat="44.17178267267046" lon="11.815230655242427"><ele>146.0</ele><time>2026-04-03T10:43:57Z</time></trkpt><trkpt lat="44.171625816723235" lon="11.815139995479157"><ele>146.0</ele><time>2026-04-03T10:43:58Z</time></trkpt><trkpt lat="44.17147706888553" lon="11.815051533537167"><ele>145.0</ele><time>2026-04-03T10:43:59Z</time></trkpt><trkpt lat="44.171337690013985" lon="11.814950555746632"><ele>144.0</ele><time>2026-04-03T10:44:00Z</time></trkpt><trkpt lat="44.171209957630424" lon="11.814823346630423"><ele>143.0</ele><time>2026-04-03T10:44:01Z</time></trkpt><trkpt lat="44.171096946050554" lon="11.814655667283526"><ele>143.0</ele><time>2026-04-03T10:44:02Z</time></trkpt><trkpt lat="44.170996297447445" lon="11.814457175254422"><ele>143.0</ele><time>2026-04-03T10:44:03Z</time></trkpt><trkpt lat="44.170900068485025" lon="11.814249867844481"><ele>143.0</ele><time>2026-04-03T10:44:04Z</time></trkpt><trkpt lat="44.17079227085677" lon="11.814049226602327"><ele>141.0</ele><time>2026-04-03T10:44:05Z</time></trkpt><trkpt lat="44.170690130282956" lon="11.81387311387194"><ele>139.0</ele><time>2026-04-03T10:44:06Z</time></trkpt><trkpt lat="44.170594229645516" lon="11.813707136660556"><ele>137.0</ele><time>2026-04-03T10:44:07Z</time></trkpt><trkpt lat="44.17049580280333" lon="11.813533516451301"><ele>139.0</ele><time>2026-04-03T10:44:08Z</time></trkpt><trkpt lat="44.170401066702865" lon="11.813353693016351"><ele>141.0</ele><time>2026-04-03T10:44:09Z</time></trkpt><trkpt lat="44.17030412711481" lon="11.813167533122018"><ele>143.0</ele><time>2026-04-03T10:44:10Z</time></trkpt><trkpt lat="44.170207894963575" lon="11.812986879072962"><ele>143.0</ele><time>2026-04-03T10:44:11Z</time></trkpt><trkpt lat="44.17011254872008" lon="11.812814350907297"><ele>143.0</ele><time>2026-04-03T10:44:12Z</time></trkpt><trkpt lat="44.170010007379986" lon="11.812655391860554"><ele>143.0</ele><time>2026-04-03T10:44:13Z</time></trkpt><trkpt lat="44.169883899995604" lon="11.812528214492147"><ele>146.33333333333331</ele><time>2026-04-03T10:44:14Z</time></trkpt><trkpt lat="44.16972840209671" lon="11.812428873879002"><ele>149.66666666666666</ele><time>2026-04-03T10:44:15Z</time></trkpt><trkpt lat="44.16956258818879" lon="11.812335785320169"><ele>153.0</ele><time>2026-04-03T10:44:16Z</time></trkpt><trkpt lat="44.16940338179302" lon="11.812237289288523"><ele>153.0</ele><time>2026-04-03T10:44:17Z</time></trkpt><trkpt lat="44.16924050810674" lon="11.812133044906245"><ele>153.0</ele><time>2026-04-03T10:44:18Z</time></trkpt><trkpt lat="44.16907620982406" lon="11.812025019180027"><ele>153.0</ele><time>2026-04-03T10:44:19Z</time></trkpt><trkpt lat="44.168914201867516" lon="11.811920766634833"><ele>152.33333333333334</ele><time>2026-04-03T10:44:20Z</time></trkpt><trkpt lat="44.16876216337794" lon="11.81182385800308"><ele>151.66666666666669</ele><time>2026-04-03T10:44:21Z</time></trkpt><trkpt lat="44.16861393939354" lon="11.811720689134305"><ele>151.0</ele><time>2026-04-03T10:44:22Z</time></trkpt><trkpt lat="44.16847306616949" lon="11.811585466321558"><ele>151.0</ele><time>2026-04-03T10:44:23Z</time></trkpt><trkpt lat="44.16835111933488" lon="11.811417676262467"><ele>151.0</ele><time>2026-04-03T10:44:24Z</time></trkpt><trkpt lat="44.16823788663579" lon="11.811240007082912"><ele>151.0</ele><time>2026-04-03T10:44:25Z</time></trkpt><trkpt lat="44.168126816320544" lon="11.811067515098086"><ele>153.66666666666669</ele><time>2026-04-03T10:44:26Z</time></trkpt><trkpt lat="44.16801488261695" lon="11.810904172407897"><ele>156.33333333333334</ele><time>2026-04-03T10:44:27Z</time></trkpt><trkpt lat="44.16791157048268" lon="11.810740393634662"><ele>159.0</ele><time>2026-04-03T10:44:28Z</time></trkpt><trkpt lat="44.16780630297701" lon="11.810578323175855"><ele>159.0</ele><time>2026-04-03T10:44:29Z</time></trkpt><trkpt lat="44.1676882047095" lon="11.810414685701048"><ele>159.0</ele><time>2026-04-03T10:44:30Z</time></trkpt><trkpt lat="44.16756930810283" lon="11.810249049114413"><ele>159.0</ele><time>2026-04-03T10:44:31Z</time></trkpt><trkpt lat="44.16744712334073" lon="11.810077199590584"><ele>160.33333333333334</ele><time>2026-04-03T10:44:32Z</time></trkpt><trkpt lat="44.167328018043726" lon="11.809904522055847"><ele>161.66666666666669</ele><time>2026-04-03T10:44:33Z</time></trkpt><trkpt lat="44.16720881785173" lon="11.809727578607285"><ele>163.0</ele><time>2026-04-03T10:44:34Z</time></trkpt><trkpt lat="44.16708519067692" lon="11.80954566759849"><ele>163.0</ele><time>2026-04-03T10:44:35Z</time></trkpt><trkpt lat="44.16695499484116" lon="11.809361884964062"><ele>163.0</ele><time>2026-04-03T10:44:36Z</time></trkpt><trkpt lat="44.16683477345262" lon="11.809185984372519"><ele>163.0</ele><time>2026-04-03T10:44:37Z</time></trkpt><trkpt lat="44.166715159909465" lon="11.809010318206175"><ele>163.33333333333334</ele><time>2026-04-03T10:44:38Z</time></trkpt><trkpt lat="44.1665994654556" lon="11.808835411861859"><ele>163.66666666666666</ele><time>2026-04-03T10:44:39Z</time></trkpt><trkpt lat="44.16648236142146" lon="11.80866303591379"><ele>164.0</ele><time>2026-04-03T10:44:40Z</time></trkpt><trkpt lat="44.16636410410395" lon="11.80848888427958"><ele>166.0</ele><time>2026-04-03T10:44:41Z</time></trkpt><trkpt lat="44.166249074786855" lon="11.808318707743242"><ele>168.0</ele><time>2026-04-03T10:44:42Z</time></trkpt><trkpt lat="44.16614129310205" lon="11.808161215933135"><ele>170.0</ele><time>2026-04-03T10:44:43Z</time></trkpt><trkpt lat="44.16603791445108" lon="11.808013405273163"><ele>170.0</ele><time>2026-04-03T10:44:44Z</time></trkpt><trkpt lat="44.16593994631531" lon="11.807875955725073"><ele>170.0</ele><time>2026-04-03T10:44:45Z</time></trkpt><trkpt lat="44.16584472513556" lon="11.807740391883108"><ele>170.0</ele><time>2026-04-03T10:44:46Z</time></trkpt><trkpt lat="44.165743414933125" lon="11.807594825602294"><ele>170.0</ele><time>2026-04-03T10:44:47Z</time></trkpt><trkpt lat="44.16563350519561" lon="11.807442790486528"><ele>170.66666666666666</ele><time>2026-04-03T10:44:48Z</time></trkpt><trkpt lat="44.16551843866095" lon="11.807279257194233"><ele>171.33333333333334</ele><time>2026-04-03T10:44:49Z</time></trkpt><trkpt lat="44.16539304910591" lon="11.80712504383875"><ele>172.0</ele><time>2026-04-03T10:44:50Z</time></trkpt><trkpt lat="44.16526075866527" lon="11.806964838104621"><ele>171.0</ele><time>2026-04-03T10:44:51Z</time></trkpt><trkpt lat="44.16512887422328" lon="11.80680651436514"><ele>170.0</ele><time>2026-04-03T10:44:52Z</time></trkpt><trkpt lat="44.1650039307681" lon="11.806623977551176"><ele>169.0</ele><time>2026-04-03T10:44:53Z</time></trkpt><trkpt lat="44.164868686217616" lon="11.806458719296055"><ele>169.66666666666669</ele><time>2026-04-03T10:44:54Z</time></trkpt><trkpt lat="44.164733497494844" lon="11.806296975230628"><ele>170.33333333333334</ele><time>2026-04-03T10:44:55Z</time></trkpt><trkpt lat="44.16459996128852" lon="11.806137208290822"><ele>171.0</ele><time>2026-04-03T10:44:56Z</time></trkpt><trkpt lat="44.16446939317192" lon="11.80598099246627"><ele>171.0</ele><time>2026-04-03T10:44:57Z</time></trkpt><trkpt lat="44.164339573353026" lon="11.80582567191397"><ele>171.0</ele><time>2026-04-03T10:44:58Z</time></trkpt><trkpt lat="44.16421637397282" lon="11.805674662488869"><ele>171.0</ele><time>2026-04-03T10:44:59Z</time></trkpt><trkpt lat="44.164085791060835" lon="11.805536584307543"><ele>172.66666666666666</ele><time>2026-04-03T10:45:00Z</time></trkpt><trkpt lat="44.16396966600954" lon="11.80539463338805"><ele>174.33333333333331</ele><time>2026-04-03T10:45:01Z</time></trkpt><trkpt lat="44.16386499448424" lon="11.805233452697726"><ele>176.0</ele><time>2026-04-03T10:45:02Z</time></trkpt><trkpt lat="44.16375832767287" lon="11.80508957544986"><ele>176.25</ele><time>2026-04-03T10:45:03Z</time></trkpt><trkpt lat="44.16366483962958" lon="11.804951848904377"><ele>176.5</ele><time>2026-04-03T10:45:04Z</time></trkpt><trkpt lat="44.16358225371094" lon="11.804825887623922"><ele>176.75</ele><time>2026-04-03T10:45:05Z</time></trkpt><trkpt lat="44.163497772582055" lon="11.80469437346915"><ele>177.0</ele><time>2026-04-03T10:45:06Z</time></trkpt><trkpt lat="44.16341162077896" lon="11.804560115329387"><ele>177.0</ele><time>2026-04-03T10:45:07Z</time></trkpt><trkpt lat="44.16332297194446" lon="11.804419647937884"><ele>177.0</ele><time>2026-04-03T10:45:08Z</time></trkpt><trkpt lat="44.16322430546034" lon="11.804293229048575"><ele>177.0</ele><time>2026-04-03T10:45:09Z</time></trkpt><trkpt lat="44.163129205819075" lon="11.804143728628738"><ele>177.0</ele><time>2026-04-03T10:45:10Z</time></trkpt><trkpt lat="44.163045592387334" lon="11.80398012966191"><ele>178.33333333333334</ele><time>2026-04-03T10:45:11Z</time></trkpt><trkpt lat="44.16294644418158" lon="11.803824679283984"><ele>179.66666666666669</ele><time>2026-04-03T10:45:12Z</time></trkpt><trkpt lat="44.162843445377" lon="11.80366535461638"><ele>181.0</ele><time>2026-04-03T10:45:13Z</time></trkpt><trkpt lat="44.16273873103859" lon="11.803507044942814"><ele>181.33333333333334</ele><time>2026-04-03T10:45:14Z</time></trkpt><trkpt lat="44.16261474343416" lon="11.803370068715749"><ele>181.66666666666666</ele><time>2026-04-03T10:45:15Z</time></trkpt><trkpt lat="44.16249720891615" lon="11.803225487490588"><ele>182.0</ele><time>2026-04-03T10:45:16Z</time></trkpt><trkpt lat="44.162382489801196" lon="11.80307888799814"><ele>184.0</ele><time>2026-04-03T10:45:17Z</time></trkpt><trkpt lat="44.16225653332657" lon="11.802967832362983"><ele>186.0</ele><time>2026-04-03T10:45:18Z</time></trkpt><trkpt lat="44.16212938579566" lon="11.802906293272144"><ele>188.0</ele><time>2026-04-03T10:45:19Z</time></trkpt><trkpt lat="44.16200758230459" lon="11.802833405694223"><ele>190.0</ele><time>2026-04-03T10:45:20Z</time></trkpt><trkpt lat="44.161897090006526" lon="11.802755153449796"><ele>190.0</ele><time>2026-04-03T10:45:21Z</time></trkpt><trkpt lat="44.16179427014879" lon="11.802698787533163"><ele>190.0</ele><time>2026-04-03T10:45:22Z</time></trkpt><trkpt lat="44.1617047251493" lon="11.802647057889766"><ele>190.0</ele><time>2026-04-03T10:45:23Z</time></trkpt><trkpt lat="44.16162555942193" lon="11.80260075377149"><ele>190.0</ele><time>2026-04-03T10:45:24Z</time></trkpt><trkpt lat="44.1615543129577" lon="11.802559800544973"><ele>190.0</ele><time>2026-04-03T10:45:25Z</time></trkpt><trkpt lat="44.16146462904508" lon="11.80253169782211"><ele>190.2</ele><time>2026-04-03T10:45:26Z</time></trkpt><trkpt lat="44.16137816292863" lon="11.80247325746331"><ele>190.4</ele><time>2026-04-03T10:45:27Z</time></trkpt><trkpt lat="44.16128669316309" lon="11.802444424008652"><ele>190.60000000000002</ele><time>2026-04-03T10:45:28Z</time></trkpt><trkpt lat="44.16119716049972" lon="11.802420155682912"><ele>190.8</ele><time>2026-04-03T10:45:29Z</time></trkpt><trkpt lat="44.16110066640106" lon="11.802416784836986"><ele>191.0</ele><time>2026-04-03T10:45:30Z</time></trkpt><trkpt lat="44.161000025716675" lon="11.802366313324605"><ele>191.0</ele><time>2026-04-03T10:45:31Z</time></trkpt><trkpt lat="44.16091544399902" lon="11.802277237591284"><ele>191.0</ele><time>2026-04-03T10:45:32Z</time></trkpt><trkpt lat="44.16083484523148" lon="11.802209888781796"><ele>191.0</ele><time>2026-04-03T10:45:33Z</time></trkpt><trkpt lat="44.160798510595576" lon="11.802092883962937"><ele>191.0</ele><time>2026-04-03T10:45:34Z</time></trkpt><trkpt lat="44.1607537536766" lon="11.801998106038443"><ele>191.0</ele><time>2026-04-03T10:45:35Z</time></trkpt><trkpt lat="44.16069632629609" lon="11.801906282864223"><ele>191.8</ele><time>2026-04-03T10:45:36Z</time></trkpt><trkpt lat="44.16065309357766" lon="11.801780831916451"><ele>192.60000000000002</ele><time>2026-04-03T10:45:37Z</time></trkpt><trkpt lat="44.16060339449748" lon="11.80165706409285"><ele>193.4</ele><time>2026-04-03T10:45:38Z</time></trkpt><trkpt lat="44.160541061139064" lon="11.801523315184413"><ele>194.2</ele><time>2026-04-03T10:45:39Z</time></trkpt><trkpt lat="44.16048036591515" lon="11.80137082007428"><ele>195.0</ele><time>2026-04-03T10:45:40Z</time></trkpt><trkpt lat="44.16041283702412" lon="11.801210692933921"><ele>195.0</ele><time>2026-04-03T10:45:41Z</time></trkpt><trkpt lat="44.160329389168844" lon="11.801058097337398"><ele>195.0</ele><time>2026-04-03T10:45:42Z</time></trkpt><trkpt lat="44.16025249719825" lon="11.800915664577351"><ele>195.0</ele><time>2026-04-03T10:45:43Z</time></trkpt><trkpt lat="44.16017490053249" lon="11.800787200800684"><ele>195.0</ele><time>2026-04-03T10:45:44Z</time></trkpt><trkpt lat="44.1601008310111" lon="11.800658322277117"><ele>195.4</ele><time>2026-04-03T10:45:45Z</time></trkpt><trkpt lat="44.16005464326175" lon="11.80052962680351"><ele>195.8</ele><time>2026-04-03T10:45:46Z</time></trkpt><trkpt lat="44.159993908064585" lon="11.80041565260555"><ele>196.2</ele><time>2026-04-03T10:45:47Z</time></trkpt><trkpt lat="44.15994219852143" lon="11.800320445283372"><ele>196.6</ele><time>2026-04-03T10:45:48Z</time></trkpt><trkpt lat="44.159896214931564" lon="11.800210317634521"><ele>197.0</ele><time>2026-04-03T10:45:49Z</time></trkpt><trkpt lat="44.15984132181058" lon="11.800111090680932"><ele>197.00000000000003</ele><time>2026-04-03T10:45:50Z</time></trkpt><trkpt lat="44.15979087589369" lon="11.800009510345689"><ele>197.0</ele><time>2026-04-03T10:45:51Z</time></trkpt><trkpt lat="44.15975335392946" lon="11.799917367071727"><ele>197.0</ele><time>2026-04-03T10:45:52Z</time></trkpt><trkpt lat="44.15971111484799" lon="11.799830884884697"><ele>197.0</ele><time>2026-04-03T10:45:53Z</time></trkpt><trkpt lat="44.1596726837112" lon="11.799747110217947"><ele>197.00000000000003</ele><time>2026-04-03T10:45:54Z</time></trkpt><trkpt lat="44.15964876447925" lon="11.799656177296358"><ele>197.0</ele><time>2026-04-03T10:45:55Z</time></trkpt><trkpt lat="44.15963611550764" lon="11.79955075805284"><ele>197.00000000000003</ele><time>2026-04-03T10:45:56Z</time></trkpt><trkpt lat="44.15965250494047" lon="11.799430242579849"><ele>197.0</ele><time>2026-04-03T10:45:57Z</time></trkpt><trkpt lat="44.15968823024896" lon="11.799354188912638"><ele>197.0</ele><time>2026-04-03T10:45:58Z</time></trkpt><trkpt lat="44.15972684904084" lon="11.799267819614943"><ele>197.0</ele><time>2026-04-03T10:45:59Z</time></trkpt><trkpt lat="44.15976281469928" lon="11.799194902686708"><ele>197.00000000000003</ele><time>2026-04-03T10:46:00Z</time></trkpt><trkpt lat="44.15979490955785" lon="11.799066482284983"><ele>197.0</ele><time>2026-04-03T10:46:02Z</time></trkpt><trkpt lat="44.15985151460726" lon="11.798934938325116"><ele>194.66666666666669</ele><time>2026-04-03T10:46:04Z</time></trkpt><trkpt lat="44.15990741755614" lon="11.798785266587716"><ele>192.33333333333334</ele><time>2026-04-03T10:46:06Z</time></trkpt><trkpt lat="44.159943493132026" lon="11.798703713558297"><ele>190.0</ele><time>2026-04-03T10:46:07Z</time></trkpt><trkpt lat="44.15998665776308" lon="11.798618654339503"><ele>187.66666666666669</ele><time>2026-04-03T10:46:08Z</time></trkpt><trkpt lat="44.16001434526024" lon="11.798527851384042"><ele>185.33333333333334</ele><time>2026-04-03T10:46:09Z</time></trkpt><trkpt lat="44.160021525006314" lon="11.798408379834207"><ele>183.0</ele><time>2026-04-03T10:46:10Z</time></trkpt><trkpt lat="44.16002091094286" lon="11.798292793017534"><ele>183.0</ele><time>2026-04-03T10:46:11Z</time></trkpt><trkpt lat="44.16000125259747" lon="11.798177889379266"><ele>183.0</ele><time>2026-04-03T10:46:12Z</time></trkpt><trkpt lat="44.15997599557576" lon="11.798062178011776"><ele>183.0</ele><time>2026-04-03T10:46:13Z</time></trkpt><trkpt lat="44.15993177732813" lon="11.797931246411814"><ele>183.0</ele><time>2026-04-03T10:46:14Z</time></trkpt><trkpt lat="44.15990113028464" lon="11.79780214204342"><ele>183.0</ele><time>2026-04-03T10:46:15Z</time></trkpt><trkpt lat="44.15985696961781" lon="11.797676256946303"><ele>184.60000000000002</ele><time>2026-04-03T10:46:16Z</time></trkpt><trkpt lat="44.159815820279476" lon="11.797545221427036"><ele>186.20000000000002</ele><time>2026-04-03T10:46:17Z</time></trkpt><trkpt lat="44.15977812047564" lon="11.797425178896265"><ele>187.8</ele><time>2026-04-03T10:46:18Z</time></trkpt><trkpt lat="44.15974436129216" lon="11.797309744330787"><ele>189.4</ele><time>2026-04-03T10:46:19Z</time></trkpt><trkpt lat="44.1597058284946" lon="11.797186831678202"><ele>191.0</ele><time>2026-04-03T10:46:20Z</time></trkpt><trkpt lat="44.15966620402088" lon="11.797061524688013"><ele>191.0</ele><time>2026-04-03T10:46:21Z</time></trkpt><trkpt lat="44.159615683566734" lon="11.796927332064065"><ele>191.0</ele><time>2026-04-03T10:46:22Z</time></trkpt><trkpt lat="44.15955163093766" lon="11.79682076621584"><ele>191.0</ele><time>2026-04-03T10:46:23Z</time></trkpt><trkpt lat="44.159471896768125" lon="11.796709655403658"><ele>191.0</ele><time>2026-04-03T10:46:24Z</time></trkpt><trkpt lat="44.159378542457425" lon="11.796654353065126"><ele>191.0</ele><time>2026-04-03T10:46:25Z</time></trkpt><trkpt lat="44.15928220478879" lon="11.796578131651417"><ele>188.60000000000002</ele><time>2026-04-03T10:46:26Z</time></trkpt><trkpt lat="44.1591889012345" lon="11.796514685902423"><ele>186.2</ele><time>2026-04-03T10:46:27Z</time></trkpt><trkpt lat="44.15908918170042" lon="11.796434323147043"><ele>183.8</ele><time>2026-04-03T10:46:28Z</time></trkpt><trkpt lat="44.158996316884995" lon="11.796369832736646"><ele>181.39999999999998</ele><time>2026-04-03T10:46:29Z</time></trkpt><trkpt lat="44.15889096441813" lon="11.796318499911465"><ele>179.0</ele><time>2026-04-03T10:46:30Z</time></trkpt><trkpt lat="44.15879009064938" lon="11.796244822701327"><ele>178.79999999999998</ele><time>2026-04-03T10:46:31Z</time></trkpt><trkpt lat="44.15868118715582" lon="11.796176515481228"><ele>178.6</ele><time>2026-04-03T10:46:32Z</time></trkpt><trkpt lat="44.15857947054068" lon="11.79610162481264"><ele>178.4</ele><time>2026-04-03T10:46:33Z</time></trkpt><trkpt lat="44.158484625705256" lon="11.7960403795991"><ele>178.2</ele><time>2026-04-03T10:46:34Z</time></trkpt><trkpt lat="44.15838714351653" lon="11.79597325840289"><ele>178.0</ele><time>2026-04-03T10:46:35Z</time></trkpt><trkpt lat="44.15829562219069" lon="11.795910349167887"><ele>175.0</ele><time>2026-04-03T10:46:36Z</time></trkpt><trkpt lat="44.158199066405516" lon="11.795868216448328"><ele>172.0</ele><time>2026-04-03T10:46:37Z</time></trkpt><trkpt lat="44.15809962380217" lon="11.795814890814313"><ele>169.0</ele><time>2026-04-03T10:46:38Z</time></trkpt><trkpt lat="44.157980281398864" lon="11.795729707852809"><ele>166.0</ele><time>2026-04-03T10:46:39Z</time></trkpt><trkpt lat="44.15787258199137" lon="11.795588478887938"><ele>166.0</ele><time>2026-04-03T10:46:40Z</time></trkpt><trkpt lat="44.15774050620765" lon="11.795496137918201"><ele>166.0</ele><time>2026-04-03T10:46:41Z</time></trkpt><trkpt lat="44.15761559236752" lon="11.795408889689954"><ele>166.0</ele><time>2026-04-03T10:46:42Z</time></trkpt><trkpt lat="44.157504287591784" lon="11.795329591315557"><ele>166.0</ele><time>2026-04-03T10:46:43Z</time></trkpt><trkpt lat="44.15741288533662" lon="11.795267722824823"><ele>167.20000000000002</ele><time>2026-04-03T10:46:44Z</time></trkpt><trkpt lat="44.15732642589232" lon="11.795210105992954"><ele>168.4</ele><time>2026-04-03T10:46:45Z</time></trkpt><trkpt lat="44.15724800875716" lon="11.79511644818529"><ele>169.6</ele><time>2026-04-03T10:46:47Z</time></trkpt><trkpt lat="44.15723556192318" lon="11.795010825975243"><ele>170.8</ele><time>2026-04-03T10:46:48Z</time></trkpt><trkpt lat="44.15726125248425" lon="11.794867696657585"><ele>172.0</ele><time>2026-04-03T10:46:49Z</time></trkpt><trkpt lat="44.15729756820309" lon="11.794718220886956"><ele>172.0</ele><time>2026-04-03T10:46:50Z</time></trkpt><trkpt lat="44.15733059780248" lon="11.79456307039439"><ele>172.0</ele><time>2026-04-03T10:46:51Z</time></trkpt><trkpt lat="44.15734366370254" lon="11.79440538663657"><ele>172.0</ele><time>2026-04-03T10:46:52Z</time></trkpt><trkpt lat="44.15736781191975" lon="11.794256319305891"><ele>172.0</ele><time>2026-04-03T10:46:53Z</time></trkpt><trkpt lat="44.15739435211948" lon="11.794145842290362"><ele>172.0</ele><time>2026-04-03T10:46:54Z</time></trkpt><trkpt lat="44.15742188893283" lon="11.794041217164303"><ele>172.16666666666669</ele><time>2026-04-03T10:46:56Z</time></trkpt><trkpt lat="44.15743464872935" lon="11.79395456671831"><ele>172.33333333333334</ele><time>2026-04-03T10:46:58Z</time></trkpt><trkpt lat="44.15745400689992" lon="11.793862021304815"><ele>172.5</ele><time>2026-04-03T10:47:04Z</time></trkpt><trkpt lat="44.157337474129996" lon="11.793784054132114"><ele>172.66666666666666</ele><time>2026-04-03T10:47:05Z</time></trkpt><trkpt lat="44.157274978980986" lon="11.793739771101002"><ele>172.83333333333331</ele><time>2026-04-03T10:47:06Z</time></trkpt><trkpt lat="44.15717697827618" lon="11.793698144750666"><ele>173.0</ele><time>2026-04-03T10:47:08Z</time></trkpt><trkpt lat="44.15708197160493" lon="11.793615646287687"><ele>173.0</ele><time>2026-04-03T10:47:10Z</time></trkpt><trkpt lat="44.15701321618091" lon="11.793588361869855"><ele>173.0</ele><time>2026-04-03T10:47:11Z</time></trkpt><trkpt lat="44.156927930259414" lon="11.79351300701612"><ele>173.0</ele><time>2026-04-03T10:47:13Z</time></trkpt><trkpt lat="44.156857743793104" lon="11.793482299542552"><ele>173.0</ele><time>2026-04-03T10:47:15Z</time></trkpt><trkpt lat="44.156793435494144" lon="11.793496273790595"><ele>173.0</ele><time>2026-04-03T10:47:18Z</time></trkpt><trkpt lat="44.15686049536925" lon="11.793498378391247"><ele>173.0</ele><time>2026-04-03T10:50:22Z</time></trkpt><trkpt lat="44.15699156362806" lon="11.7935494375765"><ele>173.0</ele><time>2026-04-03T10:50:24Z</time></trkpt><trkpt lat="44.157128892647236" lon="11.793738443075165"><ele>173.0</ele><time>2026-04-03T10:50:26Z</time></trkpt><trkpt lat="44.15721148032658" lon="11.793745092909568"><ele>173.0</ele><time>2026-04-03T10:50:27Z</time></trkpt><trkpt lat="44.157303029571686" lon="11.793801551576367"><ele>173.0</ele><time>2026-04-03T10:50:29Z</time></trkpt><trkpt lat="44.15734346939414" lon="11.793874838522386"><ele>173.0</ele><time>2026-04-03T10:50:31Z</time></trkpt><trkpt lat="44.15742191104229" lon="11.793892567451536"><ele>173.16666666666666</ele><time>2026-04-03T10:50:49Z</time></trkpt><trkpt lat="44.15749012492522" lon="11.7937775976101"><ele>173.33333333333331</ele><time>2026-04-03T10:50:56Z</time></trkpt><trkpt lat="44.15752031037865" lon="11.793640718570135"><ele>173.5</ele><time>2026-04-03T10:50:58Z</time></trkpt><trkpt lat="44.15752515268519" lon="11.793537438775907"><ele>173.66666666666666</ele><time>2026-04-03T10:51:00Z</time></trkpt><trkpt lat="44.15755196827684" lon="11.79344272317193"><ele>173.83333333333334</ele><time>2026-04-03T10:51:02Z</time></trkpt><trkpt lat="44.15757950624895" lon="11.793335587176568"><ele>174.0</ele><time>2026-04-03T10:51:05Z</time></trkpt><trkpt lat="44.157393430337045" lon="11.793220353712455"><ele>173.79999999999998</ele><time>2026-04-03T10:51:07Z</time></trkpt><trkpt lat="44.1572852174582" lon="11.793163843604725"><ele>173.6</ele><time>2026-04-03T10:51:09Z</time></trkpt><trkpt lat="44.157223990513984" lon="11.793131862958598"><ele>173.4</ele><time>2026-04-03T10:51:10Z</time></trkpt><trkpt lat="44.1571511610246" lon="11.793081693042128"><ele>173.2</ele><time>2026-04-03T10:51:11Z</time></trkpt><trkpt lat="44.157063899083255" lon="11.793018331846206"><ele>173.0</ele><time>2026-04-03T10:51:12Z</time></trkpt><trkpt lat="44.156978116420255" lon="11.79295788054342"><ele>173.0</ele><time>2026-04-03T10:51:13Z</time></trkpt><trkpt lat="44.15689283949212" lon="11.792903267450106"><ele>173.0</ele><time>2026-04-03T10:51:14Z</time></trkpt><trkpt lat="44.15680481627251" lon="11.792860090511224"><ele>173.0</ele><time>2026-04-03T10:51:15Z</time></trkpt><trkpt lat="44.156722381090376" lon="11.792798584974062"><ele>173.0</ele><time>2026-04-03T10:51:16Z</time></trkpt><trkpt lat="44.156621705133915" lon="11.79275096590192"><ele>173.0</ele><time>2026-04-03T10:51:17Z</time></trkpt><trkpt lat="44.15652356354365" lon="11.792674452391473"><ele>174.0</ele><time>2026-04-03T10:51:18Z</time></trkpt><trkpt lat="44.15642029383295" lon="11.792612285336636"><ele>175.0</ele><time>2026-04-03T10:51:19Z</time></trkpt><trkpt lat="44.156324525048284" lon="11.792536318743482"><ele>176.0</ele><time>2026-04-03T10:51:20Z</time></trkpt><trkpt lat="44.15622633447368" lon="11.792472921430356"><ele>177.0</ele><time>2026-04-03T10:51:21Z</time></trkpt><trkpt lat="44.15613337921813" lon="11.79242104525956"><ele>178.0</ele><time>2026-04-03T10:51:22Z</time></trkpt><trkpt lat="44.15604660990732" lon="11.79236635905838"><ele>178.0</ele><time>2026-04-03T10:51:23Z</time></trkpt><trkpt lat="44.1559637219724" lon="11.792296834820027"><ele>178.0</ele><time>2026-04-03T10:51:24Z</time></trkpt><trkpt lat="44.15586548819454" lon="11.792256837738552"><ele>178.0</ele><time>2026-04-03T10:51:25Z</time></trkpt><trkpt lat="44.155765627408634" lon="11.792168525386835"><ele>178.0</ele><time>2026-04-03T10:51:26Z</time></trkpt><trkpt lat="44.15565760446213" lon="11.792096780883147"><ele>178.0</ele><time>2026-04-03T10:51:27Z</time></trkpt><trkpt lat="44.155559451211225" lon="11.79203153002257"><ele>178.75</ele><time>2026-04-03T10:51:28Z</time></trkpt><trkpt lat="44.15544427252365" lon="11.79195509447972"><ele>179.5</ele><time>2026-04-03T10:51:29Z</time></trkpt><trkpt lat="44.15533487724392" lon="11.791884140750218"><ele>180.25</ele><time>2026-04-03T10:51:30Z</time></trkpt><trkpt lat="44.15521833949934" lon="11.791823816580596"><ele>181.0</ele><time>2026-04-03T10:51:31Z</time></trkpt><trkpt lat="44.155106397183914" lon="11.79173380130203"><ele>181.0</ele><time>2026-04-03T10:51:32Z</time></trkpt><trkpt lat="44.1549892596636" lon="11.791659613507898"><ele>181.0</ele><time>2026-04-03T10:51:33Z</time></trkpt><trkpt lat="44.15488309139755" lon="11.791603558414524"><ele>181.0</ele><time>2026-04-03T10:51:34Z</time></trkpt><trkpt lat="44.15479188575777" lon="11.79154496116356"><ele>181.0</ele><time>2026-04-03T10:51:35Z</time></trkpt><trkpt lat="44.15471467411692" lon="11.791499955176347"><ele>181.0</ele><time>2026-04-03T10:51:36Z</time></trkpt><trkpt lat="44.15465675295146" lon="11.79146097223867"><ele>181.0</ele><time>2026-04-03T10:51:37Z</time></trkpt><trkpt lat="44.15462861934838" lon="11.791382306687034"><ele>181.0</ele><time>2026-04-03T10:51:39Z</time></trkpt><trkpt lat="44.15467714793045" lon="11.791218170551144"><ele>181.0</ele><time>2026-04-03T10:51:41Z</time></trkpt><trkpt lat="44.15471179001741" lon="11.791038270969029"><ele>181.0</ele><time>2026-04-03T10:51:42Z</time></trkpt><trkpt lat="44.15476658156171" lon="11.790907771612744"><ele>181.0</ele><time>2026-04-03T10:51:43Z</time></trkpt><trkpt lat="44.15480237278602" lon="11.790736503501222"><ele>181.0</ele><time>2026-04-03T10:51:44Z</time></trkpt><trkpt lat="44.15484215478667" lon="11.790564264151868"><ele>181.0</ele><time>2026-04-03T10:51:45Z</time></trkpt><trkpt lat="44.15488610143262" lon="11.790387929926718"><ele>181.0</ele><time>2026-04-03T10:51:46Z</time></trkpt><trkpt lat="44.15492898732679" lon="11.79021702605436"><ele>181.0</ele><time>2026-04-03T10:51:47Z</time></trkpt><trkpt lat="44.15496703126357" lon="11.790059950157747"><ele>183.0</ele><time>2026-04-03T10:51:48Z</time></trkpt><trkpt lat="44.15499948328125" lon="11.789931334317096"><ele>185.0</ele><time>2026-04-03T10:51:49Z</time></trkpt><trkpt lat="44.15503473430082" lon="11.789831328893959"><ele>187.0</ele><time>2026-04-03T10:51:50Z</time></trkpt><trkpt lat="44.155077227513345" lon="11.789717211556278"><ele>189.0</ele><time>2026-04-03T10:51:52Z</time></trkpt><trkpt lat="44.155079182535765" lon="11.78962680522611"><ele>191.0</ele><time>2026-04-03T10:51:55Z</time></trkpt><trkpt lat="44.15491679401477" lon="11.789481228258632"><ele>192.0</ele><time>2026-04-03T10:51:57Z</time></trkpt><trkpt lat="44.15478677000924" lon="11.789327609980539"><ele>193.0</ele><time>2026-04-03T10:51:58Z</time></trkpt><trkpt lat="44.15462122411647" lon="11.789153175777392"><ele>194.0</ele><time>2026-04-03T10:51:59Z</time></trkpt><trkpt lat="44.15444643791834" lon="11.788972254325927"><ele>194.0</ele><time>2026-04-03T10:52:00Z</time></trkpt><trkpt lat="44.154323414304976" lon="11.788847842646122"><ele>194.0</ele><time>2026-04-03T10:52:01Z</time></trkpt><trkpt lat="44.15423322291218" lon="11.788753029754746"><ele>194.0</ele><time>2026-04-03T10:52:02Z</time></trkpt><trkpt lat="44.15415354585596" lon="11.788679110837418"><ele>194.0</ele><time>2026-04-03T10:52:03Z</time></trkpt><trkpt lat="44.15407994528729" lon="11.788578615089634"><ele>196.79999999999998</ele><time>2026-04-03T10:52:05Z</time></trkpt><trkpt lat="44.15411215774468" lon="11.78837889689355"><ele>199.6</ele><time>2026-04-03T10:52:07Z</time></trkpt><trkpt lat="44.154154410602" lon="11.788269441718235"><ele>202.4</ele><time>2026-04-03T10:52:08Z</time></trkpt><trkpt lat="44.15422777640763" lon="11.788183601674811"><ele>205.2</ele><time>2026-04-03T10:52:09Z</time></trkpt><trkpt lat="44.15430752295333" lon="11.788138794636065"><ele>208.0</ele><time>2026-04-03T10:52:10Z</time></trkpt><trkpt lat="44.15438486207776" lon="11.788171334611532"><ele>208.0</ele><time>2026-04-03T10:52:11Z</time></trkpt><trkpt lat="44.154459608907125" lon="11.788271911825172"><ele>208.0</ele><time>2026-04-03T10:52:12Z</time></trkpt><trkpt lat="44.15455210695699" lon="11.788368958755196"><ele>208.0</ele><time>2026-04-03T10:52:13Z</time></trkpt><trkpt lat="44.154664875000364" lon="11.788448395615871"><ele>208.0</ele><time>2026-04-03T10:52:14Z</time></trkpt><trkpt lat="44.1547749092191" lon="11.788546202272338"><ele>207.25</ele><time>2026-04-03T10:52:15Z</time></trkpt><trkpt lat="44.154897831360174" lon="11.788635937292877"><ele>206.5</ele><time>2026-04-03T10:52:16Z</time></trkpt><trkpt lat="44.15503590235659" lon="11.788710034892155"><ele>205.75</ele><time>2026-04-03T10:52:17Z</time></trkpt><trkpt lat="44.15518244431111" lon="11.788764647437093"><ele>205.0</ele><time>2026-04-03T10:52:18Z</time></trkpt><trkpt lat="44.15535617203201" lon="11.78881606099985"><ele>205.0</ele><time>2026-04-03T10:52:19Z</time></trkpt><trkpt lat="44.1555445878504" lon="11.788878012055157"><ele>205.0</ele><time>2026-04-03T10:52:20Z</time></trkpt><trkpt lat="44.155739922897894" lon="11.788971390547163"><ele>205.0</ele><time>2026-04-03T10:52:21Z</time></trkpt><trkpt lat="44.15592022493803" lon="11.789012212934336"><ele>208.0</ele><time>2026-04-03T10:52:22Z</time></trkpt><trkpt lat="44.15604715511328" lon="11.789053444458602"><ele>211.0</ele><time>2026-04-03T10:52:23Z</time></trkpt><trkpt lat="44.156145769672406" lon="11.78907515818388"><ele>214.0</ele><time>2026-04-03T10:52:24Z</time></trkpt><trkpt lat="44.15624791754879" lon="11.789065776547021"><ele>217.0</ele><time>2026-04-03T10:52:25Z</time></trkpt><trkpt lat="44.15634199852139" lon="11.78902918412317"><ele>220.0</ele><time>2026-04-03T10:52:26Z</time></trkpt><trkpt lat="44.15640018246923" lon="11.788970763027532"><ele>220.0</ele><time>2026-04-03T10:52:27Z</time></trkpt><trkpt lat="44.15642860615081" lon="11.788875434219797"><ele>220.0</ele><time>2026-04-03T10:52:28Z</time></trkpt><trkpt lat="44.15643093218418" lon="11.788750141958777"><ele>220.0</ele><time>2026-04-03T10:52:29Z</time></trkpt><trkpt lat="44.15643278900051" lon="11.788599212484671"><ele>220.0</ele><time>2026-04-03T10:52:30Z</time></trkpt><trkpt lat="44.1564490245353" lon="11.788448333115138"><ele>220.0</ele><time>2026-04-03T10:52:31Z</time></trkpt><trkpt lat="44.156460394084796" lon="11.788277385798619"><ele>225.0</ele><time>2026-04-03T10:52:32Z</time></trkpt><trkpt lat="44.1564346880874" lon="11.788109787713456"><ele>230.0</ele><time>2026-04-03T10:52:33Z</time></trkpt><trkpt lat="44.15637302630801" lon="11.78792213992144"><ele>235.0</ele><time>2026-04-03T10:52:34Z</time></trkpt><trkpt lat="44.15628571725614" lon="11.787711106933504"><ele>240.0</ele><time>2026-04-03T10:52:35Z</time></trkpt><trkpt lat="44.156201440932186" lon="11.787461109811366"><ele>242.0</ele><time>2026-04-03T10:52:36Z</time></trkpt><trkpt lat="44.15612029435598" lon="11.787223364312025"><ele>244.0</ele><time>2026-04-03T10:52:37Z</time></trkpt><trkpt lat="44.15603422233146" lon="11.786982726556396"><ele>246.0</ele><time>2026-04-03T10:52:38Z</time></trkpt><trkpt lat="44.15594965097899" lon="11.786759162967616"><ele>246.0</ele><time>2026-04-03T10:52:39Z</time></trkpt><trkpt lat="44.15585941355656" lon="11.786553637448177"><ele>246.0</ele><time>2026-04-03T10:52:40Z</time></trkpt><trkpt lat="44.15578132129448" lon="11.786361430551104"><ele>246.0</ele><time>2026-04-03T10:52:41Z</time></trkpt><trkpt lat="44.15569792540764" lon="11.786144500111183"><ele>247.66666666666669</ele><time>2026-04-03T10:52:42Z</time></trkpt><trkpt lat="44.15562154209925" lon="11.785924117234927"><ele>249.33333333333334</ele><time>2026-04-03T10:52:43Z</time></trkpt><trkpt lat="44.15552066830351" lon="11.785717643862434"><ele>251.0</ele><time>2026-04-03T10:52:44Z</time></trkpt><trkpt lat="44.15540092819123" lon="11.78551950618223"><ele>251.0</ele><time>2026-04-03T10:52:45Z</time></trkpt><trkpt lat="44.15528647395595" lon="11.785322653938426"><ele>251.0</ele><time>2026-04-03T10:52:46Z</time></trkpt><trkpt lat="44.15517953514036" lon="11.785143910084473"><ele>251.0</ele><time>2026-04-03T10:52:47Z</time></trkpt><trkpt lat="44.155089676087755" lon="11.784996504652252"><ele>252.33333333333334</ele><time>2026-04-03T10:52:48Z</time></trkpt><trkpt lat="44.15499846375255" lon="11.784849292260555"><ele>253.66666666666669</ele><time>2026-04-03T10:52:49Z</time></trkpt><trkpt lat="44.154870670106" lon="11.78474111773506"><ele>255.0</ele><time>2026-04-03T10:52:50Z</time></trkpt><trkpt lat="44.1547084381483" lon="11.7847391381242"><ele>256.0</ele><time>2026-04-03T10:52:51Z</time></trkpt><trkpt lat="44.15454112093002" lon="11.784686030445755"><ele>257.0</ele><time>2026-04-03T10:52:52Z</time></trkpt><trkpt lat="44.15435407559389" lon="11.784624451204037"><ele>258.0</ele><time>2026-04-03T10:52:53Z</time></trkpt><trkpt lat="44.15419736250827" lon="11.784543719270658"><ele>258.0</ele><time>2026-04-03T10:52:54Z</time></trkpt><trkpt lat="44.15404509117403" lon="11.784443210764104"><ele>258.0</ele><time>2026-04-03T10:52:55Z</time></trkpt><trkpt lat="44.15389896004957" lon="11.784318293260927"><ele>258.0</ele><time>2026-04-03T10:52:56Z</time></trkpt><trkpt lat="44.15376153814834" lon="11.784168148873558"><ele>260.5</ele><time>2026-04-03T10:52:57Z</time></trkpt><trkpt lat="44.15364448272858" lon="11.784030517525002"><ele>263.0</ele><time>2026-04-03T10:52:58Z</time></trkpt><trkpt lat="44.153533387913214" lon="11.783905354713479"><ele>265.5</ele><time>2026-04-03T10:52:59Z</time></trkpt><trkpt lat="44.15342828631715" lon="11.783803539456622"><ele>268.0</ele><time>2026-04-03T10:53:00Z</time></trkpt><trkpt lat="44.15332323838924" lon="11.783715597259425"><ele>268.0</ele><time>2026-04-03T10:53:01Z</time></trkpt><trkpt lat="44.15323070909665" lon="11.783645394274345"><ele>268.0</ele><time>2026-04-03T10:53:02Z</time></trkpt><trkpt lat="44.153140833435714" lon="11.78357720380046"><ele>268.0</ele><time>2026-04-03T10:53:03Z</time></trkpt><trkpt lat="44.15304405087566" lon="11.783510731989425"><ele>268.0</ele><time>2026-04-03T10:53:04Z</time></trkpt><trkpt lat="44.152932102886545" lon="11.78346675872722"><ele>268.0</ele><time>2026-04-03T10:53:04.999Z</time></trkpt><trkpt lat="44.152804332970696" lon="11.783424582830547"><ele>271.75</ele><time>2026-04-03T10:53:05.999Z</time></trkpt><trkpt lat="44.15267423115919" lon="11.783382648669221"><ele>275.5</ele><time>2026-04-03T10:53:06.999Z</time></trkpt><trkpt lat="44.15253069421132" lon="11.783342982478741"><ele>279.25</ele><time>2026-04-03T10:53:07.999Z</time></trkpt><trkpt lat="44.15238438420902" lon="11.7833121545465"><ele>283.0</ele><time>2026-04-03T10:53:08.999Z</time></trkpt><trkpt lat="44.152257273997314" lon="11.783300745039844"><ele>283.0</ele><time>2026-04-03T10:53:09.999Z</time></trkpt><trkpt lat="44.15215252954812" lon="11.783315575168787"><ele>283.0</ele><time>2026-04-03T10:53:10.999Z</time></trkpt><trkpt lat="44.1520655821378" lon="11.783286491385878"><ele>283.0</ele><time>2026-04-03T10:53:11.999Z</time></trkpt><trkpt lat="44.15197945029046" lon="11.783203570469759"><ele>283.0</ele><time>2026-04-03T10:53:13.999Z</time></trkpt><trkpt lat="44.15194454090205" lon="11.783125850326659"><ele>283.0</ele><time>2026-04-03T10:53:16Z</time></trkpt><trkpt lat="44.15194405136488" lon="11.783022479381732"><ele>283.0</ele><time>2026-04-03T10:53:19Z</time></trkpt><trkpt lat="44.15205631344591" lon="11.782932427172218"><ele>283.0</ele><time>2026-04-03T10:53:20Z</time></trkpt><trkpt lat="44.152159052285754" lon="11.782930406935128"><ele>283.0</ele><time>2026-04-03T10:53:21Z</time></trkpt><trkpt lat="44.15225154541971" lon="11.782878732723589"><ele>283.0</ele><time>2026-04-03T10:53:22Z</time></trkpt><trkpt lat="44.15237322942915" lon="11.782841824180176"><ele>283.0</ele><time>2026-04-03T10:53:23Z</time></trkpt><trkpt lat="44.15252226300045" lon="11.78278804186488"><ele>283.66666666666663</ele><time>2026-04-03T10:53:24Z</time></trkpt><trkpt lat="44.15266978000557" lon="11.782717216255323"><ele>284.3333333333333</ele><time>2026-04-03T10:53:25Z</time></trkpt><trkpt lat="44.15281571883614" lon="11.782619578141658"><ele>285.0</ele><time>2026-04-03T10:53:26Z</time></trkpt><trkpt lat="44.152936710701745" lon="11.782503034070576"><ele>288.6</ele><time>2026-04-03T10:53:27Z</time></trkpt><trkpt lat="44.15302399937251" lon="11.782377572972587"><ele>292.2</ele><time>2026-04-03T10:53:28Z</time></trkpt><trkpt lat="44.1530837512366" lon="11.782256350791874"><ele>295.8</ele><time>2026-04-03T10:53:29Z</time></trkpt><trkpt lat="44.153121434308105" lon="11.782140593431537"><ele>299.4</ele><time>2026-04-03T10:53:30Z</time></trkpt><trkpt lat="44.15312475325227" lon="11.782024966453175"><ele>303.0</ele><time>2026-04-03T10:53:31Z</time></trkpt><trkpt lat="44.15309046991335" lon="11.781918638153623"><ele>304.5</ele><time>2026-04-03T10:53:32Z</time></trkpt><trkpt lat="44.153030929043844" lon="11.78182301797449"><ele>306.0</ele><time>2026-04-03T10:53:33Z</time></trkpt><trkpt lat="44.152918616798964" lon="11.781764080461596"><ele>307.5</ele><time>2026-04-03T10:53:34Z</time></trkpt><trkpt lat="44.15279547134335" lon="11.781694783717972"><ele>309.0</ele><time>2026-04-03T10:53:35Z</time></trkpt><trkpt lat="44.152638793280786" lon="11.781568879702297"><ele>309.0</ele><time>2026-04-03T10:53:36Z</time></trkpt><trkpt lat="44.15250724520505" lon="11.78148016539739"><ele>309.0</ele><time>2026-04-03T10:53:37Z</time></trkpt><trkpt lat="44.15234016717086" lon="11.78141243376582"><ele>309.0</ele><time>2026-04-03T10:53:38Z</time></trkpt><trkpt lat="44.152172716069266" lon="11.781351504996154"><ele>312.0</ele><time>2026-04-03T10:53:39Z</time></trkpt><trkpt lat="44.15198913019618" lon="11.781292227283577"><ele>315.0</ele><time>2026-04-03T10:53:40Z</time></trkpt><trkpt lat="44.15180285804089" lon="11.781242944389712"><ele>318.0</ele><time>2026-04-03T10:53:41Z</time></trkpt><trkpt lat="44.15161740851479" lon="11.781197296226415"><ele>320.0</ele><time>2026-04-03T10:53:42Z</time></trkpt><trkpt lat="44.15144677995232" lon="11.78115899071022"><ele>322.0</ele><time>2026-04-03T10:53:43Z</time></trkpt><trkpt lat="44.15127415739829" lon="11.781128187207026"><ele>324.0</ele><time>2026-04-03T10:53:44Z</time></trkpt><trkpt lat="44.15111727162235" lon="11.78110521604016"><ele>324.0</ele><time>2026-04-03T10:53:45Z</time></trkpt><trkpt lat="44.150969161256945" lon="11.78108603588293"><ele>324.0</ele><time>2026-04-03T10:53:46Z</time></trkpt><trkpt lat="44.150824058333725" lon="11.78107092552266"><ele>324.0</ele><time>2026-04-03T10:53:47Z</time></trkpt><trkpt lat="44.15070842452901" lon="11.781063101694379"><ele>324.0</ele><time>2026-04-03T10:53:48Z</time></trkpt><trkpt lat="44.15059491662751" lon="11.781056078921582"><ele>322.5</ele><time>2026-04-03T10:53:49Z</time></trkpt><trkpt lat="44.15051309813213" lon="11.781043878290669"><ele>321.0</ele><time>2026-04-03T10:53:50Z</time></trkpt><trkpt lat="44.1503843880463" lon="11.781010190620762"><ele>319.5</ele><time>2026-04-03T10:53:51Z</time></trkpt><trkpt lat="44.150277887103954" lon="11.780948461908757"><ele>318.0</ele><time>2026-04-03T10:53:52Z</time></trkpt><trkpt lat="44.15015459891025" lon="11.780867578897146"><ele>321.75</ele><time>2026-04-03T10:53:53Z</time></trkpt><trkpt lat="44.15002921465832" lon="11.780769602150096"><ele>325.5</ele><time>2026-04-03T10:53:54Z</time></trkpt><trkpt lat="44.14990300945222" lon="11.780657599638797"><ele>329.25</ele><time>2026-04-03T10:53:55Z</time></trkpt><trkpt lat="44.149780852187774" lon="11.780551093464531"><ele>333.0</ele><time>2026-04-03T10:53:56Z</time></trkpt><trkpt lat="44.14966800768415" lon="11.780453731402858"><ele>333.0</ele><time>2026-04-03T10:53:57Z</time></trkpt><trkpt lat="44.1495699020989" lon="11.780361911937968"><ele>333.0</ele><time>2026-04-03T10:53:58Z</time></trkpt><trkpt lat="44.14948466116257" lon="11.780287729961483"><ele>333.0</ele><time>2026-04-03T10:53:59Z</time></trkpt><trkpt lat="44.14944473797566" lon="11.780182844063985"><ele>333.0</ele><time>2026-04-03T10:54:00Z</time></trkpt><trkpt lat="44.14943633941599" lon="11.780056617363371"><ele>333.0</ele><time>2026-04-03T10:54:01Z</time></trkpt><trkpt lat="44.14947317469573" lon="11.779943256153542"><ele>337.75</ele><time>2026-04-03T10:54:02Z</time></trkpt><trkpt lat="44.149542883794815" lon="11.779835312411107"><ele>342.5</ele><time>2026-04-03T10:54:03Z</time></trkpt><trkpt lat="44.14964060555042" lon="11.779709560154203"><ele>347.25</ele><time>2026-04-03T10:54:04Z</time></trkpt><trkpt lat="44.149753098604236" lon="11.779570789892968"><ele>352.0</ele><time>2026-04-03T10:54:05Z</time></trkpt><trkpt lat="44.14982751504521" lon="11.779449138512035"><ele>352.5</ele><time>2026-04-03T10:54:06Z</time></trkpt><trkpt lat="44.149884217589154" lon="11.779317483951935"><ele>353.0</ele><time>2026-04-03T10:54:07Z</time></trkpt><trkpt lat="44.14989404159632" lon="11.779163094911445"><ele>353.5</ele><time>2026-04-03T10:54:08Z</time></trkpt><trkpt lat="44.14989130685684" lon="11.7789786500561"><ele>354.0</ele><time>2026-04-03T10:54:09Z</time></trkpt><trkpt lat="44.14991731052687" lon="11.778796572645927"><ele>354.0</ele><time>2026-04-03T10:54:10Z</time></trkpt><trkpt lat="44.15000137172151" lon="11.778631495195683"><ele>354.0</ele><time>2026-04-03T10:54:11Z</time></trkpt><trkpt lat="44.150121847526" lon="11.778510175838724"><ele>354.0</ele><time>2026-04-03T10:54:12Z</time></trkpt><trkpt lat="44.15023140925593" lon="11.778300510456186"><ele>358.3333333333333</ele><time>2026-04-03T10:54:13Z</time></trkpt><trkpt lat="44.1503312071051" lon="11.778087828682807"><ele>362.66666666666663</ele><time>2026-04-03T10:54:14Z</time></trkpt><trkpt lat="44.15043186574177" lon="11.777908781423049"><ele>367.0</ele><time>2026-04-03T10:54:15Z</time></trkpt><trkpt lat="44.150520694543985" lon="11.777807390517463"><ele>369.6</ele><time>2026-04-03T10:54:16Z</time></trkpt><trkpt lat="44.15056793727874" lon="11.777680503661347"><ele>372.20000000000005</ele><time>2026-04-03T10:54:18Z</time></trkpt><trkpt lat="44.15058258138917" lon="11.777555881395267"><ele>374.8</ele><time>2026-04-03T10:54:19Z</time></trkpt><trkpt lat="44.15055812844455" lon="11.777455334282223"><ele>377.4</ele><time>2026-04-03T10:54:20Z</time></trkpt><trkpt lat="44.150470446068965" lon="11.777381955614866"><ele>380.0</ele><time>2026-04-03T10:54:21Z</time></trkpt><trkpt lat="44.150349287002534" lon="11.777386155141725"><ele>380.0</ele><time>2026-04-03T10:54:22Z</time></trkpt><trkpt lat="44.15021109286843" lon="11.777542528549345"><ele>380.0</ele><time>2026-04-03T10:54:23Z</time></trkpt><trkpt lat="44.150089967298825" lon="11.77764759330697"><ele>380.0</ele><time>2026-04-03T10:54:24Z</time></trkpt><trkpt lat="44.149956376592165" lon="11.77774787075342"><ele>382.33333333333337</ele><time>2026-04-03T10:54:25Z</time></trkpt><trkpt lat="44.14980693742768" lon="11.77784052853731"><ele>384.6666666666667</ele><time>2026-04-03T10:54:26Z</time></trkpt><trkpt lat="44.149636371429935" lon="11.777933081686243"><ele>387.0</ele><time>2026-04-03T10:54:27Z</time></trkpt><trkpt lat="44.14944730920937" lon="11.77804825033437"><ele>387.0</ele><time>2026-04-03T10:54:28Z</time></trkpt><trkpt lat="44.149287660922354" lon="11.778169337373225"><ele>387.0</ele><time>2026-04-03T10:54:29Z</time></trkpt><trkpt lat="44.14913971620316" lon="11.778274133274264"><ele>387.0</ele><time>2026-04-03T10:54:30Z</time></trkpt><trkpt lat="44.14900027276868" lon="11.77836470964828"><ele>389.5</ele><time>2026-04-03T10:54:31Z</time></trkpt><trkpt lat="44.14886082501125" lon="11.778440792983153"><ele>392.0</ele><time>2026-04-03T10:54:32Z</time></trkpt><trkpt lat="44.14873889035175" lon="11.77847719761704"><ele>394.5</ele><time>2026-04-03T10:54:33Z</time></trkpt><trkpt lat="44.14860806962312" lon="11.778494625179562"><ele>397.0</ele><time>2026-04-03T10:54:34Z</time></trkpt><trkpt lat="44.148464459280575" lon="11.778545876414439"><ele>397.0</ele><time>2026-04-03T10:54:35Z</time></trkpt><trkpt lat="44.14834992093188" lon="11.778629732281212"><ele>397.0</ele><time>2026-04-03T10:54:36Z</time></trkpt><trkpt lat="44.14826095532517" lon="11.778686113988181"><ele>397.0</ele><time>2026-04-03T10:54:37Z</time></trkpt><trkpt lat="44.14817127639212" lon="11.778640776306167"><ele>397.0</ele><time>2026-04-03T10:54:39Z</time></trkpt><trkpt lat="44.14819600156496" lon="11.778489813582773"><ele>397.0</ele><time>2026-04-03T10:54:41Z</time></trkpt><trkpt lat="44.14828534901555" lon="11.778395906017694"><ele>397.0</ele><time>2026-04-03T10:54:42Z</time></trkpt><trkpt lat="44.148389314374214" lon="11.778277332983716"><ele>397.0</ele><time>2026-04-03T10:54:43Z</time></trkpt><trkpt lat="44.14847100898102" lon="11.778122200514934"><ele>397.0</ele><time>2026-04-03T10:54:44Z</time></trkpt><trkpt lat="44.14853997817404" lon="11.777927285928063"><ele>397.0</ele><time>2026-04-03T10:54:45Z</time></trkpt><trkpt lat="44.14862006434228" lon="11.777746469229214"><ele>399.8</ele><time>2026-04-03T10:54:46Z</time></trkpt><trkpt lat="44.14869371665726" lon="11.777634279862923"><ele>402.6</ele><time>2026-04-03T10:54:46.999Z</time></trkpt><trkpt lat="44.148733563920764" lon="11.777514191212651"><ele>405.40000000000003</ele><time>2026-04-03T10:54:47.999Z</time></trkpt><trkpt lat="44.14869201186548" lon="11.777382838322561"><ele>408.20000000000005</ele><time>2026-04-03T10:54:49.999Z</time></trkpt><trkpt lat="44.14861002089575" lon="11.777337359368024"><ele>411.0</ele><time>2026-04-03T10:54:50.999Z</time></trkpt><trkpt lat="44.14853085753152" lon="11.777372471565197"><ele>411.0</ele><time>2026-04-03T10:54:51.999Z</time></trkpt><trkpt lat="44.14845111717101" lon="11.777486890897716"><ele>411.0</ele><time>2026-04-03T10:54:53.999Z</time></trkpt><trkpt lat="44.14838617954174" lon="11.777547618508324"><ele>411.0</ele><time>2026-04-03T10:54:54.999Z</time></trkpt><trkpt lat="44.148314103716494" lon="11.777599378279344"><ele>411.0</ele><time>2026-04-03T10:54:55.999Z</time></trkpt><trkpt lat="44.14823535953697" lon="11.777633784512377"><ele>411.0</ele><time>2026-04-03T10:54:56.999Z</time></trkpt><trkpt lat="44.14815126289303" lon="11.777671761925596"><ele>411.0</ele><time>2026-04-03T10:54:57.999Z</time></trkpt><trkpt lat="44.14805730009492" lon="11.777713830955436"><ele>408.6</ele><time>2026-04-03T10:54:58.999Z</time></trkpt><trkpt lat="44.1479612841617" lon="11.777756817240835"><ele>406.20000000000005</ele><time>2026-04-03T10:54:59.999Z</time></trkpt><trkpt lat="44.14787389935348" lon="11.777791082577401"><ele>403.79999999999995</ele><time>2026-04-03T10:55:00.999Z</time></trkpt><trkpt lat="44.14775233041204" lon="11.777755031464004"><ele>401.4</ele><time>2026-04-03T10:55:02.999Z</time></trkpt><trkpt lat="44.147684332165255" lon="11.777677272527505"><ele>399.0</ele><time>2026-04-03T10:55:03.999Z</time></trkpt><trkpt lat="44.147590975770875" lon="11.777572976357876"><ele>403.25</ele><time>2026-04-03T10:55:04.999Z</time></trkpt><trkpt lat="44.147491628774844" lon="11.777460753680403"><ele>407.5</ele><time>2026-04-03T10:55:05.999Z</time></trkpt><trkpt lat="44.14737428637684" lon="11.777355140687666"><ele>411.75</ele><time>2026-04-03T10:55:06.999Z</time></trkpt><trkpt lat="44.14723578875628" lon="11.777258693052858"><ele>416.0</ele><time>2026-04-03T10:55:07.999Z</time></trkpt><trkpt lat="44.14710497616291" lon="11.777178454926792"><ele>416.0</ele><time>2026-04-03T10:55:08.999Z</time></trkpt><trkpt lat="44.146965849513926" lon="11.77711351943743"><ele>416.0</ele><time>2026-04-03T10:55:09.999Z</time></trkpt><trkpt lat="44.14684248341843" lon="11.777066608092179"><ele>416.0</ele><time>2026-04-03T10:55:10.999Z</time></trkpt><trkpt lat="44.146747616202774" lon="11.777024314935774"><ele>416.0</ele><time>2026-04-03T10:55:11.999Z</time></trkpt><trkpt lat="44.14668187116588" lon="11.776967957133285"><ele>416.0</ele><time>2026-04-03T10:55:12.999Z</time></trkpt><trkpt lat="44.146644008167996" lon="11.776870607069608"><ele>416.0</ele><time>2026-04-03T10:55:13.999Z</time></trkpt><trkpt lat="44.14661860794768" lon="11.776732574396906"><ele>416.0</ele><time>2026-04-03T10:55:14.999Z</time></trkpt><trkpt lat="44.1465685659549" lon="11.776593506164405"><ele>416.0</ele><time>2026-04-03T10:55:15.999Z</time></trkpt><trkpt lat="44.14645961333972" lon="11.776472146297754"><ele>416.0</ele><time>2026-04-03T10:55:16.999Z</time></trkpt><trkpt lat="44.14634580360519" lon="11.776384902766937"><ele>421.66666666666663</ele><time>2026-04-03T10:55:17.999Z</time></trkpt><trkpt lat="44.14621203819789" lon="11.776306812714132"><ele>427.33333333333337</ele><time>2026-04-03T10:55:18.999Z</time></trkpt><trkpt lat="44.1460880608593" lon="11.776264093613253"><ele>433.0</ele><time>2026-04-03T10:55:19.999Z</time></trkpt><trkpt lat="44.145900491889556" lon="11.776210888770201"><ele>433.0</ele><time>2026-04-03T10:55:21Z</time></trkpt><trkpt lat="44.1457398940829" lon="11.776145020935768"><ele>433.0</ele><time>2026-04-03T10:55:22Z</time></trkpt><trkpt lat="44.145604902164415" lon="11.776080197290188"><ele>433.0</ele><time>2026-04-03T10:55:23Z</time></trkpt><trkpt lat="44.14546203488197" lon="11.776000425515617"><ele>438.33333333333337</ele><time>2026-04-03T10:55:24Z</time></trkpt><trkpt lat="44.14532044570513" lon="11.775913972774081"><ele>443.66666666666663</ele><time>2026-04-03T10:55:25Z</time></trkpt><trkpt lat="44.14518925519649" lon="11.775815044587139"><ele>449.0</ele><time>2026-04-03T10:55:26Z</time></trkpt><trkpt lat="44.14506664726039" lon="11.775695060104843"><ele>449.0</ele><time>2026-04-03T10:55:27Z</time></trkpt><trkpt lat="44.144940812430704" lon="11.775564863908583"><ele>449.0</ele><time>2026-04-03T10:55:28Z</time></trkpt><trkpt lat="44.14483402628285" lon="11.775427245235383"><ele>449.0</ele><time>2026-04-03T10:55:29Z</time></trkpt><trkpt lat="44.14473643957921" lon="11.775303273777139"><ele>449.0</ele><time>2026-04-03T10:55:30Z</time></trkpt><trkpt lat="44.14462125130779" lon="11.775220557763856"><ele>447.25</ele><time>2026-04-03T10:55:31Z</time></trkpt><trkpt lat="44.14451678031204" lon="11.775115574881701"><ele>445.5</ele><time>2026-04-03T10:55:32Z</time></trkpt><trkpt lat="44.14442511503827" lon="11.77501709102057"><ele>443.75</ele><time>2026-04-03T10:55:33Z</time></trkpt><trkpt lat="44.144357083808366" lon="11.774912048247263"><ele>442.0</ele><time>2026-04-03T10:55:34Z</time></trkpt><trkpt lat="44.144294019852666" lon="11.774787440529698"><ele>442.0</ele><time>2026-04-03T10:55:35Z</time></trkpt><trkpt lat="44.14420197197752" lon="11.774695155097485"><ele>442.0</ele><time>2026-04-03T10:55:36Z</time></trkpt><trkpt lat="44.14412810220855" lon="11.774581424777969"><ele>442.0</ele><time>2026-04-03T10:55:37Z</time></trkpt><trkpt lat="44.14398789004374" lon="11.774454646403141"><ele>442.0</ele><time>2026-04-03T10:55:38Z</time></trkpt><trkpt lat="44.14386377704848" lon="11.774356788579466"><ele>445.0</ele><time>2026-04-03T10:55:39Z</time></trkpt><trkpt lat="44.14376617725913" lon="11.774219064178567"><ele>448.0</ele><time>2026-04-03T10:55:40Z</time></trkpt><trkpt lat="44.14368068757931" lon="11.77407126202954"><ele>451.0</ele><time>2026-04-03T10:55:41Z</time></trkpt><trkpt lat="44.14356362190395" lon="11.773981613132376"><ele>454.0</ele><time>2026-04-03T10:55:42Z</time></trkpt><trkpt lat="44.14343673668302" lon="11.773913798949524"><ele>454.0</ele><time>2026-04-03T10:55:43Z</time></trkpt><trkpt lat="44.14332533947156" lon="11.773868624101162"><ele>454.0</ele><time>2026-04-03T10:55:44Z</time></trkpt><trkpt lat="44.14323453677973" lon="11.77380673146866"><ele>454.0</ele><time>2026-04-03T10:55:45Z</time></trkpt><trkpt lat="44.14316280866417" lon="11.773725828553209"><ele>454.0</ele><time>2026-04-03T10:55:46Z</time></trkpt><trkpt lat="44.14310513430717" lon="11.773649894271088"><ele>454.0</ele><time>2026-04-03T10:55:47Z</time></trkpt><trkpt lat="44.14305851666086" lon="11.773548602493243"><ele>459.6</ele><time>2026-04-03T10:55:48Z</time></trkpt><trkpt lat="44.143016638540644" lon="11.773437080861429"><ele>465.2</ele><time>2026-04-03T10:55:49Z</time></trkpt><trkpt lat="44.14300615024108" lon="11.773333782817085"><ele>470.80000000000007</ele><time>2026-04-03T10:55:50Z</time></trkpt><trkpt lat="44.14296049875673" lon="11.773217060688916"><ele>476.40000000000003</ele><time>2026-04-03T10:55:51Z</time></trkpt><trkpt lat="44.14288331401611" lon="11.773104465732366"><ele>482.0</ele><time>2026-04-03T10:55:52Z</time></trkpt><trkpt lat="44.14279321335998" lon="11.77300483004707"><ele>482.0</ele><time>2026-04-03T10:55:53Z</time></trkpt><trkpt lat="44.14270409591806" lon="11.77291399559822"><ele>482.00000000000006</ele><time>2026-04-03T10:55:54Z</time></trkpt><trkpt lat="44.142636225979366" lon="11.772816832842722"><ele>482.00000000000006</ele><time>2026-04-03T10:55:55Z</time></trkpt><trkpt lat="44.142570244465" lon="11.772717367321363"><ele>482.0</ele><time>2026-04-03T10:55:56Z</time></trkpt><trkpt lat="44.14251056740888" lon="11.772604830452718"><ele>482.0</ele><time>2026-04-03T10:55:57Z</time></trkpt><trkpt lat="44.14247229038858" lon="11.772462137172695"><ele>479.8</ele><time>2026-04-03T10:55:58Z</time></trkpt><trkpt lat="44.142410433972614" lon="11.772338016753517"><ele>477.6</ele><time>2026-04-03T10:55:59Z</time></trkpt><trkpt lat="44.14237050280501" lon="11.772204079251289"><ele>475.40000000000003</ele><time>2026-04-03T10:56:00Z</time></trkpt><trkpt lat="44.142325194047984" lon="11.772083125929454"><ele>473.20000000000005</ele><time>2026-04-03T10:56:01Z</time></trkpt><trkpt lat="44.142273464949476" lon="11.771994589284622"><ele>471.0</ele><time>2026-04-03T10:56:02Z</time></trkpt><trkpt lat="44.142229717613645" lon="11.77188863432158"><ele>471.0</ele><time>2026-04-03T10:56:03Z</time></trkpt><trkpt lat="44.142154108876134" lon="11.771818395764718"><ele>471.0</ele><time>2026-04-03T10:56:04Z</time></trkpt><trkpt lat="44.14208934465273" lon="11.771792817509475"><ele>471.0</ele><time>2026-04-03T10:56:05Z</time></trkpt><trkpt lat="44.14198352527074" lon="11.771757312884532"><ele>471.0</ele><time>2026-04-03T10:56:06Z</time></trkpt><trkpt lat="44.141886430293354" lon="11.771719127696057"><ele>471.0</ele><time>2026-04-03T10:56:07Z</time></trkpt><trkpt lat="44.141788693006774" lon="11.77165462835161"><ele>471.0</ele><time>2026-04-03T10:56:08Z</time></trkpt><trkpt lat="44.14173082734385" lon="11.771581047209505"><ele>471.0</ele><time>2026-04-03T10:56:09Z</time></trkpt><trkpt lat="44.14167608223566" lon="11.771475985753872"><ele>471.0</ele><time>2026-04-03T10:56:10Z</time></trkpt><trkpt lat="44.14162176254068" lon="11.771404602247332"><ele>471.0</ele><time>2026-04-03T10:56:11Z</time></trkpt><trkpt lat="44.14152829217977" lon="11.771335850808992"><ele>471.0</ele><time>2026-04-03T10:56:12Z</time></trkpt><trkpt lat="44.141395811734135" lon="11.771279056442141"><ele>473.25</ele><time>2026-04-03T10:56:13Z</time></trkpt><trkpt lat="44.141292874279685" lon="11.77120450367237"><ele>475.5</ele><time>2026-04-03T10:56:14Z</time></trkpt><trkpt lat="44.141214885860215" lon="11.771100951931231"><ele>477.75</ele><time>2026-04-03T10:56:15Z</time></trkpt><trkpt lat="44.141139387788606" lon="11.770983835552702"><ele>480.0</ele><time>2026-04-03T10:56:16Z</time></trkpt><trkpt lat="44.1410678021143" lon="11.770855419497034"><ele>480.0</ele><time>2026-04-03T10:56:17Z</time></trkpt><trkpt lat="44.14102179071299" lon="11.77075001965638"><ele>480.0</ele><time>2026-04-03T10:56:18Z</time></trkpt><trkpt lat="44.14100619025993" lon="11.770650170520055"><ele>480.0</ele><time>2026-04-03T10:56:19Z</time></trkpt><trkpt lat="44.14099976862752" lon="11.770513669408004"><ele>480.0</ele><time>2026-04-03T10:56:20Z</time></trkpt><trkpt lat="44.140986686596655" lon="11.770391805094574"><ele>480.0</ele><time>2026-04-03T10:56:21Z</time></trkpt><trkpt lat="44.14093880116226" lon="11.770302584876804"><ele>480.0</ele><time>2026-04-03T10:56:22Z</time></trkpt><trkpt lat="44.14086111264864" lon="11.770221463784809"><ele>482.66666666666663</ele><time>2026-04-03T10:56:23Z</time></trkpt><trkpt lat="44.14071417739599" lon="11.770119721170602"><ele>485.3333333333333</ele><time>2026-04-03T10:56:24Z</time></trkpt><trkpt lat="44.14056521482119" lon="11.769997535825407"><ele>488.0</ele><time>2026-04-03T10:56:25Z</time></trkpt><trkpt lat="44.14043723496851" lon="11.769856882982259"><ele>488.0</ele><time>2026-04-03T10:56:26Z</time></trkpt><trkpt lat="44.14034115230624" lon="11.769720709194159"><ele>488.0</ele><time>2026-04-03T10:56:27Z</time></trkpt><trkpt lat="44.140282034091584" lon="11.769561495224332"><ele>488.0</ele><time>2026-04-03T10:56:28Z</time></trkpt><trkpt lat="44.140230510106" lon="11.769416070076154"><ele>488.0</ele><time>2026-04-03T10:56:29Z</time></trkpt><trkpt lat="44.140186618716974" lon="11.769283062296747"><ele>484.2</ele><time>2026-04-03T10:56:30Z</time></trkpt><trkpt lat="44.140100640439854" lon="11.769180305641703"><ele>480.4</ele><time>2026-04-03T10:56:31Z</time></trkpt><trkpt lat="44.140002170953274" lon="11.769102501750346"><ele>476.59999999999997</ele><time>2026-04-03T10:56:32Z</time></trkpt><trkpt lat="44.139888239922925" lon="11.769056479220792"><ele>472.79999999999995</ele><time>2026-04-03T10:56:33Z</time></trkpt><trkpt lat="44.139790499628" lon="11.769062480633476"><ele>469.0</ele><time>2026-04-03T10:56:34Z</time></trkpt><trkpt lat="44.13968335356712" lon="11.769118129446698"><ele>469.0</ele><time>2026-04-03T10:56:35Z</time></trkpt><trkpt lat="44.13956670361543" lon="11.76919042203462"><ele>469.0</ele><time>2026-04-03T10:56:36Z</time></trkpt><trkpt lat="44.139436276728055" lon="11.769304606739198"><ele>469.0</ele><time>2026-04-03T10:56:37Z</time></trkpt><trkpt lat="44.13931599790651" lon="11.769401015308382"><ele>469.0</ele><time>2026-04-03T10:56:38Z</time></trkpt><trkpt lat="44.13919195579642" lon="11.769457915385424"><ele>470.0</ele><time>2026-04-03T10:56:39Z</time></trkpt><trkpt lat="44.13909074313368" lon="11.76946395585676"><ele>471.0</ele><time>2026-04-03T10:56:40Z</time></trkpt><trkpt lat="44.13898769819108" lon="11.76945866495938"><ele>472.0</ele><time>2026-04-03T10:56:41Z</time></trkpt><trkpt lat="44.138881358994965" lon="11.7694106710002"><ele>473.0</ele><time>2026-04-03T10:56:42Z</time></trkpt><trkpt lat="44.13875679623132" lon="11.769330691948007"><ele>473.0</ele><time>2026-04-03T10:56:43Z</time></trkpt><trkpt lat="44.138618599495715" lon="11.769268210676941"><ele>473.0</ele><time>2026-04-03T10:56:44Z</time></trkpt><trkpt lat="44.13850660143947" lon="11.76926499903527"><ele>473.0</ele><time>2026-04-03T10:56:45Z</time></trkpt><trkpt lat="44.13838635821149" lon="11.769262601253567"><ele>473.0</ele><time>2026-04-03T10:56:46Z</time></trkpt><trkpt lat="44.13824619538229" lon="11.7693239053144"><ele>478.0</ele><time>2026-04-03T10:56:47Z</time></trkpt><trkpt lat="44.13810428641327" lon="11.76940044193694"><ele>483.0</ele><time>2026-04-03T10:56:48Z</time></trkpt><trkpt lat="44.13796487372612" lon="11.769482850765778"><ele>488.0</ele><time>2026-04-03T10:56:49Z</time></trkpt><trkpt lat="44.137844587863" lon="11.769564773686517"><ele>493.0</ele><time>2026-04-03T10:56:50Z</time></trkpt><trkpt lat="44.13775148066087" lon="11.769628202423187"><ele>493.0</ele><time>2026-04-03T10:56:51Z</time></trkpt><trkpt lat="44.13766638960613" lon="11.76968615914698"><ele>493.0</ele><time>2026-04-03T10:56:52Z</time></trkpt><trkpt lat="44.137582821627156" lon="11.769743084733463"><ele>493.0</ele><time>2026-04-03T10:56:53Z</time></trkpt><trkpt lat="44.13753821424264" lon="11.769929563391967"><ele>493.0</ele><time>2026-04-03T10:56:54Z</time></trkpt><trkpt lat="44.13741716150396" lon="11.770034070872285"><ele>490.25</ele><time>2026-04-03T10:56:55Z</time></trkpt><trkpt lat="44.13729182806632" lon="11.770104429228432"><ele>487.5</ele><time>2026-04-03T10:56:56Z</time></trkpt><trkpt lat="44.137161729766824" lon="11.770166475683128"><ele>484.75</ele><time>2026-04-03T10:56:57Z</time></trkpt><trkpt lat="44.13703514744393" lon="11.770252914404917"><ele>482.0</ele><time>2026-04-03T10:56:58Z</time></trkpt><trkpt lat="44.13692068962121" lon="11.770287567637334"><ele>481.5</ele><time>2026-04-03T10:56:59Z</time></trkpt><trkpt lat="44.136792372971044" lon="11.770277795817584"><ele>481.0</ele><time>2026-04-03T10:57:00Z</time></trkpt><trkpt lat="44.13664297732224" lon="11.770257199261657"><ele>480.5</ele><time>2026-04-03T10:57:01Z</time></trkpt><trkpt lat="44.1364951579671" lon="11.770248023549588"><ele>480.0</ele><time>2026-04-03T10:57:02Z</time></trkpt><trkpt lat="44.13636501460882" lon="11.77025009442247"><ele>479.5</ele><time>2026-04-03T10:57:03Z</time></trkpt><trkpt lat="44.13622898990263" lon="11.770250091891578"><ele>479.0</ele><time>2026-04-03T10:57:04Z</time></trkpt><trkpt lat="44.13609676351457" lon="11.770185253145463"><ele>478.5</ele><time>2026-04-03T10:57:05Z</time></trkpt><trkpt lat="44.13597991548241" lon="11.770106296217621"><ele>478.0</ele><time>2026-04-03T10:57:06Z</time></trkpt><trkpt lat="44.13585364690514" lon="11.770032900413595"><ele>481.33333333333337</ele><time>2026-04-03T10:57:07Z</time></trkpt><trkpt lat="44.1357075438356" lon="11.7699370202913"><ele>484.66666666666663</ele><time>2026-04-03T10:57:08Z</time></trkpt><trkpt lat="44.13555196406935" lon="11.769852717000703"><ele>488.0</ele><time>2026-04-03T10:57:09Z</time></trkpt><trkpt lat="44.13541932287561" lon="11.769782699524521"><ele>488.0</ele><time>2026-04-03T10:57:10Z</time></trkpt><trkpt lat="44.1352859267998" lon="11.769752149684528"><ele>488.0</ele><time>2026-04-03T10:57:11Z</time></trkpt><trkpt lat="44.135139223848284" lon="11.769724545134096"><ele>488.0</ele><time>2026-04-03T10:57:12Z</time></trkpt><trkpt lat="44.13501602184168" lon="11.769668707234569"><ele>488.0</ele><time>2026-04-03T10:57:13Z</time></trkpt><trkpt lat="44.13490249508392" lon="11.769647287876454"><ele>490.0</ele><time>2026-04-03T10:57:13.999Z</time></trkpt><trkpt lat="44.1348136842505" lon="11.76966569217002"><ele>492.0</ele><time>2026-04-03T10:57:14.999Z</time></trkpt><trkpt lat="44.13471159648716" lon="11.76972000772723"><ele>494.0</ele><time>2026-04-03T10:57:15.999Z</time></trkpt><trkpt lat="44.134580656248495" lon="11.769773235933254"><ele>496.0</ele><time>2026-04-03T10:57:16.999Z</time></trkpt><trkpt lat="44.13444524880253" lon="11.769803883509036"><ele>496.0</ele><time>2026-04-03T10:57:17.999Z</time></trkpt><trkpt lat="44.13431415412597" lon="11.76983740612835"><ele>496.0</ele><time>2026-04-03T10:57:18.999Z</time></trkpt><trkpt lat="44.13421831696522" lon="11.76989821616954"><ele>496.0</ele><time>2026-04-03T10:57:19.999Z</time></trkpt><trkpt lat="44.13410956731783" lon="11.769995274330112"><ele>496.0</ele><time>2026-04-03T10:57:20.999Z</time></trkpt><trkpt lat="44.133998551997664" lon="11.770102674570474"><ele>503.33333333333337</ele><time>2026-04-03T10:57:21.999Z</time></trkpt><trkpt lat="44.13383313452646" lon="11.77022038237808"><ele>510.66666666666663</ele><time>2026-04-03T10:57:22.999Z</time></trkpt><trkpt lat="44.133675129375774" lon="11.770261899106167"><ele>518.0</ele><time>2026-04-03T10:57:23.999Z</time></trkpt><trkpt lat="44.13352009169171" lon="11.770259447932625"><ele>518.0</ele><time>2026-04-03T10:57:24.999Z</time></trkpt><trkpt lat="44.13340294216603" lon="11.770231150892899"><ele>518.0</ele><time>2026-04-03T10:57:25.999Z</time></trkpt><trkpt lat="44.13330306433225" lon="11.770252460313602"><ele>518.0</ele><time>2026-04-03T10:57:27Z</time></trkpt><trkpt lat="44.13321928693466" lon="11.770324803418116"><ele>518.0</ele><time>2026-04-03T10:57:28Z</time></trkpt><trkpt lat="44.13316566699606" lon="11.770458882316941"><ele>518.0</ele><time>2026-04-03T10:57:29Z</time></trkpt><trkpt lat="44.13312136847724" lon="11.770613811968463"><ele>515.75</ele><time>2026-04-03T10:57:30Z</time></trkpt><trkpt lat="44.133057680026596" lon="11.770766680148958"><ele>513.5</ele><time>2026-04-03T10:57:31Z</time></trkpt><trkpt lat="44.132978648787535" lon="11.77083644467996"><ele>511.25</ele><time>2026-04-03T10:57:32Z</time></trkpt><trkpt lat="44.13286972363699" lon="11.770895638569526"><ele>509.0</ele><time>2026-04-03T10:57:33Z</time></trkpt><trkpt lat="44.13271294761615" lon="11.770936989268838"><ele>509.0</ele><time>2026-04-03T10:57:34Z</time></trkpt><trkpt lat="44.13250484732535" lon="11.770921578479426"><ele>509.0</ele><time>2026-04-03T10:57:35Z</time></trkpt><trkpt lat="44.132319820862854" lon="11.770870708085795"><ele>509.0</ele><time>2026-04-03T10:57:36Z</time></trkpt><trkpt lat="44.13210621012746" lon="11.770805210628229"><ele>505.66666666666663</ele><time>2026-04-03T10:57:37Z</time></trkpt><trkpt lat="44.13191868639601" lon="11.770763855243512"><ele>502.33333333333337</ele><time>2026-04-03T10:57:38Z</time></trkpt><trkpt lat="44.131771244813145" lon="11.770729400140274"><ele>499.0</ele><time>2026-04-03T10:57:39Z</time></trkpt><trkpt lat="44.1316458115941" lon="11.770687431276157"><ele>500.75</ele><time>2026-04-03T10:57:40Z</time></trkpt><trkpt lat="44.13152276981275" lon="11.770633517121395"><ele>502.5</ele><time>2026-04-03T10:57:41Z</time></trkpt><trkpt lat="44.13145366596826" lon="11.77057503025226"><ele>504.25</ele><time>2026-04-03T10:57:42Z</time></trkpt><trkpt lat="44.131346906477276" lon="11.770524575635532"><ele>506.0</ele><time>2026-04-03T10:57:43Z</time></trkpt><trkpt lat="44.131230664927145" lon="11.770433533143002"><ele>506.0</ele><time>2026-04-03T10:57:44Z</time></trkpt><trkpt lat="44.13116997287242" lon="11.77032149038852"><ele>506.0</ele><time>2026-04-03T10:57:45Z</time></trkpt><trkpt lat="44.13108384851936" lon="11.770256191038051"><ele>506.0</ele><time>2026-04-03T10:57:46Z</time></trkpt><trkpt lat="44.13099180657493" lon="11.77018935306138"><ele>506.0</ele><time>2026-04-03T10:57:48Z</time></trkpt><trkpt lat="44.13092598943541" lon="11.770167807947221"><ele>506.0</ele><time>2026-04-03T10:57:51Z</time></trkpt><trkpt lat="44.130822442926025" lon="11.770161465699072"><ele>506.0</ele><time>2026-04-03T10:58:54Z</time></trkpt><trkpt lat="44.13067505517448" lon="11.770088739773968"><ele>506.0</ele><time>2026-04-03T10:58:55Z</time></trkpt><trkpt lat="44.130477412227904" lon="11.770052953923027"><ele>506.0</ele><time>2026-04-03T10:58:56Z</time></trkpt><trkpt lat="44.130325442254644" lon="11.769968472786566"><ele>506.0</ele><time>2026-04-03T10:58:57Z</time></trkpt><trkpt lat="44.130191707401345" lon="11.769867282607214"><ele>506.0</ele><time>2026-04-03T10:58:58Z</time></trkpt><trkpt lat="44.130076628731864" lon="11.769745544882367"><ele>506.0</ele><time>2026-04-03T10:58:59Z</time></trkpt><trkpt lat="44.12994117102046" lon="11.769650111883669"><ele>506.0</ele><time>2026-04-03T10:59:00Z</time></trkpt><trkpt lat="44.12982875638751" lon="11.769597737642892"><ele>501.8</ele><time>2026-04-03T10:59:01Z</time></trkpt><trkpt lat="44.12973169268804" lon="11.769553471500503"><ele>497.6</ele><time>2026-04-03T10:59:02Z</time></trkpt><trkpt lat="44.12961499234057" lon="11.769501494784263"><ele>493.4</ele><time>2026-04-03T10:59:03Z</time></trkpt><trkpt lat="44.12949461051914" lon="11.769421920718154"><ele>489.2</ele><time>2026-04-03T10:59:04Z</time></trkpt><trkpt lat="44.12942974802667" lon="11.76935796987641"><ele>485.0</ele><time>2026-04-03T10:59:05Z</time></trkpt><trkpt lat="44.12934082330998" lon="11.769269555070492"><ele>485.0</ele><time>2026-04-03T10:59:06Z</time></trkpt><trkpt lat="44.12924937056528" lon="11.769177179785121"><ele>485.0</ele><time>2026-04-03T10:59:07Z</time></trkpt><trkpt lat="44.129113051840044" lon="11.769023956930631"><ele>485.0</ele><time>2026-04-03T10:59:08Z</time></trkpt><trkpt lat="44.128972082981356" lon="11.76889724136874"><ele>485.75</ele><time>2026-04-03T10:59:09Z</time></trkpt><trkpt lat="44.12885650327374" lon="11.768801917110483"><ele>486.5</ele><time>2026-04-03T10:59:10Z</time></trkpt><trkpt lat="44.128721396661774" lon="11.768778010792792"><ele>487.25</ele><time>2026-04-03T10:59:11Z</time></trkpt><trkpt lat="44.12863966898711" lon="11.768670880953875"><ele>488.0</ele><time>2026-04-03T10:59:12Z</time></trkpt><trkpt lat="44.1285389234866" lon="11.768515911956015"><ele>488.0</ele><time>2026-04-03T10:59:13Z</time></trkpt><trkpt lat="44.12849627334855" lon="11.76836950613547"><ele>488.0</ele><time>2026-04-03T10:59:14Z</time></trkpt><trkpt lat="44.12842194375727" lon="11.768267835439376"><ele>488.0</ele><time>2026-04-03T10:59:15Z</time></trkpt><trkpt lat="44.12833203564235" lon="11.768185510813103"><ele>488.0</ele><time>2026-04-03T10:59:16Z</time></trkpt><trkpt lat="44.128226728940106" lon="11.768068715234449"><ele>485.66666666666663</ele><time>2026-04-03T10:59:17Z</time></trkpt><trkpt lat="44.12810314334109" lon="11.767959280312514"><ele>483.33333333333337</ele><time>2026-04-03T10:59:18Z</time></trkpt><trkpt lat="44.12796418829089" lon="11.767808452135089"><ele>481.0</ele><time>2026-04-03T10:59:19Z</time></trkpt><trkpt lat="44.127806698834014" lon="11.767731052916968"><ele>481.0</ele><time>2026-04-03T10:59:20Z</time></trkpt><trkpt lat="44.12770568884819" lon="11.767684411260296"><ele>481.0</ele><time>2026-04-03T10:59:21Z</time></trkpt><trkpt lat="44.12761846251526" lon="11.767663474355983"><ele>481.0</ele><time>2026-04-03T10:59:22Z</time></trkpt><trkpt lat="44.12749714207067" lon="11.76764053063556"><ele>481.0</ele><time>2026-04-03T10:59:23Z</time></trkpt><trkpt lat="44.12741197222149" lon="11.767593419529046"><ele>481.0</ele><time>2026-04-03T10:59:24Z</time></trkpt><trkpt lat="44.12732807733211" lon="11.767493173088983"><ele>481.0</ele><time>2026-04-03T10:59:26Z</time></trkpt><trkpt lat="44.12728479770311" lon="11.767394388744773"><ele>481.0</ele><time>2026-04-03T10:59:27Z</time></trkpt><trkpt lat="44.127245366326115" lon="11.767288882290186"><ele>481.0</ele><time>2026-04-03T10:59:28Z</time></trkpt><trkpt lat="44.127201759286244" lon="11.767186446937037"><ele>481.0</ele><time>2026-04-03T10:59:29Z</time></trkpt><trkpt lat="44.12717573461781" lon="11.767052479898462"><ele>481.0</ele><time>2026-04-03T10:59:30Z</time></trkpt><trkpt lat="44.127138091807296" lon="11.76692780000621"><ele>485.5</ele><time>2026-04-03T10:59:31Z</time></trkpt><trkpt lat="44.12707653590708" lon="11.766793287301038"><ele>490.0</ele><time>2026-04-03T10:59:32Z</time></trkpt><trkpt lat="44.12700582360297" lon="11.76664003342647"><ele>494.5</ele><time>2026-04-03T10:59:33Z</time></trkpt><trkpt lat="44.12692593991733" lon="11.766459369301568"><ele>499.0</ele><time>2026-04-03T10:59:34Z</time></trkpt><trkpt lat="44.12683779424294" lon="11.766301686331401"><ele>499.0</ele><time>2026-04-03T10:59:35Z</time></trkpt><trkpt lat="44.126751213134135" lon="11.766194100035186"><ele>499.0</ele><time>2026-04-03T10:59:36Z</time></trkpt><trkpt lat="44.12669108067449" lon="11.766069159727131"><ele>499.0</ele><time>2026-04-03T10:59:37Z</time></trkpt><trkpt lat="44.12666727465181" lon="11.765941843124336"><ele>499.0</ele><time>2026-04-03T10:59:38Z</time></trkpt><trkpt lat="44.12663683834426" lon="11.765801652320008"><ele>499.0</ele><time>2026-04-03T10:59:39Z</time></trkpt><trkpt lat="44.1265867141333" lon="11.765613294678316"><ele>498.0</ele><time>2026-04-03T10:59:40Z</time></trkpt><trkpt lat="44.126544041318674" lon="11.765396132391484"><ele>497.0</ele><time>2026-04-03T10:59:41Z</time></trkpt><trkpt lat="44.12649910648107" lon="11.765176705386736"><ele>496.0</ele><time>2026-04-03T10:59:42Z</time></trkpt><trkpt lat="44.12640985307803" lon="11.764968024757152"><ele>496.0</ele><time>2026-04-03T10:59:43Z</time></trkpt><trkpt lat="44.12634648143387" lon="11.764799898019044"><ele>496.0</ele><time>2026-04-03T10:59:44Z</time></trkpt><trkpt lat="44.12627032566567" lon="11.76462211764444"><ele>496.0</ele><time>2026-04-03T10:59:45Z</time></trkpt><trkpt lat="44.12623294480837" lon="11.7644661021165"><ele>496.0</ele><time>2026-04-03T10:59:46Z</time></trkpt><trkpt lat="44.126182438979626" lon="11.764296412779576"><ele>500.25</ele><time>2026-04-03T10:59:47Z</time></trkpt><trkpt lat="44.126156470758836" lon="11.76413766416047"><ele>504.5</ele><time>2026-04-03T10:59:48Z</time></trkpt><trkpt lat="44.12613627544975" lon="11.763991297430254"><ele>508.75</ele><time>2026-04-03T10:59:49Z</time></trkpt><trkpt lat="44.12613978126914" lon="11.763827647395356"><ele>513.0</ele><time>2026-04-03T10:59:50Z</time></trkpt><trkpt lat="44.12609090499633" lon="11.763682497807249"><ele>513.0</ele><time>2026-04-03T10:59:51Z</time></trkpt><trkpt lat="44.126019980005694" lon="11.763568313059599"><ele>513.0</ele><time>2026-04-03T10:59:52Z</time></trkpt><trkpt lat="44.12593594315839" lon="11.763519037934916"><ele>513.0</ele><time>2026-04-03T10:59:53Z</time></trkpt><trkpt lat="44.12582865118423" lon="11.763429420595932"><ele>513.0</ele><time>2026-04-03T10:59:54Z</time></trkpt><trkpt lat="44.125760661599884" lon="11.763355401248583"><ele>513.0</ele><time>2026-04-03T10:59:55Z</time></trkpt><trkpt lat="44.125656283769665" lon="11.763208247694646"><ele>512.75</ele><time>2026-04-03T10:59:56Z</time></trkpt><trkpt lat="44.12555687126052" lon="11.763054747176723"><ele>512.5</ele><time>2026-04-03T10:59:57Z</time></trkpt><trkpt lat="44.125467150629525" lon="11.762914808708565"><ele>512.25</ele><time>2026-04-03T10:59:58Z</time></trkpt><trkpt lat="44.125385152905906" lon="11.762783956198906"><ele>512.0</ele><time>2026-04-03T10:59:59Z</time></trkpt><trkpt lat="44.12528656943214" lon="11.762661369764073"><ele>518.75</ele><time>2026-04-03T11:00:00Z</time></trkpt><trkpt lat="44.12520739496965" lon="11.762493451598171"><ele>525.5</ele><time>2026-04-03T11:00:01Z</time></trkpt><trkpt lat="44.12513056007763" lon="11.762393927489866"><ele>532.25</ele><time>2026-04-03T11:00:02Z</time></trkpt><trkpt lat="44.125035174408424" lon="11.762305181735329"><ele>539.0</ele><time>2026-04-03T11:00:03Z</time></trkpt><trkpt lat="44.12493022384882" lon="11.762203979123665"><ele>539.4</ele><time>2026-04-03T11:00:04Z</time></trkpt><trkpt lat="44.12481456594114" lon="11.762172136523393"><ele>539.8</ele><time>2026-04-03T11:00:05Z</time></trkpt><trkpt lat="44.12474909969939" lon="11.76218721752924"><ele>540.2</ele><time>2026-04-03T11:00:06Z</time></trkpt><trkpt lat="44.12466446776158" lon="11.762234543713182"><ele>540.6</ele><time>2026-04-03T11:00:07Z</time></trkpt><trkpt lat="44.1245432326158" lon="11.762267089800524"><ele>541.0</ele><time>2026-04-03T11:00:08Z</time></trkpt><trkpt lat="44.124445798090704" lon="11.762276333452999"><ele>541.0</ele><time>2026-04-03T11:00:09Z</time></trkpt><trkpt lat="44.12435770474459" lon="11.762263267833152"><ele>541.0</ele><time>2026-04-03T11:00:10Z</time></trkpt><trkpt lat="44.12423979375498" lon="11.762239000949643"><ele>541.0</ele><time>2026-04-03T11:00:11Z</time></trkpt><trkpt lat="44.12414107607109" lon="11.762263708991737"><ele>541.0</ele><time>2026-04-03T11:00:12Z</time></trkpt><trkpt lat="44.12406732716557" lon="11.762314552987764"><ele>541.0</ele><time>2026-04-03T11:00:13Z</time></trkpt><trkpt lat="44.124016033248076" lon="11.762378972651604"><ele>541.4</ele><time>2026-04-03T11:00:14Z</time></trkpt><trkpt lat="44.12396039669748" lon="11.762465471298283"><ele>541.8</ele><time>2026-04-03T11:00:15Z</time></trkpt><trkpt lat="44.12389805134116" lon="11.762503668414158"><ele>542.1999999999999</ele><time>2026-04-03T11:00:16Z</time></trkpt><trkpt lat="44.12384568579368" lon="11.7625814472023"><ele>542.6</ele><time>2026-04-03T11:00:18Z</time></trkpt><trkpt lat="44.12374261435544" lon="11.762668848835032"><ele>543.0</ele><time>2026-04-03T11:00:20Z</time></trkpt><trkpt lat="44.12364923959299" lon="11.762769150712728"><ele>543.0</ele><time>2026-04-03T11:00:22Z</time></trkpt><trkpt lat="44.123565818229864" lon="11.762827862217431"><ele>543.0</ele><time>2026-04-03T11:00:23Z</time></trkpt><trkpt lat="44.12349437034781" lon="11.762818574550481"><ele>543.0</ele><time>2026-04-03T11:00:25Z</time></trkpt><trkpt lat="44.12343406389982" lon="11.76271876091383"><ele>543.0</ele><time>2026-04-03T11:00:27Z</time></trkpt><trkpt lat="44.12342235230963" lon="11.762616865759016"><ele>543.0</ele><time>2026-04-03T11:00:28Z</time></trkpt><trkpt lat="44.12341878293427" lon="11.762481699588747"><ele>543.0</ele><time>2026-04-03T11:00:29Z</time></trkpt><trkpt lat="44.12340044595105" lon="11.76226654918336"><ele>543.0</ele><time>2026-04-03T11:00:30Z</time></trkpt><trkpt lat="44.12342316754145" lon="11.76204410285514"><ele>543.0</ele><time>2026-04-03T11:00:31Z</time></trkpt><trkpt lat="44.123432873329065" lon="11.76186333122735"><ele>543.0</ele><time>2026-04-03T11:00:32Z</time></trkpt><trkpt lat="44.12342648780882" lon="11.761724048250478"><ele>543.0</ele><time>2026-04-03T11:00:33Z</time></trkpt><trkpt lat="44.123415572454554" lon="11.761582660489744"><ele>545.25</ele><time>2026-04-03T11:00:34Z</time></trkpt><trkpt lat="44.12334907233306" lon="11.76143805317522"><ele>547.5</ele><time>2026-04-03T11:00:35Z</time></trkpt><trkpt lat="44.123288018732424" lon="11.761296872410012"><ele>549.75</ele><time>2026-04-03T11:00:36Z</time></trkpt><trkpt lat="44.12324970058865" lon="11.761155785131919"><ele>552.0</ele><time>2026-04-03T11:00:37Z</time></trkpt><trkpt lat="44.12326194101576" lon="11.761005438716726"><ele>553.6666666666666</ele><time>2026-04-03T11:00:38Z</time></trkpt><trkpt lat="44.12325062430929" lon="11.760834990861829"><ele>555.3333333333334</ele><time>2026-04-03T11:00:39Z</time></trkpt><trkpt lat="44.123229839268554" lon="11.760721260528822"><ele>557.0</ele><time>2026-04-03T11:00:40Z</time></trkpt><trkpt lat="44.1231862125109" lon="11.760627065519719"><ele>558.6666666666667</ele><time>2026-04-03T11:00:41Z</time></trkpt><trkpt lat="44.123182201154464" lon="11.760512487740682"><ele>560.3333333333334</ele><time>2026-04-03T11:00:42Z</time></trkpt><trkpt lat="44.123163995525715" lon="11.76040488557204"><ele>562.0</ele><time>2026-04-03T11:00:43Z</time></trkpt><trkpt lat="44.123145046176504" lon="11.760293401024818"><ele>560.6</ele><time>2026-04-03T11:00:44Z</time></trkpt><trkpt lat="44.12311806669805" lon="11.760137636061037"><ele>559.2</ele><time>2026-04-03T11:00:45Z</time></trkpt><trkpt lat="44.12307975350311" lon="11.759997526217614"><ele>557.8</ele><time>2026-04-03T11:00:46Z</time></trkpt><trkpt lat="44.123032902289495" lon="11.759891321033418"><ele>556.4</ele><time>2026-04-03T11:00:47Z</time></trkpt><trkpt lat="44.12297174227197" lon="11.759836613197368"><ele>555.0</ele><time>2026-04-03T11:00:48Z</time></trkpt><trkpt lat="44.12288966394246" lon="11.759793798673938"><ele>555.0</ele><time>2026-04-03T11:00:49Z</time></trkpt><trkpt lat="44.12278353404213" lon="11.759766096216456"><ele>555.0</ele><time>2026-04-03T11:00:50Z</time></trkpt><trkpt lat="44.12265874363385" lon="11.759699302655198"><ele>555.0</ele><time>2026-04-03T11:00:51Z</time></trkpt><trkpt lat="44.1225461107123" lon="11.759613533813896"><ele>555.0</ele><time>2026-04-03T11:00:52Z</time></trkpt><trkpt lat="44.12247628421815" lon="11.75951430205815"><ele>555.0</ele><time>2026-04-03T11:00:53Z</time></trkpt><trkpt lat="44.122473687933805" lon="11.75937507319796"><ele>555.0</ele><time>2026-04-03T11:00:54Z</time></trkpt><trkpt lat="44.12242777114467" lon="11.759219572760758"><ele>555.0</ele><time>2026-04-03T11:00:55Z</time></trkpt><trkpt lat="44.12233699150785" lon="11.759071572481549"><ele>555.0</ele><time>2026-04-03T11:00:56Z</time></trkpt><trkpt lat="44.12226354678724" lon="11.758989882268605"><ele>554.4</ele><time>2026-04-03T11:00:57Z</time></trkpt><trkpt lat="44.12217204327302" lon="11.758909219388277"><ele>553.8</ele><time>2026-04-03T11:00:58Z</time></trkpt><trkpt lat="44.12211456261645" lon="11.758847952839632"><ele>553.2</ele><time>2026-04-03T11:00:59Z</time></trkpt><trkpt lat="44.12210381982355" lon="11.758722539152258"><ele>552.6</ele><time>2026-04-03T11:01:01Z</time></trkpt><trkpt lat="44.12215423386935" lon="11.758566673683198"><ele>552.0</ele><time>2026-04-03T11:01:03Z</time></trkpt><trkpt lat="44.122213684349035" lon="11.75842295334105"><ele>550.75</ele><time>2026-04-03T11:01:04Z</time></trkpt><trkpt lat="44.122266129795115" lon="11.758252897896707"><ele>549.5</ele><time>2026-04-03T11:01:05Z</time></trkpt><trkpt lat="44.12228977112108" lon="11.758071636542502"><ele>548.25</ele><time>2026-04-03T11:01:06Z</time></trkpt><trkpt lat="44.12229628004396" lon="11.757896335571722"><ele>547.0</ele><time>2026-04-03T11:01:07Z</time></trkpt><trkpt lat="44.122300937385454" lon="11.75776108260094"><ele>548.2</ele><time>2026-04-03T11:01:08Z</time></trkpt><trkpt lat="44.12229628886342" lon="11.757644494292313"><ele>549.4000000000001</ele><time>2026-04-03T11:01:09Z</time></trkpt><trkpt lat="44.12228278417089" lon="11.757558411449393"><ele>550.5999999999999</ele><time>2026-04-03T11:01:10Z</time></trkpt><trkpt lat="44.12222757413724" lon="11.757411665683838"><ele>551.8</ele><time>2026-04-03T11:01:12Z</time></trkpt><trkpt lat="44.12217950130215" lon="11.75727973833694"><ele>553.0</ele><time>2026-04-03T11:01:13Z</time></trkpt><trkpt lat="44.12208086573951" lon="11.75710830853551"><ele>553.0</ele><time>2026-04-03T11:01:14Z</time></trkpt><trkpt lat="44.121977986678964" lon="11.75700278798624"><ele>553.0</ele><time>2026-04-03T11:01:15Z</time></trkpt><trkpt lat="44.12190043085229" lon="11.756903791172412"><ele>553.0</ele><time>2026-04-03T11:01:16Z</time></trkpt><trkpt lat="44.12179596490295" lon="11.756825169182093"><ele>553.0</ele><time>2026-04-03T11:01:17Z</time></trkpt><trkpt lat="44.121650852199245" lon="11.75676622791983"><ele>550.8</ele><time>2026-04-03T11:01:18Z</time></trkpt><trkpt lat="44.12157192614532" lon="11.7566971739739"><ele>548.5999999999999</ele><time>2026-04-03T11:01:19Z</time></trkpt><trkpt lat="44.12152969736646" lon="11.756608489583801"><ele>546.4000000000001</ele><time>2026-04-03T11:01:21Z</time></trkpt><trkpt lat="44.1215323844947" lon="11.756431920983953"><ele>544.2</ele><time>2026-04-03T11:01:23Z</time></trkpt><trkpt lat="44.121531692170656" lon="11.756267046045815"><ele>542.0</ele><time>2026-04-03T11:01:24Z</time></trkpt><trkpt lat="44.121541986354046" lon="11.756102678728674"><ele>545.2</ele><time>2026-04-03T11:01:25Z</time></trkpt><trkpt lat="44.12153217907295" lon="11.755945524557289"><ele>548.4000000000001</ele><time>2026-04-03T11:01:26Z</time></trkpt><trkpt lat="44.121500378127664" lon="11.755789515232232"><ele>551.5999999999999</ele><time>2026-04-03T11:01:27Z</time></trkpt><trkpt lat="44.12146977368073" lon="11.755704584282766"><ele>554.8</ele><time>2026-04-03T11:01:28Z</time></trkpt><trkpt lat="44.121420522904614" lon="11.755622671217957"><ele>558.0</ele><time>2026-04-03T11:01:29Z</time></trkpt><trkpt lat="44.121340423336235" lon="11.755568590450224"><ele>558.0</ele><time>2026-04-03T11:01:31Z</time></trkpt><trkpt lat="44.121269440732064" lon="11.755507654493707"><ele>558.0</ele><time>2026-04-03T11:01:32Z</time></trkpt><trkpt lat="44.12120901682003" lon="11.755479490328266"><ele>558.0</ele><time>2026-04-03T11:01:33Z</time></trkpt><trkpt lat="44.1211234120608" lon="11.755437145655348"><ele>558.0</ele><time>2026-04-03T11:01:34Z</time></trkpt><trkpt lat="44.12099896708394" lon="11.75536789327847"><ele>558.0</ele><time>2026-04-03T11:01:34.999Z</time></trkpt><trkpt lat="44.120915134940915" lon="11.75529716680057"><ele>558.0</ele><time>2026-04-03T11:01:35.999Z</time></trkpt><trkpt lat="44.12086256800377" lon="11.755242680576117"><ele>558.0</ele><time>2026-04-03T11:01:36.999Z</time></trkpt><trkpt lat="44.12082793941926" lon="11.755076868569288"><ele>558.0</ele><time>2026-04-03T11:01:39Z</time></trkpt><trkpt lat="44.12087060710033" lon="11.754991601919468"><ele>558.0</ele><time>2026-04-03T11:01:40Z</time></trkpt><trkpt lat="44.12090076894196" lon="11.7548740252091"><ele>558.0</ele><time>2026-04-03T11:01:41Z</time></trkpt><trkpt lat="44.120983041206635" lon="11.754699899382635"><ele>561.1999999999999</ele><time>2026-04-03T11:01:42Z</time></trkpt><trkpt lat="44.12103478042872" lon="11.754545644102953"><ele>564.4</ele><time>2026-04-03T11:01:43Z</time></trkpt><trkpt lat="44.12104286855251" lon="11.754439675356743"><ele>567.5999999999999</ele><time>2026-04-03T11:01:44Z</time></trkpt><trkpt lat="44.12102409049265" lon="11.754350186336925"><ele>570.8</ele><time>2026-04-03T11:01:45Z</time></trkpt><trkpt lat="44.12096548748774" lon="11.754206012415287"><ele>574.0</ele><time>2026-04-03T11:01:46Z</time></trkpt><trkpt lat="44.12086567528509" lon="11.754029490513933"><ele>577.0</ele><time>2026-04-03T11:01:47Z</time></trkpt><trkpt lat="44.12077532014987" lon="11.753914319431129"><ele>580.0</ele><time>2026-04-03T11:01:48Z</time></trkpt><trkpt lat="44.12067302891583" lon="11.753826821234718"><ele>583.0</ele><time>2026-04-03T11:01:49Z</time></trkpt><trkpt lat="44.12058958749928" lon="11.753774531722012"><ele>586.0</ele><time>2026-04-03T11:01:50Z</time></trkpt><trkpt lat="44.12050961395156" lon="11.753704913543153"><ele>589.0</ele><time>2026-04-03T11:01:51Z</time></trkpt><trkpt lat="44.12047705677222" lon="11.753604197756038"><ele>587.0</ele><time>2026-04-03T11:01:52Z</time></trkpt><trkpt lat="44.120433514691314" lon="11.75352170144761"><ele>585.0</ele><time>2026-04-03T11:01:53Z</time></trkpt><trkpt lat="44.12048551457204" lon="11.753357998568598"><ele>583.0</ele><time>2026-04-03T11:01:54Z</time></trkpt><trkpt lat="44.120514948929895" lon="11.753175488911376"><ele>581.0</ele><time>2026-04-03T11:01:55Z</time></trkpt><trkpt lat="44.12051087004366" lon="11.753047302295373"><ele>579.0</ele><time>2026-04-03T11:01:56Z</time></trkpt><trkpt lat="44.1204368659263" lon="11.75292496825764"><ele>579.0</ele><time>2026-04-03T11:01:58Z</time></trkpt><trkpt lat="44.120379321085316" lon="11.75284115155024"><ele>579.0</ele><time>2026-04-03T11:01:59Z</time></trkpt><trkpt lat="44.12027870472521" lon="11.75278781131611"><ele>579.0</ele><time>2026-04-03T11:02:00Z</time></trkpt><trkpt lat="44.12013087892246" lon="11.752754924935195"><ele>579.0</ele><time>2026-04-03T11:02:01Z</time></trkpt><trkpt lat="44.1199344229831" lon="11.752729735212194"><ele>579.3333333333334</ele><time>2026-04-03T11:02:02Z</time></trkpt><trkpt lat="44.11974408245134" lon="11.752735304470816"><ele>579.6666666666667</ele><time>2026-04-03T11:02:03Z</time></trkpt><trkpt lat="44.11956865940649" lon="11.752763259743308"><ele>580.0</ele><time>2026-04-03T11:02:04Z</time></trkpt><trkpt lat="44.11942251271422" lon="11.752804387233116"><ele>580.0</ele><time>2026-04-03T11:02:05Z</time></trkpt><trkpt lat="44.11930742976535" lon="11.7528372324053"><ele>580.0</ele><time>2026-04-03T11:02:06Z</time></trkpt><trkpt lat="44.11921847930737" lon="11.752849543429532"><ele>580.0</ele><time>2026-04-03T11:02:07Z</time></trkpt><trkpt lat="44.11911590570076" lon="11.752775934911693"><ele>580.0</ele><time>2026-04-03T11:02:09Z</time></trkpt><trkpt lat="44.11904151273462" lon="11.752702958325528"><ele>580.0</ele><time>2026-04-03T11:02:10Z</time></trkpt><trkpt lat="44.11896922814717" lon="11.752605215750068"><ele>582.5</ele><time>2026-04-03T11:02:11Z</time></trkpt><trkpt lat="44.118923645528014" lon="11.75252330797652"><ele>585.0</ele><time>2026-04-03T11:02:12Z</time></trkpt><trkpt lat="44.1188512122362" lon="11.752473580276986"><ele>587.5</ele><time>2026-04-03T11:02:13Z</time></trkpt><trkpt lat="44.118763916279875" lon="11.752436015053313"><ele>590.0</ele><time>2026-04-03T11:02:14Z</time></trkpt><trkpt lat="44.118665329631995" lon="11.752398495583082"><ele>592.5</ele><time>2026-04-03T11:02:15Z</time></trkpt><trkpt lat="44.118574830555374" lon="11.752367464741823"><ele>595.0</ele><time>2026-04-03T11:02:16Z</time></trkpt><trkpt lat="44.11843877888126" lon="11.752316802685328"><ele>595.0</ele><time>2026-04-03T11:02:17Z</time></trkpt><trkpt lat="44.11833308719392" lon="11.752272944298001"><ele>595.0</ele><time>2026-04-03T11:02:18Z</time></trkpt><trkpt lat="44.11820482164754" lon="11.752279064094022"><ele>595.0</ele><time>2026-04-03T11:02:19Z</time></trkpt><trkpt lat="44.118110865522226" lon="11.752342389954544"><ele>595.0</ele><time>2026-04-03T11:02:20Z</time></trkpt><trkpt lat="44.11803671179794" lon="11.752364340639376"><ele>595.0</ele><time>2026-04-03T11:02:21Z</time></trkpt><trkpt lat="44.117968106052516" lon="11.752369483049277"><ele>594.8</ele><time>2026-04-03T11:02:22Z</time></trkpt><trkpt lat="44.11790633510466" lon="11.752321568698944"><ele>594.6</ele><time>2026-04-03T11:02:23Z</time></trkpt><trkpt lat="44.11784022704841" lon="11.75219384483799"><ele>594.4</ele><time>2026-04-03T11:02:24Z</time></trkpt><trkpt lat="44.117770738621594" lon="11.752071325535773"><ele>594.2</ele><time>2026-04-03T11:02:25Z</time></trkpt><trkpt lat="44.11768073478957" lon="11.751979219972656"><ele>594.0</ele><time>2026-04-03T11:02:26Z</time></trkpt><trkpt lat="44.11761040381578" lon="11.751933335282125"><ele>594.0</ele><time>2026-04-03T11:02:27Z</time></trkpt><trkpt lat="44.117518470282505" lon="11.75191116672097"><ele>594.0</ele><time>2026-04-03T11:02:29Z</time></trkpt><trkpt lat="44.11744719633929" lon="11.751900737532218"><ele>594.0</ele><time>2026-04-03T11:02:30Z</time></trkpt><trkpt lat="44.117308930636" lon="11.752062337240899"><ele>594.0</ele><time>2026-04-03T11:02:31Z</time></trkpt><trkpt lat="44.117172868847334" lon="11.752099275267788"><ele>595.5</ele><time>2026-04-03T11:02:32Z</time></trkpt><trkpt lat="44.11710115918026" lon="11.752121180581076"><ele>597.0</ele><time>2026-04-03T11:02:33Z</time></trkpt><trkpt lat="44.11693567297258" lon="11.752023166433409"><ele>598.5</ele><time>2026-04-03T11:02:35Z</time></trkpt><trkpt lat="44.116840581206624" lon="11.75201961006144"><ele>600.0</ele><time>2026-04-03T11:02:36Z</time></trkpt><trkpt lat="44.11673578201402" lon="11.752011681753864"><ele>600.0</ele><time>2026-04-03T11:02:37Z</time></trkpt><trkpt lat="44.11666866723703" lon="11.751986954977877"><ele>600.0</ele><time>2026-04-03T11:02:38Z</time></trkpt><trkpt lat="44.11661391906411" lon="11.751933607776927"><ele>600.0</ele><time>2026-04-03T11:02:39Z</time></trkpt><trkpt lat="44.11654375296147" lon="11.75183891145125"><ele>600.0</ele><time>2026-04-03T11:02:40Z</time></trkpt><trkpt lat="44.11645669049945" lon="11.751760476843682"><ele>600.0</ele><time>2026-04-03T11:02:41Z</time></trkpt><trkpt lat="44.11639159115947" lon="11.751733208541822"><ele>600.0</ele><time>2026-04-03T11:02:42Z</time></trkpt><trkpt lat="44.11626762957679" lon="11.751799394514988"><ele>598.5</ele><time>2026-04-03T11:02:44Z</time></trkpt><trkpt lat="44.116211447066654" lon="11.751877867068792"><ele>597.0</ele><time>2026-04-03T11:02:45Z</time></trkpt><trkpt lat="44.11613918334013" lon="11.751946046845283"><ele>595.5</ele><time>2026-04-03T11:02:46Z</time></trkpt><trkpt lat="44.116055741160096" lon="11.751974691314826"><ele>594.0</ele><time>2026-04-03T11:02:48Z</time></trkpt><trkpt lat="44.11598555481134" lon="11.751928644429286"><ele>592.5</ele><time>2026-04-03T11:02:49Z</time></trkpt><trkpt lat="44.11590858298601" lon="11.751859449893608"><ele>591.0</ele><time>2026-04-03T11:02:50Z</time></trkpt><trkpt lat="44.115808158487305" lon="11.751755529200357"><ele>591.5</ele><time>2026-04-03T11:02:51Z</time></trkpt><trkpt lat="44.11573590546303" lon="11.751649644415536"><ele>592.0</ele><time>2026-04-03T11:02:52Z</time></trkpt><trkpt lat="44.11570368048906" lon="11.75149139111618"><ele>592.5</ele><time>2026-04-03T11:02:53Z</time></trkpt><trkpt lat="44.1156315151888" lon="11.751294363334994"><ele>593.0</ele><time>2026-04-03T11:02:54Z</time></trkpt><trkpt lat="44.11559571543307" lon="11.751179553259027"><ele>593.0</ele><time>2026-04-03T11:02:55Z</time></trkpt><trkpt lat="44.115531848891905" lon="11.751144608255812"><ele>593.0</ele><time>2026-04-03T11:02:56Z</time></trkpt><trkpt lat="44.11544535115701" lon="11.75113060255241"><ele>593.0</ele><time>2026-04-03T11:02:57Z</time></trkpt><trkpt lat="44.115308350219685" lon="11.751057042082914"><ele>593.0</ele><time>2026-04-03T11:02:58Z</time></trkpt><trkpt lat="44.1151281146015" lon="11.750976908322937"><ele>597.5</ele><time>2026-04-03T11:02:59Z</time></trkpt><trkpt lat="44.11499387778588" lon="11.750905136949454"><ele>602.0</ele><time>2026-04-03T11:03:00Z</time></trkpt><trkpt lat="44.11487605923845" lon="11.75085267692398"><ele>606.5</ele><time>2026-04-03T11:03:01Z</time></trkpt><trkpt lat="44.11472035627574" lon="11.750755637848593"><ele>611.0</ele><time>2026-04-03T11:03:02Z</time></trkpt><trkpt lat="44.114570572737634" lon="11.750623804242917"><ele>611.0</ele><time>2026-04-03T11:03:03Z</time></trkpt><trkpt lat="44.11441694059857" lon="11.750493913720792"><ele>611.0</ele><time>2026-04-03T11:03:04Z</time></trkpt><trkpt lat="44.114289493401" lon="11.750392806271876"><ele>611.0</ele><time>2026-04-03T11:03:05Z</time></trkpt><trkpt lat="44.11418943944128" lon="11.75032513171476"><ele>611.0</ele><time>2026-04-03T11:03:06Z</time></trkpt><trkpt lat="44.11410639582162" lon="11.750259927305416"><ele>609.4</ele><time>2026-04-03T11:03:07Z</time></trkpt><trkpt lat="44.11401784517593" lon="11.750267093107633"><ele>607.8</ele><time>2026-04-03T11:03:08Z</time></trkpt><trkpt lat="44.11392330914668" lon="11.750268022628498"><ele>606.1999999999999</ele><time>2026-04-03T11:03:09Z</time></trkpt><trkpt lat="44.113828585095284" lon="11.750312031318654"><ele>604.6</ele><time>2026-04-03T11:03:10Z</time></trkpt><trkpt lat="44.11372275072572" lon="11.750301685232197"><ele>603.0</ele><time>2026-04-03T11:03:11Z</time></trkpt><trkpt lat="44.11361828253472" lon="11.750305013423059"><ele>603.0</ele><time>2026-04-03T11:03:12Z</time></trkpt><trkpt lat="44.113491509695166" lon="11.750312734599678"><ele>603.0</ele><time>2026-04-03T11:03:13Z</time></trkpt><trkpt lat="44.113348548905044" lon="11.750332105466425"><ele>603.0</ele><time>2026-04-03T11:03:14Z</time></trkpt><trkpt lat="44.11322840086683" lon="11.750345235044538"><ele>603.0</ele><time>2026-04-03T11:03:15Z</time></trkpt><trkpt lat="44.11312857119411" lon="11.750356205973207"><ele>605.1666666666666</ele><time>2026-04-03T11:03:16Z</time></trkpt><trkpt lat="44.11303714362146" lon="11.750385904321465"><ele>607.3333333333334</ele><time>2026-04-03T11:03:17Z</time></trkpt><trkpt lat="44.11295135745718" lon="11.750360254840109"><ele>609.5</ele><time>2026-04-03T11:03:18Z</time></trkpt><trkpt lat="44.11287996774035" lon="11.750371401594927"><ele>611.6666666666667</ele><time>2026-04-03T11:03:19Z</time></trkpt><trkpt lat="44.1127798695106" lon="11.750414663542765"><ele>613.8333333333334</ele><time>2026-04-03T11:03:21Z</time></trkpt><trkpt lat="44.11277971130282" lon="11.750534448796245"><ele>616.0</ele><time>2026-04-03T11:03:37Z</time></trkpt><trkpt lat="44.112745361549074" lon="11.750623017081436"><ele>616.0</ele><time>2026-04-03T11:04:02Z</time></trkpt><trkpt lat="44.112590917553106" lon="11.750777424469241"><ele>616.0</ele><time>2026-04-03T11:04:04Z</time></trkpt><trkpt lat="44.11250015587549" lon="11.750881160460413"><ele>616.0</ele><time>2026-04-03T11:04:05Z</time></trkpt><trkpt lat="44.11243434492274" lon="11.750941526482384"><ele>616.0</ele><time>2026-04-03T11:04:06Z</time></trkpt><trkpt lat="44.11234445307884" lon="11.750999751353854"><ele>617.5</ele><time>2026-04-03T11:04:07Z</time></trkpt><trkpt lat="44.112239893958794" lon="11.750939566500648"><ele>619.0</ele><time>2026-04-03T11:04:08Z</time></trkpt><trkpt lat="44.11210245443532" lon="11.750889735460943"><ele>620.5</ele><time>2026-04-03T11:04:09Z</time></trkpt><trkpt lat="44.11201188996954" lon="11.750860450637152"><ele>622.0</ele><time>2026-04-03T11:04:10Z</time></trkpt><trkpt lat="44.11190907060645" lon="11.750822098717839"><ele>622.0</ele><time>2026-04-03T11:04:11Z</time></trkpt><trkpt lat="44.11183479498986" lon="11.75084050519831"><ele>622.0</ele><time>2026-04-03T11:04:12Z</time></trkpt><trkpt lat="44.111707507146605" lon="11.750874916567161"><ele>622.0</ele><time>2026-04-03T11:04:13Z</time></trkpt><trkpt lat="44.11154415839737" lon="11.750975028840758"><ele>622.0</ele><time>2026-04-03T11:04:14Z</time></trkpt><trkpt lat="44.11143520706055" lon="11.751044272293662"><ele>617.2</ele><time>2026-04-03T11:04:15Z</time></trkpt><trkpt lat="44.11132268597064" lon="11.751094863132307"><ele>612.4000000000001</ele><time>2026-04-03T11:04:16Z</time></trkpt><trkpt lat="44.111242390489046" lon="11.751163239752474"><ele>607.5999999999999</ele><time>2026-04-03T11:04:17Z</time></trkpt><trkpt lat="44.11117464920764" lon="11.751267816310596"><ele>602.8</ele><time>2026-04-03T11:04:18Z</time></trkpt><trkpt lat="44.11114360861864" lon="11.751382266922331"><ele>598.0</ele><time>2026-04-03T11:04:19Z</time></trkpt><trkpt lat="44.11112845236359" lon="11.751509221050902"><ele>598.0</ele><time>2026-04-03T11:04:20Z</time></trkpt><trkpt lat="44.111064851125235" lon="11.751575603485941"><ele>598.0</ele><time>2026-04-03T11:04:21Z</time></trkpt><trkpt lat="44.11099666599529" lon="11.751553604792328"><ele>598.0</ele><time>2026-04-03T11:04:22Z</time></trkpt><trkpt lat="44.11087837442619" lon="11.751461550835327"><ele>598.0</ele><time>2026-04-03T11:04:24Z</time></trkpt><trkpt lat="44.110840116117785" lon="11.75136727472081"><ele>598.0</ele><time>2026-04-03T11:04:25Z</time></trkpt><trkpt lat="44.1108042261979" lon="11.751214971411443"><ele>598.0</ele><time>2026-04-03T11:04:26Z</time></trkpt><trkpt lat="44.1107525172012" lon="11.75109922830612"><ele>598.0</ele><time>2026-04-03T11:04:27Z</time></trkpt><trkpt lat="44.110686678860525" lon="11.751031967115825"><ele>598.0</ele><time>2026-04-03T11:04:28Z</time></trkpt><trkpt lat="44.11062414174733" lon="11.750934148210016"><ele>598.0</ele><time>2026-04-03T11:04:29Z</time></trkpt><trkpt lat="44.11050852503668" lon="11.750860227177718"><ele>598.0</ele><time>2026-04-03T11:04:30Z</time></trkpt><trkpt lat="44.110372470379836" lon="11.750757438778674"><ele>599.0</ele><time>2026-04-03T11:04:31Z</time></trkpt><trkpt lat="44.11025427720689" lon="11.750658741161889"><ele>600.0</ele><time>2026-04-03T11:04:32Z</time></trkpt><trkpt lat="44.11015948808189" lon="11.750569251643377"><ele>601.0</ele><time>2026-04-03T11:04:33Z</time></trkpt><trkpt lat="44.110060429173366" lon="11.750496130009111"><ele>602.0</ele><time>2026-04-03T11:04:34Z</time></trkpt><trkpt lat="44.109950006696195" lon="11.750459018968238"><ele>600.3333333333333</ele><time>2026-04-03T11:04:35Z</time></trkpt><trkpt lat="44.1098009724799" lon="11.750415008567431"><ele>598.6666666666666</ele><time>2026-04-03T11:04:36Z</time></trkpt><trkpt lat="44.109581122350804" lon="11.750356680295331"><ele>597.0</ele><time>2026-04-03T11:04:37Z</time></trkpt><trkpt lat="44.10940102638717" lon="11.750263875829106"><ele>597.0</ele><time>2026-04-03T11:04:38Z</time></trkpt><trkpt lat="44.109262993279934" lon="11.750215122257735"><ele>597.0</ele><time>2026-04-03T11:04:39Z</time></trkpt><trkpt lat="44.109120373548095" lon="11.750157369890443"><ele>597.0</ele><time>2026-04-03T11:04:40Z</time></trkpt><trkpt lat="44.10899177708475" lon="11.750099184558843"><ele>597.0</ele><time>2026-04-03T11:04:41Z</time></trkpt><trkpt lat="44.10884044340538" lon="11.750004221189762"><ele>596.25</ele><time>2026-04-03T11:04:42Z</time></trkpt><trkpt lat="44.108741854845185" lon="11.74992969635569"><ele>595.5</ele><time>2026-04-03T11:04:43Z</time></trkpt><trkpt lat="44.10863883624079" lon="11.749850432651684"><ele>594.75</ele><time>2026-04-03T11:04:44Z</time></trkpt><trkpt lat="44.108546542175986" lon="11.749779420593372"><ele>594.0</ele><time>2026-04-03T11:04:45Z</time></trkpt><trkpt lat="44.10843766574395" lon="11.749696218388099"><ele>594.0</ele><time>2026-04-03T11:04:46Z</time></trkpt><trkpt lat="44.10833275336698" lon="11.749617749440494"><ele>594.0</ele><time>2026-04-03T11:04:47Z</time></trkpt><trkpt lat="44.10822967673569" lon="11.749544982609027"><ele>594.0</ele><time>2026-04-03T11:04:48Z</time></trkpt><trkpt lat="44.10812356677941" lon="11.749494642938878"><ele>594.0</ele><time>2026-04-03T11:04:49Z</time></trkpt><trkpt lat="44.10801914217807" lon="11.749394351564595"><ele>594.5</ele><time>2026-04-03T11:04:50Z</time></trkpt><trkpt lat="44.10791447342233" lon="11.749315812779972"><ele>595.0</ele><time>2026-04-03T11:04:51Z</time></trkpt><trkpt lat="44.10780346964908" lon="11.749253679084086"><ele>595.5</ele><time>2026-04-03T11:04:52Z</time></trkpt><trkpt lat="44.10768769336503" lon="11.749149917523985"><ele>596.0</ele><time>2026-04-03T11:04:53Z</time></trkpt><trkpt lat="44.10759606930847" lon="11.749095328964318"><ele>596.0</ele><time>2026-04-03T11:04:54Z</time></trkpt><trkpt lat="44.107518365240075" lon="11.749030236110222"><ele>596.0</ele><time>2026-04-03T11:04:55Z</time></trkpt><trkpt lat="44.10743959669101" lon="11.748962719073193"><ele>596.0</ele><time>2026-04-03T11:04:56Z</time></trkpt><trkpt lat="44.107380878790686" lon="11.748918414187123"><ele>596.0</ele><time>2026-04-03T11:04:57Z</time></trkpt><trkpt lat="44.10729800989869" lon="11.748855886458443"><ele>596.0</ele><time>2026-04-03T11:04:58Z</time></trkpt><trkpt lat="44.10723268138569" lon="11.748828444707755"><ele>596.0</ele><time>2026-04-03T11:04:59Z</time></trkpt><trkpt lat="44.10713792298637" lon="11.748752881219618"><ele>595.6</ele><time>2026-04-03T11:05:01Z</time></trkpt><trkpt lat="44.107078263214575" lon="11.748696025007526"><ele>595.2</ele><time>2026-04-03T11:05:02Z</time></trkpt><trkpt lat="44.10700008319588" lon="11.748644944496368"><ele>594.8</ele><time>2026-04-03T11:05:03Z</time></trkpt><trkpt lat="44.106911090111026" lon="11.748592668461349"><ele>594.4</ele><time>2026-04-03T11:05:04Z</time></trkpt><trkpt lat="44.10680743133545" lon="11.748543014979322"><ele>594.0</ele><time>2026-04-03T11:05:05Z</time></trkpt><trkpt lat="44.1066988339045" lon="11.748493481477082"><ele>592.5</ele><time>2026-04-03T11:05:06Z</time></trkpt><trkpt lat="44.10656379082518" lon="11.748420526508902"><ele>591.0</ele><time>2026-04-03T11:05:07Z</time></trkpt><trkpt lat="44.10640330238842" lon="11.74837440292212"><ele>589.5</ele><time>2026-04-03T11:05:08Z</time></trkpt><trkpt lat="44.106273750484405" lon="11.748361058488175"><ele>588.0</ele><time>2026-04-03T11:05:09Z</time></trkpt><trkpt lat="44.106167145805856" lon="11.748363544245072"><ele>588.0</ele><time>2026-04-03T11:05:10Z</time></trkpt><trkpt lat="44.10606938280928" lon="11.74839399307098"><ele>588.0</ele><time>2026-04-03T11:05:11Z</time></trkpt><trkpt lat="44.10598069748035" lon="11.748465724377878"><ele>588.0</ele><time>2026-04-03T11:05:13Z</time></trkpt><trkpt lat="44.10589760982021" lon="11.74862126208354"><ele>588.0</ele><time>2026-04-03T11:05:14Z</time></trkpt><trkpt lat="44.105831860945955" lon="11.74871582751895"><ele>588.0</ele><time>2026-04-03T11:05:15Z</time></trkpt><trkpt lat="44.10572206157205" lon="11.74881776032603"><ele>591.4</ele><time>2026-04-03T11:05:16Z</time></trkpt><trkpt lat="44.10565113260772" lon="11.748842416336073"><ele>594.8</ele><time>2026-04-03T11:05:17Z</time></trkpt><trkpt lat="44.105559732095536" lon="11.748848713519394"><ele>598.2</ele><time>2026-04-03T11:05:19Z</time></trkpt><trkpt lat="44.10546285797376" lon="11.748821345480994"><ele>601.6</ele><time>2026-04-03T11:07:01Z</time></trkpt><trkpt lat="44.105358957083" lon="11.748835178695256"><ele>605.0</ele><time>2026-04-03T11:07:02Z</time></trkpt><trkpt lat="44.10524395458765" lon="11.749268947489268"><ele>605.0</ele><time>2026-04-03T11:07:04Z</time></trkpt><trkpt lat="44.1051793485824" lon="11.749236769908713"><ele>605.0</ele><time>2026-04-03T11:07:06Z</time></trkpt><trkpt lat="44.105168839835656" lon="11.749119499133755"><ele>605.0</ele><time>2026-04-03T11:07:08Z</time></trkpt><trkpt lat="44.105205158734634" lon="11.749045182455234"><ele>605.0</ele><time>2026-04-03T11:07:09Z</time></trkpt><trkpt lat="44.10526992916395" lon="11.748919359659627"><ele>605.0</ele><time>2026-04-03T11:07:11Z</time></trkpt><trkpt lat="44.10526341185048" lon="11.748822925258343"><ele>605.0</ele><time>2026-04-03T11:07:12Z</time></trkpt><trkpt lat="44.10524707940096" lon="11.748733559458904"><ele>603.0</ele><time>2026-04-03T11:07:13Z</time></trkpt><trkpt lat="44.10531431969643" lon="11.748478262920125"><ele>601.0</ele><time>2026-04-03T11:07:15Z</time></trkpt><trkpt lat="44.10525581174342" lon="11.74834291278312"><ele>599.0</ele><time>2026-04-03T11:07:16Z</time></trkpt><trkpt lat="44.10516620829358" lon="11.748220150769907"><ele>597.0</ele><time>2026-04-03T11:07:17Z</time></trkpt><trkpt lat="44.105058206348325" lon="11.74812023318199"><ele>597.0</ele><time>2026-04-03T11:07:18Z</time></trkpt><trkpt lat="44.10496579092752" lon="11.74805483502922"><ele>597.0</ele><time>2026-04-03T11:07:19Z</time></trkpt><trkpt lat="44.1048968159025" lon="11.748016310843612"><ele>597.0</ele><time>2026-04-03T11:07:20Z</time></trkpt><trkpt lat="44.10464259600274" lon="11.74796061474697"><ele>597.0</ele><time>2026-04-03T11:07:21Z</time></trkpt><trkpt lat="44.104503945784316" lon="11.748042784725834"><ele>597.6666666666666</ele><time>2026-04-03T11:07:22Z</time></trkpt><trkpt lat="44.10443990937906" lon="11.748090544577087"><ele>598.3333333333334</ele><time>2026-04-03T11:07:23Z</time></trkpt><trkpt lat="44.10437691759367" lon="11.748137525289094"><ele>599.0</ele><time>2026-04-03T11:07:24Z</time></trkpt><trkpt lat="44.104275694761604" lon="11.748128839851615"><ele>599.6666666666667</ele><time>2026-04-03T11:07:26.999Z</time></trkpt><trkpt lat="44.10434670295666" lon="11.748067083086429"><ele>600.3333333333334</ele><time>2026-04-03T11:07:27.999Z</time></trkpt><trkpt lat="44.10426739630557" lon="11.74804801137449"><ele>601.0</ele><time>2026-04-03T11:07:30.999Z</time></trkpt><trkpt lat="44.10419171090964" lon="11.748028633230502"><ele>601.0</ele><time>2026-04-03T11:07:32.999Z</time></trkpt><trkpt lat="44.104100459034875" lon="11.747994025542427"><ele>601.0</ele><time>2026-04-03T11:07:34.999Z</time></trkpt><trkpt lat="44.10403377087712" lon="11.74795596672436"><ele>601.0</ele><time>2026-04-03T11:07:35.999Z</time></trkpt><trkpt lat="44.10396519424002" lon="11.747910523112752"><ele>601.0</ele><time>2026-04-03T11:07:36.999Z</time></trkpt><trkpt lat="44.10389392966781" lon="11.747961746515255"><ele>601.0</ele><time>2026-04-03T11:08:18Z</time></trkpt><trkpt lat="44.103853203713754" lon="11.748038029934687"><ele>601.0</ele><time>2026-04-03T11:08:20Z</time></trkpt><trkpt lat="44.103805162920416" lon="11.748135730847304"><ele>602.5714285714286</ele><time>2026-04-03T11:08:24Z</time></trkpt><trkpt lat="44.103766330955345" lon="11.748213547769073"><ele>604.1428571428572</ele><time>2026-04-03T11:08:26Z</time></trkpt><trkpt lat="44.103727887946405" lon="11.748292372407866"><ele>605.7142857142858</ele><time>2026-04-03T11:08:28Z</time></trkpt><trkpt lat="44.10368882746961" lon="11.748370316562811"><ele>607.2857142857142</ele><time>2026-04-03T11:08:30Z</time></trkpt><trkpt lat="44.10373713209236" lon="11.748291360490567"><ele>608.8571428571429</ele><time>2026-04-03T11:08:55Z</time></trkpt><trkpt lat="44.10377396770363" lon="11.748212389992016"><ele>610.4285714285714</ele><time>2026-04-03T11:08:59Z</time></trkpt><trkpt lat="44.1037574822764" lon="11.748106358728927"><ele>612.0</ele><time>2026-04-03T11:09:02Z</time></trkpt><trkpt lat="44.10374959616648" lon="11.747999160878061"><ele>612.0</ele><time>2026-04-03T11:09:05Z</time></trkpt><trkpt lat="44.103744386697855" lon="11.747890303325551"><ele>612.0</ele><time>2026-04-03T11:09:08Z</time></trkpt><trkpt lat="44.10372426792386" lon="11.747782432194114"><ele>612.0</ele><time>2026-04-03T11:09:11Z</time></trkpt><trkpt lat="44.10367164389453" lon="11.747643300985363"><ele>612.0</ele><time>2026-04-03T11:09:13Z</time></trkpt><trkpt lat="44.10366164914826" lon="11.74754185815235"><ele>612.0</ele><time>2026-04-03T11:09:16Z</time></trkpt><trkpt lat="44.103381219347554" lon="11.748284694584129"><ele>612.0</ele><time>2026-04-03T11:11:21Z</time></trkpt><trkpt lat="44.103441194719416" lon="11.748414780039823"><ele>612.0</ele><time>2026-04-03T11:11:23Z</time></trkpt><trkpt lat="44.103488080244325" lon="11.748521102868459"><ele>612.0</ele><time>2026-04-03T11:11:25Z</time></trkpt><trkpt lat="44.10352212699932" lon="11.748595811618783"><ele>612.0</ele><time>2026-04-03T11:11:27Z</time></trkpt><trkpt lat="44.10357288026446" lon="11.748661765331528"><ele>612.0</ele><time>2026-04-03T11:11:29Z</time></trkpt><trkpt lat="44.10363649985642" lon="11.74862965935551"><ele>612.0</ele><time>2026-04-03T11:11:57.999Z</time></trkpt><trkpt lat="44.10373188040484" lon="11.748663869731736"><ele>612.2</ele><time>2026-04-03T11:11:59.999Z</time></trkpt><trkpt lat="44.10379546154806" lon="11.748690142087298"><ele>612.4000000000001</ele><time>2026-04-03T11:12:00.999Z</time></trkpt><trkpt lat="44.10385467721757" lon="11.748721421081147"><ele>612.5999999999999</ele><time>2026-04-03T11:12:01.999Z</time></trkpt><trkpt lat="44.10396202050924" lon="11.748777878460382"><ele>612.8</ele><time>2026-04-03T11:12:03.999Z</time></trkpt><trkpt lat="44.104073582597216" lon="11.748843257304655"><ele>613.0</ele><time>2026-04-03T11:12:05.999Z</time></trkpt><trkpt lat="44.104189425830214" lon="11.748878152155628"><ele>613.0</ele><time>2026-04-03T11:12:07.999Z</time></trkpt><trkpt lat="44.10425293444228" lon="11.748904030927083"><ele>613.0</ele><time>2026-04-03T11:12:10Z</time></trkpt><trkpt lat="44.10434288833258" lon="11.748903247338012"><ele>613.0</ele><time>2026-04-03T11:12:12Z</time></trkpt><trkpt lat="44.10441689981435" lon="11.748910872522163"><ele>613.0</ele><time>2026-04-03T11:12:13Z</time></trkpt><trkpt lat="44.10454682081174" lon="11.748830895950432"><ele>613.0</ele><time>2026-04-03T11:12:14Z</time></trkpt><trkpt lat="44.10461289660436" lon="11.748764829437565"><ele>613.0</ele><time>2026-04-03T11:12:15Z</time></trkpt><trkpt lat="44.10466706005067" lon="11.748690472612868"><ele>613.0</ele><time>2026-04-03T11:12:16Z</time></trkpt><trkpt lat="44.104705468800645" lon="11.748602906721942"><ele>613.0</ele><time>2026-04-03T11:12:17Z</time></trkpt><trkpt lat="44.10479634658411" lon="11.748493930969188"><ele>613.0</ele><time>2026-04-03T11:12:19Z</time></trkpt><trkpt lat="44.104885680437256" lon="11.74844689553618"><ele>613.0</ele><time>2026-04-03T11:12:21Z</time></trkpt><trkpt lat="44.105016252907255" lon="11.748492359393444"><ele>611.4</ele><time>2026-04-03T11:12:23Z</time></trkpt><trkpt lat="44.10506794043973" lon="11.748544248223842"><ele>609.8</ele><time>2026-04-03T11:12:24Z</time></trkpt><trkpt lat="44.105167627197176" lon="11.748644074479593"><ele>608.2</ele><time>2026-04-03T11:12:26Z</time></trkpt><trkpt lat="44.10522734788575" lon="11.748772447331321"><ele>606.6</ele><time>2026-04-03T11:12:28Z</time></trkpt><trkpt lat="44.10523415397096" lon="11.74893040295013"><ele>605.0</ele><time>2026-04-03T11:12:30Z</time></trkpt><trkpt lat="44.10519719119247" lon="11.749019442738046"><ele>605.0</ele><time>2026-04-03T11:12:31Z</time></trkpt><trkpt lat="44.105147751102635" lon="11.749155560645935"><ele>605.0</ele><time>2026-04-03T11:12:33Z</time></trkpt><trkpt lat="44.10519395554935" lon="11.74924685895953"><ele>605.0</ele><time>2026-04-03T11:12:35Z</time></trkpt><trkpt lat="44.105266420529006" lon="11.749228048024532"><ele>605.0</ele><time>2026-04-03T11:12:37Z</time></trkpt><trkpt lat="44.10537941665042" lon="11.749105096253642"><ele>605.0</ele><time>2026-04-03T11:12:39Z</time></trkpt><trkpt lat="44.10542632121268" lon="11.74903071767812"><ele>605.0</ele><time>2026-04-03T11:12:40Z</time></trkpt><trkpt lat="44.105519629868006" lon="11.748955613876358"><ele>605.0</ele><time>2026-04-03T11:12:42Z</time></trkpt><trkpt lat="44.10552164205467" lon="11.748844545386047"><ele>605.0</ele><time>2026-04-03T11:12:45Z</time></trkpt><trkpt lat="44.105458896229464" lon="11.748772968726472"><ele>605.0</ele><time>2026-04-03T11:12:47Z</time></trkpt><trkpt lat="44.1053555313385" lon="11.74866699940183"><ele>605.0</ele><time>2026-04-03T11:12:48Z</time></trkpt><trkpt lat="44.10526904363312" lon="11.748513332020192"><ele>603.4</ele><time>2026-04-03T11:12:49Z</time></trkpt><trkpt lat="44.10518319857857" lon="11.748372592416565"><ele>601.8</ele><time>2026-04-03T11:12:50Z</time></trkpt><trkpt lat="44.105135191853066" lon="11.748271823715827"><ele>600.2</ele><time>2026-04-03T11:12:51Z</time></trkpt><trkpt lat="44.105077831447474" lon="11.748155923862578"><ele>598.6</ele><time>2026-04-03T11:12:52Z</time></trkpt><trkpt lat="44.105008500236586" lon="11.748113848062943"><ele>597.0</ele><time>2026-04-03T11:12:53Z</time></trkpt><trkpt lat="44.10491785628583" lon="11.748054879649711"><ele>597.6666666666666</ele><time>2026-04-03T11:12:54Z</time></trkpt><trkpt lat="44.10481918927714" lon="11.748000805894312"><ele>598.3333333333334</ele><time>2026-04-03T11:12:55Z</time></trkpt><trkpt lat="44.10474056978938" lon="11.747977071684273"><ele>599.0</ele><time>2026-04-03T11:12:56Z</time></trkpt><trkpt lat="44.1046577393374" lon="11.747943986444001"><ele>599.6666666666667</ele><time>2026-04-03T11:12:57Z</time></trkpt><trkpt lat="44.104580602398414" lon="11.747996788466164"><ele>600.3333333333334</ele><time>2026-04-03T11:12:58Z</time></trkpt><trkpt lat="44.104508476351484" lon="11.748043953093488"><ele>601.0</ele><time>2026-04-03T11:12:59Z</time></trkpt><trkpt lat="44.104446884945126" lon="11.748071174656499"><ele>601.0</ele><time>2026-04-03T11:13:00Z</time></trkpt><trkpt lat="44.104378751926475" lon="11.748090688415626"><ele>601.0</ele><time>2026-04-03T11:13:01Z</time></trkpt><trkpt lat="44.104251176503254" lon="11.748044514774195"><ele>601.0</ele><time>2026-04-03T11:13:03Z</time></trkpt><trkpt lat="44.10417921611057" lon="11.748024378520038"><ele>601.0</ele><time>2026-04-03T11:13:04Z</time></trkpt><trkpt lat="44.10411081732401" lon="11.747998289705599"><ele>601.0</ele><time>2026-04-03T11:13:05Z</time></trkpt><trkpt lat="44.104042087781345" lon="11.747962138467422"><ele>601.0</ele><time>2026-04-03T11:13:06Z</time></trkpt><trkpt lat="44.10397280342502" lon="11.747915705670923"><ele>600.4</ele><time>2026-04-03T11:13:07Z</time></trkpt><trkpt lat="44.10389033812438" lon="11.747843288266695"><ele>599.8</ele><time>2026-04-03T11:13:09Z</time></trkpt><trkpt lat="44.1038067059255" lon="11.747751069877422"><ele>599.1999999999999</ele><time>2026-04-03T11:13:10Z</time></trkpt><trkpt lat="44.10372618546415" lon="11.747644328283018"><ele>598.6</ele><time>2026-04-03T11:13:11Z</time></trkpt><trkpt lat="44.10365436540205" lon="11.747560494313706"><ele>598.0</ele><time>2026-04-03T11:13:12Z</time></trkpt><trkpt lat="44.10360847909269" lon="11.747442167488117"><ele>598.0</ele><time>2026-04-03T11:13:13Z</time></trkpt><trkpt lat="44.103565501124045" lon="11.747340651771596"><ele>598.0</ele><time>2026-04-03T11:13:14Z</time></trkpt><trkpt lat="44.103523102977455" lon="11.747231464461658"><ele>598.0</ele><time>2026-04-03T11:13:15Z</time></trkpt><trkpt lat="44.10344838093252" lon="11.747141024535319"><ele>598.0</ele><time>2026-04-03T11:13:16Z</time></trkpt><trkpt lat="44.10336494667174" lon="11.747021062781055"><ele>598.0</ele><time>2026-04-03T11:13:17Z</time></trkpt><trkpt lat="44.10327469431949" lon="11.74691863110152"><ele>594.0</ele><time>2026-04-03T11:13:18Z</time></trkpt><trkpt lat="44.103208291718836" lon="11.746796969782709"><ele>590.0</ele><time>2026-04-03T11:13:19Z</time></trkpt><trkpt lat="44.103168777660095" lon="11.746670363400353"><ele>586.0</ele><time>2026-04-03T11:13:20Z</time></trkpt><trkpt lat="44.10316241041355" lon="11.746549568094743"><ele>582.0</ele><time>2026-04-03T11:13:21Z</time></trkpt><trkpt lat="44.103144352407355" lon="11.746433841045095"><ele>578.0</ele><time>2026-04-03T11:13:22Z</time></trkpt><trkpt lat="44.10313762744752" lon="11.746290249916381"><ele>578.0</ele><time>2026-04-03T11:13:23Z</time></trkpt><trkpt lat="44.103108292513035" lon="11.746136306201556"><ele>578.0</ele><time>2026-04-03T11:13:24Z</time></trkpt><trkpt lat="44.10303137877937" lon="11.745982696489524"><ele>578.0</ele><time>2026-04-03T11:13:26Z</time></trkpt><trkpt lat="44.10291202762169" lon="11.745893092057331"><ele>578.0</ele><time>2026-04-03T11:13:28Z</time></trkpt><trkpt lat="44.102841650264764" lon="11.745872311596067"><ele>578.0</ele><time>2026-04-03T11:13:29Z</time></trkpt><trkpt lat="44.10277688137853" lon="11.745856785137766"><ele>578.0</ele><time>2026-04-03T11:13:30Z</time></trkpt><trkpt lat="44.10271864583338" lon="11.745818746597678"><ele>578.0</ele><time>2026-04-03T11:13:30.999Z</time></trkpt><trkpt lat="44.10264784068378" lon="11.74571713660949"><ele>578.0</ele><time>2026-04-03T11:13:32.999Z</time></trkpt><trkpt lat="44.1026036566097" lon="11.745632838722916"><ele>578.0</ele><time>2026-04-03T11:13:33.999Z</time></trkpt><trkpt lat="44.10256314245914" lon="11.745548438573836"><ele>578.0</ele><time>2026-04-03T11:13:34.999Z</time></trkpt><trkpt lat="44.10251539322168" lon="11.745478603982491"><ele>578.0</ele><time>2026-04-03T11:13:35.999Z</time></trkpt><trkpt lat="44.10242356150311" lon="11.745420550222995"><ele>578.8</ele><time>2026-04-03T11:13:37.999Z</time></trkpt><trkpt lat="44.10231301617539" lon="11.745360105171928"><ele>579.5999999999999</ele><time>2026-04-03T11:13:39.999Z</time></trkpt><trkpt lat="44.10225307578885" lon="11.745331366469081"><ele>580.4000000000001</ele><time>2026-04-03T11:13:41.999Z</time></trkpt><trkpt lat="44.10221547126147" lon="11.745154648645165"><ele>581.2</ele><time>2026-04-03T11:13:44.999Z</time></trkpt><trkpt lat="44.102172290351774" lon="11.7450342165919"><ele>582.0</ele><time>2026-04-03T11:13:46.999Z</time></trkpt><trkpt lat="44.10211812853243" lon="11.744957066991715"><ele>582.0</ele><time>2026-04-03T11:13:47.999Z</time></trkpt><trkpt lat="44.10207477817043" lon="11.744864217356469"><ele>582.0</ele><time>2026-04-03T11:13:48.999Z</time></trkpt><trkpt lat="44.10202696594501" lon="11.74477252415813"><ele>582.0</ele><time>2026-04-03T11:13:49.999Z</time></trkpt><trkpt lat="44.10199113029463" lon="11.744683501699052"><ele>582.0</ele><time>2026-04-03T11:13:50.999Z</time></trkpt><trkpt lat="44.10201091443725" lon="11.744583976034278"><ele>582.0</ele><time>2026-04-03T11:13:51.999Z</time></trkpt><trkpt lat="44.1020013925988" lon="11.744463811032555"><ele>582.0</ele><time>2026-04-03T11:13:52.999Z</time></trkpt><trkpt lat="44.10198268929661" lon="11.744343700879554"><ele>584.4</ele><time>2026-04-03T11:13:53.999Z</time></trkpt><trkpt lat="44.10198071821472" lon="11.74419859005136"><ele>586.8000000000001</ele><time>2026-04-03T11:13:54.999Z</time></trkpt><trkpt lat="44.10198818501337" lon="11.744088021594083"><ele>589.2</ele><time>2026-04-03T11:13:55.999Z</time></trkpt><trkpt lat="44.101971047617496" lon="11.743979354761942"><ele>591.6</ele><time>2026-04-03T11:13:56.999Z</time></trkpt><trkpt lat="44.10198483881561" lon="11.743821735499443"><ele>594.0</ele><time>2026-04-03T11:13:57.999Z</time></trkpt><trkpt lat="44.1019923861961" lon="11.743692517254543"><ele>595.4</ele><time>2026-04-03T11:13:58.999Z</time></trkpt><trkpt lat="44.10203161499263" lon="11.74354333160452"><ele>596.8</ele><time>2026-04-03T11:14:00.999Z</time></trkpt><trkpt lat="44.102068960823765" lon="11.743450408093189"><ele>598.2</ele><time>2026-04-03T11:14:01.999Z</time></trkpt><trkpt lat="44.10211556163015" lon="11.743351084004491"><ele>599.6</ele><time>2026-04-03T11:14:02.999Z</time></trkpt><trkpt lat="44.10214814948463" lon="11.74325647285259"><ele>601.0</ele><time>2026-04-03T11:14:03.999Z</time></trkpt><trkpt lat="44.10221971217786" lon="11.743137441295366"><ele>601.0</ele><time>2026-04-03T11:14:04.999Z</time></trkpt><trkpt lat="44.10230064753756" lon="11.742950273488491"><ele>601.0</ele><time>2026-04-03T11:14:05.999Z</time></trkpt><trkpt lat="44.10233166527298" lon="11.742855480023138"><ele>601.0</ele><time>2026-04-03T11:14:06.999Z</time></trkpt><trkpt lat="44.10236389305997" lon="11.742728526268454"><ele>601.0</ele><time>2026-04-03T11:14:07.999Z</time></trkpt><trkpt lat="44.102372741420595" lon="11.742616004523722"><ele>601.0</ele><time>2026-04-03T11:14:08.999Z</time></trkpt><trkpt lat="44.10234468378247" lon="11.742524533717715"><ele>599.3333333333334</ele><time>2026-04-03T11:14:09.999Z</time></trkpt><trkpt lat="44.10231729133467" lon="11.74240202045856"><ele>597.6666666666667</ele><time>2026-04-03T11:14:10.999Z</time></trkpt><trkpt lat="44.10230788430702" lon="11.742270743102363"><ele>596.0</ele><time>2026-04-03T11:14:11.999Z</time></trkpt><trkpt lat="44.102306505615296" lon="11.742177185719779"><ele>594.3333333333334</ele><time>2026-04-03T11:14:12.999Z</time></trkpt><trkpt lat="44.10228404795715" lon="11.742005624201498"><ele>592.6666666666666</ele><time>2026-04-03T11:14:15Z</time></trkpt><trkpt lat="44.1022920701862" lon="11.74191297835477"><ele>591.0</ele><time>2026-04-03T11:14:16Z</time></trkpt><trkpt lat="44.102279321255494" lon="11.741754085104413"><ele>587.8</ele><time>2026-04-03T11:14:18Z</time></trkpt><trkpt lat="44.10225585142409" lon="11.74165988690275"><ele>584.6</ele><time>2026-04-03T11:14:19Z</time></trkpt><trkpt lat="44.10225011966446" lon="11.741568003275702"><ele>581.4</ele><time>2026-04-03T11:14:20Z</time></trkpt><trkpt lat="44.1022366129289" lon="11.741388791939883"><ele>578.2</ele><time>2026-04-03T11:14:22Z</time></trkpt><trkpt lat="44.10222470418758" lon="11.741248842835104"><ele>575.0</ele><time>2026-04-03T11:14:24Z</time></trkpt><trkpt lat="44.10222038807934" lon="11.741076194370834"><ele>572.8</ele><time>2026-04-03T11:14:26Z</time></trkpt><trkpt lat="44.102210834632785" lon="11.740984642723987"><ele>570.6</ele><time>2026-04-03T11:14:27Z</time></trkpt><trkpt lat="44.10217344622919" lon="11.740837822738413"><ele>568.4</ele><time>2026-04-03T11:14:29Z</time></trkpt><trkpt lat="44.102144452380045" lon="11.740756097623947"><ele>566.2</ele><time>2026-04-03T11:14:30Z</time></trkpt><trkpt lat="44.102097878399164" lon="11.740588570746674"><ele>564.0</ele><time>2026-04-03T11:14:32Z</time></trkpt><trkpt lat="44.10208025421949" lon="11.740476234782367"><ele>564.0</ele><time>2026-04-03T11:14:33Z</time></trkpt><trkpt lat="44.10207255951763" lon="11.740363219787834"><ele>564.0</ele><time>2026-04-03T11:14:34Z</time></trkpt><trkpt lat="44.102079451569566" lon="11.740252276072162"><ele>564.0</ele><time>2026-04-03T11:14:35Z</time></trkpt><trkpt lat="44.10208461980101" lon="11.74015824547515"><ele>564.0</ele><time>2026-04-03T11:14:36Z</time></trkpt><trkpt lat="44.10208052470996" lon="11.740056380103828"><ele>564.0</ele><time>2026-04-03T11:14:37Z</time></trkpt><trkpt lat="44.1020762067055" lon="11.739954161286025"><ele>564.0</ele><time>2026-04-03T11:14:38Z</time></trkpt><trkpt lat="44.10206916282057" lon="11.739839842920057"><ele>562.4</ele><time>2026-04-03T11:14:39Z</time></trkpt><trkpt lat="44.10206975342837" lon="11.739689542111247"><ele>560.8</ele><time>2026-04-03T11:14:40Z</time></trkpt><trkpt lat="44.10206622651964" lon="11.739561518907017"><ele>559.2</ele><time>2026-04-03T11:14:41Z</time></trkpt><trkpt lat="44.102094330535735" lon="11.739433741930693"><ele>557.6</ele><time>2026-04-03T11:14:42Z</time></trkpt><trkpt lat="44.10211408583638" lon="11.739329445509137"><ele>556.0</ele><time>2026-04-03T11:14:43Z</time></trkpt><trkpt lat="44.10213952015487" lon="11.739219819858263"><ele>556.0</ele><time>2026-04-03T11:14:44Z</time></trkpt><trkpt lat="44.102162391785846" lon="11.739126023653302"><ele>556.0</ele><time>2026-04-03T11:14:45Z</time></trkpt><trkpt lat="44.10221161716541" lon="11.739008431703464"><ele>556.0</ele><time>2026-04-03T11:14:47Z</time></trkpt><trkpt lat="44.10230405427873" lon="11.738895932020878"><ele>556.0</ele><time>2026-04-03T11:14:49Z</time></trkpt><trkpt lat="44.102372628558896" lon="11.738806120642412"><ele>556.0</ele><time>2026-04-03T11:14:50Z</time></trkpt><trkpt lat="44.102437598735484" lon="11.738720159673386"><ele>552.4</ele><time>2026-04-03T11:14:51Z</time></trkpt><trkpt lat="44.10248795804962" lon="11.738650211434207"><ele>548.8</ele><time>2026-04-03T11:14:52Z</time></trkpt><trkpt lat="44.10251853176748" lon="11.738549133136765"><ele>545.1999999999999</ele><time>2026-04-03T11:14:53Z</time></trkpt><trkpt lat="44.10255770106463" lon="11.738436344634609"><ele>541.6</ele><time>2026-04-03T11:14:54Z</time></trkpt><trkpt lat="44.10259806628636" lon="11.738304938511982"><ele>538.0</ele><time>2026-04-03T11:14:55Z</time></trkpt><trkpt lat="44.10264362986576" lon="11.738169993730562"><ele>538.0</ele><time>2026-04-03T11:14:56Z</time></trkpt><trkpt lat="44.10269436562098" lon="11.737982838294041"><ele>538.0</ele><time>2026-04-03T11:14:57Z</time></trkpt><trkpt lat="44.10276021108569" lon="11.737804407140645"><ele>538.0</ele><time>2026-04-03T11:14:58Z</time></trkpt><trkpt lat="44.10283236348088" lon="11.737671033589768"><ele>538.0</ele><time>2026-04-03T11:14:59Z</time></trkpt><trkpt lat="44.102875625080955" lon="11.73753629852425"><ele>540.0</ele><time>2026-04-03T11:15:00Z</time></trkpt><trkpt lat="44.102898139554966" lon="11.737377021790435"><ele>542.0</ele><time>2026-04-03T11:15:01Z</time></trkpt><trkpt lat="44.102926114416036" lon="11.737263627055471"><ele>544.0</ele><time>2026-04-03T11:15:02Z</time></trkpt><trkpt lat="44.102975806505945" lon="11.737152745445353"><ele>546.0</ele><time>2026-04-03T11:15:03Z</time></trkpt><trkpt lat="44.10301208338713" lon="11.737043633942429"><ele>548.0</ele><time>2026-04-03T11:15:04Z</time></trkpt><trkpt lat="44.103045471407654" lon="11.736934180516334"><ele>548.0</ele><time>2026-04-03T11:15:05Z</time></trkpt><trkpt lat="44.10307556403153" lon="11.736839032871481"><ele>548.0</ele><time>2026-04-03T11:15:06Z</time></trkpt><trkpt lat="44.103092910784575" lon="11.736742278946805"><ele>548.0</ele><time>2026-04-03T11:15:07Z</time></trkpt><trkpt lat="44.103150560873864" lon="11.73660365878196"><ele>548.0</ele><time>2026-04-03T11:15:09Z</time></trkpt><trkpt lat="44.103187115572155" lon="11.736511871825396"><ele>548.0</ele><time>2026-04-03T11:15:10Z</time></trkpt><trkpt lat="44.103227862458134" lon="11.736346380049902"><ele>548.0</ele><time>2026-04-03T11:15:12Z</time></trkpt><trkpt lat="44.10323435688207" lon="11.736197687242976"><ele>548.0</ele><time>2026-04-03T11:15:14Z</time></trkpt><trkpt lat="44.103238948926524" lon="11.736097897626328"><ele>548.0</ele><time>2026-04-03T11:15:15Z</time></trkpt><trkpt lat="44.10323301797345" lon="11.735987342092253"><ele>548.0</ele><time>2026-04-03T11:15:16Z</time></trkpt><trkpt lat="44.10323999726904" lon="11.735895749010226"><ele>548.0</ele><time>2026-04-03T11:15:17Z</time></trkpt><trkpt lat="44.103265437166904" lon="11.735798362823711"><ele>548.0</ele><time>2026-04-03T11:15:18Z</time></trkpt><trkpt lat="44.10335197903863" lon="11.735675036862407"><ele>543.1428571428572</ele><time>2026-04-03T11:15:20Z</time></trkpt><trkpt lat="44.103409106671215" lon="11.735636124843161"><ele>538.2857142857143</ele><time>2026-04-03T11:15:21Z</time></trkpt><trkpt lat="44.10345921408856" lon="11.735575277613691"><ele>533.4285714285714</ele><time>2026-04-03T11:15:22Z</time></trkpt><trkpt lat="44.103507730411636" lon="11.73550710754781"><ele>528.5714285714287</ele><time>2026-04-03T11:15:23Z</time></trkpt><trkpt lat="44.10357414319289" lon="11.735469531066084"><ele>523.7142857142858</ele><time>2026-04-03T11:15:24Z</time></trkpt><trkpt lat="44.103648481998036" lon="11.735444455476358"><ele>518.8571428571429</ele><time>2026-04-03T11:15:25Z</time></trkpt><trkpt lat="44.10371743528014" lon="11.735420746649254"><ele>514.0</ele><time>2026-04-03T11:15:26Z</time></trkpt><trkpt lat="44.10381859763327" lon="11.735354526885853"><ele>514.0</ele><time>2026-04-03T11:15:28Z</time></trkpt><trkpt lat="44.103901255654506" lon="11.735296512204645"><ele>514.0</ele><time>2026-04-03T11:15:30Z</time></trkpt><trkpt lat="44.10399744286271" lon="11.735236220433215"><ele>514.0</ele><time>2026-04-03T11:15:31.999Z</time></trkpt><trkpt lat="44.10408787662548" lon="11.735177383707631"><ele>514.0</ele><time>2026-04-03T11:15:33.999Z</time></trkpt><trkpt lat="44.10414835941705" lon="11.735128693308164"><ele>514.0</ele><time>2026-04-03T11:15:34.999Z</time></trkpt><trkpt lat="44.10420159158998" lon="11.735018692332249"><ele>513.0</ele><time>2026-04-03T11:15:36.999Z</time></trkpt><trkpt lat="44.10420983796741" lon="11.734930043695096"><ele>512.0</ele><time>2026-04-03T11:15:37.999Z</time></trkpt><trkpt lat="44.10422155996334" lon="11.73482719191265"><ele>511.0</ele><time>2026-04-03T11:15:38.999Z</time></trkpt><trkpt lat="44.10419929525416" lon="11.734722879402547"><ele>510.0</ele><time>2026-04-03T11:15:39.999Z</time></trkpt><trkpt lat="44.10416935591692" lon="11.734591016622517"><ele>509.00000000000006</ele><time>2026-04-03T11:15:40.999Z</time></trkpt><trkpt lat="44.104145242019065" lon="11.73446797187675"><ele>508.0</ele><time>2026-04-03T11:15:41.999Z</time></trkpt><trkpt lat="44.10412266290886" lon="11.734360656425158"><ele>508.14285714285717</ele><time>2026-04-03T11:15:42.999Z</time></trkpt><trkpt lat="44.104108990784084" lon="11.734265849061348"><ele>508.2857142857142</ele><time>2026-04-03T11:15:43.999Z</time></trkpt><trkpt lat="44.10409457511074" lon="11.734166563208623"><ele>508.4285714285714</ele><time>2026-04-03T11:15:44.999Z</time></trkpt><trkpt lat="44.10407327696654" lon="11.734080948837077"><ele>508.57142857142856</ele><time>2026-04-03T11:15:45.999Z</time></trkpt><trkpt lat="44.10404146315488" lon="11.73399650765971"><ele>508.71428571428567</ele><time>2026-04-03T11:15:46.999Z</time></trkpt><trkpt lat="44.1039947008762" lon="11.733914703479838"><ele>508.8571428571428</ele><time>2026-04-03T11:15:47.999Z</time></trkpt><trkpt lat="44.1039352512472" lon="11.73384772752338"><ele>508.99999999999994</ele><time>2026-04-03T11:15:48.999Z</time></trkpt><trkpt lat="44.10386962178682" lon="11.733789735528363"><ele>508.99999999999994</ele><time>2026-04-03T11:15:49.999Z</time></trkpt><trkpt lat="44.10379530470258" lon="11.733748259633046"><ele>509.0</ele><time>2026-04-03T11:15:50.999Z</time></trkpt><trkpt lat="44.103728625044184" lon="11.73371911484301"><ele>509.0</ele><time>2026-04-03T11:15:51.999Z</time></trkpt><trkpt lat="44.10364179091879" lon="11.733693744580139"><ele>509.0</ele><time>2026-04-03T11:15:52.999Z</time></trkpt><trkpt lat="44.10354999778162" lon="11.73366710803089"><ele>508.99999999999994</ele><time>2026-04-03T11:15:53.999Z</time></trkpt><trkpt lat="44.10345587634812" lon="11.733639876553847"><ele>509.0</ele><time>2026-04-03T11:15:54.999Z</time></trkpt><trkpt lat="44.10336723074767" lon="11.733601915279827"><ele>508.99999999999994</ele><time>2026-04-03T11:15:55.999Z</time></trkpt><trkpt lat="44.10328275026695" lon="11.733557431525005"><ele>509.0</ele><time>2026-04-03T11:15:56.999Z</time></trkpt><trkpt lat="44.103208346309074" lon="11.733513531245896"><ele>509.0</ele><time>2026-04-03T11:15:57.999Z</time></trkpt><trkpt lat="44.103134678235854" lon="11.733507101263285"><ele>509.0</ele><time>2026-04-03T11:15:58.999Z</time></trkpt><trkpt lat="44.103066242464664" lon="11.733468510811111"><ele>508.99999999999994</ele><time>2026-04-03T11:15:59.999Z</time></trkpt><trkpt lat="44.103000333912746" lon="11.733422229485452"><ele>509.0</ele><time>2026-04-03T11:16:00.999Z</time></trkpt><trkpt lat="44.10294063775376" lon="11.733360136552863"><ele>507.8333333333333</ele><time>2026-04-03T11:16:01.999Z</time></trkpt><trkpt lat="44.10290997606129" lon="11.733283230099726"><ele>506.66666666666663</ele><time>2026-04-03T11:16:02.999Z</time></trkpt><trkpt lat="44.102842606264105" lon="11.733188455478583"><ele>505.5</ele><time>2026-04-03T11:16:03.999Z</time></trkpt><trkpt lat="44.10276116931967" lon="11.733088490533465"><ele>504.33333333333337</ele><time>2026-04-03T11:16:04.999Z</time></trkpt><trkpt lat="44.102723905197465" lon="11.73301411408275"><ele>503.1666666666667</ele><time>2026-04-03T11:16:05.999Z</time></trkpt><trkpt lat="44.10268377601879" lon="11.732929772430674"><ele>502.0</ele><time>2026-04-03T11:16:06.999Z</time></trkpt><trkpt lat="44.10262933313298" lon="11.732834186765452"><ele>500.00000000000006</ele><time>2026-04-03T11:16:07.999Z</time></trkpt><trkpt lat="44.102597884428654" lon="11.732719103535576"><ele>498.0</ele><time>2026-04-03T11:16:08.999Z</time></trkpt><trkpt lat="44.102571711187665" lon="11.732603561837456"><ele>496.0</ele><time>2026-04-03T11:16:09.999Z</time></trkpt><trkpt lat="44.102557780333264" lon="11.732504051158365"><ele>494.0</ele><time>2026-04-03T11:16:10.999Z</time></trkpt><trkpt lat="44.10254366701458" lon="11.732397323547842"><ele>492.00000000000006</ele><time>2026-04-03T11:16:11.999Z</time></trkpt><trkpt lat="44.102532350510494" lon="11.732284393228095"><ele>490.0</ele><time>2026-04-03T11:16:12.999Z</time></trkpt><trkpt lat="44.102525861757314" lon="11.732190865197502"><ele>490.00000000000006</ele><time>2026-04-03T11:16:13.999Z</time></trkpt><trkpt lat="44.102498231534426" lon="11.73211202425553"><ele>490.0</ele><time>2026-04-03T11:16:14.999Z</time></trkpt><trkpt lat="44.102449140904234" lon="11.732046352413848"><ele>490.0</ele><time>2026-04-03T11:16:15.999Z</time></trkpt><trkpt lat="44.102391443420146" lon="11.731970593793537"><ele>490.0</ele><time>2026-04-03T11:16:16.999Z</time></trkpt><trkpt lat="44.10232838256976" lon="11.731886984367877"><ele>490.00000000000006</ele><time>2026-04-03T11:16:17.999Z</time></trkpt><trkpt lat="44.10226918392649" lon="11.731816559668482"><ele>490.0</ele><time>2026-04-03T11:16:18.999Z</time></trkpt><trkpt lat="44.10220045336116" lon="11.731759717965778"><ele>487.33333333333337</ele><time>2026-04-03T11:16:19.999Z</time></trkpt><trkpt lat="44.1021315682434" lon="11.731723433771787"><ele>484.6666666666667</ele><time>2026-04-03T11:16:21Z</time></trkpt><trkpt lat="44.10205724715197" lon="11.731685505237525"><ele>482.0</ele><time>2026-04-03T11:16:22Z</time></trkpt><trkpt lat="44.10197760731551" lon="11.731650866060257"><ele>479.33333333333337</ele><time>2026-04-03T11:16:23Z</time></trkpt><trkpt lat="44.10190148150415" lon="11.73160850815881"><ele>476.6666666666667</ele><time>2026-04-03T11:16:24Z</time></trkpt><trkpt lat="44.10182291177682" lon="11.731563988244375"><ele>474.0</ele><time>2026-04-03T11:16:25Z</time></trkpt><trkpt lat="44.101734183501605" lon="11.73153268291461"><ele>474.0</ele><time>2026-04-03T11:16:26Z</time></trkpt><trkpt lat="44.10164183609555" lon="11.731497033120645"><ele>474.0</ele><time>2026-04-03T11:16:27Z</time></trkpt><trkpt lat="44.10154575271947" lon="11.731455288369213"><ele>474.0</ele><time>2026-04-03T11:16:28Z</time></trkpt><trkpt lat="44.10145553887102" lon="11.731403770915657"><ele>474.0</ele><time>2026-04-03T11:16:29Z</time></trkpt><trkpt lat="44.101374787593734" lon="11.73135357349231"><ele>474.0</ele><time>2026-04-03T11:16:30Z</time></trkpt><trkpt lat="44.10129735145516" lon="11.731320685689251"><ele>472.2</ele><time>2026-04-03T11:16:31Z</time></trkpt><trkpt lat="44.1012069424008" lon="11.73127408793832"><ele>470.4</ele><time>2026-04-03T11:16:32Z</time></trkpt><trkpt lat="44.10112946765576" lon="11.731240552932086"><ele>468.6</ele><time>2026-04-03T11:16:33Z</time></trkpt><trkpt lat="44.101053068120656" lon="11.7312086653143"><ele>466.8</ele><time>2026-04-03T11:16:34Z</time></trkpt><trkpt lat="44.10097882087539" lon="11.73116990961416"><ele>465.0</ele><time>2026-04-03T11:16:35Z</time></trkpt><trkpt lat="44.10086520825289" lon="11.73110576865199"><ele>463.2</ele><time>2026-04-03T11:16:37Z</time></trkpt><trkpt lat="44.100805325785984" lon="11.730977636014046"><ele>461.4</ele><time>2026-04-03T11:16:39Z</time></trkpt><trkpt lat="44.10082382196934" lon="11.730801641296303"><ele>459.6</ele><time>2026-04-03T11:16:41Z</time></trkpt><trkpt lat="44.10085488856954" lon="11.73071447427447"><ele>457.8</ele><time>2026-04-03T11:16:42Z</time></trkpt><trkpt lat="44.10090350069504" lon="11.73064087065848"><ele>456.0</ele><time>2026-04-03T11:16:43Z</time></trkpt><trkpt lat="44.10097028930056" lon="11.730596970145784"><ele>456.0</ele><time>2026-04-03T11:16:44Z</time></trkpt><trkpt lat="44.10104719127539" lon="11.730570315712452"><ele>456.0</ele><time>2026-04-03T11:16:45Z</time></trkpt><trkpt lat="44.10114744057369" lon="11.730538333481206"><ele>456.0</ele><time>2026-04-03T11:16:46Z</time></trkpt><trkpt lat="44.10123486905342" lon="11.730501417152025"><ele>456.0</ele><time>2026-04-03T11:16:47Z</time></trkpt><trkpt lat="44.101305567285195" lon="11.730469931223475"><ele>456.0</ele><time>2026-04-03T11:16:48Z</time></trkpt><trkpt lat="44.10137081865802" lon="11.730449801085637"><ele>456.0</ele><time>2026-04-03T11:16:49Z</time></trkpt><trkpt lat="44.10150104375464" lon="11.730483862105928"><ele>456.0</ele><time>2026-04-03T11:16:51Z</time></trkpt><trkpt lat="44.10158139481366" lon="11.730549813687459"><ele>456.0</ele><time>2026-04-03T11:16:52Z</time></trkpt><trkpt lat="44.101698490388436" lon="11.730625027264118"><ele>456.0</ele><time>2026-04-03T11:16:53Z</time></trkpt><trkpt lat="44.10181606747507" lon="11.7306733636871"><ele>456.0</ele><time>2026-04-03T11:16:54Z</time></trkpt><trkpt lat="44.1019326283191" lon="11.730682671882942"><ele>455.8333333333333</ele><time>2026-04-03T11:16:55Z</time></trkpt><trkpt lat="44.1020486265544" lon="11.730686299507095"><ele>455.66666666666663</ele><time>2026-04-03T11:16:56Z</time></trkpt><trkpt lat="44.102132062201854" lon="11.730703249067153"><ele>455.5</ele><time>2026-04-03T11:16:57Z</time></trkpt><trkpt lat="44.102210919978425" lon="11.730739875438681"><ele>455.3333333333333</ele><time>2026-04-03T11:16:58Z</time></trkpt><trkpt lat="44.10228400649578" lon="11.730791107361556"><ele>455.16666666666663</ele><time>2026-04-03T11:16:59Z</time></trkpt><trkpt lat="44.10235940639482" lon="11.73082586609223"><ele>455.0</ele><time>2026-04-03T11:17:00Z</time></trkpt><trkpt lat="44.102438694110425" lon="11.730851333143388"><ele>452.8</ele><time>2026-04-03T11:17:01Z</time></trkpt><trkpt lat="44.1025285336319" lon="11.730853371864235"><ele>450.6</ele><time>2026-04-03T11:17:02Z</time></trkpt><trkpt lat="44.10261272229099" lon="11.730827460861894"><ele>448.4</ele><time>2026-04-03T11:17:03Z</time></trkpt><trkpt lat="44.10271497452309" lon="11.73079197207193"><ele>446.2</ele><time>2026-04-03T11:17:04Z</time></trkpt><trkpt lat="44.102802012855435" lon="11.730763009987262"><ele>444.0</ele><time>2026-04-03T11:17:05Z</time></trkpt><trkpt lat="44.10289129708183" lon="11.73076010090436"><ele>444.0</ele><time>2026-04-03T11:17:06Z</time></trkpt><trkpt lat="44.102973419416585" lon="11.730792056961763"><ele>444.0</ele><time>2026-04-03T11:17:07Z</time></trkpt><trkpt lat="44.10306660230977" lon="11.730837043031428"><ele>444.0</ele><time>2026-04-03T11:17:08Z</time></trkpt><trkpt lat="44.103158746163395" lon="11.730886107699176"><ele>444.0</ele><time>2026-04-03T11:17:09Z</time></trkpt><trkpt lat="44.10324349258464" lon="11.730911989715807"><ele>444.0</ele><time>2026-04-03T11:17:10Z</time></trkpt><trkpt lat="44.10332463752505" lon="11.730904826242588"><ele>441.6</ele><time>2026-04-03T11:17:11Z</time></trkpt><trkpt lat="44.10340959377283" lon="11.730858289537307"><ele>439.2</ele><time>2026-04-03T11:17:12Z</time></trkpt><trkpt lat="44.10349375360795" lon="11.730775968468672"><ele>436.80000000000007</ele><time>2026-04-03T11:17:13Z</time></trkpt><trkpt lat="44.103586141052396" lon="11.73067258609997"><ele>434.40000000000003</ele><time>2026-04-03T11:17:14Z</time></trkpt><trkpt lat="44.10365841493935" lon="11.73059665958244"><ele>432.0</ele><time>2026-04-03T11:17:15Z</time></trkpt><trkpt lat="44.10373456935642" lon="11.7305585418455"><ele>432.0</ele><time>2026-04-03T11:17:16Z</time></trkpt><trkpt lat="44.10382076890981" lon="11.7305520218509"><ele>432.0</ele><time>2026-04-03T11:17:17Z</time></trkpt><trkpt lat="44.10391545124671" lon="11.730558268222559"><ele>432.0</ele><time>2026-04-03T11:17:18Z</time></trkpt><trkpt lat="44.10400338808355" lon="11.730569715779751"><ele>432.0</ele><time>2026-04-03T11:17:19Z</time></trkpt><trkpt lat="44.10407310799152" lon="11.730577841479544"><ele>432.0</ele><time>2026-04-03T11:17:20Z</time></trkpt><trkpt lat="44.10415567504166" lon="11.730484067341177"><ele>432.0</ele><time>2026-04-03T11:17:22Z</time></trkpt><trkpt lat="44.1041163048736" lon="11.730341196070453"><ele>432.0</ele><time>2026-04-03T11:17:24Z</time></trkpt><trkpt lat="44.104053420399545" lon="11.730259405804352"><ele>432.0</ele><time>2026-04-03T11:17:25Z</time></trkpt><trkpt lat="44.10393581830511" lon="11.73015838417622"><ele>432.0</ele><time>2026-04-03T11:17:26Z</time></trkpt><trkpt lat="44.10379070392179" lon="11.730047425144267"><ele>432.0</ele><time>2026-04-03T11:17:27Z</time></trkpt><trkpt lat="44.10368432416621" lon="11.729959798672859"><ele>431.20000000000005</ele><time>2026-04-03T11:17:28Z</time></trkpt><trkpt lat="44.10359697902859" lon="11.729879404233525"><ele>430.40000000000003</ele><time>2026-04-03T11:17:29Z</time></trkpt><trkpt lat="44.10348897271643" lon="11.729834607843074"><ele>429.59999999999997</ele><time>2026-04-03T11:17:30Z</time></trkpt><trkpt lat="44.103387508634235" lon="11.729800740122018"><ele>428.79999999999995</ele><time>2026-04-03T11:17:31Z</time></trkpt><trkpt lat="44.10329674323009" lon="11.729755243078511"><ele>428.0</ele><time>2026-04-03T11:17:32Z</time></trkpt><trkpt lat="44.103191193891696" lon="11.729677397123222"><ele>428.0</ele><time>2026-04-03T11:17:32.999Z</time></trkpt><trkpt lat="44.10308388134729" lon="11.729570121366057"><ele>428.0</ele><time>2026-04-03T11:17:33.999Z</time></trkpt><trkpt lat="44.10299187467192" lon="11.729468292776367"><ele>428.0</ele><time>2026-04-03T11:17:34.999Z</time></trkpt><trkpt lat="44.102901647902314" lon="11.729384476631838"><ele>428.0</ele><time>2026-04-03T11:17:35.999Z</time></trkpt><trkpt lat="44.10284798556998" lon="11.729254320320166"><ele>425.16666666666663</ele><time>2026-04-03T11:17:36.999Z</time></trkpt><trkpt lat="44.10278446940697" lon="11.72919010944722"><ele>422.3333333333333</ele><time>2026-04-03T11:17:37.999Z</time></trkpt><trkpt lat="44.10270383973153" lon="11.729152357034028"><ele>419.5</ele><time>2026-04-03T11:17:38.999Z</time></trkpt><trkpt lat="44.10260776727412" lon="11.729127064550605"><ele>416.66666666666663</ele><time>2026-04-03T11:17:39.999Z</time></trkpt><trkpt lat="44.102558249158214" lon="11.729042718047408"><ele>413.8333333333333</ele><time>2026-04-03T11:17:40.999Z</time></trkpt><trkpt lat="44.102526259469066" lon="11.728916630159386"><ele>411.0</ele><time>2026-04-03T11:17:41.999Z</time></trkpt><trkpt lat="44.102523204643134" lon="11.728747674309274"><ele>411.0</ele><time>2026-04-03T11:17:42.999Z</time></trkpt><trkpt lat="44.1025177580336" lon="11.728569177528849"><ele>411.0</ele><time>2026-04-03T11:17:43.999Z</time></trkpt><trkpt lat="44.10250964213139" lon="11.728428535271835"><ele>411.0</ele><time>2026-04-03T11:17:44.999Z</time></trkpt><trkpt lat="44.102439578135034" lon="11.728289040209354"><ele>411.0</ele><time>2026-04-03T11:17:45.999Z</time></trkpt><trkpt lat="44.102328365632516" lon="11.728126132035015"><ele>412.5</ele><time>2026-04-03T11:17:46.999Z</time></trkpt><trkpt lat="44.102229549217846" lon="11.727972738090365"><ele>414.0</ele><time>2026-04-03T11:17:47.999Z</time></trkpt><trkpt lat="44.10219435816218" lon="11.727791155191243"><ele>415.5</ele><time>2026-04-03T11:17:48.999Z</time></trkpt><trkpt lat="44.1021792318271" lon="11.727663983055635"><ele>417.0</ele><time>2026-04-03T11:17:49.999Z</time></trkpt><trkpt lat="44.10216368095545" lon="11.727524747975314"><ele>414.6</ele><time>2026-04-03T11:17:50.999Z</time></trkpt><trkpt lat="44.102139758170225" lon="11.727405928456315"><ele>412.20000000000005</ele><time>2026-04-03T11:17:51.999Z</time></trkpt><trkpt lat="44.10209312683582" lon="11.727309620479405"><ele>409.8</ele><time>2026-04-03T11:17:52.999Z</time></trkpt><trkpt lat="44.10200919405225" lon="11.727224990942535"><ele>407.4</ele><time>2026-04-03T11:17:53.999Z</time></trkpt><trkpt lat="44.10194136923396" lon="11.727137602878646"><ele>405.0</ele><time>2026-04-03T11:17:54.999Z</time></trkpt><trkpt lat="44.1019013811584" lon="11.72701431925418"><ele>400.8</ele><time>2026-04-03T11:17:55.999Z</time></trkpt><trkpt lat="44.10189506866397" lon="11.726850420740863"><ele>396.6</ele><time>2026-04-03T11:17:56.999Z</time></trkpt><trkpt lat="44.10191962924142" lon="11.726707743665026"><ele>392.4</ele><time>2026-04-03T11:17:57.999Z</time></trkpt><trkpt lat="44.10194268180106" lon="11.726592452881578"><ele>388.2</ele><time>2026-04-03T11:17:58.999Z</time></trkpt><trkpt lat="44.101943943121746" lon="11.726489949835873"><ele>384.0</ele><time>2026-04-03T11:17:59.999Z</time></trkpt><trkpt lat="44.10192026634549" lon="11.726400100040449"><ele>384.0</ele><time>2026-04-03T11:18:00.999Z</time></trkpt><trkpt lat="44.10186920075163" lon="11.726334291545315"><ele>384.0</ele><time>2026-04-03T11:18:01.999Z</time></trkpt><trkpt lat="44.10180093696274" lon="11.726282734652049"><ele>384.0</ele><time>2026-04-03T11:18:02.999Z</time></trkpt><trkpt lat="44.101715649315246" lon="11.72627179561043"><ele>384.0</ele><time>2026-04-03T11:18:03.999Z</time></trkpt><trkpt lat="44.10162296877084" lon="11.726299473892686"><ele>384.0</ele><time>2026-04-03T11:18:04.999Z</time></trkpt><trkpt lat="44.101519202701894" lon="11.726355733471507"><ele>384.0</ele><time>2026-04-03T11:18:05.999Z</time></trkpt><trkpt lat="44.10139655215497" lon="11.726447887953025"><ele>382.79999999999995</ele><time>2026-04-03T11:18:06.999Z</time></trkpt><trkpt lat="44.10127379492118" lon="11.726566398903453"><ele>381.59999999999997</ele><time>2026-04-03T11:18:07.999Z</time></trkpt><trkpt lat="44.101183244996314" lon="11.72666036515175"><ele>380.4</ele><time>2026-04-03T11:18:08.999Z</time></trkpt><trkpt lat="44.10110840609044" lon="11.726726082595691"><ele>379.2</ele><time>2026-04-03T11:18:09.999Z</time></trkpt><trkpt lat="44.10104343409449" lon="11.726777199939477"><ele>378.0</ele><time>2026-04-03T11:18:10.999Z</time></trkpt><trkpt lat="44.10096286841822" lon="11.726809318751712"><ele>378.0</ele><time>2026-04-03T11:18:11.999Z</time></trkpt><trkpt lat="44.10083306337122" lon="11.726768834052855"><ele>378.0</ele><time>2026-04-03T11:18:13.999Z</time></trkpt><trkpt lat="44.10077544780662" lon="11.72669099587676"><ele>378.0</ele><time>2026-04-03T11:18:14.999Z</time></trkpt><trkpt lat="44.100636743723925" lon="11.72642506052394"><ele>378.0</ele><time>2026-04-03T11:18:16.999Z</time></trkpt><trkpt lat="44.100600953348035" lon="11.726258195351548"><ele>376.4</ele><time>2026-04-03T11:18:17.999Z</time></trkpt><trkpt lat="44.100571071531604" lon="11.726083803224634"><ele>374.79999999999995</ele><time>2026-04-03T11:18:18.999Z</time></trkpt><trkpt lat="44.100582696828" lon="11.725956627318395"><ele>373.2</ele><time>2026-04-03T11:18:19.999Z</time></trkpt><trkpt lat="44.100596362837024" lon="11.725826766384737"><ele>371.6</ele><time>2026-04-03T11:18:20.999Z</time></trkpt><trkpt lat="44.10058945389234" lon="11.725709297963016"><ele>370.0</ele><time>2026-04-03T11:18:21.999Z</time></trkpt><trkpt lat="44.1005671957439" lon="11.725600704877218"><ele>370.0</ele><time>2026-04-03T11:18:22.999Z</time></trkpt><trkpt lat="44.10051020287106" lon="11.72547464916338"><ele>370.0</ele><time>2026-04-03T11:18:23.999Z</time></trkpt><trkpt lat="44.10044674205512" lon="11.725362905446875"><ele>370.0</ele><time>2026-04-03T11:18:24.999Z</time></trkpt><trkpt lat="44.100398815015495" lon="11.725287199601135"><ele>370.0</ele><time>2026-04-03T11:18:25.999Z</time></trkpt><trkpt lat="44.10034550503931" lon="11.725235813412102"><ele>370.0</ele><time>2026-04-03T11:18:27Z</time></trkpt><trkpt lat="44.100191628903445" lon="11.725220675828734"><ele>370.0</ele><time>2026-04-03T11:18:29Z</time></trkpt><trkpt lat="44.10007058948757" lon="11.725218675754226"><ele>370.0</ele><time>2026-04-03T11:18:30Z</time></trkpt><trkpt lat="44.09997772408226" lon="11.72523591526463"><ele>370.0</ele><time>2026-04-03T11:18:31Z</time></trkpt><trkpt lat="44.099900893941005" lon="11.725186493714814"><ele>370.0</ele><time>2026-04-03T11:18:32Z</time></trkpt><trkpt lat="44.09983780906043" lon="11.72510660605074"><ele>370.0</ele><time>2026-04-03T11:18:33Z</time></trkpt><trkpt lat="44.09979095994002" lon="11.72499974799946"><ele>366.2</ele><time>2026-04-03T11:18:34Z</time></trkpt><trkpt lat="44.09974575843689" lon="11.724872574324747"><ele>362.4</ele><time>2026-04-03T11:18:35Z</time></trkpt><trkpt lat="44.09971090614581" lon="11.724766103024105"><ele>358.6</ele><time>2026-04-03T11:18:36Z</time></trkpt><trkpt lat="44.099673920163625" lon="11.72468772660567"><ele>354.8</ele><time>2026-04-03T11:18:37Z</time></trkpt><trkpt lat="44.09959988486143" lon="11.72461698038888"><ele>351.0</ele><time>2026-04-03T11:18:38Z</time></trkpt><trkpt lat="44.09949236507817" lon="11.724588340114463"><ele>351.0</ele><time>2026-04-03T11:18:39Z</time></trkpt><trkpt lat="44.09937445758824" lon="11.72459758895205"><ele>351.0</ele><time>2026-04-03T11:18:40Z</time></trkpt><trkpt lat="44.09925181852242" lon="11.724629807055589"><ele>351.0</ele><time>2026-04-03T11:18:41Z</time></trkpt><trkpt lat="44.09912962791343" lon="11.724686730332348"><ele>351.0</ele><time>2026-04-03T11:18:42Z</time></trkpt><trkpt lat="44.09905903983619" lon="11.724731814814115"><ele>351.0</ele><time>2026-04-03T11:18:43Z</time></trkpt><trkpt lat="44.098963930639265" lon="11.724713316518667"><ele>350.3333333333333</ele><time>2026-04-03T11:18:45Z</time></trkpt><trkpt lat="44.098922975278136" lon="11.724643064889642"><ele>349.6666666666667</ele><time>2026-04-03T11:18:46Z</time></trkpt><trkpt lat="44.098895689819244" lon="11.724559157925638"><ele>349.0</ele><time>2026-04-03T11:18:47Z</time></trkpt><trkpt lat="44.098910527150515" lon="11.724467933915347"><ele>348.33333333333337</ele><time>2026-04-03T11:18:48Z</time></trkpt><trkpt lat="44.098938653811665" lon="11.724336385844673"><ele>347.6666666666667</ele><time>2026-04-03T11:18:49Z</time></trkpt><trkpt lat="44.09897532525842" lon="11.724185833619108"><ele>347.0</ele><time>2026-04-03T11:18:50Z</time></trkpt><trkpt lat="44.09902600119344" lon="11.724021005014096"><ele>347.0</ele><time>2026-04-03T11:18:51Z</time></trkpt><trkpt lat="44.099063812584845" lon="11.72387110308735"><ele>347.0</ele><time>2026-04-03T11:18:52Z</time></trkpt><trkpt lat="44.09908671438229" lon="11.72376230841601"><ele>347.0</ele><time>2026-04-03T11:18:53Z</time></trkpt><trkpt lat="44.09913810725692" lon="11.723606858203526"><ele>347.0</ele><time>2026-04-03T11:18:55Z</time></trkpt><trkpt lat="44.0992071763555" lon="11.723514826079061"><ele>347.0</ele><time>2026-04-03T11:18:57Z</time></trkpt><trkpt lat="44.09914015190857" lon="11.723516994577098"><ele>347.0</ele><time>2026-04-03T11:19:01Z</time></trkpt><trkpt lat="44.09905091603038" lon="11.723579832879981"><ele>347.0</ele><time>2026-04-03T11:19:06Z</time></trkpt><trkpt lat="44.0989863992785" lon="11.723544296844983"><ele>347.0</ele><time>2026-04-03T11:19:07Z</time></trkpt><trkpt lat="44.09892877493771" lon="11.723369880455069"><ele>347.0</ele><time>2026-04-03T11:19:09Z</time></trkpt><trkpt lat="44.098851699208446" lon="11.723274244272298"><ele>347.0</ele><time>2026-04-03T11:19:10Z</time></trkpt><trkpt lat="44.09879856774852" lon="11.723141313225167"><ele>344.25</ele><time>2026-04-03T11:19:11Z</time></trkpt><trkpt lat="44.09869764145892" lon="11.723033362796011"><ele>341.5</ele><time>2026-04-03T11:19:12Z</time></trkpt><trkpt lat="44.098583562031756" lon="11.722921277498573"><ele>338.75</ele><time>2026-04-03T11:19:13Z</time></trkpt><trkpt lat="44.09847745685549" lon="11.722839288052059"><ele>336.0</ele><time>2026-04-03T11:19:14Z</time></trkpt><trkpt lat="44.098359846992565" lon="11.722799394470327"><ele>337.0</ele><time>2026-04-03T11:19:15Z</time></trkpt><trkpt lat="44.09822376491278" lon="11.722796691658854"><ele>338.0</ele><time>2026-04-03T11:19:16Z</time></trkpt><trkpt lat="44.09807176588808" lon="11.722801876038378"><ele>339.0</ele><time>2026-04-03T11:19:17Z</time></trkpt><trkpt lat="44.09790320121426" lon="11.72278851373455"><ele>339.0</ele><time>2026-04-03T11:19:18Z</time></trkpt><trkpt lat="44.09771555599904" lon="11.722736691226809"><ele>339.0</ele><time>2026-04-03T11:19:19Z</time></trkpt><trkpt lat="44.09749583617239" lon="11.722650329027482"><ele>339.0</ele><time>2026-04-03T11:19:20Z</time></trkpt><trkpt lat="44.0972685974132" lon="11.722560459071877"><ele>337.0</ele><time>2026-04-03T11:19:21Z</time></trkpt><trkpt lat="44.097065019859805" lon="11.72252436961122"><ele>335.0</ele><time>2026-04-03T11:19:22Z</time></trkpt><trkpt lat="44.09688742594988" lon="11.72248307088384"><ele>333.0</ele><time>2026-04-03T11:19:23Z</time></trkpt><trkpt lat="44.09671993405159" lon="11.722449084841095"><ele>334.0</ele><time>2026-04-03T11:19:24Z</time></trkpt><trkpt lat="44.09657046163611" lon="11.72240582572735"><ele>335.0</ele><time>2026-04-03T11:19:25Z</time></trkpt><trkpt lat="44.096428206116535" lon="11.722374049983179"><ele>336.0</ele><time>2026-04-03T11:19:26Z</time></trkpt><trkpt lat="44.09629669285962" lon="11.722346436065656"><ele>337.0</ele><time>2026-04-03T11:19:27Z</time></trkpt><trkpt lat="44.09617049141852" lon="11.722317704068535"><ele>337.0</ele><time>2026-04-03T11:19:28Z</time></trkpt><trkpt lat="44.09603614969296" lon="11.722287277509322"><ele>337.0</ele><time>2026-04-03T11:19:29Z</time></trkpt><trkpt lat="44.095895658465224" lon="11.722268750491775"><ele>337.0</ele><time>2026-04-03T11:19:30Z</time></trkpt><trkpt lat="44.095765058191226" lon="11.722265671050307"><ele>337.0</ele><time>2026-04-03T11:19:31Z</time></trkpt><trkpt lat="44.09565497010475" lon="11.722262284670048"><ele>337.40000000000003</ele><time>2026-04-03T11:19:32Z</time></trkpt><trkpt lat="44.095562227367445" lon="11.722255028148961"><ele>337.8</ele><time>2026-04-03T11:19:33Z</time></trkpt><trkpt lat="44.095475722680845" lon="11.7222373382403"><ele>338.2</ele><time>2026-04-03T11:19:34Z</time></trkpt><trkpt lat="44.09533954913883" lon="11.722159152582169"><ele>338.6</ele><time>2026-04-03T11:19:36Z</time></trkpt><trkpt lat="44.095315590972085" lon="11.722019298240488"><ele>339.0</ele><time>2026-04-03T11:19:38Z</time></trkpt><trkpt lat="44.095351393086155" lon="11.721884621184431"><ele>338.2</ele><time>2026-04-03T11:19:40Z</time></trkpt><trkpt lat="44.09534916447272" lon="11.72171440223809"><ele>337.4</ele><time>2026-04-03T11:19:42Z</time></trkpt><trkpt lat="44.09531346887379" lon="11.72163938351753"><ele>336.6</ele><time>2026-04-03T11:19:43Z</time></trkpt><trkpt lat="44.09525278193012" lon="11.721600549169512"><ele>335.8</ele><time>2026-04-03T11:19:44Z</time></trkpt><trkpt lat="44.09510040885148" lon="11.721589686420213"><ele>335.0</ele><time>2026-04-03T11:19:46Z</time></trkpt><trkpt lat="44.09498461388406" lon="11.721582979137144"><ele>336.33333333333337</ele><time>2026-04-03T11:19:47Z</time></trkpt><trkpt lat="44.09483924829949" lon="11.72157206060574"><ele>337.6666666666667</ele><time>2026-04-03T11:19:48Z</time></trkpt><trkpt lat="44.094649455639065" lon="11.721556835017894"><ele>339.0</ele><time>2026-04-03T11:19:49Z</time></trkpt><trkpt lat="44.094445720282664" lon="11.721544196961764"><ele>339.0</ele><time>2026-04-03T11:19:50Z</time></trkpt><trkpt lat="44.0942200274266" lon="11.721536870044652"><ele>339.0</ele><time>2026-04-03T11:19:51Z</time></trkpt><trkpt lat="44.09399434708286" lon="11.72152083643686"><ele>339.6666666666667</ele><time>2026-04-03T11:19:52Z</time></trkpt><trkpt lat="44.0937821786133" lon="11.721502489051355"><ele>340.33333333333337</ele><time>2026-04-03T11:19:53Z</time></trkpt><trkpt lat="44.09359790845339" lon="11.721493819416303"><ele>341.0</ele><time>2026-04-03T11:19:54Z</time></trkpt><trkpt lat="44.093420006044155" lon="11.721502272130001"><ele>341.0</ele><time>2026-04-03T11:19:55Z</time></trkpt><trkpt lat="44.09324876676302" lon="11.721504417235893"><ele>341.0</ele><time>2026-04-03T11:19:56Z</time></trkpt><trkpt lat="44.09305067408499" lon="11.721501176110742"><ele>341.0</ele><time>2026-04-03T11:19:57Z</time></trkpt><trkpt lat="44.09284593574873" lon="11.721469985805625"><ele>341.0</ele><time>2026-04-03T11:19:58Z</time></trkpt><trkpt lat="44.092634686061" lon="11.721456845552623"><ele>341.0</ele><time>2026-04-03T11:19:59Z</time></trkpt><trkpt lat="44.092401307433654" lon="11.721463012491911"><ele>341.0</ele><time>2026-04-03T11:20:00Z</time></trkpt><trkpt lat="44.09219997500728" lon="11.721471755612756"><ele>341.33333333333337</ele><time>2026-04-03T11:20:01Z</time></trkpt><trkpt lat="44.09201357371301" lon="11.721503590269462"><ele>341.6666666666667</ele><time>2026-04-03T11:20:02Z</time></trkpt><trkpt lat="44.091847062300744" lon="11.721549680558335"><ele>342.0</ele><time>2026-04-03T11:20:03Z</time></trkpt><trkpt lat="44.091689402624894" lon="11.721607073126105"><ele>343.5</ele><time>2026-04-03T11:20:04Z</time></trkpt><trkpt lat="44.0915465117959" lon="11.721665577185027"><ele>345.0</ele><time>2026-04-03T11:20:05Z</time></trkpt><trkpt lat="44.09141790627732" lon="11.721697927989345"><ele>346.5</ele><time>2026-04-03T11:20:06Z</time></trkpt><trkpt lat="44.09129985604295" lon="11.721696142086472"><ele>348.0</ele><time>2026-04-03T11:20:07Z</time></trkpt><trkpt lat="44.09119345534813" lon="11.721641847917645"><ele>348.0</ele><time>2026-04-03T11:20:07.999Z</time></trkpt><trkpt lat="44.09109507696592" lon="11.721521965810073"><ele>348.0</ele><time>2026-04-03T11:20:08.999Z</time></trkpt><trkpt lat="44.09102705594122" lon="11.721397050227926"><ele>348.0</ele><time>2026-04-03T11:20:09.999Z</time></trkpt><trkpt lat="44.09099216652125" lon="11.721248671504322"><ele>348.0</ele><time>2026-04-03T11:20:10.999Z</time></trkpt><trkpt lat="44.09100190732358" lon="11.721090818615775"><ele>347.3333333333333</ele><time>2026-04-03T11:20:11.999Z</time></trkpt><trkpt lat="44.091044159414785" lon="11.720893486176942"><ele>346.66666666666663</ele><time>2026-04-03T11:20:12.999Z</time></trkpt><trkpt lat="44.09110153630631" lon="11.72065961848537"><ele>346.0</ele><time>2026-04-03T11:20:13.999Z</time></trkpt><trkpt lat="44.09115468855583" lon="11.720382714902813"><ele>346.5</ele><time>2026-04-03T11:20:14.999Z</time></trkpt><trkpt lat="44.09121313509154" lon="11.720068629655568"><ele>347.0</ele><time>2026-04-03T11:20:15.999Z</time></trkpt><trkpt lat="44.091269596284015" lon="11.71974877962676"><ele>347.0</ele><time>2026-04-03T11:20:16.999Z</time></trkpt><trkpt lat="44.09131566998281" lon="11.719447046249705"><ele>347.0</ele><time>2026-04-03T11:20:17.999Z</time></trkpt><trkpt lat="44.091348995267616" lon="11.719178361246488"><ele>347.0</ele><time>2026-04-03T11:20:18.999Z</time></trkpt><trkpt lat="44.0913755580404" lon="11.718936730215756"><ele>347.5</ele><time>2026-04-03T11:20:19.999Z</time></trkpt><trkpt lat="44.09139306820243" lon="11.71872436860362"><ele>348.0</ele><time>2026-04-03T11:20:20.999Z</time></trkpt><trkpt lat="44.091402964385914" lon="11.718553723321294"><ele>348.5</ele><time>2026-04-03T11:20:21.999Z</time></trkpt><trkpt lat="44.091415057596365" lon="11.718404944155273"><ele>349.0</ele><time>2026-04-03T11:20:22.999Z</time></trkpt><trkpt lat="44.09143001767578" lon="11.718286862031539"><ele>350.6</ele><time>2026-04-03T11:20:23.999Z</time></trkpt><trkpt lat="44.0914619337009" lon="11.718165346526412"><ele>352.2</ele><time>2026-04-03T11:20:25.999Z</time></trkpt><trkpt lat="44.09144565681901" lon="11.71807426649241"><ele>353.8</ele><time>2026-04-03T11:20:28.999Z</time></trkpt><trkpt lat="44.09135016869032" lon="11.717982164672488"><ele>355.40000000000003</ele><time>2026-04-03T11:20:30.999Z</time></trkpt><trkpt lat="44.09123854496619" lon="11.717948585705127"><ele>357.0</ele><time>2026-04-03T11:20:31.999Z</time></trkpt><trkpt lat="44.09111137139388" lon="11.717969474515835"><ele>357.0</ele><time>2026-04-03T11:20:33Z</time></trkpt><trkpt lat="44.090979461708" lon="11.718059004794904"><ele>357.0</ele><time>2026-04-03T11:20:34Z</time></trkpt><trkpt lat="44.09082479935" lon="11.7181608931142"><ele>357.0</ele><time>2026-04-03T11:20:35Z</time></trkpt><trkpt lat="44.09063832948849" lon="11.718221264896215"><ele>357.5</ele><time>2026-04-03T11:20:36Z</time></trkpt><trkpt lat="44.0904139359244" lon="11.71823664600008"><ele>358.0</ele><time>2026-04-03T11:20:37Z</time></trkpt><trkpt lat="44.09018592470068" lon="11.71821659163547"><ele>358.0</ele><time>2026-04-03T11:20:38Z</time></trkpt><trkpt lat="44.08993493422753" lon="11.718195709762206"><ele>358.0</ele><time>2026-04-03T11:20:39Z</time></trkpt><trkpt lat="44.08966619773674" lon="11.71815824261199"><ele>359.0</ele><time>2026-04-03T11:20:40Z</time></trkpt><trkpt lat="44.08940060182883" lon="11.718106004768554"><ele>360.0</ele><time>2026-04-03T11:20:41Z</time></trkpt><trkpt lat="44.089135656694374" lon="11.718035923752176"><ele>359.0</ele><time>2026-04-03T11:20:42Z</time></trkpt><trkpt lat="44.08885419391759" lon="11.717967721682047"><ele>358.0</ele><time>2026-04-03T11:20:43Z</time></trkpt><trkpt lat="44.088573422143405" lon="11.717905986523077"><ele>358.0</ele><time>2026-04-03T11:20:44Z</time></trkpt><trkpt lat="44.08829399671302" lon="11.717869115399033"><ele>358.0</ele><time>2026-04-03T11:20:45Z</time></trkpt><trkpt lat="44.08800883447605" lon="11.717841712848644"><ele>358.0</ele><time>2026-04-03T11:20:46Z</time></trkpt><trkpt lat="44.08775061392366" lon="11.717836522476558"><ele>358.0</ele><time>2026-04-03T11:20:47Z</time></trkpt><trkpt lat="44.08747939998874" lon="11.71782360844837"><ele>359.0</ele><time>2026-04-03T11:20:48Z</time></trkpt><trkpt lat="44.08724024707442" lon="11.717813157673133"><ele>360.0</ele><time>2026-04-03T11:20:49Z</time></trkpt><trkpt lat="44.08701805037566" lon="11.71780171517409"><ele>360.0</ele><time>2026-04-03T11:20:50Z</time></trkpt><trkpt lat="44.08681178780223" lon="11.717798138897956"><ele>360.0</ele><time>2026-04-03T11:20:51Z</time></trkpt><trkpt lat="44.086618804048925" lon="11.717784758268607"><ele>360.0</ele><time>2026-04-03T11:20:52Z</time></trkpt><trkpt lat="44.08642759125701" lon="11.717748195748516"><ele>367.0</ele><time>2026-04-03T11:20:53Z</time></trkpt><trkpt lat="44.08624595264926" lon="11.71767206654758"><ele>374.0</ele><time>2026-04-03T11:20:54Z</time></trkpt><trkpt lat="44.08606945006661" lon="11.717594790926578"><ele>381.0</ele><time>2026-04-03T11:20:55Z</time></trkpt><trkpt lat="44.08588263060012" lon="11.717554535951619"><ele>378.6666666666667</ele><time>2026-04-03T11:20:56Z</time></trkpt><trkpt lat="44.085694709831195" lon="11.717533188995274"><ele>376.33333333333337</ele><time>2026-04-03T11:20:57Z</time></trkpt><trkpt lat="44.085522477979495" lon="11.71750100180081"><ele>374.0</ele><time>2026-04-03T11:20:58Z</time></trkpt><trkpt lat="44.085359087840764" lon="11.717471262383626"><ele>374.0</ele><time>2026-04-03T11:20:59Z</time></trkpt><trkpt lat="44.08520226649923" lon="11.717441738439371"><ele>374.0</ele><time>2026-04-03T11:21:00Z</time></trkpt><trkpt lat="44.08503981019858" lon="11.717414037397825"><ele>374.0</ele><time>2026-04-03T11:21:01Z</time></trkpt><trkpt lat="44.08488760132974" lon="11.717380036212889"><ele>371.75</ele><time>2026-04-03T11:21:02Z</time></trkpt><trkpt lat="44.084743897228954" lon="11.717336846814149"><ele>369.5</ele><time>2026-04-03T11:21:03Z</time></trkpt><trkpt lat="44.08461373211212" lon="11.717277358328305"><ele>367.25</ele><time>2026-04-03T11:21:04Z</time></trkpt><trkpt lat="44.08449341118152" lon="11.717200073348959"><ele>365.0</ele><time>2026-04-03T11:21:05Z</time></trkpt><trkpt lat="44.084392624284376" lon="11.71710711059775"><ele>365.0</ele><time>2026-04-03T11:21:06Z</time></trkpt><trkpt lat="44.0843148740961" lon="11.716999442524294"><ele>365.0</ele><time>2026-04-03T11:21:07Z</time></trkpt><trkpt lat="44.084247451136385" lon="11.716873698425077"><ele>365.0</ele><time>2026-04-03T11:21:08Z</time></trkpt><trkpt lat="44.084182397416846" lon="11.716740972423054"><ele>365.0</ele><time>2026-04-03T11:21:09Z</time></trkpt><trkpt lat="44.08410791123591" lon="11.71658298139179"><ele>364.5</ele><time>2026-04-03T11:21:10Z</time></trkpt><trkpt lat="44.08404492806849" lon="11.716414235730907"><ele>364.0</ele><time>2026-04-03T11:21:11Z</time></trkpt><trkpt lat="44.084006370305886" lon="11.716248677688107"><ele>363.5</ele><time>2026-04-03T11:21:12Z</time></trkpt><trkpt lat="44.08396107721551" lon="11.716108025254536"><ele>363.0</ele><time>2026-04-03T11:21:13Z</time></trkpt><trkpt lat="44.08392286511719" lon="11.715984819653146"><ele>363.0</ele><time>2026-04-03T11:21:14Z</time></trkpt><trkpt lat="44.08390432375324" lon="11.715888175441119"><ele>363.0</ele><time>2026-04-03T11:21:15Z</time></trkpt><trkpt lat="44.08388924543941" lon="11.715796396164816"><ele>363.0</ele><time>2026-04-03T11:21:17Z</time></trkpt><trkpt lat="44.08380703667272" lon="11.715625844250615"><ele>363.0</ele><time>2026-04-03T11:21:35Z</time></trkpt><trkpt lat="44.0837753148737" lon="11.715499913324953"><ele>363.0</ele><time>2026-04-03T11:21:36Z</time></trkpt><trkpt lat="44.08372017622037" lon="11.715348005503657"><ele>365.5</ele><time>2026-04-03T11:21:37Z</time></trkpt><trkpt lat="44.0836535172961" lon="11.715194507761636"><ele>368.0</ele><time>2026-04-03T11:21:38Z</time></trkpt><trkpt lat="44.08356203449845" lon="11.715018274001448"><ele>370.5</ele><time>2026-04-03T11:21:39Z</time></trkpt><trkpt lat="44.08347099586107" lon="11.714838496959626"><ele>373.0</ele><time>2026-04-03T11:21:40Z</time></trkpt><trkpt lat="44.08338731817905" lon="11.714668141451323"><ele>373.0</ele><time>2026-04-03T11:21:41Z</time></trkpt><trkpt lat="44.08329940091753" lon="11.714467327182813"><ele>373.0</ele><time>2026-04-03T11:21:42Z</time></trkpt><trkpt lat="44.0832242133066" lon="11.714287565552112"><ele>373.0</ele><time>2026-04-03T11:21:43Z</time></trkpt><trkpt lat="44.08316494407158" lon="11.71412588606649"><ele>373.0</ele><time>2026-04-03T11:21:44Z</time></trkpt><trkpt lat="44.083110157145136" lon="11.713963007469033"><ele>372.25</ele><time>2026-04-03T11:21:45Z</time></trkpt><trkpt lat="44.08304634254549" lon="11.713791553199242"><ele>371.5</ele><time>2026-04-03T11:21:46Z</time></trkpt><trkpt lat="44.08297606530322" lon="11.713613279628527"><ele>370.75</ele><time>2026-04-03T11:21:47Z</time></trkpt><trkpt lat="44.08291063951842" lon="11.71343466582673"><ele>370.0</ele><time>2026-04-03T11:21:48Z</time></trkpt><trkpt lat="44.08285502773777" lon="11.713253092262736"><ele>370.0</ele><time>2026-04-03T11:21:49Z</time></trkpt><trkpt lat="44.08280986014234" lon="11.713073338854489"><ele>370.0</ele><time>2026-04-03T11:21:50Z</time></trkpt><trkpt lat="44.08276555333889" lon="11.712915088748414"><ele>370.0</ele><time>2026-04-03T11:21:51Z</time></trkpt><trkpt lat="44.08273197774082" lon="11.712760750816377"><ele>370.0</ele><time>2026-04-03T11:21:52Z</time></trkpt><trkpt lat="44.08269632432101" lon="11.712600313950698"><ele>372.75</ele><time>2026-04-03T11:21:53Z</time></trkpt><trkpt lat="44.08266138617306" lon="11.712443245034903"><ele>375.5</ele><time>2026-04-03T11:21:54Z</time></trkpt><trkpt lat="44.08263023368055" lon="11.712289980429444"><ele>378.25</ele><time>2026-04-03T11:21:55Z</time></trkpt><trkpt lat="44.08259042025116" lon="11.712131552866657"><ele>381.0</ele><time>2026-04-03T11:21:56Z</time></trkpt><trkpt lat="44.08255097557152" lon="11.711966605242905"><ele>382.25</ele><time>2026-04-03T11:21:57Z</time></trkpt><trkpt lat="44.082508034124956" lon="11.711800082353834"><ele>383.5</ele><time>2026-04-03T11:21:58Z</time></trkpt><trkpt lat="44.08245781790785" lon="11.711628898565246"><ele>384.75</ele><time>2026-04-03T11:21:59Z</time></trkpt><trkpt lat="44.082412281874525" lon="11.711451885197704"><ele>386.0</ele><time>2026-04-03T11:22:00Z</time></trkpt><trkpt lat="44.082383365933836" lon="11.711270088187446"><ele>382.75</ele><time>2026-04-03T11:22:01Z</time></trkpt><trkpt lat="44.08235510424079" lon="11.711082543474088"><ele>379.5</ele><time>2026-04-03T11:22:02Z</time></trkpt><trkpt lat="44.08233259620268" lon="11.710890126108673"><ele>376.25</ele><time>2026-04-03T11:22:03Z</time></trkpt><trkpt lat="44.082281624976034" lon="11.710719007482671"><ele>373.0</ele><time>2026-04-03T11:22:04Z</time></trkpt><trkpt lat="44.08219156875132" lon="11.71055994292355"><ele>373.0</ele><time>2026-04-03T11:22:05Z</time></trkpt><trkpt lat="44.08208489964313" lon="11.71041210010699"><ele>373.0</ele><time>2026-04-03T11:22:06Z</time></trkpt><trkpt lat="44.08198665232604" lon="11.710261709381856"><ele>373.0</ele><time>2026-04-03T11:22:07Z</time></trkpt><trkpt lat="44.08188359857578" lon="11.710113548501955"><ele>373.0</ele><time>2026-04-03T11:22:08Z</time></trkpt><trkpt lat="44.081787129671234" lon="11.709956027314165"><ele>373.25</ele><time>2026-04-03T11:22:09Z</time></trkpt><trkpt lat="44.081697075429986" lon="11.70980251146609"><ele>373.5</ele><time>2026-04-03T11:22:10Z</time></trkpt><trkpt lat="44.08161727322045" lon="11.709658007794342"><ele>373.75</ele><time>2026-04-03T11:22:11Z</time></trkpt><trkpt lat="44.08154146115346" lon="11.70952764774396"><ele>374.0</ele><time>2026-04-03T11:22:12Z</time></trkpt><trkpt lat="44.08146428789953" lon="11.709408089251491"><ele>375.2</ele><time>2026-04-03T11:22:13Z</time></trkpt><trkpt lat="44.08137971679097" lon="11.70931914294222"><ele>376.4</ele><time>2026-04-03T11:22:14Z</time></trkpt><trkpt lat="44.08127910050251" lon="11.709266540078007"><ele>377.6</ele><time>2026-04-03T11:22:15Z</time></trkpt><trkpt lat="44.081178617403296" lon="11.709250739606052"><ele>378.8</ele><time>2026-04-03T11:22:16Z</time></trkpt><trkpt lat="44.08108425117875" lon="11.70925497944425"><ele>380.0</ele><time>2026-04-03T11:22:17Z</time></trkpt><trkpt lat="44.080988325240746" lon="11.709262145095225"><ele>380.0</ele><time>2026-04-03T11:22:18Z</time></trkpt><trkpt lat="44.08090020774269" lon="11.709265521015475"><ele>380.0</ele><time>2026-04-03T11:22:19Z</time></trkpt><trkpt lat="44.08082048354143" lon="11.709253425985942"><ele>380.0</ele><time>2026-04-03T11:22:20Z</time></trkpt><trkpt lat="44.08075374804979" lon="11.709230500051936"><ele>380.0</ele><time>2026-04-03T11:22:21Z</time></trkpt><trkpt lat="44.080691932460915" lon="11.709211389974703"><ele>380.0</ele><time>2026-04-03T11:22:21.999Z</time></trkpt><trkpt lat="44.080611238411436" lon="11.709195581417847"><ele>380.0</ele><time>2026-04-03T11:22:23.999Z</time></trkpt><trkpt lat="44.080539715565834" lon="11.709170235661235"><ele>380.5</ele><time>2026-04-03T11:22:27.999Z</time></trkpt><trkpt lat="44.080446104122906" lon="11.709125015719904"><ele>381.0</ele><time>2026-04-03T11:22:30.999Z</time></trkpt><trkpt lat="44.08036174809342" lon="11.709055824778147"><ele>381.5</ele><time>2026-04-03T11:22:32.999Z</time></trkpt><trkpt lat="44.08028877693952" lon="11.70905621119741"><ele>382.0</ele><time>2026-04-03T11:23:26Z</time></trkpt><trkpt lat="44.08023764683887" lon="11.709112002590025"><ele>382.5</ele><time>2026-04-03T11:23:29Z</time></trkpt><trkpt lat="44.08017498657794" lon="11.709189367994485"><ele>383.0</ele><time>2026-04-03T11:23:30Z</time></trkpt><trkpt lat="44.08010666933961" lon="11.709305926880567"><ele>383.0</ele><time>2026-04-03T11:23:32Z</time></trkpt><trkpt lat="44.08009069670484" lon="11.70941267078598"><ele>383.0</ele><time>2026-04-03T11:23:33Z</time></trkpt><trkpt lat="44.08009309449672" lon="11.709538653959092"><ele>383.0</ele><time>2026-04-03T11:23:34Z</time></trkpt><trkpt lat="44.08008777639491" lon="11.709664892945833"><ele>383.0</ele><time>2026-04-03T11:23:35Z</time></trkpt><trkpt lat="44.0800668168762" lon="11.709788647967901"><ele>383.0</ele><time>2026-04-03T11:23:36Z</time></trkpt><trkpt lat="44.08001870303551" lon="11.709907024861119"><ele>383.0</ele><time>2026-04-03T11:23:37Z</time></trkpt><trkpt lat="44.079946749682556" lon="11.709995173086146"><ele>384.79999999999995</ele><time>2026-04-03T11:23:38Z</time></trkpt><trkpt lat="44.0798557034838" lon="11.710029566432695"><ele>386.6</ele><time>2026-04-03T11:23:39Z</time></trkpt><trkpt lat="44.07975570382417" lon="11.710009952515898"><ele>388.4</ele><time>2026-04-03T11:23:40Z</time></trkpt><trkpt lat="44.07964509124255" lon="11.70995619267996"><ele>390.20000000000005</ele><time>2026-04-03T11:23:41Z</time></trkpt><trkpt lat="44.079552005613145" lon="11.709841274040887"><ele>392.0</ele><time>2026-04-03T11:23:42Z</time></trkpt><trkpt lat="44.07947302588458" lon="11.709674110916632"><ele>392.0</ele><time>2026-04-03T11:23:43Z</time></trkpt><trkpt lat="44.079353521454756" lon="11.709520867945992"><ele>392.0</ele><time>2026-04-03T11:23:44Z</time></trkpt><trkpt lat="44.079164831541895" lon="11.709445486217746"><ele>392.0</ele><time>2026-04-03T11:23:45Z</time></trkpt><trkpt lat="44.07896345447664" lon="11.709436217252675"><ele>398.3333333333333</ele><time>2026-04-03T11:23:46Z</time></trkpt><trkpt lat="44.07876839539143" lon="11.709392872185672"><ele>404.66666666666663</ele><time>2026-04-03T11:23:47Z</time></trkpt><trkpt lat="44.07863694106509" lon="11.709278069396603"><ele>411.0</ele><time>2026-04-03T11:23:48Z</time></trkpt><trkpt lat="44.07854550864834" lon="11.709115059786862"><ele>411.0</ele><time>2026-04-03T11:23:49Z</time></trkpt><trkpt lat="44.07850516204752" lon="11.708889037486752"><ele>411.0</ele><time>2026-04-03T11:23:50Z</time></trkpt><trkpt lat="44.07848038424208" lon="11.708659331414383"><ele>411.0</ele><time>2026-04-03T11:23:51Z</time></trkpt><trkpt lat="44.07846020730508" lon="11.708479917069068"><ele>411.8</ele><time>2026-04-03T11:23:52Z</time></trkpt><trkpt lat="44.078406827137925" lon="11.708365229600476"><ele>412.6</ele><time>2026-04-03T11:23:53Z</time></trkpt><trkpt lat="44.07834182073271" lon="11.708323047256082"><ele>413.4</ele><time>2026-04-03T11:23:54Z</time></trkpt><trkpt lat="44.07826458969179" lon="11.708343113558005"><ele>414.2</ele><time>2026-04-03T11:23:55Z</time></trkpt><trkpt lat="44.078205163519364" lon="11.708428968635333"><ele>415.0</ele><time>2026-04-03T11:23:56Z</time></trkpt><trkpt lat="44.07816288221839" lon="11.708586497873466"><ele>423.6666666666667</ele><time>2026-04-03T11:23:57Z</time></trkpt><trkpt lat="44.07812729218517" lon="11.7088028629373"><ele>432.33333333333337</ele><time>2026-04-03T11:23:58Z</time></trkpt><trkpt lat="44.07805114888357" lon="11.709013453721916"><ele>441.0</ele><time>2026-04-03T11:23:59Z</time></trkpt><trkpt lat="44.07791870691422" lon="11.709195421854401"><ele>441.0</ele><time>2026-04-03T11:24:00Z</time></trkpt><trkpt lat="44.077805160423225" lon="11.709387136503556"><ele>441.0</ele><time>2026-04-03T11:24:01Z</time></trkpt><trkpt lat="44.07771115034138" lon="11.709526779678148"><ele>441.0</ele><time>2026-04-03T11:24:02Z</time></trkpt><trkpt lat="44.0776399723577" lon="11.709638875553052"><ele>441.0</ele><time>2026-04-03T11:24:03Z</time></trkpt><trkpt lat="44.0775912601933" lon="11.709768466039106"><ele>441.0</ele><time>2026-04-03T11:24:04Z</time></trkpt><trkpt lat="44.07758027693001" lon="11.709977056937436"><ele>441.0</ele><time>2026-04-03T11:24:05Z</time></trkpt><trkpt lat="44.07759132614732" lon="11.710243086972307"><ele>441.0</ele><time>2026-04-03T11:24:06Z</time></trkpt><trkpt lat="44.07759221860413" lon="11.710523391186625"><ele>441.33333333333337</ele><time>2026-04-03T11:24:07Z</time></trkpt><trkpt lat="44.07757008265065" lon="11.710815057152757"><ele>441.6666666666667</ele><time>2026-04-03T11:24:08Z</time></trkpt><trkpt lat="44.07754803677284" lon="11.711101893459825"><ele>442.0</ele><time>2026-04-03T11:24:09Z</time></trkpt><trkpt lat="44.07752353474283" lon="11.711310422342352"><ele>440.0</ele><time>2026-04-03T11:24:10Z</time></trkpt><trkpt lat="44.07747841098117" lon="11.711461819438805"><ele>438.0</ele><time>2026-04-03T11:24:11Z</time></trkpt><trkpt lat="44.077378145729774" lon="11.711592772712638"><ele>436.0</ele><time>2026-04-03T11:24:12Z</time></trkpt><trkpt lat="44.07722480011471" lon="11.711702170074357"><ele>434.0</ele><time>2026-04-03T11:24:13Z</time></trkpt><trkpt lat="44.07703580890489" lon="11.71179369683015"><ele>438.0</ele><time>2026-04-03T11:24:14Z</time></trkpt><trkpt lat="44.07683713415108" lon="11.711898178996773"><ele>442.0</ele><time>2026-04-03T11:24:15Z</time></trkpt><trkpt lat="44.076634669063736" lon="11.712039907769134"><ele>446.0</ele><time>2026-04-03T11:24:16Z</time></trkpt><trkpt lat="44.07644295272808" lon="11.712201891946311"><ele>458.66666666666663</ele><time>2026-04-03T11:24:17Z</time></trkpt><trkpt lat="44.07625669352174" lon="11.712357793407293"><ele>471.33333333333337</ele><time>2026-04-03T11:24:18Z</time></trkpt><trkpt lat="44.07609049279287" lon="11.712510304799148"><ele>484.0</ele><time>2026-04-03T11:24:19Z</time></trkpt><trkpt lat="44.075958354329345" lon="11.712682457057644"><ele>477.6666666666667</ele><time>2026-04-03T11:24:20Z</time></trkpt><trkpt lat="44.075878287939695" lon="11.7128690251622"><ele>471.33333333333337</ele><time>2026-04-03T11:24:21Z</time></trkpt><trkpt lat="44.07583617721168" lon="11.713061094734499"><ele>465.0</ele><time>2026-04-03T11:24:22Z</time></trkpt><trkpt lat="44.075770310271544" lon="11.713253630904042"><ele>475.0</ele><time>2026-04-03T11:24:23Z</time></trkpt><trkpt lat="44.075651830918304" lon="11.713382418404569"><ele>485.0</ele><time>2026-04-03T11:24:24Z</time></trkpt><trkpt lat="44.07548224646123" lon="11.713463208070193"><ele>495.0</ele><time>2026-04-03T11:24:25Z</time></trkpt><trkpt lat="44.07529037125284" lon="11.71353619923664"><ele>492.66666666666663</ele><time>2026-04-03T11:24:26Z</time></trkpt><trkpt lat="44.075099200018514" lon="11.713643458031903"><ele>490.3333333333333</ele><time>2026-04-03T11:24:27Z</time></trkpt><trkpt lat="44.074911041359655" lon="11.713781365498201"><ele>488.0</ele><time>2026-04-03T11:24:28Z</time></trkpt><trkpt lat="44.0747767759983" lon="11.713899699178683"><ele>492.79999999999995</ele><time>2026-04-03T11:24:29Z</time></trkpt><trkpt lat="44.07468037591354" lon="11.714010183730897"><ele>497.59999999999997</ele><time>2026-04-03T11:24:30Z</time></trkpt><trkpt lat="44.074630689715846" lon="11.714123378369793"><ele>502.40000000000003</ele><time>2026-04-03T11:24:31Z</time></trkpt><trkpt lat="44.074630286399135" lon="11.714255902585597"><ele>507.20000000000005</ele><time>2026-04-03T11:24:32Z</time></trkpt><trkpt lat="44.07469628991277" lon="11.714369082955658"><ele>512.0</ele><time>2026-04-03T11:24:33Z</time></trkpt><trkpt lat="44.074815031938925" lon="11.71441198658349"><ele>504.0</ele><time>2026-04-03T11:24:34Z</time></trkpt><trkpt lat="44.074949918732536" lon="11.714357917834661"><ele>496.0</ele><time>2026-04-03T11:24:35Z</time></trkpt><trkpt lat="44.075109491400916" lon="11.714291372696115"><ele>488.0</ele><time>2026-04-03T11:24:36Z</time></trkpt><trkpt lat="44.07527108546483" lon="11.714304067218182"><ele>496.3333333333333</ele><time>2026-04-03T11:24:37Z</time></trkpt><trkpt lat="44.075443209863366" lon="11.714426915838528"><ele>504.66666666666663</ele><time>2026-04-03T11:24:38Z</time></trkpt><trkpt lat="44.07561089940736" lon="11.714594628314668"><ele>513.0</ele><time>2026-04-03T11:24:39Z</time></trkpt><trkpt lat="44.07576731445986" lon="11.714783764004942"><ele>505.33333333333337</ele><time>2026-04-03T11:24:40Z</time></trkpt><trkpt lat="44.075897403324184" lon="11.714966544241983"><ele>497.6666666666667</ele><time>2026-04-03T11:24:41Z</time></trkpt><trkpt lat="44.07603585167624" lon="11.715108092712901"><ele>490.0</ele><time>2026-04-03T11:24:41.999Z</time></trkpt><trkpt lat="44.07614234291542" lon="11.715197930709307"><ele>486.0</ele><time>2026-04-03T11:24:42.999Z</time></trkpt><trkpt lat="44.07626967939427" lon="11.715250407841275"><ele>482.0</ele><time>2026-04-03T11:24:43.999Z</time></trkpt><trkpt lat="44.076438525822724" lon="11.715239251490692"><ele>478.0</ele><time>2026-04-03T11:24:45Z</time></trkpt><trkpt lat="44.076604039425746" lon="11.715223830194597"><ele>478.2</ele><time>2026-04-03T11:24:46Z</time></trkpt><trkpt lat="44.07668111540499" lon="11.715293521876319"><ele>478.4</ele><time>2026-04-03T11:24:47Z</time></trkpt><trkpt lat="44.0766713701423" lon="11.715462678039671"><ele>478.59999999999997</ele><time>2026-04-03T11:24:49Z</time></trkpt><trkpt lat="44.07662128859376" lon="11.71553102419992"><ele>478.79999999999995</ele><time>2026-04-03T11:24:50Z</time></trkpt><trkpt lat="44.07646718872848" lon="11.715597635432477"><ele>479.0</ele><time>2026-04-03T11:24:51Z</time></trkpt><trkpt lat="44.07633596708175" lon="11.715673705371888"><ele>488.0</ele><time>2026-04-03T11:24:52Z</time></trkpt><trkpt lat="44.076218882567595" lon="11.715827909360788"><ele>497.0</ele><time>2026-04-03T11:24:53Z</time></trkpt><trkpt lat="44.07610149271837" lon="11.716050990742536"><ele>506.0</ele><time>2026-04-03T11:24:54Z</time></trkpt><trkpt lat="44.075989449139115" lon="11.716287466826005"><ele>506.0</ele><time>2026-04-03T11:24:55Z</time></trkpt><trkpt lat="44.07586452978913" lon="11.716515104123015"><ele>506.0</ele><time>2026-04-03T11:24:56Z</time></trkpt><trkpt lat="44.075724053717536" lon="11.716730084906398"><ele>506.0</ele><time>2026-04-03T11:24:57Z</time></trkpt><trkpt lat="44.07559647266654" lon="11.71690299120829"><ele>514.5</ele><time>2026-04-03T11:24:58Z</time></trkpt><trkpt lat="44.07549354160388" lon="11.717076272386777"><ele>523.0</ele><time>2026-04-03T11:24:59Z</time></trkpt><trkpt lat="44.07546332847493" lon="11.717266479998557"><ele>531.5</ele><time>2026-04-03T11:25:00Z</time></trkpt><trkpt lat="44.0754631655382" lon="11.717459642883886"><ele>540.0</ele><time>2026-04-03T11:25:01Z</time></trkpt><trkpt lat="44.075506359078545" lon="11.717623413569184"><ele>540.0</ele><time>2026-04-03T11:25:02Z</time></trkpt><trkpt lat="44.075577172515686" lon="11.71772809644384"><ele>540.0</ele><time>2026-04-03T11:25:03Z</time></trkpt><trkpt lat="44.07568178951386" lon="11.717785345399104"><ele>540.0</ele><time>2026-04-03T11:25:04Z</time></trkpt><trkpt lat="44.07583655809322" lon="11.717796715901358"><ele>540.0</ele><time>2026-04-03T11:25:05Z</time></trkpt><trkpt lat="44.07598899793334" lon="11.717863784212765"><ele>537.0</ele><time>2026-04-03T11:25:06Z</time></trkpt><trkpt lat="44.07617677445772" lon="11.717948803848943"><ele>534.0</ele><time>2026-04-03T11:25:07Z</time></trkpt><trkpt lat="44.07627646630171" lon="11.718081743834535"><ele>531.0</ele><time>2026-04-03T11:25:08Z</time></trkpt><trkpt lat="44.07630992950243" lon="11.71818736324115"><ele>528.0</ele><time>2026-04-03T11:25:09Z</time></trkpt><trkpt lat="44.07628006358916" lon="11.718283809315086"><ele>528.0</ele><time>2026-04-03T11:25:10Z</time></trkpt><trkpt lat="44.076211373273345" lon="11.718326605832171"><ele>528.0</ele><time>2026-04-03T11:25:11Z</time></trkpt><trkpt lat="44.07612000125009" lon="11.718290827032472"><ele>528.0</ele><time>2026-04-03T11:25:12Z</time></trkpt><trkpt lat="44.07602082499012" lon="11.718191930434033"><ele>528.0</ele><time>2026-04-03T11:25:13Z</time></trkpt><trkpt lat="44.075919339179826" lon="11.718054961384173"><ele>528.0</ele><time>2026-04-03T11:25:14Z</time></trkpt><trkpt lat="44.07578019546787" lon="11.717965514030135"><ele>537.3333333333334</ele><time>2026-04-03T11:25:15Z</time></trkpt><trkpt lat="44.075621225599896" lon="11.717982866177879"><ele>546.6666666666667</ele><time>2026-04-03T11:25:16Z</time></trkpt><trkpt lat="44.07543862966014" lon="11.718027140754765"><ele>556.0</ele><time>2026-04-03T11:25:17Z</time></trkpt><trkpt lat="44.07521790804063" lon="11.71806805560332"><ele>556.0</ele><time>2026-04-03T11:25:18Z</time></trkpt><trkpt lat="44.075053408198464" lon="11.71805950516538"><ele>556.0</ele><time>2026-04-03T11:25:19Z</time></trkpt><trkpt lat="44.07493209715562" lon="11.717998331734409"><ele>556.0</ele><time>2026-04-03T11:25:20Z</time></trkpt><trkpt lat="44.074856818852545" lon="11.717886070276533"><ele>556.0</ele><time>2026-04-03T11:25:21Z</time></trkpt><trkpt lat="44.07480673790719" lon="11.717746506878516"><ele>560.5</ele><time>2026-04-03T11:25:22Z</time></trkpt><trkpt lat="44.07476980861219" lon="11.717567161257994"><ele>565.0</ele><time>2026-04-03T11:25:23Z</time></trkpt><trkpt lat="44.0747563708653" lon="11.7173605040071"><ele>569.5</ele><time>2026-04-03T11:25:24Z</time></trkpt><trkpt lat="44.07474818612387" lon="11.717151073382947"><ele>574.0</ele><time>2026-04-03T11:25:25Z</time></trkpt><trkpt lat="44.0748024922082" lon="11.71696298574625"><ele>571.25</ele><time>2026-04-03T11:25:26Z</time></trkpt><trkpt lat="44.07491002854351" lon="11.716819961148488"><ele>568.5</ele><time>2026-04-03T11:25:27Z</time></trkpt><trkpt lat="44.075020664630756" lon="11.716673939961249"><ele>565.75</ele><time>2026-04-03T11:25:28Z</time></trkpt><trkpt lat="44.07507187018648" lon="11.716483532860812"><ele>563.0</ele><time>2026-04-03T11:25:29Z</time></trkpt><trkpt lat="44.07506462049999" lon="11.716326212056764"><ele>563.0</ele><time>2026-04-03T11:25:30Z</time></trkpt><trkpt lat="44.075013204397905" lon="11.716237052174968"><ele>563.0</ele><time>2026-04-03T11:25:31Z</time></trkpt><trkpt lat="44.07494548689427" lon="11.716236902828072"><ele>563.0</ele><time>2026-04-03T11:25:32Z</time></trkpt><trkpt lat="44.07485837986472" lon="11.71629263260474"><ele>563.0</ele><time>2026-04-03T11:25:33Z</time></trkpt><trkpt lat="44.0747722219422" lon="11.716424643420742"><ele>563.0</ele><time>2026-04-03T11:25:34Z</time></trkpt><trkpt lat="44.07470689895307" lon="11.716637446193605"><ele>563.0</ele><time>2026-04-03T11:25:35Z</time></trkpt><trkpt lat="44.07460216298651" lon="11.716845890096028"><ele>563.0</ele><time>2026-04-03T11:25:36Z</time></trkpt><trkpt lat="44.07445659100139" lon="11.717004251906939"><ele>563.0</ele><time>2026-04-03T11:25:37Z</time></trkpt><trkpt lat="44.07434113087173" lon="11.7171645920949"><ele>566.6666666666666</ele><time>2026-04-03T11:25:38Z</time></trkpt><trkpt lat="44.074292553820335" lon="11.717378600981856"><ele>570.3333333333334</ele><time>2026-04-03T11:25:39Z</time></trkpt><trkpt lat="44.07430064467152" lon="11.717669151352226"><ele>574.0</ele><time>2026-04-03T11:25:40Z</time></trkpt><trkpt lat="44.0743226765598" lon="11.717963335310866"><ele>577.3333333333334</ele><time>2026-04-03T11:25:41Z</time></trkpt><trkpt lat="44.07438947682612" lon="11.718238767963628"><ele>580.6666666666666</ele><time>2026-04-03T11:25:42Z</time></trkpt><trkpt lat="44.074510523814055" lon="11.718496518722251"><ele>584.0</ele><time>2026-04-03T11:25:43Z</time></trkpt><trkpt lat="44.074652469178034" lon="11.718752907735091"><ele>588.0</ele><time>2026-04-03T11:25:44Z</time></trkpt><trkpt lat="44.07480127825982" lon="11.71905252371563"><ele>592.0</ele><time>2026-04-03T11:25:45Z</time></trkpt><trkpt lat="44.074900601776704" lon="11.719384103512708"><ele>590.0</ele><time>2026-04-03T11:25:46Z</time></trkpt><trkpt lat="44.074999157192146" lon="11.719668761359701"><ele>588.0</ele><time>2026-04-03T11:25:47Z</time></trkpt><trkpt lat="44.07507266036322" lon="11.719900966024586"><ele>586.0</ele><time>2026-04-03T11:25:48Z</time></trkpt><trkpt lat="44.07511908295168" lon="11.720033483726027"><ele>587.6666666666667</ele><time>2026-04-03T11:25:49Z</time></trkpt><trkpt lat="44.075053793812444" lon="11.720258360564008"><ele>589.3333333333334</ele><time>2026-04-03T11:25:50Z</time></trkpt><trkpt lat="44.075005758286004" lon="11.72050988613525"><ele>591.0</ele><time>2026-04-03T11:25:51Z</time></trkpt><trkpt lat="44.07502902383105" lon="11.720739139640393"><ele>591.0</ele><time>2026-04-03T11:25:52Z</time></trkpt><trkpt lat="44.07510843610539" lon="11.720917841718506"><ele>591.0</ele><time>2026-04-03T11:25:53Z</time></trkpt><trkpt lat="44.07524363023883" lon="11.721067401788156"><ele>591.0</ele><time>2026-04-03T11:25:54Z</time></trkpt><trkpt lat="44.075333458205364" lon="11.721197078865329"><ele>589.0</ele><time>2026-04-03T11:25:55Z</time></trkpt><trkpt lat="44.075391469411834" lon="11.721326256518951"><ele>587.0</ele><time>2026-04-03T11:25:56Z</time></trkpt><trkpt lat="44.07542553000356" lon="11.721461194849475"><ele>585.0</ele><time>2026-04-03T11:25:57Z</time></trkpt><trkpt lat="44.07544991180424" lon="11.721592877959505"><ele>583.0</ele><time>2026-04-03T11:25:58Z</time></trkpt><trkpt lat="44.075466288311965" lon="11.721686529345522"><ele>581.0</ele><time>2026-04-03T11:25:59Z</time></trkpt><trkpt lat="44.07548556655988" lon="11.721852286192782"><ele>576.5</ele><time>2026-04-03T11:26:01Z</time></trkpt><trkpt lat="44.07548081663987" lon="11.722053410965598"><ele>572.0</ele><time>2026-04-03T11:26:03Z</time></trkpt><trkpt lat="44.075487480364366" lon="11.722209749807616"><ele>567.5</ele><time>2026-04-03T11:26:04Z</time></trkpt><trkpt lat="44.07550638699151" lon="11.722391778162038"><ele>563.0</ele><time>2026-04-03T11:26:05Z</time></trkpt><trkpt lat="44.07553668916004" lon="11.722609331693727"><ele>558.3333333333333</ele><time>2026-04-03T11:26:06Z</time></trkpt><trkpt lat="44.075562887885965" lon="11.72283513608927"><ele>553.6666666666666</ele><time>2026-04-03T11:26:07Z</time></trkpt><trkpt lat="44.075599254188276" lon="11.723064348084"><ele>549.0</ele><time>2026-04-03T11:26:08Z</time></trkpt><trkpt lat="44.07564401818511" lon="11.723290494790179"><ele>549.0</ele><time>2026-04-03T11:26:09Z</time></trkpt><trkpt lat="44.075693745036006" lon="11.723469951271097"><ele>549.0</ele><time>2026-04-03T11:26:10Z</time></trkpt><trkpt lat="44.075756850424334" lon="11.723633289998638"><ele>549.0</ele><time>2026-04-03T11:26:11Z</time></trkpt><trkpt lat="44.075804049499" lon="11.723760060986468"><ele>549.0</ele><time>2026-04-03T11:26:12Z</time></trkpt><trkpt lat="44.07586602363282" lon="11.723833830490893"><ele>552.75</ele><time>2026-04-03T11:26:13Z</time></trkpt><trkpt lat="44.07596518197298" lon="11.72385964387127"><ele>556.5</ele><time>2026-04-03T11:26:14Z</time></trkpt><trkpt lat="44.07611760227833" lon="11.723878640502068"><ele>560.25</ele><time>2026-04-03T11:26:15Z</time></trkpt><trkpt lat="44.0762470265046" lon="11.723941503034844"><ele>564.0</ele><time>2026-04-03T11:26:16Z</time></trkpt><trkpt lat="44.076320315065786" lon="11.72406148046475"><ele>564.0</ele><time>2026-04-03T11:26:17Z</time></trkpt><trkpt lat="44.07635046961072" lon="11.724204010320397"><ele>564.0</ele><time>2026-04-03T11:26:18Z</time></trkpt><trkpt lat="44.07633542087945" lon="11.724385893878061"><ele>564.0</ele><time>2026-04-03T11:26:19Z</time></trkpt><trkpt lat="44.07632100805239" lon="11.724601967895564"><ele>564.0</ele><time>2026-04-03T11:26:20Z</time></trkpt><trkpt lat="44.07632518933054" lon="11.724791860083043"><ele>559.5</ele><time>2026-04-03T11:26:21Z</time></trkpt><trkpt lat="44.07636611139877" lon="11.724963950632919"><ele>555.0</ele><time>2026-04-03T11:26:22Z</time></trkpt><trkpt lat="44.076438808307074" lon="11.725108512532929"><ele>550.5</ele><time>2026-04-03T11:26:23Z</time></trkpt><trkpt lat="44.07654443050908" lon="11.725244890524417"><ele>546.0</ele><time>2026-04-03T11:26:24Z</time></trkpt><trkpt lat="44.07665871151112" lon="11.725341750052594"><ele>544.5</ele><time>2026-04-03T11:26:25Z</time></trkpt><trkpt lat="44.076793796848804" lon="11.725404283636161"><ele>543.0</ele><time>2026-04-03T11:26:26Z</time></trkpt><trkpt lat="44.07692503251186" lon="11.725405627658045"><ele>541.5</ele><time>2026-04-03T11:26:27Z</time></trkpt><trkpt lat="44.07706803891302" lon="11.725355944695877"><ele>540.0</ele><time>2026-04-03T11:26:28Z</time></trkpt><trkpt lat="44.07724584679505" lon="11.725327515144466"><ele>540.0</ele><time>2026-04-03T11:26:29Z</time></trkpt><trkpt lat="44.07744490274543" lon="11.725355594345178"><ele>540.0</ele><time>2026-04-03T11:26:30Z</time></trkpt><trkpt lat="44.07764012841153" lon="11.72537400414566"><ele>540.0</ele><time>2026-04-03T11:26:31Z</time></trkpt><trkpt lat="44.07780864078217" lon="11.725372822882806"><ele>540.0</ele><time>2026-04-03T11:26:32Z</time></trkpt><trkpt lat="44.0779133704493" lon="11.725395937736792"><ele>540.0</ele><time>2026-04-03T11:26:33Z</time></trkpt><trkpt lat="44.07799475842128" lon="11.725446053134165"><ele>540.0</ele><time>2026-04-03T11:26:34Z</time></trkpt><trkpt lat="44.07799832921288" lon="11.725542318783795"><ele>540.0</ele><time>2026-04-03T11:26:36Z</time></trkpt><trkpt lat="44.07789783127313" lon="11.72563042589223"><ele>540.0</ele><time>2026-04-03T11:26:37Z</time></trkpt><trkpt lat="44.07776079674956" lon="11.72560185889157"><ele>540.0</ele><time>2026-04-03T11:26:38Z</time></trkpt><trkpt lat="44.07759442180962" lon="11.725653125235022"><ele>540.0</ele><time>2026-04-03T11:26:39Z</time></trkpt><trkpt lat="44.077424492803935" lon="11.725729438546901"><ele>540.0</ele><time>2026-04-03T11:26:40Z</time></trkpt><trkpt lat="44.07728040481012" lon="11.725789217486085"><ele>540.0</ele><time>2026-04-03T11:26:41Z</time></trkpt><trkpt lat="44.077160039704424" lon="11.72588720648914"><ele>540.0</ele><time>2026-04-03T11:26:42Z</time></trkpt><trkpt lat="44.0770288385257" lon="11.726041093032498"><ele>540.0</ele><time>2026-04-03T11:26:43Z</time></trkpt><trkpt lat="44.07690043163601" lon="11.726144343460088"><ele>534.0</ele><time>2026-04-03T11:26:44Z</time></trkpt><trkpt lat="44.076751870417546" lon="11.726223205512504"><ele>528.0</ele><time>2026-04-03T11:26:45Z</time></trkpt><trkpt lat="44.07662701780649" lon="11.726348579163144"><ele>522.0</ele><time>2026-04-03T11:26:46Z</time></trkpt><trkpt lat="44.07652376030148" lon="11.726471601217735"><ele>516.0</ele><time>2026-04-03T11:26:47Z</time></trkpt><trkpt lat="44.076407010164104" lon="11.726596314872873"><ele>513.8333333333334</ele><time>2026-04-03T11:26:47.999Z</time></trkpt><trkpt lat="44.076314633449435" lon="11.726698876980361"><ele>511.66666666666663</ele><time>2026-04-03T11:26:48.999Z</time></trkpt><trkpt lat="44.07622866188429" lon="11.726755187904185"><ele>509.5</ele><time>2026-04-03T11:26:50Z</time></trkpt><trkpt lat="44.07615651268486" lon="11.726760319396364"><ele>507.3333333333333</ele><time>2026-04-03T11:26:51Z</time></trkpt><trkpt lat="44.07609916612464" lon="11.726722370124204"><ele>505.16666666666663</ele><time>2026-04-03T11:26:52Z</time></trkpt><trkpt lat="44.076038516764086" lon="11.726642837155149"><ele>503.0</ele><time>2026-04-03T11:26:53Z</time></trkpt><trkpt lat="44.07603523870796" lon="11.726412651181228"><ele>503.0</ele><time>2026-04-03T11:26:54Z</time></trkpt><trkpt lat="44.075967797748625" lon="11.726192975224935"><ele>503.0</ele><time>2026-04-03T11:26:55Z</time></trkpt><trkpt lat="44.07591348673617" lon="11.725985254115306"><ele>503.0</ele><time>2026-04-03T11:26:56Z</time></trkpt><trkpt lat="44.075879881956375" lon="11.725846815629799"><ele>503.0</ele><time>2026-04-03T11:26:57Z</time></trkpt><trkpt lat="44.0758463431511" lon="11.725761197349803"><ele>503.0</ele><time>2026-04-03T11:26:58Z</time></trkpt><trkpt lat="44.07571235921515" lon="11.725816765718635"><ele>503.0</ele><time>2026-04-03T11:27:00Z</time></trkpt><trkpt lat="44.07569343016542" lon="11.725993992508185"><ele>503.0</ele><time>2026-04-03T11:27:01Z</time></trkpt><trkpt lat="44.07577781276342" lon="11.72622779663909"><ele>503.0</ele><time>2026-04-03T11:27:02Z</time></trkpt><trkpt lat="44.07585756589271" lon="11.726441623518996"><ele>503.0</ele><time>2026-04-03T11:27:03Z</time></trkpt><trkpt lat="44.07584483605992" lon="11.72664805824794"><ele>503.0</ele><time>2026-04-03T11:27:04Z</time></trkpt><trkpt lat="44.07582865424056" lon="11.726976719510779"><ele>501.5</ele><time>2026-04-03T11:27:05Z</time></trkpt><trkpt lat="44.07586797812404" lon="11.727230329189565"><ele>500.0</ele><time>2026-04-03T11:27:06Z</time></trkpt><trkpt lat="44.07583227949995" lon="11.72741155908657"><ele>498.5</ele><time>2026-04-03T11:27:07Z</time></trkpt><trkpt lat="44.07579454285177" lon="11.727556347993504"><ele>497.0</ele><time>2026-04-03T11:27:08Z</time></trkpt><trkpt lat="44.07570294888522" lon="11.727668008161375"><ele>491.20000000000005</ele><time>2026-04-03T11:27:09Z</time></trkpt><trkpt lat="44.07560024991454" lon="11.72775565654009"><ele>485.40000000000003</ele><time>2026-04-03T11:27:10Z</time></trkpt><trkpt lat="44.07550022985974" lon="11.727858890847948"><ele>479.59999999999997</ele><time>2026-04-03T11:27:11Z</time></trkpt><trkpt lat="44.07543188430272" lon="11.727961823056532"><ele>473.79999999999995</ele><time>2026-04-03T11:27:12Z</time></trkpt><trkpt lat="44.075396745946975" lon="11.728093539319726"><ele>468.0</ele><time>2026-04-03T11:27:13Z</time></trkpt><trkpt lat="44.075414887580855" lon="11.72826746174801"><ele>468.0</ele><time>2026-04-03T11:27:14Z</time></trkpt><trkpt lat="44.075466411414894" lon="11.728463162031805"><ele>468.0</ele><time>2026-04-03T11:27:15Z</time></trkpt><trkpt lat="44.07554319261508" lon="11.728699599258915"><ele>468.0</ele><time>2026-04-03T11:27:16Z</time></trkpt><trkpt lat="44.075599824359685" lon="11.728875638727313"><ele>464.75</ele><time>2026-04-03T11:27:17Z</time></trkpt><trkpt lat="44.07562905057662" lon="11.729001014475593"><ele>461.5</ele><time>2026-04-03T11:27:18Z</time></trkpt><trkpt lat="44.075534573196954" lon="11.729033360693599"><ele>458.25</ele><time>2026-04-03T11:27:21Z</time></trkpt><trkpt lat="44.0754529144936" lon="11.728908972719273"><ele>455.0</ele><time>2026-04-03T11:27:22Z</time></trkpt><trkpt lat="44.07539822770009" lon="11.728699012987557"><ele>459.3333333333333</ele><time>2026-04-03T11:27:23Z</time></trkpt><trkpt lat="44.07532143929152" lon="11.728501108787569"><ele>463.66666666666663</ele><time>2026-04-03T11:27:24Z</time></trkpt><trkpt lat="44.07521112713735" lon="11.728318762946477"><ele>468.0</ele><time>2026-04-03T11:27:25Z</time></trkpt><trkpt lat="44.0751036645861" lon="11.72820084006309"><ele>468.0</ele><time>2026-04-03T11:27:26Z</time></trkpt><trkpt lat="44.07500226206648" lon="11.728127526141549"><ele>467.99999999999994</ele><time>2026-04-03T11:27:27Z</time></trkpt><trkpt lat="44.074940679125405" lon="11.728103418933552"><ele>467.99999999999994</ele><time>2026-04-03T11:27:28Z</time></trkpt><trkpt lat="44.07484064297203" lon="11.728220601245416"><ele>468.0</ele><time>2026-04-03T11:27:30Z</time></trkpt><trkpt lat="44.07486988362757" lon="11.728378619070186"><ele>468.0</ele><time>2026-04-03T11:27:31Z</time></trkpt><trkpt lat="44.07501342182848" lon="11.728455109000166"><ele>464.75</ele><time>2026-04-03T11:27:32Z</time></trkpt><trkpt lat="44.07512276359982" lon="11.728584686011642"><ele>461.5</ele><time>2026-04-03T11:27:33Z</time></trkpt><trkpt lat="44.07517884289394" lon="11.728764156173987"><ele>458.25</ele><time>2026-04-03T11:27:34Z</time></trkpt><trkpt lat="44.07517887764379" lon="11.728991832390918"><ele>455.0</ele><time>2026-04-03T11:27:35Z</time></trkpt><trkpt lat="44.07520126584808" lon="11.729207466608408"><ele>448.3333333333333</ele><time>2026-04-03T11:27:36Z</time></trkpt><trkpt lat="44.07528795667908" lon="11.72941845438441"><ele>441.66666666666663</ele><time>2026-04-03T11:27:37Z</time></trkpt><trkpt lat="44.075355811299765" lon="11.729638309424786"><ele>435.0</ele><time>2026-04-03T11:27:38Z</time></trkpt><trkpt lat="44.075383375414425" lon="11.729837640944366"><ele>435.0</ele><time>2026-04-03T11:27:39Z</time></trkpt><trkpt lat="44.07540656323509" lon="11.730006919950222"><ele>435.0</ele><time>2026-04-03T11:27:40Z</time></trkpt><trkpt lat="44.0754354718516" lon="11.730138043264988"><ele>435.0</ele><time>2026-04-03T11:27:41Z</time></trkpt><trkpt lat="44.07548069872266" lon="11.730244080815465"><ele>435.0</ele><time>2026-04-03T11:27:42Z</time></trkpt><trkpt lat="44.07556742512781" lon="11.730299495609664"><ele>435.0</ele><time>2026-04-03T11:27:43Z</time></trkpt><trkpt lat="44.07564975618766" lon="11.730249394177529"><ele>439.66666666666663</ele><time>2026-04-03T11:27:44Z</time></trkpt><trkpt lat="44.07578635615686" lon="11.730105979949373"><ele>444.3333333333333</ele><time>2026-04-03T11:27:45Z</time></trkpt><trkpt lat="44.07593344924727" lon="11.729967199014068"><ele>449.0</ele><time>2026-04-03T11:27:46Z</time></trkpt><trkpt lat="44.07606602146874" lon="11.729862388904628"><ele>449.0</ele><time>2026-04-03T11:27:47Z</time></trkpt><trkpt lat="44.0761991776524" lon="11.72981013073476"><ele>449.0</ele><time>2026-04-03T11:27:48Z</time></trkpt><trkpt lat="44.07633741107399" lon="11.729827492274065"><ele>449.0</ele><time>2026-04-03T11:27:49Z</time></trkpt><trkpt lat="44.07650916687985" lon="11.729835673603924"><ele>449.0</ele><time>2026-04-03T11:27:50Z</time></trkpt><trkpt lat="44.07666643136939" lon="11.729847737835488"><ele>447.0</ele><time>2026-04-03T11:27:51Z</time></trkpt><trkpt lat="44.07677247849605" lon="11.729866285233157"><ele>445.0</ele><time>2026-04-03T11:27:52Z</time></trkpt><trkpt lat="44.07684105278297" lon="11.729906411908908"><ele>443.0</ele><time>2026-04-03T11:27:53Z</time></trkpt><trkpt lat="44.07689161159565" lon="11.72997078955235"><ele>441.0</ele><time>2026-04-03T11:27:54Z</time></trkpt><trkpt lat="44.07686648160697" lon="11.730149113633486"><ele>439.0</ele><time>2026-04-03T11:27:55Z</time></trkpt><trkpt lat="44.07686875208687" lon="11.730357653333517"><ele>434.25</ele><time>2026-04-03T11:27:56Z</time></trkpt><trkpt lat="44.07688052705983" lon="11.730542736092612"><ele>429.5</ele><time>2026-04-03T11:27:57Z</time></trkpt><trkpt lat="44.076949596004155" lon="11.730703847556589"><ele>424.75</ele><time>2026-04-03T11:27:58Z</time></trkpt><trkpt lat="44.077033315982035" lon="11.730869670638553"><ele>420.0</ele><time>2026-04-03T11:27:59Z</time></trkpt><trkpt lat="44.07711517281996" lon="11.731070398606953"><ele>419.6</ele><time>2026-04-03T11:28:00Z</time></trkpt><trkpt lat="44.07719421759831" lon="11.731234497955205"><ele>419.2</ele><time>2026-04-03T11:28:01Z</time></trkpt><trkpt lat="44.077254671084944" lon="11.731375090810344"><ele>418.79999999999995</ele><time>2026-04-03T11:28:02Z</time></trkpt><trkpt lat="44.07728550865458" lon="11.73147327759813"><ele>418.4</ele><time>2026-04-03T11:28:03Z</time></trkpt><trkpt lat="44.077273471018366" lon="11.73162283951799"><ele>418.0</ele><time>2026-04-03T11:28:05Z</time></trkpt><trkpt lat="44.077194704367436" lon="11.731628669816748"><ele>418.0</ele><time>2026-04-03T11:28:06Z</time></trkpt><trkpt lat="44.07709095982839" lon="11.73157428672805"><ele>418.0</ele><time>2026-04-03T11:28:07Z</time></trkpt><trkpt lat="44.07699045128637" lon="11.73151816573335"><ele>418.0</ele><time>2026-04-03T11:28:08Z</time></trkpt><trkpt lat="44.076875566506054" lon="11.731461186109943"><ele>418.0</ele><time>2026-04-03T11:28:09Z</time></trkpt><trkpt lat="44.0767764414994" lon="11.731432067258108"><ele>418.0</ele><time>2026-04-03T11:28:10Z</time></trkpt><trkpt lat="44.076681689994" lon="11.73140851642716"><ele>414.4</ele><time>2026-04-03T11:28:11Z</time></trkpt><trkpt lat="44.07660199751792" lon="11.7314059619093"><ele>410.79999999999995</ele><time>2026-04-03T11:28:12Z</time></trkpt><trkpt lat="44.07653508587797" lon="11.731439396784262"><ele>407.2</ele><time>2026-04-03T11:28:13Z</time></trkpt><trkpt lat="44.07646383073789" lon="11.731510355692883"><ele>403.6</ele><time>2026-04-03T11:28:14Z</time></trkpt><trkpt lat="44.07641670615643" lon="11.731657316735879"><ele>400.0</ele><time>2026-04-03T11:28:15Z</time></trkpt><trkpt lat="44.076359403214084" lon="11.731799988950513"><ele>397.6</ele><time>2026-04-03T11:28:16Z</time></trkpt><trkpt lat="44.07631923671965" lon="11.731925800985378"><ele>395.2</ele><time>2026-04-03T11:28:17Z</time></trkpt><trkpt lat="44.07629076275524" lon="11.732030101787359"><ele>392.79999999999995</ele><time>2026-04-03T11:28:18Z</time></trkpt><trkpt lat="44.076274263674634" lon="11.732156881010177"><ele>390.4</ele><time>2026-04-03T11:28:19Z</time></trkpt><trkpt lat="44.07627890458779" lon="11.732285174463541"><ele>388.0</ele><time>2026-04-03T11:28:20Z</time></trkpt><trkpt lat="44.076307268184806" lon="11.732415391072754"><ele>388.0</ele><time>2026-04-03T11:28:21Z</time></trkpt><trkpt lat="44.07634080112733" lon="11.73256089687458"><ele>388.0</ele><time>2026-04-03T11:28:22Z</time></trkpt><trkpt lat="44.076399214883885" lon="11.732686439370688"><ele>388.0</ele><time>2026-04-03T11:28:23Z</time></trkpt><trkpt lat="44.076440929698386" lon="11.732798817125813"><ele>388.0</ele><time>2026-04-03T11:28:24Z</time></trkpt><trkpt lat="44.07646101764704" lon="11.732912924487648"><ele>388.0</ele><time>2026-04-03T11:28:25Z</time></trkpt><trkpt lat="44.076436855993784" lon="11.733028117617454"><ele>387.1666666666667</ele><time>2026-04-03T11:28:26Z</time></trkpt><trkpt lat="44.076392367579565" lon="11.733142887848173"><ele>386.33333333333337</ele><time>2026-04-03T11:28:27Z</time></trkpt><trkpt lat="44.076307334530746" lon="11.733215756439924"><ele>385.5</ele><time>2026-04-03T11:28:28Z</time></trkpt><trkpt lat="44.07626701154997" lon="11.733342081659579"><ele>384.6666666666667</ele><time>2026-04-03T11:28:29Z</time></trkpt><trkpt lat="44.07622413186173" lon="11.733443962198518"><ele>383.83333333333337</ele><time>2026-04-03T11:28:30Z</time></trkpt><trkpt lat="44.076188535215095" lon="11.733526364776882"><ele>383.0</ele><time>2026-04-03T11:28:31Z</time></trkpt><trkpt lat="44.07618665451293" lon="11.733628445881022"><ele>381.2</ele><time>2026-04-03T11:28:32Z</time></trkpt><trkpt lat="44.076212206118115" lon="11.733742040959704"><ele>379.4</ele><time>2026-04-03T11:28:33Z</time></trkpt><trkpt lat="44.07625384444988" lon="11.733872955713906"><ele>377.59999999999997</ele><time>2026-04-03T11:28:34Z</time></trkpt><trkpt lat="44.076307935939106" lon="11.733993723748712"><ele>375.79999999999995</ele><time>2026-04-03T11:28:34.999Z</time></trkpt><trkpt lat="44.07634818200873" lon="11.734125932907407"><ele>374.0</ele><time>2026-04-03T11:28:35.999Z</time></trkpt><trkpt lat="44.076372356205994" lon="11.734250852176226"><ele>373.0</ele><time>2026-04-03T11:28:36.999Z</time></trkpt><trkpt lat="44.07639238673776" lon="11.734397679718121"><ele>372.0</ele><time>2026-04-03T11:28:37.999Z</time></trkpt><trkpt lat="44.07639783613548" lon="11.73454471111691"><ele>371.0</ele><time>2026-04-03T11:28:38.999Z</time></trkpt><trkpt lat="44.07638307948598" lon="11.734679317197402"><ele>370.0</ele><time>2026-04-03T11:28:39.999Z</time></trkpt><trkpt lat="44.07636207485066" lon="11.734824017671107"><ele>369.0</ele><time>2026-04-03T11:28:40.999Z</time></trkpt><trkpt lat="44.076332654971274" lon="11.734976768563099"><ele>369.0</ele><time>2026-04-03T11:28:41.999Z</time></trkpt><trkpt lat="44.076292461459026" lon="11.735124256350232"><ele>369.0</ele><time>2026-04-03T11:28:42.999Z</time></trkpt><trkpt lat="44.07624440666201" lon="11.73527759642905"><ele>369.0</ele><time>2026-04-03T11:28:43.999Z</time></trkpt><trkpt lat="44.076186497737105" lon="11.735425770142081"><ele>369.0</ele><time>2026-04-03T11:28:44.999Z</time></trkpt><trkpt lat="44.07613732486445" lon="11.735565756299529"><ele>368.0</ele><time>2026-04-03T11:28:45.999Z</time></trkpt><trkpt lat="44.076100645987445" lon="11.735692305323779"><ele>367.0</ele><time>2026-04-03T11:28:46.999Z</time></trkpt><trkpt lat="44.07610477130028" lon="11.735839195911725"><ele>366.0</ele><time>2026-04-03T11:28:47.999Z</time></trkpt><trkpt lat="44.076099202361846" lon="11.735980476079863"><ele>365.0</ele><time>2026-04-03T11:28:48.999Z</time></trkpt><trkpt lat="44.0761582582103" lon="11.736115317153411"><ele>364.0</ele><time>2026-04-03T11:28:49.999Z</time></trkpt><trkpt lat="44.07617739248958" lon="11.736246005532518"><ele>362.0</ele><time>2026-04-03T11:28:50.999Z</time></trkpt><trkpt lat="44.07621306084928" lon="11.736385492009285"><ele>360.0</ele><time>2026-04-03T11:28:51.999Z</time></trkpt><trkpt lat="44.0762608230149" lon="11.736506284551636"><ele>358.0</ele><time>2026-04-03T11:28:52.999Z</time></trkpt><trkpt lat="44.07628921667628" lon="11.736642041810416"><ele>356.0</ele><time>2026-04-03T11:28:53.999Z</time></trkpt><trkpt lat="44.076323209087455" lon="11.736781104990355"><ele>354.0</ele><time>2026-04-03T11:28:54.999Z</time></trkpt><trkpt lat="44.07635372435987" lon="11.736940084338027"><ele>352.0</ele><time>2026-04-03T11:28:56Z</time></trkpt><trkpt lat="44.07637525714106" lon="11.737115030010797"><ele>350.0</ele><time>2026-04-03T11:28:57Z</time></trkpt><trkpt lat="44.076411517904106" lon="11.737285734302784"><ele>348.0</ele><time>2026-04-03T11:28:58Z</time></trkpt><trkpt lat="44.07646495299091" lon="11.73744523196958"><ele>346.0</ele><time>2026-04-03T11:28:59Z</time></trkpt><trkpt lat="44.0765082236627" lon="11.737601203997468"><ele>345.4</ele><time>2026-04-03T11:29:00Z</time></trkpt><trkpt lat="44.07656134473047" lon="11.737745154011353"><ele>344.8</ele><time>2026-04-03T11:29:01Z</time></trkpt><trkpt lat="44.076635871981914" lon="11.737852952128165"><ele>344.2</ele><time>2026-04-03T11:29:02Z</time></trkpt><trkpt lat="44.07672291584905" lon="11.737950763689721"><ele>343.59999999999997</ele><time>2026-04-03T11:29:03Z</time></trkpt><trkpt lat="44.076777691641446" lon="11.738038877123891"><ele>343.0</ele><time>2026-04-03T11:29:04Z</time></trkpt><trkpt lat="44.07682727875707" lon="11.73811633410525"><ele>343.0</ele><time>2026-04-03T11:29:05Z</time></trkpt><trkpt lat="44.076849522374395" lon="11.738232740820552"><ele>343.0</ele><time>2026-04-03T11:29:07Z</time></trkpt><trkpt lat="44.07679490050645" lon="11.738350466022945"><ele>343.0</ele><time>2026-04-03T11:29:09Z</time></trkpt><trkpt lat="44.07673117494436" lon="11.738394423746298"><ele>343.0</ele><time>2026-04-03T11:29:10Z</time></trkpt><trkpt lat="44.07665732388685" lon="11.738394049788258"><ele>343.0</ele><time>2026-04-03T11:29:11Z</time></trkpt><trkpt lat="44.07658344626772" lon="11.738391100727004"><ele>343.0</ele><time>2026-04-03T11:29:12Z</time></trkpt><trkpt lat="44.07651287777137" lon="11.738396787540806"><ele>343.0</ele><time>2026-04-03T11:29:13Z</time></trkpt><trkpt lat="44.07644886311311" lon="11.738436392941018"><ele>343.0</ele><time>2026-04-03T11:29:14Z</time></trkpt><trkpt lat="44.076397278038385" lon="11.738506886764986"><ele>343.0</ele><time>2026-04-03T11:29:15Z</time></trkpt><trkpt lat="44.07636401418276" lon="11.738651249743558"><ele>343.0</ele><time>2026-04-03T11:29:17Z</time></trkpt><trkpt lat="44.07632424758428" lon="11.738730991613542"><ele>343.0</ele><time>2026-04-03T11:29:20Z</time></trkpt><trkpt lat="44.07629395536352" lon="11.738852393438252"><ele>343.0</ele><time>2026-04-03T11:29:24Z</time></trkpt><trkpt lat="44.076436589375575" lon="11.738958126588583"><ele>343.0</ele><time>2026-04-03T11:29:25Z</time></trkpt><trkpt lat="44.07652759432548" lon="11.739045907480186"><ele>343.0</ele><time>2026-04-03T11:29:26Z</time></trkpt><trkpt lat="44.076615813257675" lon="11.73916836511424"><ele>343.0</ele><time>2026-04-03T11:29:27Z</time></trkpt><trkpt lat="44.07670145305733" lon="11.739312910848271"><ele>343.0</ele><time>2026-04-03T11:29:28Z</time></trkpt><trkpt lat="44.0768101454462" lon="11.739469081951933"><ele>343.0</ele><time>2026-04-03T11:29:29Z</time></trkpt><trkpt lat="44.07693084687045" lon="11.739610398788386"><ele>343.0</ele><time>2026-04-03T11:29:30Z</time></trkpt><trkpt lat="44.07705571096921" lon="11.739799238964714"><ele>343.0</ele><time>2026-04-03T11:29:31Z</time></trkpt><trkpt lat="44.077185945534005" lon="11.73998366483062"><ele>343.0</ele><time>2026-04-03T11:29:32Z</time></trkpt><trkpt lat="44.07731816248518" lon="11.740163468580196"><ele>343.0</ele><time>2026-04-03T11:29:33Z</time></trkpt><trkpt lat="44.077467398140826" lon="11.740350183077611"><ele>343.0</ele><time>2026-04-03T11:29:34Z</time></trkpt><trkpt lat="44.07760296587955" lon="11.740559464044647"><ele>341.66666666666663</ele><time>2026-04-03T11:29:35Z</time></trkpt><trkpt lat="44.07773792516733" lon="11.740754511971849"><ele>340.3333333333333</ele><time>2026-04-03T11:29:36Z</time></trkpt><trkpt lat="44.077865920142486" lon="11.740939164340135"><ele>339.0</ele><time>2026-04-03T11:29:37Z</time></trkpt><trkpt lat="44.07799431647646" lon="11.741110724109605"><ele>339.3333333333333</ele><time>2026-04-03T11:29:38Z</time></trkpt><trkpt lat="44.07809215088132" lon="11.74129363221534"><ele>339.66666666666663</ele><time>2026-04-03T11:29:39Z</time></trkpt><trkpt lat="44.078204371441544" lon="11.741452421355905"><ele>340.0</ele><time>2026-04-03T11:29:40Z</time></trkpt><trkpt lat="44.07830903477732" lon="11.741600517154493"><ele>340.0</ele><time>2026-04-03T11:29:41Z</time></trkpt><trkpt lat="44.07840592054739" lon="11.741737608032508"><ele>340.0</ele><time>2026-04-03T11:29:42Z</time></trkpt><trkpt lat="44.078495410655" lon="11.741865496033743"><ele>340.0</ele><time>2026-04-03T11:29:43Z</time></trkpt><trkpt lat="44.07858187557876" lon="11.741991053041966"><ele>340.0</ele><time>2026-04-03T11:29:44Z</time></trkpt><trkpt lat="44.07866515132178" lon="11.742111979078802"><ele>339.0</ele><time>2026-04-03T11:29:45Z</time></trkpt><trkpt lat="44.07874042980028" lon="11.74222719386939"><ele>338.0</ele><time>2026-04-03T11:29:46Z</time></trkpt><trkpt lat="44.07880985153477" lon="11.742339827730415"><ele>337.0</ele><time>2026-04-03T11:29:47Z</time></trkpt><trkpt lat="44.0788325950827" lon="11.74249967967905"><ele>336.0</ele><time>2026-04-03T11:29:48Z</time></trkpt><trkpt lat="44.07888183172731" lon="11.742674663129346"><ele>336.0</ele><time>2026-04-03T11:29:49Z</time></trkpt><trkpt lat="44.078931582785614" lon="11.742846727356557"><ele>336.0</ele><time>2026-04-03T11:29:50Z</time></trkpt><trkpt lat="44.079000396263744" lon="11.743021458061177"><ele>336.0</ele><time>2026-04-03T11:29:51Z</time></trkpt><trkpt lat="44.079044385784236" lon="11.743184958864328"><ele>336.0</ele><time>2026-04-03T11:29:52Z</time></trkpt><trkpt lat="44.079087833695304" lon="11.743332354233212"><ele>336.20000000000005</ele><time>2026-04-03T11:29:53Z</time></trkpt><trkpt lat="44.07912629154561" lon="11.743465161021103"><ele>336.40000000000003</ele><time>2026-04-03T11:29:54Z</time></trkpt><trkpt lat="44.079164546294706" lon="11.743585293964468"><ele>336.6</ele><time>2026-04-03T11:29:55Z</time></trkpt><trkpt lat="44.07919897133566" lon="11.743736093633698"><ele>336.8</ele><time>2026-04-03T11:29:57Z</time></trkpt><trkpt lat="44.079182887854685" lon="11.74384044030199"><ele>337.0</ele><time>2026-04-03T11:30:00Z</time></trkpt><trkpt lat="44.07912219093087" lon="11.743889993020847"><ele>337.20000000000005</ele><time>2026-04-03T11:30:02Z</time></trkpt><trkpt lat="44.0789981117662" lon="11.743878040445392"><ele>337.4</ele><time>2026-04-03T11:30:04Z</time></trkpt><trkpt lat="44.078913629817336" lon="11.743891766896532"><ele>337.6</ele><time>2026-04-03T11:30:05Z</time></trkpt><trkpt lat="44.078842008765434" lon="11.743896040918715"><ele>337.79999999999995</ele><time>2026-04-03T11:30:06Z</time></trkpt><trkpt lat="44.0787595756464" lon="11.743862106944716"><ele>338.0</ele><time>2026-04-03T11:30:08Z</time></trkpt><trkpt lat="44.078713117796184" lon="11.743739148473178"><ele>338.0</ele><time>2026-04-03T11:30:10Z</time></trkpt><trkpt lat="44.07869489557246" lon="11.743585021008098"><ele>338.0</ele><time>2026-04-03T11:30:12Z</time></trkpt><trkpt lat="44.07867557666956" lon="11.743499010694995"><ele>336.0</ele><time>2026-04-03T11:30:14Z</time></trkpt></trkseg></trk></gpx>